<?xml version="1.0" encoding="UTF-8" standalone="no" ?>
<gpx xmlns="http://www.topografix.com/GPX/1/1" xmlns:xsi="http://www.w3.org/2001/XMLSchema-instance" xsi:schemaLocation="http://www.topografix.com/GPX/1/1 http://www.topografix.com/GPX/1/1/gpx.xsd" version="1.1" creator="VisuGPX - https://www.visugpx.com">
  <metadata>
    <name>Off Caroux 2010</name>
    <desc><![CDATA[Petit off dans le massif du Caroux]]></desc>
  </metadata>
  <trk>
    <name><![CDATA[Randocourse]]></name>
    <trkseg>
      <trkpt lat="43.57334" lon="2.96763">
        <ele>202.97546386719</ele>
        <time>2010-09-26T06:17:09Z</time>
      </trkpt>
      <trkpt lat="43.57334" lon="2.96763">
        <ele>202.49487304688</ele>
        <time>2010-09-26T06:17:10Z</time>
      </trkpt>
      <trkpt lat="43.57339" lon="2.96761">
        <ele>200.572265625</ele>
        <time>2010-09-26T06:17:15Z</time>
      </trkpt>
      <trkpt lat="43.57349" lon="2.96759">
        <ele>198.64953613281</ele>
        <time>2010-09-26T06:17:24Z</time>
      </trkpt>
      <trkpt lat="43.57359" lon="2.96756">
        <ele>197.68823242188</ele>
        <time>2010-09-26T06:17:32Z</time>
      </trkpt>
      <trkpt lat="43.57368" lon="2.96751">
        <ele>197.68823242188</ele>
        <time>2010-09-26T06:17:40Z</time>
      </trkpt>
      <trkpt lat="43.5737" lon="2.96743">
        <ele>198.64953613281</ele>
        <time>2010-09-26T06:17:45Z</time>
      </trkpt>
      <trkpt lat="43.57368" lon="2.96737">
        <ele>199.13012695312</ele>
        <time>2010-09-26T06:17:50Z</time>
      </trkpt>
      <trkpt lat="43.57362" lon="2.96735">
        <ele>199.61083984375</ele>
        <time>2010-09-26T06:17:55Z</time>
      </trkpt>
      <trkpt lat="43.57353" lon="2.96732">
        <ele>201.05285644531</ele>
        <time>2010-09-26T06:18:03Z</time>
      </trkpt>
      <trkpt lat="43.57346" lon="2.96729">
        <ele>200.572265625</ele>
        <time>2010-09-26T06:18:10Z</time>
      </trkpt>
      <trkpt lat="43.57337" lon="2.96727">
        <ele>201.53356933594</ele>
        <time>2010-09-26T06:18:18Z</time>
      </trkpt>
      <trkpt lat="43.57333" lon="2.96726">
        <ele>202.97546386719</ele>
        <time>2010-09-26T06:18:21Z</time>
      </trkpt>
      <trkpt lat="43.57333" lon="2.96723">
        <ele>203.45617675781</ele>
        <time>2010-09-26T06:18:23Z</time>
      </trkpt>
      <trkpt lat="43.57339" lon="2.96721">
        <ele>204.41748046875</ele>
        <time>2010-09-26T06:18:30Z</time>
      </trkpt>
      <trkpt lat="43.5735" lon="2.96721">
        <ele>207.30139160156</ele>
        <time>2010-09-26T06:18:39Z</time>
      </trkpt>
      <trkpt lat="43.57359" lon="2.96717">
        <ele>207.30139160156</ele>
        <time>2010-09-26T06:18:46Z</time>
      </trkpt>
      <trkpt lat="43.57367" lon="2.96714">
        <ele>206.82067871094</ele>
        <time>2010-09-26T06:18:53Z</time>
      </trkpt>
      <trkpt lat="43.57377" lon="2.96712">
        <ele>206.34008789062</ele>
        <time>2010-09-26T06:19:01Z</time>
      </trkpt>
      <trkpt lat="43.57386" lon="2.9671">
        <ele>206.34008789062</ele>
        <time>2010-09-26T06:19:08Z</time>
      </trkpt>
      <trkpt lat="43.57395" lon="2.96707">
        <ele>205.85949707031</ele>
        <time>2010-09-26T06:19:15Z</time>
      </trkpt>
      <trkpt lat="43.57404" lon="2.96703">
        <ele>205.37878417969</ele>
        <time>2010-09-26T06:19:23Z</time>
      </trkpt>
      <trkpt lat="43.57413" lon="2.96699">
        <ele>205.37878417969</ele>
        <time>2010-09-26T06:19:31Z</time>
      </trkpt>
      <trkpt lat="43.57424" lon="2.96691">
        <ele>206.82067871094</ele>
        <time>2010-09-26T06:19:40Z</time>
      </trkpt>
      <trkpt lat="43.57426" lon="2.96688">
        <ele>207.30139160156</ele>
        <time>2010-09-26T06:19:42Z</time>
      </trkpt>
      <trkpt lat="43.57432" lon="2.9668">
        <ele>208.74340820312</ele>
        <time>2010-09-26T06:19:48Z</time>
      </trkpt>
      <trkpt lat="43.57441" lon="2.96667">
        <ele>210.666015625</ele>
        <time>2010-09-26T06:19:58Z</time>
      </trkpt>
      <trkpt lat="43.5745" lon="2.96657">
        <ele>213.55004882812</ele>
        <time>2010-09-26T06:20:06Z</time>
      </trkpt>
      <trkpt lat="43.57464" lon="2.96653">
        <ele>212.58862304688</ele>
        <time>2010-09-26T06:20:12Z</time>
      </trkpt>
      <trkpt lat="43.57471" lon="2.96651">
        <ele>212.10803222656</ele>
        <time>2010-09-26T06:20:15Z</time>
      </trkpt>
      <trkpt lat="43.57484" lon="2.9664">
        <ele>210.666015625</ele>
        <time>2010-09-26T06:20:21Z</time>
      </trkpt>
      <trkpt lat="43.57486" lon="2.96639">
        <ele>210.18542480469</ele>
        <time>2010-09-26T06:20:22Z</time>
      </trkpt>
      <trkpt lat="43.57511" lon="2.96637">
        <ele>214.03063964844</ele>
        <time>2010-09-26T06:20:30Z</time>
      </trkpt>
      <trkpt lat="43.57529" lon="2.96641">
        <ele>221.72119140625</ele>
        <time>2010-09-26T06:20:35Z</time>
      </trkpt>
      <trkpt lat="43.5754" lon="2.96641">
        <ele>225.0859375</ele>
        <time>2010-09-26T06:20:39Z</time>
      </trkpt>
      <trkpt lat="43.57552" lon="2.96638">
        <ele>226.04711914062</ele>
        <time>2010-09-26T06:20:44Z</time>
      </trkpt>
      <trkpt lat="43.57565" lon="2.96634">
        <ele>228.45043945312</ele>
        <time>2010-09-26T06:20:49Z</time>
      </trkpt>
      <trkpt lat="43.57577" lon="2.96637">
        <ele>236.14099121094</ele>
        <time>2010-09-26T06:20:52Z</time>
      </trkpt>
      <trkpt lat="43.5759" lon="2.96643">
        <ele>246.71545410156</ele>
        <time>2010-09-26T06:20:54Z</time>
      </trkpt>
      <trkpt lat="43.57621" lon="2.96652">
        <ele>259.21264648438</ele>
        <time>2010-09-26T06:21:00Z</time>
      </trkpt>
      <trkpt lat="43.57634" lon="2.96654">
        <ele>269.30651855469</ele>
        <time>2010-09-26T06:21:05Z</time>
      </trkpt>
      <trkpt lat="43.57634" lon="2.96642">
        <ele>272.67114257812</ele>
        <time>2010-09-26T06:21:09Z</time>
      </trkpt>
      <trkpt lat="43.57636" lon="2.96638">
        <ele>275.07446289062</ele>
        <time>2010-09-26T06:21:11Z</time>
      </trkpt>
      <trkpt lat="43.57645" lon="2.96631">
        <ele>277.95825195312</ele>
        <time>2010-09-26T06:21:16Z</time>
      </trkpt>
      <trkpt lat="43.57657" lon="2.96632">
        <ele>281.32299804688</ele>
        <time>2010-09-26T06:21:20Z</time>
      </trkpt>
      <trkpt lat="43.57669" lon="2.96635">
        <ele>282.28430175781</ele>
        <time>2010-09-26T06:21:24Z</time>
      </trkpt>
      <trkpt lat="43.57676" lon="2.96633">
        <ele>289.01354980469</ele>
        <time>2010-09-26T06:21:27Z</time>
      </trkpt>
      <trkpt lat="43.5768" lon="2.96628">
        <ele>305.35595703125</ele>
        <time>2010-09-26T06:21:31Z</time>
      </trkpt>
      <trkpt lat="43.5769" lon="2.9663">
        <ele>317.85302734375</ele>
        <time>2010-09-26T06:21:35Z</time>
      </trkpt>
      <trkpt lat="43.57697" lon="2.96631">
        <ele>324.58227539062</ele>
        <time>2010-09-26T06:21:39Z</time>
      </trkpt>
      <trkpt lat="43.57696" lon="2.96629">
        <ele>328.90832519531</ele>
        <time>2010-09-26T06:21:42Z</time>
      </trkpt>
      <trkpt lat="43.57694" lon="2.96626">
        <ele>330.35021972656</ele>
        <time>2010-09-26T06:21:47Z</time>
      </trkpt>
      <trkpt lat="43.57685" lon="2.96608">
        <ele>309.68188476562</ele>
        <time>2010-09-26T06:22:04Z</time>
      </trkpt>
      <trkpt lat="43.57684" lon="2.966">
        <ele>303.43322753906</ele>
        <time>2010-09-26T06:22:13Z</time>
      </trkpt>
      <trkpt lat="43.57687" lon="2.96598">
        <ele>299.58801269531</ele>
        <time>2010-09-26T06:22:18Z</time>
      </trkpt>
      <trkpt lat="43.57688" lon="2.96592">
        <ele>295.74267578125</ele>
        <time>2010-09-26T06:22:24Z</time>
      </trkpt>
      <trkpt lat="43.57697" lon="2.96562">
        <ele>275.07446289062</ele>
        <time>2010-09-26T06:22:54Z</time>
      </trkpt>
      <trkpt lat="43.57705" lon="2.96555">
        <ele>272.67114257812</ele>
        <time>2010-09-26T06:23:08Z</time>
      </trkpt>
      <trkpt lat="43.57706" lon="2.9655">
        <ele>271.22912597656</ele>
        <time>2010-09-26T06:23:16Z</time>
      </trkpt>
      <trkpt lat="43.57707" lon="2.9654">
        <ele>257.2900390625</ele>
        <time>2010-09-26T06:23:27Z</time>
      </trkpt>
      <trkpt lat="43.57711" lon="2.96537">
        <ele>258.25134277344</ele>
        <time>2010-09-26T06:23:33Z</time>
      </trkpt>
      <trkpt lat="43.57706" lon="2.96529">
        <ele>258.25134277344</ele>
        <time>2010-09-26T06:23:43Z</time>
      </trkpt>
      <trkpt lat="43.57701" lon="2.96523">
        <ele>258.25134277344</ele>
        <time>2010-09-26T06:23:48Z</time>
      </trkpt>
      <trkpt lat="43.57705" lon="2.96521">
        <ele>258.73193359375</ele>
        <time>2010-09-26T06:23:53Z</time>
      </trkpt>
      <trkpt lat="43.57713" lon="2.96517">
        <ele>255.84802246094</ele>
        <time>2010-09-26T06:24:05Z</time>
      </trkpt>
      <trkpt lat="43.57723" lon="2.96511">
        <ele>257.77075195312</ele>
        <time>2010-09-26T06:24:17Z</time>
      </trkpt>
      <trkpt lat="43.57738" lon="2.96497">
        <ele>264.98059082031</ele>
        <time>2010-09-26T06:25:06Z</time>
      </trkpt>
      <trkpt lat="43.57746" lon="2.96495">
        <ele>255.36730957031</ele>
        <time>2010-09-26T06:25:34Z</time>
      </trkpt>
      <trkpt lat="43.57758" lon="2.96506">
        <ele>277.95825195312</ele>
        <time>2010-09-26T06:25:45Z</time>
      </trkpt>
      <trkpt lat="43.57764" lon="2.965">
        <ele>273.63244628906</ele>
        <time>2010-09-26T06:25:51Z</time>
      </trkpt>
      <trkpt lat="43.57766" lon="2.96498">
        <ele>268.82580566406</ele>
        <time>2010-09-26T06:25:55Z</time>
      </trkpt>
      <trkpt lat="43.57772" lon="2.96504">
        <ele>269.30651855469</ele>
        <time>2010-09-26T06:26:03Z</time>
      </trkpt>
      <trkpt lat="43.57775" lon="2.96508">
        <ele>270.26770019531</ele>
        <time>2010-09-26T06:26:08Z</time>
      </trkpt>
      <trkpt lat="43.57779" lon="2.96512">
        <ele>273.15185546875</ele>
        <time>2010-09-26T06:26:12Z</time>
      </trkpt>
      <trkpt lat="43.57781" lon="2.96515">
        <ele>276.51635742188</ele>
        <time>2010-09-26T06:26:20Z</time>
      </trkpt>
      <trkpt lat="43.57795" lon="2.96517">
        <ele>281.32299804688</ele>
        <time>2010-09-26T06:26:41Z</time>
      </trkpt>
      <trkpt lat="43.57798" lon="2.96521">
        <ele>278.43896484375</ele>
        <time>2010-09-26T06:26:48Z</time>
      </trkpt>
      <trkpt lat="43.578" lon="2.96523">
        <ele>279.40026855469</ele>
        <time>2010-09-26T06:26:56Z</time>
      </trkpt>
      <trkpt lat="43.578" lon="2.96518">
        <ele>279.880859375</ele>
        <time>2010-09-26T06:27:03Z</time>
      </trkpt>
      <trkpt lat="43.578" lon="2.96514">
        <ele>280.84240722656</ele>
        <time>2010-09-26T06:27:08Z</time>
      </trkpt>
      <trkpt lat="43.57804" lon="2.96516">
        <ele>282.28430175781</ele>
        <time>2010-09-26T06:27:16Z</time>
      </trkpt>
      <trkpt lat="43.57806" lon="2.96512">
        <ele>285.64880371094</ele>
        <time>2010-09-26T06:27:22Z</time>
      </trkpt>
      <trkpt lat="43.57805" lon="2.96506">
        <ele>288.05224609375</ele>
        <time>2010-09-26T06:27:28Z</time>
      </trkpt>
      <trkpt lat="43.57802" lon="2.96499">
        <ele>289.494140625</ele>
        <time>2010-09-26T06:27:34Z</time>
      </trkpt>
      <trkpt lat="43.578" lon="2.96495">
        <ele>290.93615722656</ele>
        <time>2010-09-26T06:27:38Z</time>
      </trkpt>
      <trkpt lat="43.57798" lon="2.9649">
        <ele>293.82006835938</ele>
        <time>2010-09-26T06:27:45Z</time>
      </trkpt>
      <trkpt lat="43.578" lon="2.96496">
        <ele>300.06872558594</ele>
        <time>2010-09-26T06:27:50Z</time>
      </trkpt>
      <trkpt lat="43.57807" lon="2.96497">
        <ele>298.62670898438</ele>
        <time>2010-09-26T06:28:08Z</time>
      </trkpt>
      <trkpt lat="43.57813" lon="2.96496">
        <ele>296.22351074219</ele>
        <time>2010-09-26T06:28:15Z</time>
      </trkpt>
      <trkpt lat="43.57813" lon="2.96491">
        <ele>300.06872558594</ele>
        <time>2010-09-26T06:28:22Z</time>
      </trkpt>
      <trkpt lat="43.57816" lon="2.96486">
        <ele>308.23986816406</ele>
        <time>2010-09-26T06:28:40Z</time>
      </trkpt>
      <trkpt lat="43.57819" lon="2.96479">
        <ele>309.68188476562</ele>
        <time>2010-09-26T06:28:50Z</time>
      </trkpt>
      <trkpt lat="43.57819" lon="2.96475">
        <ele>314.0078125</ele>
        <time>2010-09-26T06:29:03Z</time>
      </trkpt>
      <trkpt lat="43.57821" lon="2.96475">
        <ele>313.52722167969</ele>
        <time>2010-09-26T06:29:25Z</time>
      </trkpt>
      <trkpt lat="43.57819" lon="2.9647">
        <ele>313.52722167969</ele>
        <time>2010-09-26T06:29:30Z</time>
      </trkpt>
      <trkpt lat="43.57819" lon="2.96464">
        <ele>314.48840332031</ele>
        <time>2010-09-26T06:29:34Z</time>
      </trkpt>
      <trkpt lat="43.57821" lon="2.96458">
        <ele>317.85302734375</ele>
        <time>2010-09-26T06:29:40Z</time>
      </trkpt>
      <trkpt lat="43.5783" lon="2.96453">
        <ele>325.54357910156</ele>
        <time>2010-09-26T06:30:00Z</time>
      </trkpt>
      <trkpt lat="43.57831" lon="2.96452">
        <ele>325.06298828125</ele>
        <time>2010-09-26T06:30:01Z</time>
      </trkpt>
      <trkpt lat="43.57833" lon="2.96447">
        <ele>322.17895507812</ele>
        <time>2010-09-26T06:30:11Z</time>
      </trkpt>
      <trkpt lat="43.57838" lon="2.96446">
        <ele>322.65966796875</ele>
        <time>2010-09-26T06:30:16Z</time>
      </trkpt>
      <trkpt lat="43.57842" lon="2.96451">
        <ele>334.19543457031</ele>
        <time>2010-09-26T06:30:23Z</time>
      </trkpt>
      <trkpt lat="43.57845" lon="2.96449">
        <ele>334.67614746094</ele>
        <time>2010-09-26T06:30:27Z</time>
      </trkpt>
      <trkpt lat="43.57848" lon="2.9644">
        <ele>330.35021972656</ele>
        <time>2010-09-26T06:30:33Z</time>
      </trkpt>
      <trkpt lat="43.57847" lon="2.96435">
        <ele>326.02416992188</ele>
        <time>2010-09-26T06:30:36Z</time>
      </trkpt>
      <trkpt lat="43.57845" lon="2.96428">
        <ele>318.33361816406</ele>
        <time>2010-09-26T06:30:41Z</time>
      </trkpt>
      <trkpt lat="43.57846" lon="2.96422">
        <ele>316.89172363281</ele>
        <time>2010-09-26T06:30:46Z</time>
      </trkpt>
      <trkpt lat="43.57851" lon="2.96415">
        <ele>319.29504394531</ele>
        <time>2010-09-26T06:30:54Z</time>
      </trkpt>
      <trkpt lat="43.57853" lon="2.96411">
        <ele>318.81433105469</ele>
        <time>2010-09-26T06:30:59Z</time>
      </trkpt>
      <trkpt lat="43.57856" lon="2.96409">
        <ele>319.29504394531</ele>
        <time>2010-09-26T06:31:05Z</time>
      </trkpt>
      <trkpt lat="43.57856" lon="2.96405">
        <ele>317.85302734375</ele>
        <time>2010-09-26T06:31:09Z</time>
      </trkpt>
      <trkpt lat="43.57859" lon="2.96402">
        <ele>315.44982910156</ele>
        <time>2010-09-26T06:31:13Z</time>
      </trkpt>
      <trkpt lat="43.57861" lon="2.96399">
        <ele>314.48840332031</ele>
        <time>2010-09-26T06:31:17Z</time>
      </trkpt>
      <trkpt lat="43.57862" lon="2.96399">
        <ele>314.48840332031</ele>
        <time>2010-09-26T06:31:21Z</time>
      </trkpt>
      <trkpt lat="43.57868" lon="2.96394">
        <ele>316.41101074219</ele>
        <time>2010-09-26T06:31:25Z</time>
      </trkpt>
      <trkpt lat="43.57872" lon="2.96388">
        <ele>315.93041992188</ele>
        <time>2010-09-26T06:31:28Z</time>
      </trkpt>
      <trkpt lat="43.57872" lon="2.9638">
        <ele>316.89172363281</ele>
        <time>2010-09-26T06:31:32Z</time>
      </trkpt>
      <trkpt lat="43.57873" lon="2.96366">
        <ele>318.33361816406</ele>
        <time>2010-09-26T06:31:43Z</time>
      </trkpt>
      <trkpt lat="43.57877" lon="2.96355">
        <ele>318.33361816406</ele>
        <time>2010-09-26T06:31:50Z</time>
      </trkpt>
      <trkpt lat="43.5788" lon="2.9635">
        <ele>319.77563476562</ele>
        <time>2010-09-26T06:31:54Z</time>
      </trkpt>
      <trkpt lat="43.57883" lon="2.96346">
        <ele>321.2177734375</ele>
        <time>2010-09-26T06:32:00Z</time>
      </trkpt>
      <trkpt lat="43.57881" lon="2.96333">
        <ele>314.96911621094</ele>
        <time>2010-09-26T06:32:15Z</time>
      </trkpt>
      <trkpt lat="43.57886" lon="2.96332">
        <ele>317.85302734375</ele>
        <time>2010-09-26T06:32:23Z</time>
      </trkpt>
      <trkpt lat="43.57896" lon="2.96328">
        <ele>318.33361816406</ele>
        <time>2010-09-26T06:32:30Z</time>
      </trkpt>
      <trkpt lat="43.57902" lon="2.96321">
        <ele>318.33361816406</ele>
        <time>2010-09-26T06:32:35Z</time>
      </trkpt>
      <trkpt lat="43.57907" lon="2.9632">
        <ele>321.2177734375</ele>
        <time>2010-09-26T06:32:40Z</time>
      </trkpt>
      <trkpt lat="43.57911" lon="2.96316">
        <ele>320.25634765625</ele>
        <time>2010-09-26T06:32:45Z</time>
      </trkpt>
      <trkpt lat="43.57913" lon="2.9631">
        <ele>319.29504394531</ele>
        <time>2010-09-26T06:32:51Z</time>
      </trkpt>
      <trkpt lat="43.5792" lon="2.96311">
        <ele>317.85302734375</ele>
        <time>2010-09-26T06:32:57Z</time>
      </trkpt>
      <trkpt lat="43.57926" lon="2.96313">
        <ele>314.0078125</ele>
        <time>2010-09-26T06:33:03Z</time>
      </trkpt>
      <trkpt lat="43.57936" lon="2.96315">
        <ele>318.81433105469</ele>
        <time>2010-09-26T06:33:15Z</time>
      </trkpt>
      <trkpt lat="43.57951" lon="2.96319">
        <ele>327.94677734375</ele>
        <time>2010-09-26T06:33:30Z</time>
      </trkpt>
      <trkpt lat="43.5796" lon="2.96318">
        <ele>328.42761230469</ele>
        <time>2010-09-26T06:33:35Z</time>
      </trkpt>
      <trkpt lat="43.57966" lon="2.96317">
        <ele>328.90832519531</ele>
        <time>2010-09-26T06:33:39Z</time>
      </trkpt>
      <trkpt lat="43.57977" lon="2.96318">
        <ele>329.86950683594</ele>
        <time>2010-09-26T06:33:51Z</time>
      </trkpt>
      <trkpt lat="43.57996" lon="2.96321">
        <ele>328.42761230469</ele>
        <time>2010-09-26T06:34:18Z</time>
      </trkpt>
      <trkpt lat="43.58001" lon="2.9632">
        <ele>325.54357910156</ele>
        <time>2010-09-26T06:34:22Z</time>
      </trkpt>
      <trkpt lat="43.58003" lon="2.9632">
        <ele>324.58227539062</ele>
        <time>2010-09-26T06:34:26Z</time>
      </trkpt>
      <trkpt lat="43.58009" lon="2.96325">
        <ele>328.42761230469</ele>
        <time>2010-09-26T06:34:30Z</time>
      </trkpt>
      <trkpt lat="43.58015" lon="2.96331">
        <ele>334.67614746094</ele>
        <time>2010-09-26T06:34:34Z</time>
      </trkpt>
      <trkpt lat="43.58026" lon="2.96339">
        <ele>341.88598632812</ele>
        <time>2010-09-26T06:34:39Z</time>
      </trkpt>
      <trkpt lat="43.58027" lon="2.96333">
        <ele>332.27282714844</ele>
        <time>2010-09-26T06:34:42Z</time>
      </trkpt>
      <trkpt lat="43.58043" lon="2.96338">
        <ele>328.90832519531</ele>
        <time>2010-09-26T06:35:04Z</time>
      </trkpt>
      <trkpt lat="43.58047" lon="2.96337">
        <ele>329.38891601562</ele>
        <time>2010-09-26T06:35:09Z</time>
      </trkpt>
      <trkpt lat="43.58059" lon="2.9634">
        <ele>333.71472167969</ele>
        <time>2010-09-26T06:35:19Z</time>
      </trkpt>
      <trkpt lat="43.58062" lon="2.96337">
        <ele>332.27282714844</ele>
        <time>2010-09-26T06:35:24Z</time>
      </trkpt>
      <trkpt lat="43.58069" lon="2.96338">
        <ele>335.15673828125</ele>
        <time>2010-09-26T06:35:33Z</time>
      </trkpt>
      <trkpt lat="43.58074" lon="2.96342">
        <ele>341.88598632812</ele>
        <time>2010-09-26T06:35:41Z</time>
      </trkpt>
      <trkpt lat="43.58078" lon="2.96344">
        <ele>344.28942871094</ele>
        <time>2010-09-26T06:35:46Z</time>
      </trkpt>
      <trkpt lat="43.58082" lon="2.96348">
        <ele>350.05725097656</ele>
        <time>2010-09-26T06:35:50Z</time>
      </trkpt>
      <trkpt lat="43.58086" lon="2.96351">
        <ele>355.34448242188</ele>
        <time>2010-09-26T06:35:54Z</time>
      </trkpt>
      <trkpt lat="43.58093" lon="2.96348">
        <ele>351.49914550781</ele>
        <time>2010-09-26T06:36:01Z</time>
      </trkpt>
      <trkpt lat="43.58098" lon="2.96349">
        <ele>351.97985839844</ele>
        <time>2010-09-26T06:36:06Z</time>
      </trkpt>
      <trkpt lat="43.58097" lon="2.96341">
        <ele>347.65393066406</ele>
        <time>2010-09-26T06:36:23Z</time>
      </trkpt>
      <trkpt lat="43.58101" lon="2.9634">
        <ele>347.65393066406</ele>
        <time>2010-09-26T06:36:32Z</time>
      </trkpt>
      <trkpt lat="43.58111" lon="2.96343">
        <ele>354.38317871094</ele>
        <time>2010-09-26T06:36:42Z</time>
      </trkpt>
      <trkpt lat="43.58112" lon="2.96341">
        <ele>359.18969726562</ele>
        <time>2010-09-26T06:36:49Z</time>
      </trkpt>
      <trkpt lat="43.58116" lon="2.96345">
        <ele>363.51574707031</ele>
        <time>2010-09-26T06:36:54Z</time>
      </trkpt>
      <trkpt lat="43.58117" lon="2.96338">
        <ele>363.99633789062</ele>
        <time>2010-09-26T06:37:09Z</time>
      </trkpt>
      <trkpt lat="43.58125" lon="2.96335">
        <ele>366.39953613281</ele>
        <time>2010-09-26T06:37:21Z</time>
      </trkpt>
      <trkpt lat="43.5813" lon="2.9634">
        <ele>368.322265625</ele>
        <time>2010-09-26T06:37:36Z</time>
      </trkpt>
      <trkpt lat="43.58133" lon="2.96345">
        <ele>370.7255859375</ele>
        <time>2010-09-26T06:37:40Z</time>
      </trkpt>
      <trkpt lat="43.58134" lon="2.96345">
        <ele>368.322265625</ele>
        <time>2010-09-26T06:37:46Z</time>
      </trkpt>
      <trkpt lat="43.58143" lon="2.96323">
        <ele>382.26135253906</ele>
        <time>2010-09-26T06:38:29Z</time>
      </trkpt>
      <trkpt lat="43.58145" lon="2.96318">
        <ele>381.30004882812</ele>
        <time>2010-09-26T06:38:37Z</time>
      </trkpt>
      <trkpt lat="43.58147" lon="2.96313">
        <ele>381.30004882812</ele>
        <time>2010-09-26T06:38:41Z</time>
      </trkpt>
      <trkpt lat="43.58149" lon="2.96313">
        <ele>380.33874511719</ele>
        <time>2010-09-26T06:38:42Z</time>
      </trkpt>
      <trkpt lat="43.58152" lon="2.9631">
        <ele>377.45483398438</ele>
        <time>2010-09-26T06:38:46Z</time>
      </trkpt>
      <trkpt lat="43.58155" lon="2.96311">
        <ele>376.01281738281</ele>
        <time>2010-09-26T06:38:48Z</time>
      </trkpt>
      <trkpt lat="43.58161" lon="2.96311">
        <ele>375.53210449219</ele>
        <time>2010-09-26T06:38:53Z</time>
      </trkpt>
      <trkpt lat="43.5817" lon="2.96308">
        <ele>375.53210449219</ele>
        <time>2010-09-26T06:38:59Z</time>
      </trkpt>
      <trkpt lat="43.58174" lon="2.96304">
        <ele>374.57080078125</ele>
        <time>2010-09-26T06:39:04Z</time>
      </trkpt>
      <trkpt lat="43.58183" lon="2.96297">
        <ele>375.05151367188</ele>
        <time>2010-09-26T06:39:16Z</time>
      </trkpt>
      <trkpt lat="43.58191" lon="2.96292">
        <ele>375.53210449219</ele>
        <time>2010-09-26T06:39:22Z</time>
      </trkpt>
      <trkpt lat="43.58194" lon="2.96288">
        <ele>375.05151367188</ele>
        <time>2010-09-26T06:39:27Z</time>
      </trkpt>
      <trkpt lat="43.5821" lon="2.9628">
        <ele>375.53210449219</ele>
        <time>2010-09-26T06:39:50Z</time>
      </trkpt>
      <trkpt lat="43.58218" lon="2.96282">
        <ele>377.45483398438</ele>
        <time>2010-09-26T06:39:57Z</time>
      </trkpt>
      <trkpt lat="43.58221" lon="2.96285">
        <ele>378.89685058594</ele>
        <time>2010-09-26T06:40:02Z</time>
      </trkpt>
      <trkpt lat="43.58229" lon="2.96285">
        <ele>378.89685058594</ele>
        <time>2010-09-26T06:40:11Z</time>
      </trkpt>
      <trkpt lat="43.58232" lon="2.96281">
        <ele>378.41613769531</ele>
        <time>2010-09-26T06:40:14Z</time>
      </trkpt>
      <trkpt lat="43.58234" lon="2.96278">
        <ele>377.93542480469</ele>
        <time>2010-09-26T06:40:16Z</time>
      </trkpt>
      <trkpt lat="43.58234" lon="2.96271">
        <ele>379.85803222656</ele>
        <time>2010-09-26T06:40:20Z</time>
      </trkpt>
      <trkpt lat="43.58232" lon="2.96266">
        <ele>379.37744140625</ele>
        <time>2010-09-26T06:40:23Z</time>
      </trkpt>
      <trkpt lat="43.58233" lon="2.96261">
        <ele>378.89685058594</ele>
        <time>2010-09-26T06:40:26Z</time>
      </trkpt>
      <trkpt lat="43.58232" lon="2.96252">
        <ele>380.81945800781</ele>
        <time>2010-09-26T06:40:31Z</time>
      </trkpt>
      <trkpt lat="43.58236" lon="2.96252">
        <ele>377.45483398438</ele>
        <time>2010-09-26T06:40:36Z</time>
      </trkpt>
      <trkpt lat="43.58241" lon="2.96249">
        <ele>372.16748046875</ele>
        <time>2010-09-26T06:40:43Z</time>
      </trkpt>
      <trkpt lat="43.58245" lon="2.96249">
        <ele>371.68688964844</ele>
        <time>2010-09-26T06:40:47Z</time>
      </trkpt>
      <trkpt lat="43.58251" lon="2.96251">
        <ele>373.12890625</ele>
        <time>2010-09-26T06:40:52Z</time>
      </trkpt>
      <trkpt lat="43.58254" lon="2.96254">
        <ele>373.12890625</ele>
        <time>2010-09-26T06:40:55Z</time>
      </trkpt>
      <trkpt lat="43.58254" lon="2.96259">
        <ele>372.16748046875</ele>
        <time>2010-09-26T06:41:00Z</time>
      </trkpt>
      <trkpt lat="43.58263" lon="2.9625">
        <ele>365.9189453125</ele>
        <time>2010-09-26T06:41:15Z</time>
      </trkpt>
      <trkpt lat="43.58268" lon="2.96244">
        <ele>364.47692871094</ele>
        <time>2010-09-26T06:41:20Z</time>
      </trkpt>
      <trkpt lat="43.5827" lon="2.9624">
        <ele>361.59313964844</ele>
        <time>2010-09-26T06:41:25Z</time>
      </trkpt>
      <trkpt lat="43.58275" lon="2.96236">
        <ele>358.708984375</ele>
        <time>2010-09-26T06:41:30Z</time>
      </trkpt>
      <trkpt lat="43.58285" lon="2.9623">
        <ele>355.34448242188</ele>
        <time>2010-09-26T06:41:45Z</time>
      </trkpt>
      <trkpt lat="43.58285" lon="2.96223">
        <ele>353.90258789062</ele>
        <time>2010-09-26T06:41:53Z</time>
      </trkpt>
      <trkpt lat="43.58283" lon="2.96214">
        <ele>355.8251953125</ele>
        <time>2010-09-26T06:42:00Z</time>
      </trkpt>
      <trkpt lat="43.58286" lon="2.96207">
        <ele>356.78637695312</ele>
        <time>2010-09-26T06:42:09Z</time>
      </trkpt>
      <trkpt lat="43.58287" lon="2.96206">
        <ele>357.26708984375</ele>
        <time>2010-09-26T06:42:10Z</time>
      </trkpt>
      <trkpt lat="43.58294" lon="2.96202">
        <ele>356.78637695312</ele>
        <time>2010-09-26T06:42:16Z</time>
      </trkpt>
      <trkpt lat="43.58294" lon="2.96201">
        <ele>356.30578613281</ele>
        <time>2010-09-26T06:42:17Z</time>
      </trkpt>
      <trkpt lat="43.58298" lon="2.96197">
        <ele>355.34448242188</ele>
        <time>2010-09-26T06:42:23Z</time>
      </trkpt>
      <trkpt lat="43.583" lon="2.96196">
        <ele>354.86376953125</ele>
        <time>2010-09-26T06:42:24Z</time>
      </trkpt>
      <trkpt lat="43.58302" lon="2.96192">
        <ele>351.01843261719</ele>
        <time>2010-09-26T06:42:30Z</time>
      </trkpt>
      <trkpt lat="43.58303" lon="2.9619">
        <ele>349.57653808594</ele>
        <time>2010-09-26T06:42:35Z</time>
      </trkpt>
      <trkpt lat="43.58308" lon="2.96185">
        <ele>347.65393066406</ele>
        <time>2010-09-26T06:42:40Z</time>
      </trkpt>
      <trkpt lat="43.58313" lon="2.96181">
        <ele>346.21203613281</ele>
        <time>2010-09-26T06:42:45Z</time>
      </trkpt>
      <trkpt lat="43.58313" lon="2.96171">
        <ele>346.21203613281</ele>
        <time>2010-09-26T06:42:51Z</time>
      </trkpt>
      <trkpt lat="43.58313" lon="2.96169">
        <ele>345.73132324219</ele>
        <time>2010-09-26T06:42:53Z</time>
      </trkpt>
      <trkpt lat="43.58313" lon="2.96167">
        <ele>345.25061035156</ele>
        <time>2010-09-26T06:42:55Z</time>
      </trkpt>
      <trkpt lat="43.58311" lon="2.96161">
        <ele>345.25061035156</ele>
        <time>2010-09-26T06:43:01Z</time>
      </trkpt>
      <trkpt lat="43.58313" lon="2.96156">
        <ele>346.21203613281</ele>
        <time>2010-09-26T06:43:09Z</time>
      </trkpt>
      <trkpt lat="43.58315" lon="2.96153">
        <ele>346.69262695312</ele>
        <time>2010-09-26T06:43:15Z</time>
      </trkpt>
      <trkpt lat="43.58318" lon="2.96149">
        <ele>345.73132324219</ele>
        <time>2010-09-26T06:43:19Z</time>
      </trkpt>
      <trkpt lat="43.58321" lon="2.96147">
        <ele>344.28942871094</ele>
        <time>2010-09-26T06:43:23Z</time>
      </trkpt>
      <trkpt lat="43.58321" lon="2.96143">
        <ele>344.28942871094</ele>
        <time>2010-09-26T06:43:26Z</time>
      </trkpt>
      <trkpt lat="43.58327" lon="2.96132">
        <ele>344.28942871094</ele>
        <time>2010-09-26T06:43:31Z</time>
      </trkpt>
      <trkpt lat="43.58331" lon="2.96125">
        <ele>344.28942871094</ele>
        <time>2010-09-26T06:43:35Z</time>
      </trkpt>
      <trkpt lat="43.58337" lon="2.96119">
        <ele>345.25061035156</ele>
        <time>2010-09-26T06:43:39Z</time>
      </trkpt>
      <trkpt lat="43.58344" lon="2.96111">
        <ele>341.4052734375</ele>
        <time>2010-09-26T06:43:44Z</time>
      </trkpt>
      <trkpt lat="43.58347" lon="2.96106">
        <ele>339.48266601562</ele>
        <time>2010-09-26T06:43:47Z</time>
      </trkpt>
      <trkpt lat="43.58347" lon="2.96096">
        <ele>340.44409179688</ele>
        <time>2010-09-26T06:43:51Z</time>
      </trkpt>
      <trkpt lat="43.58346" lon="2.96086">
        <ele>339.00207519531</ele>
        <time>2010-09-26T06:43:57Z</time>
      </trkpt>
      <trkpt lat="43.58346" lon="2.96083">
        <ele>338.521484375</ele>
        <time>2010-09-26T06:44:00Z</time>
      </trkpt>
      <trkpt lat="43.58344" lon="2.96077">
        <ele>337.56005859375</ele>
        <time>2010-09-26T06:44:03Z</time>
      </trkpt>
      <trkpt lat="43.58344" lon="2.96066">
        <ele>335.63732910156</ele>
        <time>2010-09-26T06:44:08Z</time>
      </trkpt>
      <trkpt lat="43.58346" lon="2.96057">
        <ele>336.1181640625</ele>
        <time>2010-09-26T06:44:13Z</time>
      </trkpt>
      <trkpt lat="43.58348" lon="2.96051">
        <ele>337.07946777344</ele>
        <time>2010-09-26T06:44:18Z</time>
      </trkpt>
      <trkpt lat="43.58349" lon="2.96042">
        <ele>338.521484375</ele>
        <time>2010-09-26T06:44:24Z</time>
      </trkpt>
      <trkpt lat="43.58348" lon="2.96034">
        <ele>341.88598632812</ele>
        <time>2010-09-26T06:44:32Z</time>
      </trkpt>
      <trkpt lat="43.5835" lon="2.96026">
        <ele>343.32788085938</ele>
        <time>2010-09-26T06:44:39Z</time>
      </trkpt>
      <trkpt lat="43.58354" lon="2.96015">
        <ele>343.32788085938</ele>
        <time>2010-09-26T06:44:46Z</time>
      </trkpt>
      <trkpt lat="43.58356" lon="2.96004">
        <ele>346.21203613281</ele>
        <time>2010-09-26T06:44:49Z</time>
      </trkpt>
      <trkpt lat="43.58372" lon="2.95994">
        <ele>348.615234375</ele>
        <time>2010-09-26T06:44:55Z</time>
      </trkpt>
      <trkpt lat="43.58378" lon="2.95983">
        <ele>349.57653808594</ele>
        <time>2010-09-26T06:45:01Z</time>
      </trkpt>
      <trkpt lat="43.58379" lon="2.95978">
        <ele>349.57653808594</ele>
        <time>2010-09-26T06:45:03Z</time>
      </trkpt>
      <trkpt lat="43.58378" lon="2.95967">
        <ele>348.615234375</ele>
        <time>2010-09-26T06:45:08Z</time>
      </trkpt>
      <trkpt lat="43.58381" lon="2.95961">
        <ele>351.01843261719</ele>
        <time>2010-09-26T06:45:12Z</time>
      </trkpt>
      <trkpt lat="43.58378" lon="2.95958">
        <ele>351.97985839844</ele>
        <time>2010-09-26T06:45:19Z</time>
      </trkpt>
      <trkpt lat="43.58377" lon="2.95951">
        <ele>351.97985839844</ele>
        <time>2010-09-26T06:45:25Z</time>
      </trkpt>
      <trkpt lat="43.5838" lon="2.95946">
        <ele>350.53784179688</ele>
        <time>2010-09-26T06:45:30Z</time>
      </trkpt>
      <trkpt lat="43.58388" lon="2.95943">
        <ele>351.97985839844</ele>
        <time>2010-09-26T06:45:38Z</time>
      </trkpt>
      <trkpt lat="43.58393" lon="2.95921">
        <ele>367.36096191406</ele>
        <time>2010-09-26T06:46:16Z</time>
      </trkpt>
      <trkpt lat="43.58401" lon="2.95913">
        <ele>369.76428222656</ele>
        <time>2010-09-26T06:46:24Z</time>
      </trkpt>
      <trkpt lat="43.58403" lon="2.95909">
        <ele>370.24487304688</ele>
        <time>2010-09-26T06:46:28Z</time>
      </trkpt>
      <trkpt lat="43.58405" lon="2.95901">
        <ele>372.16748046875</ele>
        <time>2010-09-26T06:46:33Z</time>
      </trkpt>
      <trkpt lat="43.58414" lon="2.95894">
        <ele>368.80297851562</ele>
        <time>2010-09-26T06:46:48Z</time>
      </trkpt>
      <trkpt lat="43.58418" lon="2.95892">
        <ele>370.24487304688</ele>
        <time>2010-09-26T06:46:52Z</time>
      </trkpt>
      <trkpt lat="43.58427" lon="2.95892">
        <ele>372.64819335938</ele>
        <time>2010-09-26T06:47:11Z</time>
      </trkpt>
      <trkpt lat="43.58429" lon="2.95889">
        <ele>372.16748046875</ele>
        <time>2010-09-26T06:47:17Z</time>
      </trkpt>
      <trkpt lat="43.58432" lon="2.95883">
        <ele>371.20629882812</ele>
        <time>2010-09-26T06:47:44Z</time>
      </trkpt>
      <trkpt lat="43.58432" lon="2.9588">
        <ele>369.28369140625</ele>
        <time>2010-09-26T06:47:46Z</time>
      </trkpt>
      <trkpt lat="43.58439" lon="2.95877">
        <ele>368.322265625</ele>
        <time>2010-09-26T06:47:51Z</time>
      </trkpt>
      <trkpt lat="43.58448" lon="2.95872">
        <ele>360.15112304688</ele>
        <time>2010-09-26T06:48:06Z</time>
      </trkpt>
      <trkpt lat="43.58461" lon="2.95878">
        <ele>362.55432128906</ele>
        <time>2010-09-26T06:48:27Z</time>
      </trkpt>
      <trkpt lat="43.58463" lon="2.9588">
        <ele>363.51574707031</ele>
        <time>2010-09-26T06:48:34Z</time>
      </trkpt>
      <trkpt lat="43.58466" lon="2.95884">
        <ele>369.76428222656</ele>
        <time>2010-09-26T06:48:43Z</time>
      </trkpt>
      <trkpt lat="43.5847" lon="2.95877">
        <ele>368.322265625</ele>
        <time>2010-09-26T06:48:55Z</time>
      </trkpt>
      <trkpt lat="43.58475" lon="2.9588">
        <ele>371.68688964844</ele>
        <time>2010-09-26T06:50:11Z</time>
      </trkpt>
      <trkpt lat="43.58481" lon="2.95884">
        <ele>367.84155273438</ele>
        <time>2010-09-26T06:50:36Z</time>
      </trkpt>
      <trkpt lat="43.58485" lon="2.95886">
        <ele>365.9189453125</ele>
        <time>2010-09-26T06:50:41Z</time>
      </trkpt>
      <trkpt lat="43.58488" lon="2.95884">
        <ele>364.95764160156</ele>
        <time>2010-09-26T06:50:45Z</time>
      </trkpt>
      <trkpt lat="43.58501" lon="2.95882">
        <ele>363.03503417969</ele>
        <time>2010-09-26T06:51:01Z</time>
      </trkpt>
      <trkpt lat="43.58509" lon="2.95878">
        <ele>366.88024902344</ele>
        <time>2010-09-26T06:51:13Z</time>
      </trkpt>
      <trkpt lat="43.58511" lon="2.95871">
        <ele>367.84155273438</ele>
        <time>2010-09-26T06:51:19Z</time>
      </trkpt>
      <trkpt lat="43.58515" lon="2.95862">
        <ele>366.39953613281</ele>
        <time>2010-09-26T06:51:27Z</time>
      </trkpt>
      <trkpt lat="43.58516" lon="2.95857">
        <ele>363.03503417969</ele>
        <time>2010-09-26T06:51:31Z</time>
      </trkpt>
      <trkpt lat="43.58517" lon="2.95848">
        <ele>362.07373046875</ele>
        <time>2010-09-26T06:51:37Z</time>
      </trkpt>
      <trkpt lat="43.58519" lon="2.95847">
        <ele>361.59313964844</ele>
        <time>2010-09-26T06:51:38Z</time>
      </trkpt>
      <trkpt lat="43.58524" lon="2.95843">
        <ele>361.11242675781</ele>
        <time>2010-09-26T06:51:42Z</time>
      </trkpt>
      <trkpt lat="43.58525" lon="2.9583">
        <ele>360.15112304688</ele>
        <time>2010-09-26T06:51:48Z</time>
      </trkpt>
      <trkpt lat="43.58524" lon="2.95822">
        <ele>362.07373046875</ele>
        <time>2010-09-26T06:51:52Z</time>
      </trkpt>
      <trkpt lat="43.58532" lon="2.95815">
        <ele>377.45483398438</ele>
        <time>2010-09-26T06:52:07Z</time>
      </trkpt>
      <trkpt lat="43.58535" lon="2.95813">
        <ele>377.45483398438</ele>
        <time>2010-09-26T06:52:14Z</time>
      </trkpt>
      <trkpt lat="43.58542" lon="2.9581">
        <ele>376.97424316406</ele>
        <time>2010-09-26T06:52:21Z</time>
      </trkpt>
      <trkpt lat="43.58546" lon="2.95806">
        <ele>370.7255859375</ele>
        <time>2010-09-26T06:52:25Z</time>
      </trkpt>
      <trkpt lat="43.5855" lon="2.95799">
        <ele>365.9189453125</ele>
        <time>2010-09-26T06:52:31Z</time>
      </trkpt>
      <trkpt lat="43.58554" lon="2.95797">
        <ele>363.03503417969</ele>
        <time>2010-09-26T06:52:35Z</time>
      </trkpt>
      <trkpt lat="43.58559" lon="2.95795">
        <ele>362.07373046875</ele>
        <time>2010-09-26T06:52:40Z</time>
      </trkpt>
      <trkpt lat="43.58562" lon="2.95791">
        <ele>362.07373046875</ele>
        <time>2010-09-26T06:52:46Z</time>
      </trkpt>
      <trkpt lat="43.58566" lon="2.9579">
        <ele>366.88024902344</ele>
        <time>2010-09-26T06:52:51Z</time>
      </trkpt>
      <trkpt lat="43.58572" lon="2.95786">
        <ele>365.43835449219</ele>
        <time>2010-09-26T06:52:57Z</time>
      </trkpt>
      <trkpt lat="43.58574" lon="2.95783">
        <ele>361.59313964844</ele>
        <time>2010-09-26T06:52:59Z</time>
      </trkpt>
      <trkpt lat="43.58579" lon="2.95778">
        <ele>359.67041015625</ele>
        <time>2010-09-26T06:53:04Z</time>
      </trkpt>
      <trkpt lat="43.58583" lon="2.95776">
        <ele>356.30578613281</ele>
        <time>2010-09-26T06:53:08Z</time>
      </trkpt>
      <trkpt lat="43.58587" lon="2.95773">
        <ele>353.90258789062</ele>
        <time>2010-09-26T06:53:11Z</time>
      </trkpt>
      <trkpt lat="43.58594" lon="2.95772">
        <ele>353.90258789062</ele>
        <time>2010-09-26T06:53:16Z</time>
      </trkpt>
      <trkpt lat="43.586" lon="2.95771">
        <ele>351.97985839844</ele>
        <time>2010-09-26T06:53:21Z</time>
      </trkpt>
      <trkpt lat="43.58609" lon="2.95767">
        <ele>351.01843261719</ele>
        <time>2010-09-26T06:53:28Z</time>
      </trkpt>
      <trkpt lat="43.58622" lon="2.95764">
        <ele>351.97985839844</ele>
        <time>2010-09-26T06:53:42Z</time>
      </trkpt>
      <trkpt lat="43.58627" lon="2.95761">
        <ele>352.94116210938</ele>
        <time>2010-09-26T06:53:47Z</time>
      </trkpt>
      <trkpt lat="43.58636" lon="2.95755">
        <ele>356.30578613281</ele>
        <time>2010-09-26T06:53:58Z</time>
      </trkpt>
      <trkpt lat="43.58639" lon="2.95749">
        <ele>358.708984375</ele>
        <time>2010-09-26T06:54:03Z</time>
      </trkpt>
      <trkpt lat="43.58637" lon="2.95741">
        <ele>355.8251953125</ele>
        <time>2010-09-26T06:54:07Z</time>
      </trkpt>
      <trkpt lat="43.58634" lon="2.95729">
        <ele>363.99633789062</ele>
        <time>2010-09-26T06:54:14Z</time>
      </trkpt>
      <trkpt lat="43.58648" lon="2.95734">
        <ele>376.01281738281</ele>
        <time>2010-09-26T06:54:31Z</time>
      </trkpt>
      <trkpt lat="43.58652" lon="2.95739">
        <ele>374.09008789062</ele>
        <time>2010-09-26T06:54:37Z</time>
      </trkpt>
      <trkpt lat="43.58657" lon="2.95739">
        <ele>376.49353027344</ele>
        <time>2010-09-26T06:54:42Z</time>
      </trkpt>
      <trkpt lat="43.58655" lon="2.95731">
        <ele>368.322265625</ele>
        <time>2010-09-26T06:54:47Z</time>
      </trkpt>
      <trkpt lat="43.58654" lon="2.95725">
        <ele>356.78637695312</ele>
        <time>2010-09-26T06:54:59Z</time>
      </trkpt>
      <trkpt lat="43.58657" lon="2.95716">
        <ele>337.07946777344</ele>
        <time>2010-09-26T06:55:11Z</time>
      </trkpt>
      <trkpt lat="43.58663" lon="2.9573">
        <ele>320.73706054688</ele>
        <time>2010-09-26T06:55:41Z</time>
      </trkpt>
      <trkpt lat="43.58659" lon="2.95712">
        <ele>346.69262695312</ele>
        <time>2010-09-26T06:56:24Z</time>
      </trkpt>
      <trkpt lat="43.58664" lon="2.95698">
        <ele>348.615234375</ele>
        <time>2010-09-26T06:57:01Z</time>
      </trkpt>
      <trkpt lat="43.5867" lon="2.95705">
        <ele>343.80859375</ele>
        <time>2010-09-26T06:57:05Z</time>
      </trkpt>
      <trkpt lat="43.58678" lon="2.95723">
        <ele>339.48266601562</ele>
        <time>2010-09-26T06:57:21Z</time>
      </trkpt>
      <trkpt lat="43.58681" lon="2.95717">
        <ele>345.73132324219</ele>
        <time>2010-09-26T06:57:29Z</time>
      </trkpt>
      <trkpt lat="43.58682" lon="2.95706">
        <ele>352.46057128906</ele>
        <time>2010-09-26T06:57:33Z</time>
      </trkpt>
      <trkpt lat="43.58689" lon="2.95703">
        <ele>351.01843261719</ele>
        <time>2010-09-26T06:57:40Z</time>
      </trkpt>
      <trkpt lat="43.58693" lon="2.95706">
        <ele>348.13464355469</ele>
        <time>2010-09-26T06:57:43Z</time>
      </trkpt>
      <trkpt lat="43.58698" lon="2.95706">
        <ele>348.13464355469</ele>
        <time>2010-09-26T06:57:49Z</time>
      </trkpt>
      <trkpt lat="43.58704" lon="2.95701">
        <ele>346.69262695312</ele>
        <time>2010-09-26T06:57:55Z</time>
      </trkpt>
      <trkpt lat="43.58707" lon="2.95698">
        <ele>345.73132324219</ele>
        <time>2010-09-26T06:57:59Z</time>
      </trkpt>
      <trkpt lat="43.58713" lon="2.95697">
        <ele>344.28942871094</ele>
        <time>2010-09-26T06:58:05Z</time>
      </trkpt>
      <trkpt lat="43.5872" lon="2.95697">
        <ele>341.88598632812</ele>
        <time>2010-09-26T06:58:12Z</time>
      </trkpt>
      <trkpt lat="43.5873" lon="2.957">
        <ele>346.21203613281</ele>
        <time>2010-09-26T06:58:20Z</time>
      </trkpt>
      <trkpt lat="43.58742" lon="2.95694">
        <ele>353.421875</ele>
        <time>2010-09-26T06:58:33Z</time>
      </trkpt>
      <trkpt lat="43.58749" lon="2.957">
        <ele>353.90258789062</ele>
        <time>2010-09-26T06:58:38Z</time>
      </trkpt>
      <trkpt lat="43.58753" lon="2.95702">
        <ele>349.57653808594</ele>
        <time>2010-09-26T06:58:42Z</time>
      </trkpt>
      <trkpt lat="43.58766" lon="2.95702">
        <ele>351.97985839844</ele>
        <time>2010-09-26T06:58:56Z</time>
      </trkpt>
      <trkpt lat="43.58773" lon="2.95703">
        <ele>350.53784179688</ele>
        <time>2010-09-26T06:59:00Z</time>
      </trkpt>
      <trkpt lat="43.58777" lon="2.95703">
        <ele>351.49914550781</ele>
        <time>2010-09-26T06:59:04Z</time>
      </trkpt>
      <trkpt lat="43.58782" lon="2.95705">
        <ele>350.05725097656</ele>
        <time>2010-09-26T06:59:08Z</time>
      </trkpt>
      <trkpt lat="43.58784" lon="2.95705">
        <ele>349.57653808594</ele>
        <time>2010-09-26T06:59:09Z</time>
      </trkpt>
      <trkpt lat="43.5879" lon="2.95701">
        <ele>353.90258789062</ele>
        <time>2010-09-26T06:59:15Z</time>
      </trkpt>
      <trkpt lat="43.58797" lon="2.95701">
        <ele>354.86376953125</ele>
        <time>2010-09-26T06:59:19Z</time>
      </trkpt>
      <trkpt lat="43.58802" lon="2.95702">
        <ele>357.74780273438</ele>
        <time>2010-09-26T06:59:23Z</time>
      </trkpt>
      <trkpt lat="43.58808" lon="2.95704">
        <ele>370.7255859375</ele>
        <time>2010-09-26T06:59:29Z</time>
      </trkpt>
      <trkpt lat="43.58815" lon="2.95702">
        <ele>366.39953613281</ele>
        <time>2010-09-26T06:59:34Z</time>
      </trkpt>
      <trkpt lat="43.58821" lon="2.95701">
        <ele>367.84155273438</ele>
        <time>2010-09-26T06:59:40Z</time>
      </trkpt>
      <trkpt lat="43.58828" lon="2.95698">
        <ele>365.43835449219</ele>
        <time>2010-09-26T06:59:46Z</time>
      </trkpt>
      <trkpt lat="43.58839" lon="2.95697">
        <ele>361.11242675781</ele>
        <time>2010-09-26T06:59:53Z</time>
      </trkpt>
      <trkpt lat="43.58848" lon="2.95696">
        <ele>355.8251953125</ele>
        <time>2010-09-26T06:59:59Z</time>
      </trkpt>
      <trkpt lat="43.58853" lon="2.95695">
        <ele>356.78637695312</ele>
        <time>2010-09-26T07:00:03Z</time>
      </trkpt>
      <trkpt lat="43.58862" lon="2.95695">
        <ele>359.67041015625</ele>
        <time>2010-09-26T07:00:10Z</time>
      </trkpt>
      <trkpt lat="43.58867" lon="2.95695">
        <ele>363.03503417969</ele>
        <time>2010-09-26T07:00:14Z</time>
      </trkpt>
      <trkpt lat="43.58871" lon="2.95694">
        <ele>364.47692871094</ele>
        <time>2010-09-26T07:00:17Z</time>
      </trkpt>
      <trkpt lat="43.58876" lon="2.95689">
        <ele>365.43835449219</ele>
        <time>2010-09-26T07:00:21Z</time>
      </trkpt>
      <trkpt lat="43.58881" lon="2.9568">
        <ele>361.11242675781</ele>
        <time>2010-09-26T07:00:28Z</time>
      </trkpt>
      <trkpt lat="43.58887" lon="2.95673">
        <ele>356.78637695312</ele>
        <time>2010-09-26T07:00:34Z</time>
      </trkpt>
      <trkpt lat="43.58893" lon="2.95664">
        <ele>355.8251953125</ele>
        <time>2010-09-26T07:00:40Z</time>
      </trkpt>
      <trkpt lat="43.58894" lon="2.95645">
        <ele>359.67041015625</ele>
        <time>2010-09-26T07:00:48Z</time>
      </trkpt>
      <trkpt lat="43.58892" lon="2.95637">
        <ele>363.03503417969</ele>
        <time>2010-09-26T07:00:51Z</time>
      </trkpt>
      <trkpt lat="43.58887" lon="2.95625">
        <ele>365.43835449219</ele>
        <time>2010-09-26T07:00:57Z</time>
      </trkpt>
      <trkpt lat="43.58882" lon="2.95616">
        <ele>363.99633789062</ele>
        <time>2010-09-26T07:01:03Z</time>
      </trkpt>
      <trkpt lat="43.58875" lon="2.95605">
        <ele>365.43835449219</ele>
        <time>2010-09-26T07:01:10Z</time>
      </trkpt>
      <trkpt lat="43.58868" lon="2.95598">
        <ele>366.39953613281</ele>
        <time>2010-09-26T07:01:15Z</time>
      </trkpt>
      <trkpt lat="43.58862" lon="2.95587">
        <ele>371.20629882812</ele>
        <time>2010-09-26T07:01:21Z</time>
      </trkpt>
      <trkpt lat="43.58857" lon="2.95574">
        <ele>369.76428222656</ele>
        <time>2010-09-26T07:01:27Z</time>
      </trkpt>
      <trkpt lat="43.58858" lon="2.95559">
        <ele>365.9189453125</ele>
        <time>2010-09-26T07:01:32Z</time>
      </trkpt>
      <trkpt lat="43.58858" lon="2.95542">
        <ele>365.43835449219</ele>
        <time>2010-09-26T07:01:37Z</time>
      </trkpt>
      <trkpt lat="43.58848" lon="2.95527">
        <ele>364.47692871094</ele>
        <time>2010-09-26T07:01:43Z</time>
      </trkpt>
      <trkpt lat="43.58846" lon="2.95524">
        <ele>364.95764160156</ele>
        <time>2010-09-26T07:01:44Z</time>
      </trkpt>
      <trkpt lat="43.58841" lon="2.95517">
        <ele>363.51574707031</ele>
        <time>2010-09-26T07:01:47Z</time>
      </trkpt>
      <trkpt lat="43.58835" lon="2.95505">
        <ele>364.47692871094</ele>
        <time>2010-09-26T07:01:52Z</time>
      </trkpt>
      <trkpt lat="43.58829" lon="2.95495">
        <ele>364.95764160156</ele>
        <time>2010-09-26T07:01:56Z</time>
      </trkpt>
      <trkpt lat="43.58822" lon="2.95478">
        <ele>366.88024902344</ele>
        <time>2010-09-26T07:02:02Z</time>
      </trkpt>
      <trkpt lat="43.58817" lon="2.95461">
        <ele>367.36096191406</ele>
        <time>2010-09-26T07:02:08Z</time>
      </trkpt>
      <trkpt lat="43.58817" lon="2.95458">
        <ele>367.84155273438</ele>
        <time>2010-09-26T07:02:09Z</time>
      </trkpt>
      <trkpt lat="43.58808" lon="2.95446">
        <ele>369.28369140625</ele>
        <time>2010-09-26T07:02:14Z</time>
      </trkpt>
      <trkpt lat="43.58803" lon="2.95436">
        <ele>371.20629882812</ele>
        <time>2010-09-26T07:02:18Z</time>
      </trkpt>
      <trkpt lat="43.58793" lon="2.95418">
        <ele>374.57080078125</ele>
        <time>2010-09-26T07:02:25Z</time>
      </trkpt>
      <trkpt lat="43.5879" lon="2.95405">
        <ele>375.05151367188</ele>
        <time>2010-09-26T07:02:29Z</time>
      </trkpt>
      <trkpt lat="43.58786" lon="2.95394">
        <ele>376.97424316406</ele>
        <time>2010-09-26T07:02:33Z</time>
      </trkpt>
      <trkpt lat="43.58785" lon="2.9538">
        <ele>377.45483398438</ele>
        <time>2010-09-26T07:02:38Z</time>
      </trkpt>
      <trkpt lat="43.58783" lon="2.95365">
        <ele>379.37744140625</ele>
        <time>2010-09-26T07:02:42Z</time>
      </trkpt>
      <trkpt lat="43.58781" lon="2.9535">
        <ele>380.33874511719</ele>
        <time>2010-09-26T07:02:47Z</time>
      </trkpt>
      <trkpt lat="43.5878" lon="2.95333">
        <ele>383.22265625</ele>
        <time>2010-09-26T07:02:52Z</time>
      </trkpt>
      <trkpt lat="43.58778" lon="2.95312">
        <ele>384.18408203125</ele>
        <time>2010-09-26T07:02:58Z</time>
      </trkpt>
      <trkpt lat="43.58777" lon="2.9531">
        <ele>383.70324707031</ele>
        <time>2010-09-26T07:02:59Z</time>
      </trkpt>
      <trkpt lat="43.58776" lon="2.95299">
        <ele>382.74206542969</ele>
        <time>2010-09-26T07:03:03Z</time>
      </trkpt>
      <trkpt lat="43.58776" lon="2.95283">
        <ele>380.81945800781</ele>
        <time>2010-09-26T07:03:08Z</time>
      </trkpt>
      <trkpt lat="43.58776" lon="2.9527">
        <ele>380.33874511719</ele>
        <time>2010-09-26T07:03:12Z</time>
      </trkpt>
      <trkpt lat="43.58775" lon="2.95255">
        <ele>377.45483398438</ele>
        <time>2010-09-26T07:03:17Z</time>
      </trkpt>
      <trkpt lat="43.58778" lon="2.95242">
        <ele>376.49353027344</ele>
        <time>2010-09-26T07:03:22Z</time>
      </trkpt>
      <trkpt lat="43.58781" lon="2.95231">
        <ele>376.49353027344</ele>
        <time>2010-09-26T07:03:26Z</time>
      </trkpt>
      <trkpt lat="43.58785" lon="2.95217">
        <ele>379.37744140625</ele>
        <time>2010-09-26T07:03:31Z</time>
      </trkpt>
      <trkpt lat="43.58786" lon="2.95204">
        <ele>389.47119140625</ele>
        <time>2010-09-26T07:03:37Z</time>
      </trkpt>
      <trkpt lat="43.58786" lon="2.9519">
        <ele>398.60375976562</ele>
        <time>2010-09-26T07:03:42Z</time>
      </trkpt>
      <trkpt lat="43.58788" lon="2.95182">
        <ele>401.96850585938</ele>
        <time>2010-09-26T07:03:46Z</time>
      </trkpt>
      <trkpt lat="43.58794" lon="2.95175">
        <ele>403.41040039062</ele>
        <time>2010-09-26T07:03:50Z</time>
      </trkpt>
      <trkpt lat="43.58799" lon="2.95156">
        <ele>405.81372070312</ele>
        <time>2010-09-26T07:03:56Z</time>
      </trkpt>
      <trkpt lat="43.58801" lon="2.95149">
        <ele>405.3330078125</ele>
        <time>2010-09-26T07:03:58Z</time>
      </trkpt>
      <trkpt lat="43.58813" lon="2.95134">
        <ele>409.65905761719</ele>
        <time>2010-09-26T07:04:04Z</time>
      </trkpt>
      <trkpt lat="43.58825" lon="2.9513">
        <ele>407.25561523438</ele>
        <time>2010-09-26T07:04:10Z</time>
      </trkpt>
      <trkpt lat="43.5884" lon="2.95126">
        <ele>405.81372070312</ele>
        <time>2010-09-26T07:04:17Z</time>
      </trkpt>
      <trkpt lat="43.58842" lon="2.95125">
        <ele>406.29431152344</ele>
        <time>2010-09-26T07:04:18Z</time>
      </trkpt>
      <trkpt lat="43.58852" lon="2.95118">
        <ele>408.69763183594</ele>
        <time>2010-09-26T07:04:23Z</time>
      </trkpt>
      <trkpt lat="43.58863" lon="2.95116">
        <ele>408.69763183594</ele>
        <time>2010-09-26T07:04:28Z</time>
      </trkpt>
      <trkpt lat="43.58874" lon="2.95116">
        <ele>405.3330078125</ele>
        <time>2010-09-26T07:04:32Z</time>
      </trkpt>
      <trkpt lat="43.58883" lon="2.95113">
        <ele>406.77490234375</ele>
        <time>2010-09-26T07:04:36Z</time>
      </trkpt>
      <trkpt lat="43.58895" lon="2.95104">
        <ele>415.42687988281</ele>
        <time>2010-09-26T07:04:42Z</time>
      </trkpt>
      <trkpt lat="43.58907" lon="2.95098">
        <ele>417.349609375</ele>
        <time>2010-09-26T07:04:48Z</time>
      </trkpt>
      <trkpt lat="43.58918" lon="2.95094">
        <ele>418.79150390625</ele>
        <time>2010-09-26T07:04:53Z</time>
      </trkpt>
      <trkpt lat="43.58927" lon="2.95087">
        <ele>418.79150390625</ele>
        <time>2010-09-26T07:04:57Z</time>
      </trkpt>
      <trkpt lat="43.58937" lon="2.95085">
        <ele>420.2333984375</ele>
        <time>2010-09-26T07:05:01Z</time>
      </trkpt>
      <trkpt lat="43.5895" lon="2.95086">
        <ele>415.42687988281</ele>
        <time>2010-09-26T07:05:05Z</time>
      </trkpt>
      <trkpt lat="43.58964" lon="2.95088">
        <ele>409.17834472656</ele>
        <time>2010-09-26T07:05:11Z</time>
      </trkpt>
      <trkpt lat="43.58974" lon="2.9509">
        <ele>407.736328125</ele>
        <time>2010-09-26T07:05:16Z</time>
      </trkpt>
      <trkpt lat="43.58976" lon="2.95089">
        <ele>407.736328125</ele>
        <time>2010-09-26T07:05:17Z</time>
      </trkpt>
      <trkpt lat="43.58988" lon="2.95081">
        <ele>414.94616699219</ele>
        <time>2010-09-26T07:05:22Z</time>
      </trkpt>
      <trkpt lat="43.58996" lon="2.95078">
        <ele>415.90747070312</ele>
        <time>2010-09-26T07:05:25Z</time>
      </trkpt>
      <trkpt lat="43.59001" lon="2.95078">
        <ele>418.31079101562</ele>
        <time>2010-09-26T07:05:27Z</time>
      </trkpt>
      <trkpt lat="43.59011" lon="2.95079">
        <ele>427.92395019531</ele>
        <time>2010-09-26T07:05:32Z</time>
      </trkpt>
      <trkpt lat="43.59016" lon="2.95078">
        <ele>438.01782226562</ele>
        <time>2010-09-26T07:05:35Z</time>
      </trkpt>
      <trkpt lat="43.59021" lon="2.9508">
        <ele>444.7470703125</ele>
        <time>2010-09-26T07:05:38Z</time>
      </trkpt>
      <trkpt lat="43.59033" lon="2.95072">
        <ele>453.87963867188</ele>
        <time>2010-09-26T07:05:43Z</time>
      </trkpt>
      <trkpt lat="43.59041" lon="2.9507">
        <ele>460.60876464844</ele>
        <time>2010-09-26T07:05:47Z</time>
      </trkpt>
      <trkpt lat="43.59045" lon="2.95071">
        <ele>462.53137207031</ele>
        <time>2010-09-26T07:05:49Z</time>
      </trkpt>
      <trkpt lat="43.59057" lon="2.95074">
        <ele>458.20556640625</ele>
        <time>2010-09-26T07:05:54Z</time>
      </trkpt>
      <trkpt lat="43.59067" lon="2.95079">
        <ele>449.5537109375</ele>
        <time>2010-09-26T07:05:58Z</time>
      </trkpt>
      <trkpt lat="43.59072" lon="2.95082">
        <ele>443.30505371094</ele>
        <time>2010-09-26T07:06:00Z</time>
      </trkpt>
      <trkpt lat="43.5909" lon="2.95091">
        <ele>420.2333984375</ele>
        <time>2010-09-26T07:06:06Z</time>
      </trkpt>
      <trkpt lat="43.59101" lon="2.95091">
        <ele>408.69763183594</ele>
        <time>2010-09-26T07:06:11Z</time>
      </trkpt>
      <trkpt lat="43.59113" lon="2.95085">
        <ele>400.0458984375</ele>
        <time>2010-09-26T07:06:16Z</time>
      </trkpt>
      <trkpt lat="43.59122" lon="2.95076">
        <ele>393.79724121094</ele>
        <time>2010-09-26T07:06:21Z</time>
      </trkpt>
      <trkpt lat="43.59129" lon="2.95063">
        <ele>392.35534667969</ele>
        <time>2010-09-26T07:06:26Z</time>
      </trkpt>
      <trkpt lat="43.59137" lon="2.95052">
        <ele>389.47119140625</ele>
        <time>2010-09-26T07:06:30Z</time>
      </trkpt>
      <trkpt lat="43.59145" lon="2.95039">
        <ele>388.51000976562</ele>
        <time>2010-09-26T07:06:35Z</time>
      </trkpt>
      <trkpt lat="43.59158" lon="2.9502">
        <ele>388.99060058594</ele>
        <time>2010-09-26T07:06:43Z</time>
      </trkpt>
      <trkpt lat="43.5916" lon="2.95018">
        <ele>388.51000976562</ele>
        <time>2010-09-26T07:06:44Z</time>
      </trkpt>
      <trkpt lat="43.59169" lon="2.95004">
        <ele>390.91320800781</ele>
        <time>2010-09-26T07:06:50Z</time>
      </trkpt>
      <trkpt lat="43.59171" lon="2.95002">
        <ele>391.39379882812</ele>
        <time>2010-09-26T07:06:51Z</time>
      </trkpt>
      <trkpt lat="43.59181" lon="2.94989">
        <ele>393.79724121094</ele>
        <time>2010-09-26T07:06:57Z</time>
      </trkpt>
      <trkpt lat="43.5919" lon="2.94981">
        <ele>397.16174316406</ele>
        <time>2010-09-26T07:07:02Z</time>
      </trkpt>
      <trkpt lat="43.59197" lon="2.94971">
        <ele>403.41040039062</ele>
        <time>2010-09-26T07:07:07Z</time>
      </trkpt>
      <trkpt lat="43.59203" lon="2.94965">
        <ele>409.65905761719</ele>
        <time>2010-09-26T07:07:11Z</time>
      </trkpt>
      <trkpt lat="43.59211" lon="2.94968">
        <ele>415.42687988281</ele>
        <time>2010-09-26T07:07:16Z</time>
      </trkpt>
      <trkpt lat="43.59213" lon="2.94968">
        <ele>416.86889648438</ele>
        <time>2010-09-26T07:07:17Z</time>
      </trkpt>
      <trkpt lat="43.59222" lon="2.94969">
        <ele>423.59802246094</ele>
        <time>2010-09-26T07:07:22Z</time>
      </trkpt>
      <trkpt lat="43.59224" lon="2.94968">
        <ele>426.48205566406</ele>
        <time>2010-09-26T07:07:23Z</time>
      </trkpt>
      <trkpt lat="43.59228" lon="2.94968">
        <ele>428.88537597656</ele>
        <time>2010-09-26T07:07:25Z</time>
      </trkpt>
      <trkpt lat="43.59237" lon="2.94967">
        <ele>431.76916503906</ele>
        <time>2010-09-26T07:07:30Z</time>
      </trkpt>
      <trkpt lat="43.59244" lon="2.94966">
        <ele>432.73071289062</ele>
        <time>2010-09-26T07:07:33Z</time>
      </trkpt>
      <trkpt lat="43.59259" lon="2.94969">
        <ele>429.36596679688</ele>
        <time>2010-09-26T07:07:39Z</time>
      </trkpt>
      <trkpt lat="43.59269" lon="2.94974">
        <ele>423.11743164062</ele>
        <time>2010-09-26T07:07:43Z</time>
      </trkpt>
      <trkpt lat="43.59277" lon="2.94978">
        <ele>420.2333984375</ele>
        <time>2010-09-26T07:07:46Z</time>
      </trkpt>
      <trkpt lat="43.59286" lon="2.94988">
        <ele>416.86889648438</ele>
        <time>2010-09-26T07:07:50Z</time>
      </trkpt>
      <trkpt lat="43.59288" lon="2.94991">
        <ele>417.349609375</ele>
        <time>2010-09-26T07:07:51Z</time>
      </trkpt>
      <trkpt lat="43.59299" lon="2.9501">
        <ele>417.83020019531</ele>
        <time>2010-09-26T07:07:58Z</time>
      </trkpt>
      <trkpt lat="43.59306" lon="2.95021">
        <ele>418.31079101562</ele>
        <time>2010-09-26T07:08:02Z</time>
      </trkpt>
      <trkpt lat="43.59314" lon="2.95035">
        <ele>417.83020019531</ele>
        <time>2010-09-26T07:08:08Z</time>
      </trkpt>
      <trkpt lat="43.59316" lon="2.95038">
        <ele>417.83020019531</ele>
        <time>2010-09-26T07:08:10Z</time>
      </trkpt>
      <trkpt lat="43.59323" lon="2.9505">
        <ele>417.83020019531</ele>
        <time>2010-09-26T07:08:15Z</time>
      </trkpt>
      <trkpt lat="43.59328" lon="2.9506">
        <ele>421.19482421875</ele>
        <time>2010-09-26T07:08:20Z</time>
      </trkpt>
      <trkpt lat="43.59336" lon="2.95071">
        <ele>422.15600585938</ele>
        <time>2010-09-26T07:08:24Z</time>
      </trkpt>
      <trkpt lat="43.59338" lon="2.95074">
        <ele>422.63671875</ele>
        <time>2010-09-26T07:08:25Z</time>
      </trkpt>
      <trkpt lat="43.59351" lon="2.95085">
        <ele>425.04016113281</ele>
        <time>2010-09-26T07:08:33Z</time>
      </trkpt>
      <trkpt lat="43.59354" lon="2.95086">
        <ele>426.00134277344</ele>
        <time>2010-09-26T07:08:34Z</time>
      </trkpt>
      <trkpt lat="43.59365" lon="2.95085">
        <ele>429.84655761719</ele>
        <time>2010-09-26T07:08:39Z</time>
      </trkpt>
      <trkpt lat="43.59373" lon="2.95087">
        <ele>432.73071289062</ele>
        <time>2010-09-26T07:08:43Z</time>
      </trkpt>
      <trkpt lat="43.59381" lon="2.95087">
        <ele>434.6533203125</ele>
        <time>2010-09-26T07:08:46Z</time>
      </trkpt>
      <trkpt lat="43.59383" lon="2.95086">
        <ele>436.09521484375</ele>
        <time>2010-09-26T07:08:47Z</time>
      </trkpt>
      <trkpt lat="43.59389" lon="2.95083">
        <ele>440.42126464844</ele>
        <time>2010-09-26T07:08:50Z</time>
      </trkpt>
      <trkpt lat="43.59399" lon="2.95081">
        <ele>450.51501464844</ele>
        <time>2010-09-26T07:08:56Z</time>
      </trkpt>
      <trkpt lat="43.5941" lon="2.9508">
        <ele>456.28295898438</ele>
        <time>2010-09-26T07:09:01Z</time>
      </trkpt>
      <trkpt lat="43.5942" lon="2.95085">
        <ele>453.39892578125</ele>
        <time>2010-09-26T07:09:06Z</time>
      </trkpt>
      <trkpt lat="43.59429" lon="2.95081">
        <ele>451.47631835938</ele>
        <time>2010-09-26T07:09:10Z</time>
      </trkpt>
      <trkpt lat="43.59449" lon="2.95074">
        <ele>439.45971679688</ele>
        <time>2010-09-26T07:09:17Z</time>
      </trkpt>
      <trkpt lat="43.59462" lon="2.95069">
        <ele>432.25</ele>
        <time>2010-09-26T07:09:22Z</time>
      </trkpt>
      <trkpt lat="43.59474" lon="2.95064">
        <ele>431.76916503906</ele>
        <time>2010-09-26T07:09:27Z</time>
      </trkpt>
      <trkpt lat="43.59483" lon="2.95062">
        <ele>432.25</ele>
        <time>2010-09-26T07:09:31Z</time>
      </trkpt>
      <trkpt lat="43.59484" lon="2.95061">
        <ele>432.25</ele>
        <time>2010-09-26T07:09:32Z</time>
      </trkpt>
      <trkpt lat="43.59495" lon="2.95056">
        <ele>437.05651855469</ele>
        <time>2010-09-26T07:09:41Z</time>
      </trkpt>
      <trkpt lat="43.59502" lon="2.95051">
        <ele>442.82446289062</ele>
        <time>2010-09-26T07:09:47Z</time>
      </trkpt>
      <trkpt lat="43.59509" lon="2.95046">
        <ele>445.70837402344</ele>
        <time>2010-09-26T07:09:53Z</time>
      </trkpt>
      <trkpt lat="43.5951" lon="2.95045">
        <ele>446.18908691406</ele>
        <time>2010-09-26T07:09:54Z</time>
      </trkpt>
      <trkpt lat="43.59518" lon="2.9504">
        <ele>446.18908691406</ele>
        <time>2010-09-26T07:10:00Z</time>
      </trkpt>
      <trkpt lat="43.59525" lon="2.95038">
        <ele>447.15026855469</ele>
        <time>2010-09-26T07:10:06Z</time>
      </trkpt>
      <trkpt lat="43.59533" lon="2.95036">
        <ele>447.63098144531</ele>
        <time>2010-09-26T07:10:12Z</time>
      </trkpt>
      <trkpt lat="43.59541" lon="2.95038">
        <ele>442.34387207031</ele>
        <time>2010-09-26T07:10:18Z</time>
      </trkpt>
      <trkpt lat="43.59551" lon="2.95034">
        <ele>437.537109375</ele>
        <time>2010-09-26T07:10:25Z</time>
      </trkpt>
      <trkpt lat="43.59561" lon="2.95034">
        <ele>434.6533203125</ele>
        <time>2010-09-26T07:10:31Z</time>
      </trkpt>
      <trkpt lat="43.59565" lon="2.95033">
        <ele>437.05651855469</ele>
        <time>2010-09-26T07:10:34Z</time>
      </trkpt>
      <trkpt lat="43.59573" lon="2.95026">
        <ele>448.59240722656</ele>
        <time>2010-09-26T07:10:42Z</time>
      </trkpt>
      <trkpt lat="43.59583" lon="2.95021">
        <ele>452.43762207031</ele>
        <time>2010-09-26T07:10:49Z</time>
      </trkpt>
      <trkpt lat="43.59592" lon="2.95016">
        <ele>452.43762207031</ele>
        <time>2010-09-26T07:10:56Z</time>
      </trkpt>
      <trkpt lat="43.59602" lon="2.95015">
        <ele>445.70837402344</ele>
        <time>2010-09-26T07:11:03Z</time>
      </trkpt>
      <trkpt lat="43.59612" lon="2.95011">
        <ele>443.30505371094</ele>
        <time>2010-09-26T07:11:11Z</time>
      </trkpt>
      <trkpt lat="43.5962" lon="2.95008">
        <ele>443.30505371094</ele>
        <time>2010-09-26T07:11:18Z</time>
      </trkpt>
      <trkpt lat="43.59629" lon="2.95003">
        <ele>446.18908691406</ele>
        <time>2010-09-26T07:11:25Z</time>
      </trkpt>
      <trkpt lat="43.59641" lon="2.95001">
        <ele>441.86315917969</ele>
        <time>2010-09-26T07:11:33Z</time>
      </trkpt>
      <trkpt lat="43.5965" lon="2.95">
        <ele>440.42126464844</ele>
        <time>2010-09-26T07:11:40Z</time>
      </trkpt>
      <trkpt lat="43.59652" lon="2.95">
        <ele>440.42126464844</ele>
        <time>2010-09-26T07:11:41Z</time>
      </trkpt>
      <trkpt lat="43.59659" lon="2.95001">
        <ele>439.9404296875</ele>
        <time>2010-09-26T07:11:47Z</time>
      </trkpt>
      <trkpt lat="43.59668" lon="2.95003">
        <ele>440.42126464844</ele>
        <time>2010-09-26T07:11:55Z</time>
      </trkpt>
      <trkpt lat="43.59679" lon="2.95007">
        <ele>440.42126464844</ele>
        <time>2010-09-26T07:12:03Z</time>
      </trkpt>
      <trkpt lat="43.59687" lon="2.95012">
        <ele>444.26647949219</ele>
        <time>2010-09-26T07:12:11Z</time>
      </trkpt>
      <trkpt lat="43.59689" lon="2.95014">
        <ele>444.26647949219</ele>
        <time>2010-09-26T07:12:13Z</time>
      </trkpt>
      <trkpt lat="43.59695" lon="2.9502">
        <ele>447.63098144531</ele>
        <time>2010-09-26T07:12:19Z</time>
      </trkpt>
      <trkpt lat="43.597" lon="2.95026">
        <ele>446.66967773438</ele>
        <time>2010-09-26T07:12:24Z</time>
      </trkpt>
      <trkpt lat="43.59705" lon="2.95035">
        <ele>446.18908691406</ele>
        <time>2010-09-26T07:12:30Z</time>
      </trkpt>
      <trkpt lat="43.59708" lon="2.95041">
        <ele>446.18908691406</ele>
        <time>2010-09-26T07:12:34Z</time>
      </trkpt>
      <trkpt lat="43.59714" lon="2.95051">
        <ele>449.5537109375</ele>
        <time>2010-09-26T07:12:41Z</time>
      </trkpt>
      <trkpt lat="43.5972" lon="2.95063">
        <ele>451.47631835938</ele>
        <time>2010-09-26T07:12:49Z</time>
      </trkpt>
      <trkpt lat="43.59727" lon="2.95072">
        <ele>452.43762207031</ele>
        <time>2010-09-26T07:12:56Z</time>
      </trkpt>
      <trkpt lat="43.59729" lon="2.95075">
        <ele>453.39892578125</ele>
        <time>2010-09-26T07:12:58Z</time>
      </trkpt>
      <trkpt lat="43.59727" lon="2.95083">
        <ele>454.8408203125</ele>
        <time>2010-09-26T07:13:03Z</time>
      </trkpt>
      <trkpt lat="43.59723" lon="2.95082">
        <ele>455.80224609375</ele>
        <time>2010-09-26T07:13:06Z</time>
      </trkpt>
      <trkpt lat="43.59713" lon="2.95077">
        <ele>458.20556640625</ele>
        <time>2010-09-26T07:13:14Z</time>
      </trkpt>
      <trkpt lat="43.59705" lon="2.95074">
        <ele>462.05078125</ele>
        <time>2010-09-26T07:13:20Z</time>
      </trkpt>
      <trkpt lat="43.59694" lon="2.95069">
        <ele>471.18334960938</ele>
        <time>2010-09-26T07:13:27Z</time>
      </trkpt>
      <trkpt lat="43.5969" lon="2.95067">
        <ele>470.70263671875</ele>
        <time>2010-09-26T07:13:30Z</time>
      </trkpt>
      <trkpt lat="43.59683" lon="2.95071">
        <ele>461.57019042969</ele>
        <time>2010-09-26T07:13:36Z</time>
      </trkpt>
      <trkpt lat="43.59678" lon="2.95068">
        <ele>463.49279785156</ele>
        <time>2010-09-26T07:13:40Z</time>
      </trkpt>
      <trkpt lat="43.59674" lon="2.95063">
        <ele>466.857421875</ele>
        <time>2010-09-26T07:13:44Z</time>
      </trkpt>
      <trkpt lat="43.5967" lon="2.95058">
        <ele>470.22192382812</ele>
        <time>2010-09-26T07:13:47Z</time>
      </trkpt>
      <trkpt lat="43.59664" lon="2.95051">
        <ele>477.43188476562</ele>
        <time>2010-09-26T07:13:51Z</time>
      </trkpt>
      <trkpt lat="43.59657" lon="2.95048">
        <ele>475.02868652344</ele>
        <time>2010-09-26T07:13:57Z</time>
      </trkpt>
      <trkpt lat="43.5965" lon="2.95053">
        <ele>475.98986816406</ele>
        <time>2010-09-26T07:14:03Z</time>
      </trkpt>
      <trkpt lat="43.59649" lon="2.95055">
        <ele>475.02868652344</ele>
        <time>2010-09-26T07:14:05Z</time>
      </trkpt>
      <trkpt lat="43.59657" lon="2.95063">
        <ele>471.18334960938</ele>
        <time>2010-09-26T07:14:11Z</time>
      </trkpt>
      <trkpt lat="43.59662" lon="2.95064">
        <ele>475.98986816406</ele>
        <time>2010-09-26T07:14:16Z</time>
      </trkpt>
      <trkpt lat="43.59666" lon="2.95073">
        <ele>472.62536621094</ele>
        <time>2010-09-26T07:14:21Z</time>
      </trkpt>
      <trkpt lat="43.59675" lon="2.95078">
        <ele>472.62536621094</ele>
        <time>2010-09-26T07:14:27Z</time>
      </trkpt>
      <trkpt lat="43.59676" lon="2.95078">
        <ele>476.47058105469</ele>
        <time>2010-09-26T07:14:29Z</time>
      </trkpt>
      <trkpt lat="43.59687" lon="2.95085">
        <ele>476.95129394531</ele>
        <time>2010-09-26T07:14:38Z</time>
      </trkpt>
      <trkpt lat="43.59693" lon="2.95092">
        <ele>473.58666992188</ele>
        <time>2010-09-26T07:14:43Z</time>
      </trkpt>
      <trkpt lat="43.59695" lon="2.95096">
        <ele>473.10607910156</ele>
        <time>2010-09-26T07:14:46Z</time>
      </trkpt>
      <trkpt lat="43.59704" lon="2.951">
        <ele>472.14465332031</ele>
        <time>2010-09-26T07:14:52Z</time>
      </trkpt>
      <trkpt lat="43.59715" lon="2.95108">
        <ele>472.14465332031</ele>
        <time>2010-09-26T07:15:00Z</time>
      </trkpt>
      <trkpt lat="43.5972" lon="2.95114">
        <ele>474.54797363281</ele>
        <time>2010-09-26T07:15:06Z</time>
      </trkpt>
      <trkpt lat="43.59723" lon="2.95114">
        <ele>476.95129394531</ele>
        <time>2010-09-26T07:15:09Z</time>
      </trkpt>
      <trkpt lat="43.59726" lon="2.95119">
        <ele>477.43188476562</ele>
        <time>2010-09-26T07:15:13Z</time>
      </trkpt>
      <trkpt lat="43.59732" lon="2.95128">
        <ele>474.54797363281</ele>
        <time>2010-09-26T07:15:19Z</time>
      </trkpt>
      <trkpt lat="43.59735" lon="2.95132">
        <ele>475.98986816406</ele>
        <time>2010-09-26T07:15:22Z</time>
      </trkpt>
      <trkpt lat="43.59737" lon="2.95135">
        <ele>476.47058105469</ele>
        <time>2010-09-26T07:15:24Z</time>
      </trkpt>
      <trkpt lat="43.59741" lon="2.95144">
        <ele>480.79663085938</ele>
        <time>2010-09-26T07:15:32Z</time>
      </trkpt>
      <trkpt lat="43.5975" lon="2.95147">
        <ele>489.44836425781</ele>
        <time>2010-09-26T07:15:40Z</time>
      </trkpt>
      <trkpt lat="43.59761" lon="2.95159">
        <ele>488.00646972656</ele>
        <time>2010-09-26T07:15:49Z</time>
      </trkpt>
      <trkpt lat="43.59764" lon="2.95163">
        <ele>487.04504394531</ele>
        <time>2010-09-26T07:15:52Z</time>
      </trkpt>
      <trkpt lat="43.59769" lon="2.95176">
        <ele>484.1611328125</ele>
        <time>2010-09-26T07:15:59Z</time>
      </trkpt>
      <trkpt lat="43.59772" lon="2.95186">
        <ele>483.19982910156</ele>
        <time>2010-09-26T07:16:05Z</time>
      </trkpt>
      <trkpt lat="43.59777" lon="2.95194">
        <ele>484.1611328125</ele>
        <time>2010-09-26T07:16:11Z</time>
      </trkpt>
      <trkpt lat="43.59778" lon="2.95195">
        <ele>484.1611328125</ele>
        <time>2010-09-26T07:16:12Z</time>
      </trkpt>
      <trkpt lat="43.59783" lon="2.95204">
        <ele>484.64184570312</ele>
        <time>2010-09-26T07:16:18Z</time>
      </trkpt>
      <trkpt lat="43.59787" lon="2.9521">
        <ele>483.68041992188</ele>
        <time>2010-09-26T07:16:22Z</time>
      </trkpt>
      <trkpt lat="43.59793" lon="2.9522">
        <ele>486.08374023438</ele>
        <time>2010-09-26T07:16:29Z</time>
      </trkpt>
      <trkpt lat="43.59804" lon="2.95232">
        <ele>487.04504394531</ele>
        <time>2010-09-26T07:16:39Z</time>
      </trkpt>
      <trkpt lat="43.59815" lon="2.95244">
        <ele>488.00646972656</ele>
        <time>2010-09-26T07:16:49Z</time>
      </trkpt>
      <trkpt lat="43.59821" lon="2.95249">
        <ele>488.48718261719</ele>
        <time>2010-09-26T07:16:55Z</time>
      </trkpt>
      <trkpt lat="43.59828" lon="2.95255">
        <ele>490.89038085938</ele>
        <time>2010-09-26T07:17:02Z</time>
      </trkpt>
      <trkpt lat="43.59835" lon="2.95262">
        <ele>492.81298828125</ele>
        <time>2010-09-26T07:17:09Z</time>
      </trkpt>
      <trkpt lat="43.59842" lon="2.95272">
        <ele>492.81298828125</ele>
        <time>2010-09-26T07:17:16Z</time>
      </trkpt>
      <trkpt lat="43.59842" lon="2.95273">
        <ele>492.81298828125</ele>
        <time>2010-09-26T07:17:17Z</time>
      </trkpt>
      <trkpt lat="43.59848" lon="2.95282">
        <ele>491.85168457031</ele>
        <time>2010-09-26T07:17:24Z</time>
      </trkpt>
      <trkpt lat="43.5985" lon="2.95285">
        <ele>491.85168457031</ele>
        <time>2010-09-26T07:17:26Z</time>
      </trkpt>
      <trkpt lat="43.59854" lon="2.95294">
        <ele>490.89038085938</ele>
        <time>2010-09-26T07:17:32Z</time>
      </trkpt>
      <trkpt lat="43.59858" lon="2.95305">
        <ele>490.89038085938</ele>
        <time>2010-09-26T07:17:38Z</time>
      </trkpt>
      <trkpt lat="43.59859" lon="2.95316">
        <ele>494.25500488281</ele>
        <time>2010-09-26T07:17:44Z</time>
      </trkpt>
      <trkpt lat="43.59861" lon="2.95331">
        <ele>496.177734375</ele>
        <time>2010-09-26T07:17:52Z</time>
      </trkpt>
      <trkpt lat="43.59862" lon="2.95335">
        <ele>497.13891601562</ele>
        <time>2010-09-26T07:17:55Z</time>
      </trkpt>
      <trkpt lat="43.59864" lon="2.95346">
        <ele>499.0615234375</ele>
        <time>2010-09-26T07:18:02Z</time>
      </trkpt>
      <trkpt lat="43.59864" lon="2.9535">
        <ele>500.02294921875</ele>
        <time>2010-09-26T07:18:04Z</time>
      </trkpt>
      <trkpt lat="43.59866" lon="2.95365">
        <ele>499.0615234375</ele>
        <time>2010-09-26T07:18:11Z</time>
      </trkpt>
      <trkpt lat="43.59867" lon="2.95375">
        <ele>500.02294921875</ele>
        <time>2010-09-26T07:18:17Z</time>
      </trkpt>
      <trkpt lat="43.5987" lon="2.95386">
        <ele>499.0615234375</ele>
        <time>2010-09-26T07:18:23Z</time>
      </trkpt>
      <trkpt lat="43.59871" lon="2.95395">
        <ele>500.50354003906</ele>
        <time>2010-09-26T07:18:29Z</time>
      </trkpt>
      <trkpt lat="43.59872" lon="2.95399">
        <ele>501.46484375</ele>
        <time>2010-09-26T07:18:31Z</time>
      </trkpt>
      <trkpt lat="43.59872" lon="2.95409">
        <ele>501.94555664062</ele>
        <time>2010-09-26T07:18:36Z</time>
      </trkpt>
      <trkpt lat="43.59875" lon="2.95425">
        <ele>503.38745117188</ele>
        <time>2010-09-26T07:18:44Z</time>
      </trkpt>
      <trkpt lat="43.5988" lon="2.95435">
        <ele>503.38745117188</ele>
        <time>2010-09-26T07:18:50Z</time>
      </trkpt>
      <trkpt lat="43.59884" lon="2.95448">
        <ele>503.8681640625</ele>
        <time>2010-09-26T07:18:57Z</time>
      </trkpt>
      <trkpt lat="43.59885" lon="2.95451">
        <ele>504.34887695312</ele>
        <time>2010-09-26T07:18:59Z</time>
      </trkpt>
      <trkpt lat="43.59892" lon="2.95467">
        <ele>504.34887695312</ele>
        <time>2010-09-26T07:19:07Z</time>
      </trkpt>
      <trkpt lat="43.59892" lon="2.95469">
        <ele>503.8681640625</ele>
        <time>2010-09-26T07:19:08Z</time>
      </trkpt>
      <trkpt lat="43.59893" lon="2.95473">
        <ele>503.38745117188</ele>
        <time>2010-09-26T07:19:10Z</time>
      </trkpt>
      <trkpt lat="43.5989" lon="2.95483">
        <ele>502.90673828125</ele>
        <time>2010-09-26T07:19:17Z</time>
      </trkpt>
      <trkpt lat="43.59887" lon="2.95491">
        <ele>502.90673828125</ele>
        <time>2010-09-26T07:19:22Z</time>
      </trkpt>
      <trkpt lat="43.59885" lon="2.95499">
        <ele>502.42614746094</ele>
        <time>2010-09-26T07:19:27Z</time>
      </trkpt>
      <trkpt lat="43.59887" lon="2.95511">
        <ele>502.90673828125</ele>
        <time>2010-09-26T07:19:34Z</time>
      </trkpt>
      <trkpt lat="43.59888" lon="2.95517">
        <ele>504.34887695312</ele>
        <time>2010-09-26T07:19:37Z</time>
      </trkpt>
      <trkpt lat="43.5989" lon="2.95524">
        <ele>505.31018066406</ele>
        <time>2010-09-26T07:19:41Z</time>
      </trkpt>
      <trkpt lat="43.59895" lon="2.95533">
        <ele>505.31018066406</ele>
        <time>2010-09-26T07:19:47Z</time>
      </trkpt>
      <trkpt lat="43.59898" lon="2.95544">
        <ele>504.82946777344</ele>
        <time>2010-09-26T07:19:54Z</time>
      </trkpt>
      <trkpt lat="43.59903" lon="2.95553">
        <ele>506.75207519531</ele>
        <time>2010-09-26T07:20:00Z</time>
      </trkpt>
      <trkpt lat="43.59906" lon="2.95557">
        <ele>506.271484375</ele>
        <time>2010-09-26T07:20:03Z</time>
      </trkpt>
      <trkpt lat="43.59912" lon="2.95564">
        <ele>504.82946777344</ele>
        <time>2010-09-26T07:20:09Z</time>
      </trkpt>
      <trkpt lat="43.59917" lon="2.9557">
        <ele>504.82946777344</ele>
        <time>2010-09-26T07:20:14Z</time>
      </trkpt>
      <trkpt lat="43.5992" lon="2.95575">
        <ele>504.82946777344</ele>
        <time>2010-09-26T07:20:18Z</time>
      </trkpt>
      <trkpt lat="43.59928" lon="2.95583">
        <ele>505.79089355469</ele>
        <time>2010-09-26T07:20:25Z</time>
      </trkpt>
      <trkpt lat="43.59935" lon="2.95591">
        <ele>506.75207519531</ele>
        <time>2010-09-26T07:20:32Z</time>
      </trkpt>
      <trkpt lat="43.59941" lon="2.95595">
        <ele>506.75207519531</ele>
        <time>2010-09-26T07:20:38Z</time>
      </trkpt>
      <trkpt lat="43.5995" lon="2.95594">
        <ele>510.59729003906</ele>
        <time>2010-09-26T07:20:46Z</time>
      </trkpt>
      <trkpt lat="43.59954" lon="2.95594">
        <ele>511.07800292969</ele>
        <time>2010-09-26T07:20:49Z</time>
      </trkpt>
      <trkpt lat="43.59962" lon="2.95594">
        <ele>514.44262695312</ele>
        <time>2010-09-26T07:20:57Z</time>
      </trkpt>
      <trkpt lat="43.59969" lon="2.95594">
        <ele>514.92333984375</ele>
        <time>2010-09-26T07:21:03Z</time>
      </trkpt>
      <trkpt lat="43.59974" lon="2.95596">
        <ele>515.88464355469</ele>
        <time>2010-09-26T07:21:08Z</time>
      </trkpt>
      <trkpt lat="43.59977" lon="2.95598">
        <ele>517.80725097656</ele>
        <time>2010-09-26T07:21:11Z</time>
      </trkpt>
      <trkpt lat="43.59979" lon="2.95597">
        <ele>518.28784179688</ele>
        <time>2010-09-26T07:21:13Z</time>
      </trkpt>
      <trkpt lat="43.59977" lon="2.9559">
        <ele>518.7685546875</ele>
        <time>2010-09-26T07:21:18Z</time>
      </trkpt>
      <trkpt lat="43.59974" lon="2.95586">
        <ele>519.24926757812</ele>
        <time>2010-09-26T07:21:22Z</time>
      </trkpt>
      <trkpt lat="43.59967" lon="2.95579">
        <ele>523.09460449219</ele>
        <time>2010-09-26T07:21:30Z</time>
      </trkpt>
      <trkpt lat="43.59966" lon="2.95573">
        <ele>525.01721191406</ele>
        <time>2010-09-26T07:21:37Z</time>
      </trkpt>
      <trkpt lat="43.59966" lon="2.95574">
        <ele>525.01721191406</ele>
        <time>2010-09-26T07:21:40Z</time>
      </trkpt>
      <trkpt lat="43.59967" lon="2.95576">
        <ele>521.17199707031</ele>
        <time>2010-09-26T07:22:01Z</time>
      </trkpt>
      <trkpt lat="43.59968" lon="2.95576">
        <ele>521.17199707031</ele>
        <time>2010-09-26T07:22:02Z</time>
      </trkpt>
      <trkpt lat="43.59973" lon="2.95579">
        <ele>520.69128417969</ele>
        <time>2010-09-26T07:22:06Z</time>
      </trkpt>
      <trkpt lat="43.59979" lon="2.95583">
        <ele>520.21057128906</ele>
        <time>2010-09-26T07:22:12Z</time>
      </trkpt>
      <trkpt lat="43.5998" lon="2.95585">
        <ele>521.17199707031</ele>
        <time>2010-09-26T07:22:14Z</time>
      </trkpt>
      <trkpt lat="43.59985" lon="2.95592">
        <ele>520.69128417969</ele>
        <time>2010-09-26T07:22:20Z</time>
      </trkpt>
      <trkpt lat="43.59991" lon="2.95597">
        <ele>519.72985839844</ele>
        <time>2010-09-26T07:22:26Z</time>
      </trkpt>
      <trkpt lat="43.59992" lon="2.95603">
        <ele>518.7685546875</ele>
        <time>2010-09-26T07:22:30Z</time>
      </trkpt>
      <trkpt lat="43.59996" lon="2.95609">
        <ele>520.21057128906</ele>
        <time>2010-09-26T07:22:35Z</time>
      </trkpt>
      <trkpt lat="43.59996" lon="2.95612">
        <ele>520.21057128906</ele>
        <time>2010-09-26T07:22:37Z</time>
      </trkpt>
      <trkpt lat="43.60002" lon="2.95618">
        <ele>521.65258789062</ele>
        <time>2010-09-26T07:22:44Z</time>
      </trkpt>
      <trkpt lat="43.60004" lon="2.95619">
        <ele>523.09460449219</ele>
        <time>2010-09-26T07:22:46Z</time>
      </trkpt>
      <trkpt lat="43.60009" lon="2.95624">
        <ele>524.05578613281</ele>
        <time>2010-09-26T07:22:53Z</time>
      </trkpt>
      <trkpt lat="43.60014" lon="2.95629">
        <ele>525.01721191406</ele>
        <time>2010-09-26T07:22:59Z</time>
      </trkpt>
      <trkpt lat="43.60019" lon="2.9563">
        <ele>526.93981933594</ele>
        <time>2010-09-26T07:23:04Z</time>
      </trkpt>
      <trkpt lat="43.60022" lon="2.95632">
        <ele>526.93981933594</ele>
        <time>2010-09-26T07:23:07Z</time>
      </trkpt>
      <trkpt lat="43.60028" lon="2.95641">
        <ele>527.42041015625</ele>
        <time>2010-09-26T07:23:14Z</time>
      </trkpt>
      <trkpt lat="43.6003" lon="2.95646">
        <ele>526.45910644531</ele>
        <time>2010-09-26T07:23:19Z</time>
      </trkpt>
      <trkpt lat="43.60032" lon="2.95651">
        <ele>526.93981933594</ele>
        <time>2010-09-26T07:23:24Z</time>
      </trkpt>
      <trkpt lat="43.60032" lon="2.95661">
        <ele>536.55310058594</ele>
        <time>2010-09-26T07:23:34Z</time>
      </trkpt>
      <trkpt lat="43.60036" lon="2.95664">
        <ele>535.59155273438</ele>
        <time>2010-09-26T07:23:39Z</time>
      </trkpt>
      <trkpt lat="43.60039" lon="2.95667">
        <ele>541.84020996094</ele>
        <time>2010-09-26T07:23:45Z</time>
      </trkpt>
      <trkpt lat="43.6004" lon="2.95668">
        <ele>541.84020996094</ele>
        <time>2010-09-26T07:23:46Z</time>
      </trkpt>
      <trkpt lat="43.60042" lon="2.95673">
        <ele>543.76281738281</ele>
        <time>2010-09-26T07:23:50Z</time>
      </trkpt>
      <trkpt lat="43.60042" lon="2.95677">
        <ele>545.20483398438</ele>
        <time>2010-09-26T07:23:53Z</time>
      </trkpt>
      <trkpt lat="43.60039" lon="2.95678">
        <ele>547.12744140625</ele>
        <time>2010-09-26T07:23:59Z</time>
      </trkpt>
      <trkpt lat="43.60038" lon="2.9568">
        <ele>546.64685058594</ele>
        <time>2010-09-26T07:24:03Z</time>
      </trkpt>
      <trkpt lat="43.6004" lon="2.95686">
        <ele>547.60815429688</ele>
        <time>2010-09-26T07:24:08Z</time>
      </trkpt>
      <trkpt lat="43.6004" lon="2.95689">
        <ele>549.05004882812</ele>
        <time>2010-09-26T07:24:11Z</time>
      </trkpt>
      <trkpt lat="43.60043" lon="2.95696">
        <ele>553.85668945312</ele>
        <time>2010-09-26T07:24:18Z</time>
      </trkpt>
      <trkpt lat="43.60046" lon="2.95705">
        <ele>558.66333007812</ele>
        <time>2010-09-26T07:24:26Z</time>
      </trkpt>
      <trkpt lat="43.60048" lon="2.9571">
        <ele>561.54736328125</ele>
        <time>2010-09-26T07:24:32Z</time>
      </trkpt>
      <trkpt lat="43.60051" lon="2.95709">
        <ele>562.9892578125</ele>
        <time>2010-09-26T07:24:40Z</time>
      </trkpt>
      <trkpt lat="43.60057" lon="2.95724">
        <ele>556.74072265625</ele>
        <time>2010-09-26T07:25:01Z</time>
      </trkpt>
      <trkpt lat="43.60061" lon="2.95723">
        <ele>569.71850585938</ele>
        <time>2010-09-26T07:25:17Z</time>
      </trkpt>
      <trkpt lat="43.60066" lon="2.9572">
        <ele>574.52514648438</ele>
        <time>2010-09-26T07:25:23Z</time>
      </trkpt>
      <trkpt lat="43.60071" lon="2.95718">
        <ele>582.21557617188</ele>
        <time>2010-09-26T07:25:30Z</time>
      </trkpt>
      <trkpt lat="43.60075" lon="2.95716">
        <ele>587.50268554688</ele>
        <time>2010-09-26T07:25:35Z</time>
      </trkpt>
      <trkpt lat="43.60078" lon="2.95713">
        <ele>599.51928710938</ele>
        <time>2010-09-26T07:25:42Z</time>
      </trkpt>
      <trkpt lat="43.60075" lon="2.95718">
        <ele>598.07739257812</ele>
        <time>2010-09-26T07:25:48Z</time>
      </trkpt>
      <trkpt lat="43.60075" lon="2.9572">
        <ele>597.11596679688</ele>
        <time>2010-09-26T07:25:49Z</time>
      </trkpt>
      <trkpt lat="43.60078" lon="2.95734">
        <ele>589.42553710938</ele>
        <time>2010-09-26T07:25:57Z</time>
      </trkpt>
      <trkpt lat="43.60082" lon="2.95737">
        <ele>585.580078125</ele>
        <time>2010-09-26T07:26:01Z</time>
      </trkpt>
      <trkpt lat="43.60086" lon="2.95741">
        <ele>580.29296875</ele>
        <time>2010-09-26T07:26:06Z</time>
      </trkpt>
      <trkpt lat="43.6009" lon="2.95741">
        <ele>577.8896484375</ele>
        <time>2010-09-26T07:26:12Z</time>
      </trkpt>
      <trkpt lat="43.6009" lon="2.95749">
        <ele>578.85107421875</ele>
        <time>2010-09-26T07:26:19Z</time>
      </trkpt>
      <trkpt lat="43.60091" lon="2.95752">
        <ele>576.92846679688</ele>
        <time>2010-09-26T07:26:24Z</time>
      </trkpt>
      <trkpt lat="43.60095" lon="2.95756">
        <ele>577.4091796875</ele>
        <time>2010-09-26T07:26:30Z</time>
      </trkpt>
      <trkpt lat="43.60097" lon="2.95756">
        <ele>582.21557617188</ele>
        <time>2010-09-26T07:26:38Z</time>
      </trkpt>
      <trkpt lat="43.60099" lon="2.95762">
        <ele>581.25439453125</ele>
        <time>2010-09-26T07:26:46Z</time>
      </trkpt>
      <trkpt lat="43.60102" lon="2.95769">
        <ele>582.6962890625</ele>
        <time>2010-09-26T07:26:54Z</time>
      </trkpt>
      <trkpt lat="43.60102" lon="2.95769">
        <ele>581.73486328125</ele>
        <time>2010-09-26T07:26:58Z</time>
      </trkpt>
      <trkpt lat="43.60105" lon="2.95772">
        <ele>581.25439453125</ele>
        <time>2010-09-26T07:27:04Z</time>
      </trkpt>
      <trkpt lat="43.60105" lon="2.95778">
        <ele>584.13818359375</ele>
        <time>2010-09-26T07:27:13Z</time>
      </trkpt>
      <trkpt lat="43.60106" lon="2.9578">
        <ele>586.54150390625</ele>
        <time>2010-09-26T07:27:19Z</time>
      </trkpt>
      <trkpt lat="43.60109" lon="2.95788">
        <ele>591.34814453125</ele>
        <time>2010-09-26T07:27:26Z</time>
      </trkpt>
      <trkpt lat="43.60112" lon="2.95792">
        <ele>592.3095703125</ele>
        <time>2010-09-26T07:27:31Z</time>
      </trkpt>
      <trkpt lat="43.60112" lon="2.95795">
        <ele>590.86743164062</ele>
        <time>2010-09-26T07:27:44Z</time>
      </trkpt>
      <trkpt lat="43.60112" lon="2.95796">
        <ele>588.46435546875</ele>
        <time>2010-09-26T07:27:58Z</time>
      </trkpt>
      <trkpt lat="43.60115" lon="2.958">
        <ele>587.02197265625</ele>
        <time>2010-09-26T07:28:04Z</time>
      </trkpt>
      <trkpt lat="43.60117" lon="2.95804">
        <ele>587.02197265625</ele>
        <time>2010-09-26T07:28:09Z</time>
      </trkpt>
      <trkpt lat="43.6012" lon="2.95809">
        <ele>587.9833984375</ele>
        <time>2010-09-26T07:28:15Z</time>
      </trkpt>
      <trkpt lat="43.60124" lon="2.95814">
        <ele>588.94506835938</ele>
        <time>2010-09-26T07:28:21Z</time>
      </trkpt>
      <trkpt lat="43.60127" lon="2.95819">
        <ele>591.82885742188</ele>
        <time>2010-09-26T07:28:26Z</time>
      </trkpt>
      <trkpt lat="43.60131" lon="2.95822">
        <ele>595.67407226562</ele>
        <time>2010-09-26T07:28:33Z</time>
      </trkpt>
      <trkpt lat="43.60135" lon="2.95824">
        <ele>600.48071289062</ele>
        <time>2010-09-26T07:28:40Z</time>
      </trkpt>
      <trkpt lat="43.60137" lon="2.95829">
        <ele>600.48071289062</ele>
        <time>2010-09-26T07:28:46Z</time>
      </trkpt>
      <trkpt lat="43.6014" lon="2.95834">
        <ele>603.36450195312</ele>
        <time>2010-09-26T07:28:53Z</time>
      </trkpt>
      <trkpt lat="43.60142" lon="2.95839">
        <ele>604.806640625</ele>
        <time>2010-09-26T07:28:58Z</time>
      </trkpt>
      <trkpt lat="43.60146" lon="2.95842">
        <ele>605.76806640625</ele>
        <time>2010-09-26T07:29:04Z</time>
      </trkpt>
      <trkpt lat="43.60148" lon="2.95848">
        <ele>605.76806640625</ele>
        <time>2010-09-26T07:29:10Z</time>
      </trkpt>
      <trkpt lat="43.60152" lon="2.95849">
        <ele>606.72924804688</ele>
        <time>2010-09-26T07:29:15Z</time>
      </trkpt>
      <trkpt lat="43.60154" lon="2.95853">
        <ele>607.69067382812</ele>
        <time>2010-09-26T07:29:20Z</time>
      </trkpt>
      <trkpt lat="43.60159" lon="2.95857">
        <ele>610.57446289062</ele>
        <time>2010-09-26T07:29:26Z</time>
      </trkpt>
      <trkpt lat="43.60164" lon="2.9586">
        <ele>612.0166015625</ele>
        <time>2010-09-26T07:29:32Z</time>
      </trkpt>
      <trkpt lat="43.60169" lon="2.95863">
        <ele>612.97778320312</ele>
        <time>2010-09-26T07:29:38Z</time>
      </trkpt>
      <trkpt lat="43.60173" lon="2.95868">
        <ele>613.45849609375</ele>
        <time>2010-09-26T07:29:43Z</time>
      </trkpt>
      <trkpt lat="43.60175" lon="2.95872">
        <ele>615.38110351562</ele>
        <time>2010-09-26T07:29:48Z</time>
      </trkpt>
      <trkpt lat="43.6018" lon="2.95881">
        <ele>613.93896484375</ele>
        <time>2010-09-26T07:29:56Z</time>
      </trkpt>
      <trkpt lat="43.60183" lon="2.95883">
        <ele>616.82299804688</ele>
        <time>2010-09-26T07:30:02Z</time>
      </trkpt>
      <trkpt lat="43.60188" lon="2.95886">
        <ele>619.70703125</ele>
        <time>2010-09-26T07:30:07Z</time>
      </trkpt>
      <trkpt lat="43.60192" lon="2.9589">
        <ele>623.07177734375</ele>
        <time>2010-09-26T07:30:13Z</time>
      </trkpt>
      <trkpt lat="43.60196" lon="2.95891">
        <ele>627.39770507812</ele>
        <time>2010-09-26T07:30:18Z</time>
      </trkpt>
      <trkpt lat="43.60199" lon="2.95893">
        <ele>629.80078125</ele>
        <time>2010-09-26T07:30:23Z</time>
      </trkpt>
      <trkpt lat="43.60202" lon="2.95895">
        <ele>631.72338867188</ele>
        <time>2010-09-26T07:30:28Z</time>
      </trkpt>
      <trkpt lat="43.60207" lon="2.95898">
        <ele>633.16528320312</ele>
        <time>2010-09-26T07:30:32Z</time>
      </trkpt>
      <trkpt lat="43.60208" lon="2.959">
        <ele>633.16528320312</ele>
        <time>2010-09-26T07:30:34Z</time>
      </trkpt>
      <trkpt lat="43.60214" lon="2.95904">
        <ele>634.12670898438</ele>
        <time>2010-09-26T07:30:40Z</time>
      </trkpt>
      <trkpt lat="43.60216" lon="2.95906">
        <ele>634.12670898438</ele>
        <time>2010-09-26T07:30:42Z</time>
      </trkpt>
      <trkpt lat="43.6022" lon="2.95907">
        <ele>636.04956054688</ele>
        <time>2010-09-26T07:30:47Z</time>
      </trkpt>
      <trkpt lat="43.60223" lon="2.95909">
        <ele>637.0107421875</ele>
        <time>2010-09-26T07:30:52Z</time>
      </trkpt>
      <trkpt lat="43.60228" lon="2.95918">
        <ele>633.16528320312</ele>
        <time>2010-09-26T07:30:58Z</time>
      </trkpt>
      <trkpt lat="43.60234" lon="2.95923">
        <ele>632.2041015625</ele>
        <time>2010-09-26T07:31:05Z</time>
      </trkpt>
      <trkpt lat="43.60239" lon="2.95931">
        <ele>631.24291992188</ele>
        <time>2010-09-26T07:31:12Z</time>
      </trkpt>
      <trkpt lat="43.60242" lon="2.95935">
        <ele>631.24291992188</ele>
        <time>2010-09-26T07:31:17Z</time>
      </trkpt>
      <trkpt lat="43.60245" lon="2.9594">
        <ele>632.2041015625</ele>
        <time>2010-09-26T07:31:22Z</time>
      </trkpt>
      <trkpt lat="43.60249" lon="2.95945">
        <ele>633.64599609375</ele>
        <time>2010-09-26T07:31:28Z</time>
      </trkpt>
      <trkpt lat="43.60252" lon="2.95949">
        <ele>635.08813476562</ele>
        <time>2010-09-26T07:31:33Z</time>
      </trkpt>
      <trkpt lat="43.60254" lon="2.95952">
        <ele>636.04956054688</ele>
        <time>2010-09-26T07:31:37Z</time>
      </trkpt>
      <trkpt lat="43.60256" lon="2.95956">
        <ele>638.93359375</ele>
        <time>2010-09-26T07:31:42Z</time>
      </trkpt>
      <trkpt lat="43.60261" lon="2.95961">
        <ele>641.33666992188</ele>
        <time>2010-09-26T07:31:50Z</time>
      </trkpt>
      <trkpt lat="43.60265" lon="2.95966">
        <ele>644.220703125</ele>
        <time>2010-09-26T07:31:56Z</time>
      </trkpt>
      <trkpt lat="43.60268" lon="2.95971">
        <ele>646.14331054688</ele>
        <time>2010-09-26T07:32:01Z</time>
      </trkpt>
      <trkpt lat="43.6027" lon="2.95974">
        <ele>645.18188476562</ele>
        <time>2010-09-26T07:32:03Z</time>
      </trkpt>
      <trkpt lat="43.60272" lon="2.95978">
        <ele>644.701171875</ele>
        <time>2010-09-26T07:32:06Z</time>
      </trkpt>
      <trkpt lat="43.60274" lon="2.95982">
        <ele>644.220703125</ele>
        <time>2010-09-26T07:32:10Z</time>
      </trkpt>
      <trkpt lat="43.60278" lon="2.95992">
        <ele>646.14331054688</ele>
        <time>2010-09-26T07:32:18Z</time>
      </trkpt>
      <trkpt lat="43.60278" lon="2.95994">
        <ele>646.6240234375</ele>
        <time>2010-09-26T07:32:19Z</time>
      </trkpt>
      <trkpt lat="43.60283" lon="2.96002">
        <ele>646.14331054688</ele>
        <time>2010-09-26T07:32:25Z</time>
      </trkpt>
      <trkpt lat="43.60284" lon="2.96006">
        <ele>646.6240234375</ele>
        <time>2010-09-26T07:32:28Z</time>
      </trkpt>
      <trkpt lat="43.60285" lon="2.96009">
        <ele>646.6240234375</ele>
        <time>2010-09-26T07:32:31Z</time>
      </trkpt>
      <trkpt lat="43.60285" lon="2.96015">
        <ele>648.06591796875</ele>
        <time>2010-09-26T07:32:35Z</time>
      </trkpt>
      <trkpt lat="43.60289" lon="2.96021">
        <ele>649.98852539062</ele>
        <time>2010-09-26T07:32:42Z</time>
      </trkpt>
      <trkpt lat="43.60292" lon="2.96026">
        <ele>651.9111328125</ele>
        <time>2010-09-26T07:32:46Z</time>
      </trkpt>
      <trkpt lat="43.60294" lon="2.96036">
        <ele>652.87255859375</ele>
        <time>2010-09-26T07:32:53Z</time>
      </trkpt>
      <trkpt lat="43.60297" lon="2.96042">
        <ele>652.39184570312</ele>
        <time>2010-09-26T07:32:58Z</time>
      </trkpt>
      <trkpt lat="43.60299" lon="2.96049">
        <ele>653.833984375</ele>
        <time>2010-09-26T07:33:03Z</time>
      </trkpt>
      <trkpt lat="43.60297" lon="2.96057">
        <ele>657.67919921875</ele>
        <time>2010-09-26T07:33:08Z</time>
      </trkpt>
      <trkpt lat="43.60297" lon="2.9606">
        <ele>658.15991210938</ele>
        <time>2010-09-26T07:33:09Z</time>
      </trkpt>
      <trkpt lat="43.603" lon="2.96065">
        <ele>660.08227539062</ele>
        <time>2010-09-26T07:33:13Z</time>
      </trkpt>
      <trkpt lat="43.603" lon="2.9607">
        <ele>659.12109375</ele>
        <time>2010-09-26T07:33:16Z</time>
      </trkpt>
      <trkpt lat="43.60302" lon="2.96076">
        <ele>660.08227539062</ele>
        <time>2010-09-26T07:33:20Z</time>
      </trkpt>
      <trkpt lat="43.60307" lon="2.96084">
        <ele>661.5244140625</ele>
        <time>2010-09-26T07:33:27Z</time>
      </trkpt>
      <trkpt lat="43.60309" lon="2.96089">
        <ele>662.96630859375</ele>
        <time>2010-09-26T07:33:31Z</time>
      </trkpt>
      <trkpt lat="43.60311" lon="2.961">
        <ele>665.85034179688</ele>
        <time>2010-09-26T07:33:39Z</time>
      </trkpt>
      <trkpt lat="43.6031" lon="2.96104">
        <ele>666.8115234375</ele>
        <time>2010-09-26T07:33:44Z</time>
      </trkpt>
      <trkpt lat="43.60308" lon="2.9611">
        <ele>667.29223632812</ele>
        <time>2010-09-26T07:33:49Z</time>
      </trkpt>
      <trkpt lat="43.60308" lon="2.96117">
        <ele>668.25366210938</ele>
        <time>2010-09-26T07:33:54Z</time>
      </trkpt>
      <trkpt lat="43.60308" lon="2.96119">
        <ele>668.734375</ele>
        <time>2010-09-26T07:33:56Z</time>
      </trkpt>
      <trkpt lat="43.60309" lon="2.96128">
        <ele>671.1376953125</ele>
        <time>2010-09-26T07:34:02Z</time>
      </trkpt>
      <trkpt lat="43.6031" lon="2.96133">
        <ele>673.06030273438</ele>
        <time>2010-09-26T07:34:06Z</time>
      </trkpt>
      <trkpt lat="43.60311" lon="2.96141">
        <ele>674.98291015625</ele>
        <time>2010-09-26T07:34:12Z</time>
      </trkpt>
      <trkpt lat="43.60308" lon="2.96148">
        <ele>675.94409179688</ele>
        <time>2010-09-26T07:34:17Z</time>
      </trkpt>
      <trkpt lat="43.60307" lon="2.96152">
        <ele>675.46337890625</ele>
        <time>2010-09-26T07:34:19Z</time>
      </trkpt>
      <trkpt lat="43.60309" lon="2.96162">
        <ele>676.90551757812</ele>
        <time>2010-09-26T07:34:24Z</time>
      </trkpt>
      <trkpt lat="43.60309" lon="2.96166">
        <ele>677.38623046875</ele>
        <time>2010-09-26T07:34:26Z</time>
      </trkpt>
      <trkpt lat="43.60309" lon="2.96179">
        <ele>679.78930664062</ele>
        <time>2010-09-26T07:34:33Z</time>
      </trkpt>
      <trkpt lat="43.60312" lon="2.96183">
        <ele>680.27001953125</ele>
        <time>2010-09-26T07:34:37Z</time>
      </trkpt>
      <trkpt lat="43.60312" lon="2.96185">
        <ele>681.2314453125</ele>
        <time>2010-09-26T07:34:38Z</time>
      </trkpt>
      <trkpt lat="43.60314" lon="2.96196">
        <ele>684.59619140625</ele>
        <time>2010-09-26T07:34:45Z</time>
      </trkpt>
      <trkpt lat="43.60315" lon="2.96203">
        <ele>686.99926757812</ele>
        <time>2010-09-26T07:34:50Z</time>
      </trkpt>
      <trkpt lat="43.60317" lon="2.96205">
        <ele>688.44140625</ele>
        <time>2010-09-26T07:34:52Z</time>
      </trkpt>
      <trkpt lat="43.60323" lon="2.96207">
        <ele>691.3251953125</ele>
        <time>2010-09-26T07:34:58Z</time>
      </trkpt>
      <trkpt lat="43.60326" lon="2.96206">
        <ele>692.28662109375</ele>
        <time>2010-09-26T07:35:02Z</time>
      </trkpt>
      <trkpt lat="43.60331" lon="2.962">
        <ele>692.28662109375</ele>
        <time>2010-09-26T07:35:08Z</time>
      </trkpt>
      <trkpt lat="43.60339" lon="2.96195">
        <ele>691.80590820312</ele>
        <time>2010-09-26T07:35:15Z</time>
      </trkpt>
      <trkpt lat="43.60342" lon="2.96202">
        <ele>689.40258789062</ele>
        <time>2010-09-26T07:35:21Z</time>
      </trkpt>
      <trkpt lat="43.60342" lon="2.96206">
        <ele>688.44140625</ele>
        <time>2010-09-26T07:35:26Z</time>
      </trkpt>
      <trkpt lat="43.60341" lon="2.96213">
        <ele>687.96069335938</ele>
        <time>2010-09-26T07:35:32Z</time>
      </trkpt>
      <trkpt lat="43.60341" lon="2.9622">
        <ele>690.36401367188</ele>
        <time>2010-09-26T07:35:37Z</time>
      </trkpt>
      <trkpt lat="43.6034" lon="2.96225">
        <ele>688.92211914062</ele>
        <time>2010-09-26T07:35:41Z</time>
      </trkpt>
      <trkpt lat="43.60339" lon="2.96232">
        <ele>693.728515625</ele>
        <time>2010-09-26T07:35:47Z</time>
      </trkpt>
      <trkpt lat="43.6034" lon="2.96238">
        <ele>696.1318359375</ele>
        <time>2010-09-26T07:35:51Z</time>
      </trkpt>
      <trkpt lat="43.60344" lon="2.96247">
        <ele>700.9384765625</ele>
        <time>2010-09-26T07:35:58Z</time>
      </trkpt>
      <trkpt lat="43.60337" lon="2.9625">
        <ele>706.70629882812</ele>
        <time>2010-09-26T07:36:04Z</time>
      </trkpt>
      <trkpt lat="43.60337" lon="2.96254">
        <ele>707.18701171875</ele>
        <time>2010-09-26T07:36:07Z</time>
      </trkpt>
      <trkpt lat="43.60335" lon="2.96255">
        <ele>706.70629882812</ele>
        <time>2010-09-26T07:36:09Z</time>
      </trkpt>
      <trkpt lat="43.60332" lon="2.96257">
        <ele>706.70629882812</ele>
        <time>2010-09-26T07:36:12Z</time>
      </trkpt>
      <trkpt lat="43.60329" lon="2.96259">
        <ele>705.7451171875</ele>
        <time>2010-09-26T07:36:15Z</time>
      </trkpt>
      <trkpt lat="43.60329" lon="2.96263">
        <ele>705.26440429688</ele>
        <time>2010-09-26T07:36:20Z</time>
      </trkpt>
      <trkpt lat="43.60333" lon="2.96268">
        <ele>705.7451171875</ele>
        <time>2010-09-26T07:36:25Z</time>
      </trkpt>
      <trkpt lat="43.60337" lon="2.96271">
        <ele>706.2255859375</ele>
        <time>2010-09-26T07:36:29Z</time>
      </trkpt>
      <trkpt lat="43.60341" lon="2.96273">
        <ele>708.1484375</ele>
        <time>2010-09-26T07:36:33Z</time>
      </trkpt>
      <trkpt lat="43.60344" lon="2.96277">
        <ele>710.55151367188</ele>
        <time>2010-09-26T07:36:38Z</time>
      </trkpt>
      <trkpt lat="43.60345" lon="2.96284">
        <ele>714.39672851562</ele>
        <time>2010-09-26T07:36:43Z</time>
      </trkpt>
      <trkpt lat="43.60349" lon="2.96288">
        <ele>718.72290039062</ele>
        <time>2010-09-26T07:36:49Z</time>
      </trkpt>
      <trkpt lat="43.60352" lon="2.96292">
        <ele>723.52954101562</ele>
        <time>2010-09-26T07:36:55Z</time>
      </trkpt>
      <trkpt lat="43.60355" lon="2.96299">
        <ele>724.97143554688</ele>
        <time>2010-09-26T07:37:02Z</time>
      </trkpt>
      <trkpt lat="43.6036" lon="2.96305">
        <ele>726.41333007812</ele>
        <time>2010-09-26T07:37:08Z</time>
      </trkpt>
      <trkpt lat="43.60365" lon="2.96306">
        <ele>728.81665039062</ele>
        <time>2010-09-26T07:37:14Z</time>
      </trkpt>
      <trkpt lat="43.60368" lon="2.9631">
        <ele>733.62329101562</ele>
        <time>2010-09-26T07:37:20Z</time>
      </trkpt>
      <trkpt lat="43.60373" lon="2.96309">
        <ele>735.5458984375</ele>
        <time>2010-09-26T07:37:25Z</time>
      </trkpt>
      <trkpt lat="43.60375" lon="2.9631">
        <ele>734.58471679688</ele>
        <time>2010-09-26T07:37:29Z</time>
      </trkpt>
      <trkpt lat="43.60376" lon="2.96314">
        <ele>734.10400390625</ele>
        <time>2010-09-26T07:37:32Z</time>
      </trkpt>
      <trkpt lat="43.60373" lon="2.96323">
        <ele>738.42993164062</ele>
        <time>2010-09-26T07:37:41Z</time>
      </trkpt>
      <trkpt lat="43.60374" lon="2.96331">
        <ele>735.0654296875</ele>
        <time>2010-09-26T07:37:48Z</time>
      </trkpt>
      <trkpt lat="43.60378" lon="2.96331">
        <ele>735.0654296875</ele>
        <time>2010-09-26T07:37:53Z</time>
      </trkpt>
      <trkpt lat="43.60381" lon="2.96329">
        <ele>733.62329101562</ele>
        <time>2010-09-26T07:37:59Z</time>
      </trkpt>
      <trkpt lat="43.60387" lon="2.96331">
        <ele>735.5458984375</ele>
        <time>2010-09-26T07:38:04Z</time>
      </trkpt>
      <trkpt lat="43.6039" lon="2.96333">
        <ele>735.0654296875</ele>
        <time>2010-09-26T07:38:07Z</time>
      </trkpt>
      <trkpt lat="43.60397" lon="2.96334">
        <ele>737.46850585938</ele>
        <time>2010-09-26T07:38:12Z</time>
      </trkpt>
      <trkpt lat="43.60402" lon="2.96338">
        <ele>740.3525390625</ele>
        <time>2010-09-26T07:38:17Z</time>
      </trkpt>
      <trkpt lat="43.6041" lon="2.96343">
        <ele>735.0654296875</ele>
        <time>2010-09-26T07:38:23Z</time>
      </trkpt>
      <trkpt lat="43.60412" lon="2.96344">
        <ele>736.50732421875</ele>
        <time>2010-09-26T07:38:26Z</time>
      </trkpt>
      <trkpt lat="43.60419" lon="2.9635">
        <ele>741.31372070312</ele>
        <time>2010-09-26T07:38:33Z</time>
      </trkpt>
      <trkpt lat="43.60421" lon="2.96351">
        <ele>741.31372070312</ele>
        <time>2010-09-26T07:38:34Z</time>
      </trkpt>
      <trkpt lat="43.60423" lon="2.96354">
        <ele>743.71704101562</ele>
        <time>2010-09-26T07:38:37Z</time>
      </trkpt>
      <trkpt lat="43.60424" lon="2.96358">
        <ele>744.19775390625</ele>
        <time>2010-09-26T07:38:40Z</time>
      </trkpt>
      <trkpt lat="43.6042" lon="2.96366">
        <ele>742.27514648438</ele>
        <time>2010-09-26T07:38:46Z</time>
      </trkpt>
      <trkpt lat="43.60419" lon="2.96369">
        <ele>741.79443359375</ele>
        <time>2010-09-26T07:38:49Z</time>
      </trkpt>
      <trkpt lat="43.60419" lon="2.96375">
        <ele>740.8330078125</ele>
        <time>2010-09-26T07:38:54Z</time>
      </trkpt>
      <trkpt lat="43.60419" lon="2.96384">
        <ele>742.27514648438</ele>
        <time>2010-09-26T07:39:01Z</time>
      </trkpt>
      <trkpt lat="43.60415" lon="2.96389">
        <ele>745.15893554688</ele>
        <time>2010-09-26T07:39:06Z</time>
      </trkpt>
      <trkpt lat="43.60414" lon="2.96393">
        <ele>746.12036132812</ele>
        <time>2010-09-26T07:39:10Z</time>
      </trkpt>
      <trkpt lat="43.6041" lon="2.96396">
        <ele>748.52368164062</ele>
        <time>2010-09-26T07:39:15Z</time>
      </trkpt>
      <trkpt lat="43.60412" lon="2.96401">
        <ele>751.88842773438</ele>
        <time>2010-09-26T07:39:24Z</time>
      </trkpt>
      <trkpt lat="43.60414" lon="2.96406">
        <ele>753.33032226562</ele>
        <time>2010-09-26T07:39:28Z</time>
      </trkpt>
      <trkpt lat="43.60416" lon="2.96406">
        <ele>757.17553710938</ele>
        <time>2010-09-26T07:39:32Z</time>
      </trkpt>
      <trkpt lat="43.60415" lon="2.96412">
        <ele>757.17553710938</ele>
        <time>2010-09-26T07:39:36Z</time>
      </trkpt>
      <trkpt lat="43.60411" lon="2.96414">
        <ele>757.65625</ele>
        <time>2010-09-26T07:39:40Z</time>
      </trkpt>
      <trkpt lat="43.60408" lon="2.96419">
        <ele>762.46264648438</ele>
        <time>2010-09-26T07:39:45Z</time>
      </trkpt>
      <trkpt lat="43.60407" lon="2.96423">
        <ele>765.82763671875</ele>
        <time>2010-09-26T07:39:51Z</time>
      </trkpt>
      <trkpt lat="43.60406" lon="2.96426">
        <ele>769.6728515625</ele>
        <time>2010-09-26T07:39:56Z</time>
      </trkpt>
      <trkpt lat="43.6041" lon="2.96427">
        <ele>766.30810546875</ele>
        <time>2010-09-26T07:40:02Z</time>
      </trkpt>
      <trkpt lat="43.60416" lon="2.96427">
        <ele>766.78881835938</ele>
        <time>2010-09-26T07:40:09Z</time>
      </trkpt>
      <trkpt lat="43.60422" lon="2.96433">
        <ele>767.75</ele>
        <time>2010-09-26T07:40:17Z</time>
      </trkpt>
      <trkpt lat="43.60428" lon="2.96434">
        <ele>770.1533203125</ele>
        <time>2010-09-26T07:40:23Z</time>
      </trkpt>
      <trkpt lat="43.60434" lon="2.96438">
        <ele>770.63403320312</ele>
        <time>2010-09-26T07:40:30Z</time>
      </trkpt>
      <trkpt lat="43.60438" lon="2.96442">
        <ele>770.63403320312</ele>
        <time>2010-09-26T07:40:35Z</time>
      </trkpt>
      <trkpt lat="43.60442" lon="2.96444">
        <ele>769.6728515625</ele>
        <time>2010-09-26T07:40:42Z</time>
      </trkpt>
      <trkpt lat="43.60445" lon="2.96446">
        <ele>772.07592773438</ele>
        <time>2010-09-26T07:40:47Z</time>
      </trkpt>
      <trkpt lat="43.60449" lon="2.96449">
        <ele>772.07592773438</ele>
        <time>2010-09-26T07:40:51Z</time>
      </trkpt>
      <trkpt lat="43.60453" lon="2.96453">
        <ele>773.99853515625</ele>
        <time>2010-09-26T07:40:57Z</time>
      </trkpt>
      <trkpt lat="43.60454" lon="2.96453">
        <ele>774.47924804688</ele>
        <time>2010-09-26T07:40:58Z</time>
      </trkpt>
      <trkpt lat="43.6046" lon="2.96458">
        <ele>780.24731445312</ele>
        <time>2010-09-26T07:41:05Z</time>
      </trkpt>
      <trkpt lat="43.60463" lon="2.96462">
        <ele>780.24731445312</ele>
        <time>2010-09-26T07:41:09Z</time>
      </trkpt>
      <trkpt lat="43.60463" lon="2.96464">
        <ele>779.28564453125</ele>
        <time>2010-09-26T07:41:10Z</time>
      </trkpt>
      <trkpt lat="43.60465" lon="2.96471">
        <ele>780.72802734375</ele>
        <time>2010-09-26T07:41:18Z</time>
      </trkpt>
      <trkpt lat="43.60461" lon="2.96473">
        <ele>781.68920898438</ele>
        <time>2010-09-26T07:41:22Z</time>
      </trkpt>
      <trkpt lat="43.60458" lon="2.96476">
        <ele>783.13110351562</ele>
        <time>2010-09-26T07:41:28Z</time>
      </trkpt>
      <trkpt lat="43.60454" lon="2.96478">
        <ele>780.72802734375</ele>
        <time>2010-09-26T07:41:47Z</time>
      </trkpt>
      <trkpt lat="43.6045" lon="2.9648">
        <ele>780.24731445312</ele>
        <time>2010-09-26T07:41:53Z</time>
      </trkpt>
      <trkpt lat="43.60447" lon="2.9648">
        <ele>780.24731445312</ele>
        <time>2010-09-26T07:41:57Z</time>
      </trkpt>
      <trkpt lat="43.60443" lon="2.96483">
        <ele>778.32446289062</ele>
        <time>2010-09-26T07:42:02Z</time>
      </trkpt>
      <trkpt lat="43.60439" lon="2.96484">
        <ele>779.76635742188</ele>
        <time>2010-09-26T07:42:08Z</time>
      </trkpt>
      <trkpt lat="43.60435" lon="2.96483">
        <ele>781.20874023438</ele>
        <time>2010-09-26T07:42:12Z</time>
      </trkpt>
      <trkpt lat="43.60432" lon="2.96487">
        <ele>783.13110351562</ele>
        <time>2010-09-26T07:42:17Z</time>
      </trkpt>
      <trkpt lat="43.60435" lon="2.96491">
        <ele>786.01513671875</ele>
        <time>2010-09-26T07:42:29Z</time>
      </trkpt>
      <trkpt lat="43.60435" lon="2.96491">
        <ele>787.45703125</ele>
        <time>2010-09-26T07:42:30Z</time>
      </trkpt>
      <trkpt lat="43.60436" lon="2.96498">
        <ele>787.93774414062</ele>
        <time>2010-09-26T07:42:37Z</time>
      </trkpt>
      <trkpt lat="43.60431" lon="2.965">
        <ele>792.74438476562</ele>
        <time>2010-09-26T07:42:42Z</time>
      </trkpt>
      <trkpt lat="43.60434" lon="2.96505">
        <ele>794.66674804688</ele>
        <time>2010-09-26T07:42:52Z</time>
      </trkpt>
      <trkpt lat="43.60437" lon="2.96506">
        <ele>795.1474609375</ele>
        <time>2010-09-26T07:42:56Z</time>
      </trkpt>
      <trkpt lat="43.60443" lon="2.96506">
        <ele>798.03173828125</ele>
        <time>2010-09-26T07:43:06Z</time>
      </trkpt>
      <trkpt lat="43.60443" lon="2.96512">
        <ele>800.43505859375</ele>
        <time>2010-09-26T07:43:16Z</time>
      </trkpt>
      <trkpt lat="43.60442" lon="2.96515">
        <ele>801.39624023438</ele>
        <time>2010-09-26T07:43:20Z</time>
      </trkpt>
      <trkpt lat="43.60443" lon="2.96525">
        <ele>802.357421875</ele>
        <time>2010-09-26T07:43:30Z</time>
      </trkpt>
      <trkpt lat="43.60446" lon="2.96525">
        <ele>803.31884765625</ele>
        <time>2010-09-26T07:43:36Z</time>
      </trkpt>
      <trkpt lat="43.6045" lon="2.96528">
        <ele>804.2802734375</ele>
        <time>2010-09-26T07:43:42Z</time>
      </trkpt>
      <trkpt lat="43.60452" lon="2.96529">
        <ele>808.12548828125</ele>
        <time>2010-09-26T07:43:48Z</time>
      </trkpt>
      <trkpt lat="43.60455" lon="2.96535">
        <ele>811.970703125</ele>
        <time>2010-09-26T07:43:58Z</time>
      </trkpt>
      <trkpt lat="43.60458" lon="2.96538">
        <ele>815.81616210938</ele>
        <time>2010-09-26T07:44:04Z</time>
      </trkpt>
      <trkpt lat="43.60463" lon="2.9654">
        <ele>817.73852539062</ele>
        <time>2010-09-26T07:44:10Z</time>
      </trkpt>
      <trkpt lat="43.60469" lon="2.9654">
        <ele>818.21923828125</ele>
        <time>2010-09-26T07:44:16Z</time>
      </trkpt>
      <trkpt lat="43.60472" lon="2.96541">
        <ele>818.69995117188</ele>
        <time>2010-09-26T07:44:19Z</time>
      </trkpt>
      <trkpt lat="43.6048" lon="2.96544">
        <ele>819.66137695312</ele>
        <time>2010-09-26T07:44:26Z</time>
      </trkpt>
      <trkpt lat="43.60488" lon="2.96547">
        <ele>822.064453125</ele>
        <time>2010-09-26T07:44:32Z</time>
      </trkpt>
      <trkpt lat="43.60494" lon="2.96545">
        <ele>827.35180664062</ele>
        <time>2010-09-26T07:44:38Z</time>
      </trkpt>
      <trkpt lat="43.60499" lon="2.96545">
        <ele>828.7939453125</ele>
        <time>2010-09-26T07:44:42Z</time>
      </trkpt>
      <trkpt lat="43.60503" lon="2.96548">
        <ele>828.7939453125</ele>
        <time>2010-09-26T07:44:46Z</time>
      </trkpt>
      <trkpt lat="43.60508" lon="2.96553">
        <ele>830.71655273438</ele>
        <time>2010-09-26T07:44:52Z</time>
      </trkpt>
      <trkpt lat="43.60511" lon="2.96555">
        <ele>832.15844726562</ele>
        <time>2010-09-26T07:44:57Z</time>
      </trkpt>
      <trkpt lat="43.60516" lon="2.96558">
        <ele>832.15844726562</ele>
        <time>2010-09-26T07:45:02Z</time>
      </trkpt>
      <trkpt lat="43.60522" lon="2.96562">
        <ele>832.15844726562</ele>
        <time>2010-09-26T07:45:08Z</time>
      </trkpt>
      <trkpt lat="43.60529" lon="2.96562">
        <ele>835.04248046875</ele>
        <time>2010-09-26T07:45:14Z</time>
      </trkpt>
      <trkpt lat="43.60535" lon="2.96562">
        <ele>838.40698242188</ele>
        <time>2010-09-26T07:45:18Z</time>
      </trkpt>
      <trkpt lat="43.60538" lon="2.96562">
        <ele>841.771484375</ele>
        <time>2010-09-26T07:45:22Z</time>
      </trkpt>
      <trkpt lat="43.60542" lon="2.96563">
        <ele>844.65551757812</ele>
        <time>2010-09-26T07:45:27Z</time>
      </trkpt>
      <trkpt lat="43.60547" lon="2.96566">
        <ele>846.57836914062</ele>
        <time>2010-09-26T07:45:33Z</time>
      </trkpt>
      <trkpt lat="43.60553" lon="2.96566">
        <ele>849.94287109375</ele>
        <time>2010-09-26T07:45:39Z</time>
      </trkpt>
      <trkpt lat="43.60563" lon="2.96568">
        <ele>851.384765625</ele>
        <time>2010-09-26T07:45:46Z</time>
      </trkpt>
      <trkpt lat="43.60568" lon="2.9657">
        <ele>853.30737304688</ele>
        <time>2010-09-26T07:45:51Z</time>
      </trkpt>
      <trkpt lat="43.60571" lon="2.96574">
        <ele>855.71069335938</ele>
        <time>2010-09-26T07:45:57Z</time>
      </trkpt>
      <trkpt lat="43.60572" lon="2.96582">
        <ele>857.63330078125</ele>
        <time>2010-09-26T07:46:04Z</time>
      </trkpt>
      <trkpt lat="43.60575" lon="2.96583">
        <ele>860.51733398438</ele>
        <time>2010-09-26T07:46:08Z</time>
      </trkpt>
      <trkpt lat="43.60577" lon="2.96587">
        <ele>858.59448242188</ele>
        <time>2010-09-26T07:46:11Z</time>
      </trkpt>
      <trkpt lat="43.60577" lon="2.96598">
        <ele>850.42358398438</ele>
        <time>2010-09-26T07:46:19Z</time>
      </trkpt>
      <trkpt lat="43.60585" lon="2.96606">
        <ele>852.82666015625</ele>
        <time>2010-09-26T07:46:33Z</time>
      </trkpt>
      <trkpt lat="43.60587" lon="2.96617">
        <ele>854.74926757812</ele>
        <time>2010-09-26T07:46:46Z</time>
      </trkpt>
      <trkpt lat="43.60591" lon="2.96619">
        <ele>855.71069335938</ele>
        <time>2010-09-26T07:46:51Z</time>
      </trkpt>
      <trkpt lat="43.60598" lon="2.96619">
        <ele>859.0751953125</ele>
        <time>2010-09-26T07:46:58Z</time>
      </trkpt>
      <trkpt lat="43.60601" lon="2.96618">
        <ele>860.998046875</ele>
        <time>2010-09-26T07:47:01Z</time>
      </trkpt>
      <trkpt lat="43.60608" lon="2.96619">
        <ele>861.95947265625</ele>
        <time>2010-09-26T07:47:08Z</time>
      </trkpt>
      <trkpt lat="43.60612" lon="2.9662">
        <ele>862.43994140625</ele>
        <time>2010-09-26T07:47:12Z</time>
      </trkpt>
      <trkpt lat="43.60616" lon="2.96622">
        <ele>863.8818359375</ele>
        <time>2010-09-26T07:47:15Z</time>
      </trkpt>
      <trkpt lat="43.60621" lon="2.96625">
        <ele>864.84326171875</ele>
        <time>2010-09-26T07:47:21Z</time>
      </trkpt>
      <trkpt lat="43.60624" lon="2.9663">
        <ele>864.36254882812</ele>
        <time>2010-09-26T07:47:26Z</time>
      </trkpt>
      <trkpt lat="43.60628" lon="2.96632">
        <ele>865.32397460938</ele>
        <time>2010-09-26T07:47:31Z</time>
      </trkpt>
      <trkpt lat="43.60632" lon="2.96637">
        <ele>868.20776367188</ele>
        <time>2010-09-26T07:47:38Z</time>
      </trkpt>
      <trkpt lat="43.60638" lon="2.96638">
        <ele>870.13037109375</ele>
        <time>2010-09-26T07:47:42Z</time>
      </trkpt>
      <trkpt lat="43.6064" lon="2.96639">
        <ele>870.61108398438</ele>
        <time>2010-09-26T07:47:44Z</time>
      </trkpt>
      <trkpt lat="43.60645" lon="2.96639">
        <ele>873.9755859375</ele>
        <time>2010-09-26T07:47:47Z</time>
      </trkpt>
      <trkpt lat="43.6065" lon="2.96641">
        <ele>874.93701171875</ele>
        <time>2010-09-26T07:47:53Z</time>
      </trkpt>
      <trkpt lat="43.60654" lon="2.96645">
        <ele>877.34057617188</ele>
        <time>2010-09-26T07:47:59Z</time>
      </trkpt>
      <trkpt lat="43.60657" lon="2.96653">
        <ele>875.41748046875</ele>
        <time>2010-09-26T07:48:05Z</time>
      </trkpt>
      <trkpt lat="43.60661" lon="2.96658">
        <ele>878.3017578125</ele>
        <time>2010-09-26T07:48:10Z</time>
      </trkpt>
      <trkpt lat="43.6066" lon="2.96665">
        <ele>877.82104492188</ele>
        <time>2010-09-26T07:48:15Z</time>
      </trkpt>
      <trkpt lat="43.60659" lon="2.96666">
        <ele>878.3017578125</ele>
        <time>2010-09-26T07:48:16Z</time>
      </trkpt>
      <trkpt lat="43.60661" lon="2.96671">
        <ele>881.66625976562</ele>
        <time>2010-09-26T07:48:22Z</time>
      </trkpt>
      <trkpt lat="43.60666" lon="2.96676">
        <ele>883.5888671875</ele>
        <time>2010-09-26T07:48:29Z</time>
      </trkpt>
      <trkpt lat="43.60667" lon="2.96679">
        <ele>886.95336914062</ele>
        <time>2010-09-26T07:48:34Z</time>
      </trkpt>
      <trkpt lat="43.60664" lon="2.96685">
        <ele>885.9921875</ele>
        <time>2010-09-26T07:48:38Z</time>
      </trkpt>
      <trkpt lat="43.60664" lon="2.96687">
        <ele>885.51147460938</ele>
        <time>2010-09-26T07:48:39Z</time>
      </trkpt>
      <trkpt lat="43.60662" lon="2.96689">
        <ele>886.95336914062</ele>
        <time>2010-09-26T07:48:41Z</time>
      </trkpt>
      <trkpt lat="43.6066" lon="2.96693">
        <ele>885.03100585938</ele>
        <time>2010-09-26T07:48:45Z</time>
      </trkpt>
      <trkpt lat="43.60653" lon="2.96698">
        <ele>877.82104492188</ele>
        <time>2010-09-26T07:48:51Z</time>
      </trkpt>
      <trkpt lat="43.60648" lon="2.96704">
        <ele>875.89819335938</ele>
        <time>2010-09-26T07:48:56Z</time>
      </trkpt>
      <trkpt lat="43.60639" lon="2.96705">
        <ele>872.53369140625</ele>
        <time>2010-09-26T07:49:04Z</time>
      </trkpt>
      <trkpt lat="43.60633" lon="2.96709">
        <ele>871.572265625</ele>
        <time>2010-09-26T07:49:09Z</time>
      </trkpt>
      <trkpt lat="43.60631" lon="2.96712">
        <ele>872.05297851562</ele>
        <time>2010-09-26T07:49:13Z</time>
      </trkpt>
      <trkpt lat="43.60634" lon="2.96712">
        <ele>883.10815429688</ele>
        <time>2010-09-26T07:49:19Z</time>
      </trkpt>
      <trkpt lat="43.6064" lon="2.96712">
        <ele>892.24096679688</ele>
        <time>2010-09-26T07:49:25Z</time>
      </trkpt>
      <trkpt lat="43.60641" lon="2.96712">
        <ele>893.68286132812</ele>
        <time>2010-09-26T07:49:26Z</time>
      </trkpt>
      <trkpt lat="43.60644" lon="2.96717">
        <ele>890.79858398438</ele>
        <time>2010-09-26T07:49:29Z</time>
      </trkpt>
      <trkpt lat="43.60651" lon="2.9672">
        <ele>897.52807617188</ele>
        <time>2010-09-26T07:49:36Z</time>
      </trkpt>
      <trkpt lat="43.60659" lon="2.96729">
        <ele>893.2021484375</ele>
        <time>2010-09-26T07:49:43Z</time>
      </trkpt>
      <trkpt lat="43.60666" lon="2.96732">
        <ele>895.60546875</ele>
        <time>2010-09-26T07:49:50Z</time>
      </trkpt>
      <trkpt lat="43.60668" lon="2.96735">
        <ele>894.64404296875</ele>
        <time>2010-09-26T07:49:52Z</time>
      </trkpt>
      <trkpt lat="43.6067" lon="2.96737">
        <ele>895.12475585938</ele>
        <time>2010-09-26T07:49:54Z</time>
      </trkpt>
      <trkpt lat="43.60673" lon="2.9674">
        <ele>897.04736328125</ele>
        <time>2010-09-26T07:49:59Z</time>
      </trkpt>
      <trkpt lat="43.60678" lon="2.96743">
        <ele>898.96997070312</ele>
        <time>2010-09-26T07:50:04Z</time>
      </trkpt>
      <trkpt lat="43.60677" lon="2.96756">
        <ele>895.12475585938</ele>
        <time>2010-09-26T07:50:12Z</time>
      </trkpt>
      <trkpt lat="43.6068" lon="2.96759">
        <ele>896.56689453125</ele>
        <time>2010-09-26T07:50:17Z</time>
      </trkpt>
      <trkpt lat="43.60684" lon="2.96761">
        <ele>899.45068359375</ele>
        <time>2010-09-26T07:50:25Z</time>
      </trkpt>
      <trkpt lat="43.60685" lon="2.96762">
        <ele>899.93139648438</ele>
        <time>2010-09-26T07:50:26Z</time>
      </trkpt>
      <trkpt lat="43.60689" lon="2.96769">
        <ele>899.93139648438</ele>
        <time>2010-09-26T07:50:32Z</time>
      </trkpt>
      <trkpt lat="43.6069" lon="2.9677">
        <ele>899.93139648438</ele>
        <time>2010-09-26T07:50:33Z</time>
      </trkpt>
      <trkpt lat="43.60693" lon="2.96771">
        <ele>900.892578125</ele>
        <time>2010-09-26T07:50:35Z</time>
      </trkpt>
      <trkpt lat="43.60697" lon="2.96775">
        <ele>900.892578125</ele>
        <time>2010-09-26T07:50:41Z</time>
      </trkpt>
      <trkpt lat="43.60701" lon="2.96779">
        <ele>901.37329101562</ele>
        <time>2010-09-26T07:50:45Z</time>
      </trkpt>
      <trkpt lat="43.60706" lon="2.96783">
        <ele>903.2958984375</ele>
        <time>2010-09-26T07:50:51Z</time>
      </trkpt>
      <trkpt lat="43.60708" lon="2.96788">
        <ele>906.1796875</ele>
        <time>2010-09-26T07:50:55Z</time>
      </trkpt>
      <trkpt lat="43.607" lon="2.96792">
        <ele>906.66040039062</ele>
        <time>2010-09-26T07:51:00Z</time>
      </trkpt>
      <trkpt lat="43.60699" lon="2.96794">
        <ele>906.66040039062</ele>
        <time>2010-09-26T07:51:03Z</time>
      </trkpt>
      <trkpt lat="43.60701" lon="2.96796">
        <ele>906.66040039062</ele>
        <time>2010-09-26T07:51:06Z</time>
      </trkpt>
      <trkpt lat="43.60704" lon="2.96805">
        <ele>909.06396484375</ele>
        <time>2010-09-26T07:51:14Z</time>
      </trkpt>
      <trkpt lat="43.60707" lon="2.96811">
        <ele>910.02514648438</ele>
        <time>2010-09-26T07:51:20Z</time>
      </trkpt>
      <trkpt lat="43.6071" lon="2.96815">
        <ele>911.46728515625</ele>
        <time>2010-09-26T07:51:25Z</time>
      </trkpt>
      <trkpt lat="43.60712" lon="2.9682">
        <ele>912.9091796875</ele>
        <time>2010-09-26T07:51:31Z</time>
      </trkpt>
      <trkpt lat="43.60715" lon="2.96825">
        <ele>913.87036132812</ele>
        <time>2010-09-26T07:51:37Z</time>
      </trkpt>
      <trkpt lat="43.60713" lon="2.96827">
        <ele>915.3125</ele>
        <time>2010-09-26T07:51:41Z</time>
      </trkpt>
      <trkpt lat="43.60707" lon="2.96833">
        <ele>917.23510742188</ele>
        <time>2010-09-26T07:51:49Z</time>
      </trkpt>
      <trkpt lat="43.607" lon="2.96835">
        <ele>919.15771484375</ele>
        <time>2010-09-26T07:51:56Z</time>
      </trkpt>
      <trkpt lat="43.60697" lon="2.9684">
        <ele>921.08032226562</ele>
        <time>2010-09-26T07:52:01Z</time>
      </trkpt>
      <trkpt lat="43.60699" lon="2.96846">
        <ele>923.0029296875</ele>
        <time>2010-09-26T07:52:08Z</time>
      </trkpt>
      <trkpt lat="43.60706" lon="2.96851">
        <ele>924.44506835938</ele>
        <time>2010-09-26T07:52:16Z</time>
      </trkpt>
      <trkpt lat="43.6071" lon="2.96856">
        <ele>925.40625</ele>
        <time>2010-09-26T07:52:22Z</time>
      </trkpt>
      <trkpt lat="43.60716" lon="2.96859">
        <ele>926.84838867188</ele>
        <time>2010-09-26T07:52:28Z</time>
      </trkpt>
      <trkpt lat="43.60719" lon="2.96859">
        <ele>926.84838867188</ele>
        <time>2010-09-26T07:52:31Z</time>
      </trkpt>
      <trkpt lat="43.60726" lon="2.96864">
        <ele>926.84838867188</ele>
        <time>2010-09-26T07:52:37Z</time>
      </trkpt>
      <trkpt lat="43.6073" lon="2.96867">
        <ele>927.3291015625</ele>
        <time>2010-09-26T07:52:41Z</time>
      </trkpt>
      <trkpt lat="43.60734" lon="2.96867">
        <ele>927.8095703125</ele>
        <time>2010-09-26T07:52:49Z</time>
      </trkpt>
      <trkpt lat="43.60739" lon="2.9687">
        <ele>927.3291015625</ele>
        <time>2010-09-26T07:52:53Z</time>
      </trkpt>
      <trkpt lat="43.60744" lon="2.96873">
        <ele>929.73217773438</ele>
        <time>2010-09-26T07:53:00Z</time>
      </trkpt>
      <trkpt lat="43.6075" lon="2.96878">
        <ele>931.65478515625</ele>
        <time>2010-09-26T07:53:07Z</time>
      </trkpt>
      <trkpt lat="43.60755" lon="2.96879">
        <ele>932.13549804688</ele>
        <time>2010-09-26T07:53:13Z</time>
      </trkpt>
      <trkpt lat="43.60757" lon="2.96883">
        <ele>933.57739257812</ele>
        <time>2010-09-26T07:53:19Z</time>
      </trkpt>
      <trkpt lat="43.6076" lon="2.96887">
        <ele>935.5</ele>
        <time>2010-09-26T07:53:24Z</time>
      </trkpt>
      <trkpt lat="43.60763" lon="2.96891">
        <ele>936.46142578125</ele>
        <time>2010-09-26T07:53:29Z</time>
      </trkpt>
      <trkpt lat="43.60765" lon="2.96896">
        <ele>938.38403320312</ele>
        <time>2010-09-26T07:53:35Z</time>
      </trkpt>
      <trkpt lat="43.60769" lon="2.969">
        <ele>939.82592773438</ele>
        <time>2010-09-26T07:53:41Z</time>
      </trkpt>
      <trkpt lat="43.60777" lon="2.96901">
        <ele>941.26806640625</ele>
        <time>2010-09-26T07:53:48Z</time>
      </trkpt>
      <trkpt lat="43.60779" lon="2.96901">
        <ele>941.74877929688</ele>
        <time>2010-09-26T07:53:50Z</time>
      </trkpt>
      <trkpt lat="43.60784" lon="2.96902">
        <ele>943.19067382812</ele>
        <time>2010-09-26T07:53:55Z</time>
      </trkpt>
      <trkpt lat="43.60788" lon="2.96902">
        <ele>945.11328125</ele>
        <time>2010-09-26T07:53:59Z</time>
      </trkpt>
      <trkpt lat="43.60793" lon="2.96908">
        <ele>947.03588867188</ele>
        <time>2010-09-26T07:54:07Z</time>
      </trkpt>
      <trkpt lat="43.60797" lon="2.96915">
        <ele>948.47778320312</ele>
        <time>2010-09-26T07:54:14Z</time>
      </trkpt>
      <trkpt lat="43.60799" lon="2.96923">
        <ele>949.919921875</ele>
        <time>2010-09-26T07:54:21Z</time>
      </trkpt>
      <trkpt lat="43.60801" lon="2.96926">
        <ele>950.40063476562</ele>
        <time>2010-09-26T07:54:24Z</time>
      </trkpt>
      <trkpt lat="43.60792" lon="2.96939">
        <ele>954.72631835938</ele>
        <time>2010-09-26T07:56:31Z</time>
      </trkpt>
      <trkpt lat="43.60791" lon="2.9694">
        <ele>954.72631835938</ele>
        <time>2010-09-26T07:56:32Z</time>
      </trkpt>
      <trkpt lat="43.60788" lon="2.96946">
        <ele>954.24584960938</ele>
        <time>2010-09-26T07:56:38Z</time>
      </trkpt>
      <trkpt lat="43.60783" lon="2.96951">
        <ele>954.24584960938</ele>
        <time>2010-09-26T07:56:45Z</time>
      </trkpt>
      <trkpt lat="43.60779" lon="2.96959">
        <ele>953.76513671875</ele>
        <time>2010-09-26T07:56:53Z</time>
      </trkpt>
      <trkpt lat="43.60775" lon="2.96967">
        <ele>954.24584960938</ele>
        <time>2010-09-26T07:57:00Z</time>
      </trkpt>
      <trkpt lat="43.60773" lon="2.96968">
        <ele>954.72631835938</ele>
        <time>2010-09-26T07:57:01Z</time>
      </trkpt>
      <trkpt lat="43.60769" lon="2.96974">
        <ele>955.68774414062</ele>
        <time>2010-09-26T07:57:08Z</time>
      </trkpt>
      <trkpt lat="43.6077" lon="2.96983">
        <ele>956.16845703125</ele>
        <time>2010-09-26T07:57:15Z</time>
      </trkpt>
      <trkpt lat="43.60767" lon="2.96993">
        <ele>956.64916992188</ele>
        <time>2010-09-26T07:57:23Z</time>
      </trkpt>
      <trkpt lat="43.60765" lon="2.96997">
        <ele>957.1298828125</ele>
        <time>2010-09-26T07:57:27Z</time>
      </trkpt>
      <trkpt lat="43.6076" lon="2.97">
        <ele>958.57177734375</ele>
        <time>2010-09-26T07:57:32Z</time>
      </trkpt>
      <trkpt lat="43.60758" lon="2.97004">
        <ele>959.533203125</ele>
        <time>2010-09-26T07:57:37Z</time>
      </trkpt>
      <trkpt lat="43.60752" lon="2.97006">
        <ele>961.45581054688</ele>
        <time>2010-09-26T07:57:43Z</time>
      </trkpt>
      <trkpt lat="43.60748" lon="2.97008">
        <ele>963.37841796875</ele>
        <time>2010-09-26T07:57:47Z</time>
      </trkpt>
      <trkpt lat="43.60746" lon="2.97012">
        <ele>964.33959960938</ele>
        <time>2010-09-26T07:57:51Z</time>
      </trkpt>
      <trkpt lat="43.60743" lon="2.9702">
        <ele>965.30102539062</ele>
        <time>2010-09-26T07:57:58Z</time>
      </trkpt>
      <trkpt lat="43.6074" lon="2.97022">
        <ele>966.74291992188</ele>
        <time>2010-09-26T07:58:03Z</time>
      </trkpt>
      <trkpt lat="43.6074" lon="2.97024">
        <ele>967.2236328125</ele>
        <time>2010-09-26T07:58:04Z</time>
      </trkpt>
      <trkpt lat="43.60734" lon="2.97032">
        <ele>969.14624023438</ele>
        <time>2010-09-26T07:58:13Z</time>
      </trkpt>
      <trkpt lat="43.60732" lon="2.97037">
        <ele>970.58813476562</ele>
        <time>2010-09-26T07:58:19Z</time>
      </trkpt>
      <trkpt lat="43.60729" lon="2.97041">
        <ele>971.06884765625</ele>
        <time>2010-09-26T07:58:24Z</time>
      </trkpt>
      <trkpt lat="43.60725" lon="2.97044">
        <ele>972.0302734375</ele>
        <time>2010-09-26T07:58:31Z</time>
      </trkpt>
      <trkpt lat="43.60723" lon="2.97045">
        <ele>972.99169921875</ele>
        <time>2010-09-26T07:58:35Z</time>
      </trkpt>
      <trkpt lat="43.60719" lon="2.97046">
        <ele>974.91430664062</ele>
        <time>2010-09-26T07:58:40Z</time>
      </trkpt>
      <trkpt lat="43.60714" lon="2.97049">
        <ele>975.87548828125</ele>
        <time>2010-09-26T07:58:47Z</time>
      </trkpt>
      <trkpt lat="43.60708" lon="2.97054">
        <ele>976.8369140625</ele>
        <time>2010-09-26T07:58:55Z</time>
      </trkpt>
      <trkpt lat="43.60704" lon="2.97057">
        <ele>978.27880859375</ele>
        <time>2010-09-26T07:59:02Z</time>
      </trkpt>
      <trkpt lat="43.607" lon="2.97057">
        <ele>979.720703125</ele>
        <time>2010-09-26T07:59:07Z</time>
      </trkpt>
      <trkpt lat="43.60694" lon="2.97056">
        <ele>982.1240234375</ele>
        <time>2010-09-26T07:59:13Z</time>
      </trkpt>
      <trkpt lat="43.60689" lon="2.97059">
        <ele>984.52734375</ele>
        <time>2010-09-26T07:59:19Z</time>
      </trkpt>
      <trkpt lat="43.60688" lon="2.97063">
        <ele>985.96923828125</ele>
        <time>2010-09-26T07:59:24Z</time>
      </trkpt>
      <trkpt lat="43.60686" lon="2.97066">
        <ele>986.93041992188</ele>
        <time>2010-09-26T07:59:29Z</time>
      </trkpt>
      <trkpt lat="43.60683" lon="2.97068">
        <ele>987.89184570312</ele>
        <time>2010-09-26T07:59:35Z</time>
      </trkpt>
      <trkpt lat="43.60682" lon="2.97068">
        <ele>987.89184570312</ele>
        <time>2010-09-26T07:59:41Z</time>
      </trkpt>
      <trkpt lat="43.60679" lon="2.9707">
        <ele>988.853515625</ele>
        <time>2010-09-26T07:59:45Z</time>
      </trkpt>
      <trkpt lat="43.60676" lon="2.97074">
        <ele>989.81469726562</ele>
        <time>2010-09-26T07:59:50Z</time>
      </trkpt>
      <trkpt lat="43.60674" lon="2.97076">
        <ele>990.77587890625</ele>
        <time>2010-09-26T07:59:54Z</time>
      </trkpt>
      <trkpt lat="43.60667" lon="2.97075">
        <ele>992.21801757812</ele>
        <time>2010-09-26T08:00:01Z</time>
      </trkpt>
      <trkpt lat="43.60662" lon="2.97079">
        <ele>993.65991210938</ele>
        <time>2010-09-26T08:00:07Z</time>
      </trkpt>
      <trkpt lat="43.60658" lon="2.97083">
        <ele>995.10180664062</ele>
        <time>2010-09-26T08:00:13Z</time>
      </trkpt>
      <trkpt lat="43.60653" lon="2.97084">
        <ele>996.06323242188</ele>
        <time>2010-09-26T08:00:18Z</time>
      </trkpt>
      <trkpt lat="43.60649" lon="2.97084">
        <ele>996.5439453125</ele>
        <time>2010-09-26T08:00:23Z</time>
      </trkpt>
      <trkpt lat="43.60645" lon="2.97082">
        <ele>997.50512695312</ele>
        <time>2010-09-26T08:00:28Z</time>
      </trkpt>
      <trkpt lat="43.6064" lon="2.97082">
        <ele>998.94702148438</ele>
        <time>2010-09-26T08:00:34Z</time>
      </trkpt>
      <trkpt lat="43.60638" lon="2.97081">
        <ele>1000.3891601562</ele>
        <time>2010-09-26T08:00:39Z</time>
      </trkpt>
      <trkpt lat="43.60634" lon="2.97079">
        <ele>1001.8310546875</ele>
        <time>2010-09-26T08:00:45Z</time>
      </trkpt>
      <trkpt lat="43.60629" lon="2.97077">
        <ele>1002.7922363281</ele>
        <time>2010-09-26T08:00:52Z</time>
      </trkpt>
      <trkpt lat="43.60627" lon="2.97081">
        <ele>1004.7150878906</ele>
        <time>2010-09-26T08:00:58Z</time>
      </trkpt>
      <trkpt lat="43.60623" lon="2.97083">
        <ele>1007.1184082031</ele>
        <time>2010-09-26T08:01:04Z</time>
      </trkpt>
      <trkpt lat="43.60619" lon="2.97086">
        <ele>1009.041015625</ele>
        <time>2010-09-26T08:01:11Z</time>
      </trkpt>
      <trkpt lat="43.60617" lon="2.97085">
        <ele>1010.0021972656</ele>
        <time>2010-09-26T08:01:15Z</time>
      </trkpt>
      <trkpt lat="43.60614" lon="2.97088">
        <ele>1011.4443359375</ele>
        <time>2010-09-26T08:01:21Z</time>
      </trkpt>
      <trkpt lat="43.6061" lon="2.9709">
        <ele>1013.3669433594</ele>
        <time>2010-09-26T08:01:26Z</time>
      </trkpt>
      <trkpt lat="43.60606" lon="2.97093">
        <ele>1015.2895507812</ele>
        <time>2010-09-26T08:01:32Z</time>
      </trkpt>
      <trkpt lat="43.60602" lon="2.97096">
        <ele>1018.1733398438</ele>
        <time>2010-09-26T08:01:39Z</time>
      </trkpt>
      <trkpt lat="43.60599" lon="2.971">
        <ele>1019.6154785156</ele>
        <time>2010-09-26T08:01:46Z</time>
      </trkpt>
      <trkpt lat="43.60596" lon="2.97106">
        <ele>1020.5769042969</ele>
        <time>2010-09-26T08:01:54Z</time>
      </trkpt>
      <trkpt lat="43.60594" lon="2.97113">
        <ele>1021.0576171875</ele>
        <time>2010-09-26T08:02:02Z</time>
      </trkpt>
      <trkpt lat="43.60592" lon="2.97123">
        <ele>1021.0576171875</ele>
        <time>2010-09-26T08:02:10Z</time>
      </trkpt>
      <trkpt lat="43.6059" lon="2.97128">
        <ele>1021.5380859375</ele>
        <time>2010-09-26T08:02:14Z</time>
      </trkpt>
      <trkpt lat="43.60587" lon="2.97134">
        <ele>1022.4995117188</ele>
        <time>2010-09-26T08:02:19Z</time>
      </trkpt>
      <trkpt lat="43.60583" lon="2.97139">
        <ele>1023.4609375</ele>
        <time>2010-09-26T08:02:25Z</time>
      </trkpt>
      <trkpt lat="43.6058" lon="2.97144">
        <ele>1024.9028320312</ele>
        <time>2010-09-26T08:02:31Z</time>
      </trkpt>
      <trkpt lat="43.60575" lon="2.97148">
        <ele>1025.8640136719</ele>
        <time>2010-09-26T08:02:37Z</time>
      </trkpt>
      <trkpt lat="43.60571" lon="2.9715">
        <ele>1028.2673339844</ele>
        <time>2010-09-26T08:02:43Z</time>
      </trkpt>
      <trkpt lat="43.60566" lon="2.97151">
        <ele>1030.6706542969</ele>
        <time>2010-09-26T08:02:49Z</time>
      </trkpt>
      <trkpt lat="43.60561" lon="2.97156">
        <ele>1033.5544433594</ele>
        <time>2010-09-26T08:02:56Z</time>
      </trkpt>
      <trkpt lat="43.60556" lon="2.97157">
        <ele>1035.4770507812</ele>
        <time>2010-09-26T08:03:02Z</time>
      </trkpt>
      <trkpt lat="43.60551" lon="2.97159">
        <ele>1036.9191894531</ele>
        <time>2010-09-26T08:03:08Z</time>
      </trkpt>
      <trkpt lat="43.60547" lon="2.97161">
        <ele>1038.361328125</ele>
        <time>2010-09-26T08:03:13Z</time>
      </trkpt>
      <trkpt lat="43.60542" lon="2.9716">
        <ele>1040.7644042969</ele>
        <time>2010-09-26T08:03:19Z</time>
      </trkpt>
      <trkpt lat="43.60538" lon="2.97159">
        <ele>1040.7644042969</ele>
        <time>2010-09-26T08:03:24Z</time>
      </trkpt>
      <trkpt lat="43.60535" lon="2.97155">
        <ele>1041.7258300781</ele>
        <time>2010-09-26T08:03:30Z</time>
      </trkpt>
      <trkpt lat="43.6053" lon="2.97154">
        <ele>1042.2065429688</ele>
        <time>2010-09-26T08:03:36Z</time>
      </trkpt>
      <trkpt lat="43.60527" lon="2.97153">
        <ele>1043.1677246094</ele>
        <time>2010-09-26T08:03:41Z</time>
      </trkpt>
      <trkpt lat="43.60524" lon="2.97147">
        <ele>1043.1677246094</ele>
        <time>2010-09-26T08:03:45Z</time>
      </trkpt>
      <trkpt lat="43.60519" lon="2.97139">
        <ele>1045.5710449219</ele>
        <time>2010-09-26T08:03:54Z</time>
      </trkpt>
      <trkpt lat="43.60513" lon="2.97133">
        <ele>1045.5710449219</ele>
        <time>2010-09-26T08:04:02Z</time>
      </trkpt>
      <trkpt lat="43.60511" lon="2.97133">
        <ele>1046.5324707031</ele>
        <time>2010-09-26T08:04:07Z</time>
      </trkpt>
      <trkpt lat="43.60508" lon="2.97129">
        <ele>1047.4936523438</ele>
        <time>2010-09-26T08:04:11Z</time>
      </trkpt>
      <trkpt lat="43.60505" lon="2.97127">
        <ele>1047.4936523438</ele>
        <time>2010-09-26T08:04:16Z</time>
      </trkpt>
      <trkpt lat="43.60494" lon="2.97122">
        <ele>1047.0129394531</ele>
        <time>2010-09-26T08:04:25Z</time>
      </trkpt>
      <trkpt lat="43.60492" lon="2.97121">
        <ele>1047.0129394531</ele>
        <time>2010-09-26T08:04:27Z</time>
      </trkpt>
      <trkpt lat="43.60485" lon="2.97119">
        <ele>1046.5324707031</ele>
        <time>2010-09-26T08:04:33Z</time>
      </trkpt>
      <trkpt lat="43.60482" lon="2.97119">
        <ele>1046.5324707031</ele>
        <time>2010-09-26T08:04:35Z</time>
      </trkpt>
      <trkpt lat="43.60479" lon="2.97116">
        <ele>1046.5324707031</ele>
        <time>2010-09-26T08:04:38Z</time>
      </trkpt>
      <trkpt lat="43.60474" lon="2.97112">
        <ele>1046.5324707031</ele>
        <time>2010-09-26T08:04:42Z</time>
      </trkpt>
      <trkpt lat="43.60468" lon="2.97113">
        <ele>1047.0129394531</ele>
        <time>2010-09-26T08:04:48Z</time>
      </trkpt>
      <trkpt lat="43.60465" lon="2.97114">
        <ele>1047.4936523438</ele>
        <time>2010-09-26T08:04:50Z</time>
      </trkpt>
      <trkpt lat="43.60455" lon="2.97111">
        <ele>1048.4548339844</ele>
        <time>2010-09-26T08:04:56Z</time>
      </trkpt>
      <trkpt lat="43.60446" lon="2.97109">
        <ele>1048.4548339844</ele>
        <time>2010-09-26T08:05:01Z</time>
      </trkpt>
      <trkpt lat="43.60438" lon="2.97108">
        <ele>1049.4162597656</ele>
        <time>2010-09-26T08:05:08Z</time>
      </trkpt>
      <trkpt lat="43.60431" lon="2.97106">
        <ele>1049.8969726562</ele>
        <time>2010-09-26T08:05:14Z</time>
      </trkpt>
      <trkpt lat="43.60429" lon="2.97106">
        <ele>1049.8969726562</ele>
        <time>2010-09-26T08:05:15Z</time>
      </trkpt>
      <trkpt lat="43.60423" lon="2.97104">
        <ele>1051.3388671875</ele>
        <time>2010-09-26T08:05:22Z</time>
      </trkpt>
      <trkpt lat="43.6042" lon="2.97103">
        <ele>1052.3002929688</ele>
        <time>2010-09-26T08:05:24Z</time>
      </trkpt>
      <trkpt lat="43.60412" lon="2.97101">
        <ele>1055.1843261719</ele>
        <time>2010-09-26T08:05:32Z</time>
      </trkpt>
      <trkpt lat="43.60405" lon="2.971">
        <ele>1057.5876464844</ele>
        <time>2010-09-26T08:05:39Z</time>
      </trkpt>
      <trkpt lat="43.60397" lon="2.97099">
        <ele>1058.548828125</ele>
        <time>2010-09-26T08:05:46Z</time>
      </trkpt>
      <trkpt lat="43.60386" lon="2.97099">
        <ele>1059.5102539062</ele>
        <time>2010-09-26T08:05:56Z</time>
      </trkpt>
      <trkpt lat="43.60381" lon="2.971">
        <ele>1059.0295410156</ele>
        <time>2010-09-26T08:06:01Z</time>
      </trkpt>
      <trkpt lat="43.60376" lon="2.97096">
        <ele>1059.0295410156</ele>
        <time>2010-09-26T08:06:06Z</time>
      </trkpt>
      <trkpt lat="43.60374" lon="2.97095">
        <ele>1058.548828125</ele>
        <time>2010-09-26T08:06:12Z</time>
      </trkpt>
      <trkpt lat="43.6037" lon="2.9709">
        <ele>1058.068359375</ele>
        <time>2010-09-26T08:06:20Z</time>
      </trkpt>
      <trkpt lat="43.60365" lon="2.97085">
        <ele>1058.068359375</ele>
        <time>2010-09-26T08:06:27Z</time>
      </trkpt>
      <trkpt lat="43.6036" lon="2.97077">
        <ele>1057.5876464844</ele>
        <time>2010-09-26T08:06:35Z</time>
      </trkpt>
      <trkpt lat="43.60355" lon="2.97071">
        <ele>1057.5876464844</ele>
        <time>2010-09-26T08:06:42Z</time>
      </trkpt>
      <trkpt lat="43.60347" lon="2.97064">
        <ele>1058.548828125</ele>
        <time>2010-09-26T08:06:51Z</time>
      </trkpt>
      <trkpt lat="43.60345" lon="2.97062">
        <ele>1058.548828125</ele>
        <time>2010-09-26T08:06:53Z</time>
      </trkpt>
      <trkpt lat="43.60335" lon="2.97056">
        <ele>1059.0295410156</ele>
        <time>2010-09-26T08:07:02Z</time>
      </trkpt>
      <trkpt lat="43.60324" lon="2.97053">
        <ele>1059.9907226562</ele>
        <time>2010-09-26T08:07:07Z</time>
      </trkpt>
      <trkpt lat="43.60309" lon="2.97056">
        <ele>1060.9521484375</ele>
        <time>2010-09-26T08:07:13Z</time>
      </trkpt>
      <trkpt lat="43.60296" lon="2.97067">
        <ele>1060.9521484375</ele>
        <time>2010-09-26T08:07:18Z</time>
      </trkpt>
      <trkpt lat="43.60287" lon="2.97073">
        <ele>1059.9907226562</ele>
        <time>2010-09-26T08:07:22Z</time>
      </trkpt>
      <trkpt lat="43.60269" lon="2.97081">
        <ele>1059.5102539062</ele>
        <time>2010-09-26T08:07:29Z</time>
      </trkpt>
      <trkpt lat="43.60254" lon="2.97083">
        <ele>1057.5876464844</ele>
        <time>2010-09-26T08:07:35Z</time>
      </trkpt>
      <trkpt lat="43.60243" lon="2.97082">
        <ele>1055.6650390625</ele>
        <time>2010-09-26T08:07:39Z</time>
      </trkpt>
      <trkpt lat="43.60229" lon="2.97086">
        <ele>1053.7424316406</ele>
        <time>2010-09-26T08:07:44Z</time>
      </trkpt>
      <trkpt lat="43.60218" lon="2.97084">
        <ele>1051.3388671875</ele>
        <time>2010-09-26T08:07:48Z</time>
      </trkpt>
      <trkpt lat="43.60207" lon="2.97074">
        <ele>1048.935546875</ele>
        <time>2010-09-26T08:07:53Z</time>
      </trkpt>
      <trkpt lat="43.60199" lon="2.97059">
        <ele>1047.0129394531</ele>
        <time>2010-09-26T08:07:58Z</time>
      </trkpt>
      <trkpt lat="43.60197" lon="2.97052">
        <ele>1047.9743652344</ele>
        <time>2010-09-26T08:08:00Z</time>
      </trkpt>
      <trkpt lat="43.60199" lon="2.9704">
        <ele>1047.9743652344</ele>
        <time>2010-09-26T08:08:04Z</time>
      </trkpt>
      <trkpt lat="43.60197" lon="2.97014">
        <ele>1048.4548339844</ele>
        <time>2010-09-26T08:08:12Z</time>
      </trkpt>
      <trkpt lat="43.60196" lon="2.97011">
        <ele>1048.4548339844</ele>
        <time>2010-09-26T08:08:13Z</time>
      </trkpt>
      <trkpt lat="43.60192" lon="2.97007">
        <ele>1048.935546875</ele>
        <time>2010-09-26T08:08:18Z</time>
      </trkpt>
      <trkpt lat="43.60182" lon="2.96997">
        <ele>1048.935546875</ele>
        <time>2010-09-26T08:08:23Z</time>
      </trkpt>
      <trkpt lat="43.60177" lon="2.96992">
        <ele>1048.935546875</ele>
        <time>2010-09-26T08:08:25Z</time>
      </trkpt>
      <trkpt lat="43.60161" lon="2.96988">
        <ele>1047.0129394531</ele>
        <time>2010-09-26T08:08:31Z</time>
      </trkpt>
      <trkpt lat="43.60151" lon="2.96985">
        <ele>1045.5710449219</ele>
        <time>2010-09-26T08:08:35Z</time>
      </trkpt>
      <trkpt lat="43.60147" lon="2.96984">
        <ele>1045.5710449219</ele>
        <time>2010-09-26T08:08:36Z</time>
      </trkpt>
      <trkpt lat="43.60131" lon="2.9698">
        <ele>1044.1291503906</ele>
        <time>2010-09-26T08:08:42Z</time>
      </trkpt>
      <trkpt lat="43.60116" lon="2.9697">
        <ele>1043.6484375</ele>
        <time>2010-09-26T08:08:48Z</time>
      </trkpt>
      <trkpt lat="43.60101" lon="2.96958">
        <ele>1043.6484375</ele>
        <time>2010-09-26T08:08:54Z</time>
      </trkpt>
      <trkpt lat="43.60089" lon="2.96956">
        <ele>1044.1291503906</ele>
        <time>2010-09-26T08:08:58Z</time>
      </trkpt>
      <trkpt lat="43.60077" lon="2.96965">
        <ele>1042.6872558594</ele>
        <time>2010-09-26T08:09:03Z</time>
      </trkpt>
      <trkpt lat="43.60065" lon="2.96972">
        <ele>1040.7644042969</ele>
        <time>2010-09-26T08:09:08Z</time>
      </trkpt>
      <trkpt lat="43.60051" lon="2.96971">
        <ele>1039.3225097656</ele>
        <time>2010-09-26T08:09:13Z</time>
      </trkpt>
      <trkpt lat="43.60041" lon="2.96974">
        <ele>1037.8806152344</ele>
        <time>2010-09-26T08:09:17Z</time>
      </trkpt>
      <trkpt lat="43.60029" lon="2.96972">
        <ele>1035.9577636719</ele>
        <time>2010-09-26T08:09:22Z</time>
      </trkpt>
      <trkpt lat="43.60017" lon="2.96967">
        <ele>1034.03515625</ele>
        <time>2010-09-26T08:09:27Z</time>
      </trkpt>
      <trkpt lat="43.60006" lon="2.96962">
        <ele>1031.6318359375</ele>
        <time>2010-09-26T08:09:32Z</time>
      </trkpt>
      <trkpt lat="43.60005" lon="2.9696">
        <ele>1031.1513671875</ele>
        <time>2010-09-26T08:09:33Z</time>
      </trkpt>
      <trkpt lat="43.59999" lon="2.96946">
        <ele>1028.748046875</ele>
        <time>2010-09-26T08:09:38Z</time>
      </trkpt>
      <trkpt lat="43.59999" lon="2.96943">
        <ele>1028.2673339844</ele>
        <time>2010-09-26T08:09:39Z</time>
      </trkpt>
      <trkpt lat="43.59994" lon="2.96928">
        <ele>1025.8640136719</ele>
        <time>2010-09-26T08:09:44Z</time>
      </trkpt>
      <trkpt lat="43.59993" lon="2.96926">
        <ele>1025.3833007812</ele>
        <time>2010-09-26T08:09:45Z</time>
      </trkpt>
      <trkpt lat="43.59981" lon="2.96922">
        <ele>1024.4221191406</ele>
        <time>2010-09-26T08:09:52Z</time>
      </trkpt>
      <trkpt lat="43.59979" lon="2.96921">
        <ele>1023.94140625</ele>
        <time>2010-09-26T08:09:53Z</time>
      </trkpt>
      <trkpt lat="43.59964" lon="2.96914">
        <ele>1020.5769042969</ele>
        <time>2010-09-26T08:10:00Z</time>
      </trkpt>
      <trkpt lat="43.59951" lon="2.96909">
        <ele>1018.1733398438</ele>
        <time>2010-09-26T08:10:06Z</time>
      </trkpt>
      <trkpt lat="43.5994" lon="2.96905">
        <ele>1016.2507324219</ele>
        <time>2010-09-26T08:10:11Z</time>
      </trkpt>
      <trkpt lat="43.5993" lon="2.96903">
        <ele>1015.2895507812</ele>
        <time>2010-09-26T08:10:16Z</time>
      </trkpt>
      <trkpt lat="43.59918" lon="2.96908">
        <ele>1014.328125</ele>
        <time>2010-09-26T08:10:21Z</time>
      </trkpt>
      <trkpt lat="43.59909" lon="2.96907">
        <ele>1013.8474121094</ele>
        <time>2010-09-26T08:10:25Z</time>
      </trkpt>
      <trkpt lat="43.59902" lon="2.96906">
        <ele>1013.3669433594</ele>
        <time>2010-09-26T08:10:28Z</time>
      </trkpt>
      <trkpt lat="43.59895" lon="2.96904">
        <ele>1012.4055175781</ele>
        <time>2010-09-26T08:10:31Z</time>
      </trkpt>
      <trkpt lat="43.59886" lon="2.96903">
        <ele>1011.9250488281</ele>
        <time>2010-09-26T08:10:36Z</time>
      </trkpt>
      <trkpt lat="43.59879" lon="2.96902">
        <ele>1010.9636230469</ele>
        <time>2010-09-26T08:10:43Z</time>
      </trkpt>
      <trkpt lat="43.59877" lon="2.96903">
        <ele>1010.4829101562</ele>
        <time>2010-09-26T08:10:45Z</time>
      </trkpt>
      <trkpt lat="43.59875" lon="2.96904">
        <ele>1010.9636230469</ele>
        <time>2010-09-26T08:10:47Z</time>
      </trkpt>
      <trkpt lat="43.59871" lon="2.96902">
        <ele>1011.4443359375</ele>
        <time>2010-09-26T08:10:52Z</time>
      </trkpt>
      <trkpt lat="43.59869" lon="2.96901">
        <ele>1011.9250488281</ele>
        <time>2010-09-26T08:10:54Z</time>
      </trkpt>
      <trkpt lat="43.59862" lon="2.96899">
        <ele>1010.9636230469</ele>
        <time>2010-09-26T08:11:01Z</time>
      </trkpt>
      <trkpt lat="43.5986" lon="2.96898">
        <ele>1010.4829101562</ele>
        <time>2010-09-26T08:11:05Z</time>
      </trkpt>
      <trkpt lat="43.59858" lon="2.96892">
        <ele>1009.041015625</ele>
        <time>2010-09-26T08:11:09Z</time>
      </trkpt>
      <trkpt lat="43.59849" lon="2.96883">
        <ele>1008.0798339844</ele>
        <time>2010-09-26T08:11:15Z</time>
      </trkpt>
      <trkpt lat="43.59842" lon="2.96881">
        <ele>1007.5991210938</ele>
        <time>2010-09-26T08:11:18Z</time>
      </trkpt>
      <trkpt lat="43.59834" lon="2.9688">
        <ele>1005.1958007812</ele>
        <time>2010-09-26T08:11:26Z</time>
      </trkpt>
      <trkpt lat="43.59832" lon="2.96876">
        <ele>1004.7150878906</ele>
        <time>2010-09-26T08:11:29Z</time>
      </trkpt>
      <trkpt lat="43.59832" lon="2.96866">
        <ele>1002.3115234375</ele>
        <time>2010-09-26T08:11:35Z</time>
      </trkpt>
      <trkpt lat="43.5983" lon="2.96851">
        <ele>1000.3891601562</ele>
        <time>2010-09-26T08:11:41Z</time>
      </trkpt>
      <trkpt lat="43.59833" lon="2.96839">
        <ele>999.427734375</ele>
        <time>2010-09-26T08:11:46Z</time>
      </trkpt>
      <trkpt lat="43.59832" lon="2.96837">
        <ele>998.94702148438</ele>
        <time>2010-09-26T08:11:48Z</time>
      </trkpt>
      <trkpt lat="43.59829" lon="2.96831">
        <ele>997.50512695312</ele>
        <time>2010-09-26T08:11:54Z</time>
      </trkpt>
      <trkpt lat="43.59825" lon="2.96824">
        <ele>997.0244140625</ele>
        <time>2010-09-26T08:11:58Z</time>
      </trkpt>
      <trkpt lat="43.59819" lon="2.96815">
        <ele>996.06323242188</ele>
        <time>2010-09-26T08:12:02Z</time>
      </trkpt>
      <trkpt lat="43.59804" lon="2.96808">
        <ele>995.10180664062</ele>
        <time>2010-09-26T08:12:09Z</time>
      </trkpt>
      <trkpt lat="43.59792" lon="2.96802">
        <ele>995.10180664062</ele>
        <time>2010-09-26T08:12:14Z</time>
      </trkpt>
      <trkpt lat="43.59779" lon="2.96798">
        <ele>995.10180664062</ele>
        <time>2010-09-26T08:12:20Z</time>
      </trkpt>
      <trkpt lat="43.5977" lon="2.96795">
        <ele>994.62109375</ele>
        <time>2010-09-26T08:12:24Z</time>
      </trkpt>
      <trkpt lat="43.59761" lon="2.96792">
        <ele>994.140625</ele>
        <time>2010-09-26T08:12:28Z</time>
      </trkpt>
      <trkpt lat="43.5976" lon="2.9679">
        <ele>994.140625</ele>
        <time>2010-09-26T08:12:29Z</time>
      </trkpt>
      <trkpt lat="43.5975" lon="2.96789">
        <ele>992.69873046875</ele>
        <time>2010-09-26T08:12:34Z</time>
      </trkpt>
      <trkpt lat="43.5974" lon="2.96786">
        <ele>992.21801757812</ele>
        <time>2010-09-26T08:12:39Z</time>
      </trkpt>
      <trkpt lat="43.59734" lon="2.96777">
        <ele>993.65991210938</ele>
        <time>2010-09-26T08:12:44Z</time>
      </trkpt>
      <trkpt lat="43.59727" lon="2.96769">
        <ele>991.7373046875</ele>
        <time>2010-09-26T08:12:50Z</time>
      </trkpt>
      <trkpt lat="43.59727" lon="2.96768">
        <ele>992.21801757812</ele>
        <time>2010-09-26T08:12:51Z</time>
      </trkpt>
      <trkpt lat="43.59721" lon="2.96757">
        <ele>993.65991210938</ele>
        <time>2010-09-26T08:12:57Z</time>
      </trkpt>
      <trkpt lat="43.59717" lon="2.96747">
        <ele>994.62109375</ele>
        <time>2010-09-26T08:13:01Z</time>
      </trkpt>
      <trkpt lat="43.59711" lon="2.96736">
        <ele>995.10180664062</ele>
        <time>2010-09-26T08:13:08Z</time>
      </trkpt>
      <trkpt lat="43.59705" lon="2.96724">
        <ele>995.10180664062</ele>
        <time>2010-09-26T08:13:14Z</time>
      </trkpt>
      <trkpt lat="43.59704" lon="2.96716">
        <ele>995.10180664062</ele>
        <time>2010-09-26T08:13:18Z</time>
      </trkpt>
      <trkpt lat="43.59703" lon="2.96711">
        <ele>995.10180664062</ele>
        <time>2010-09-26T08:13:21Z</time>
      </trkpt>
      <trkpt lat="43.59699" lon="2.96705">
        <ele>994.140625</ele>
        <time>2010-09-26T08:13:26Z</time>
      </trkpt>
      <trkpt lat="43.59694" lon="2.96703">
        <ele>990.29541015625</ele>
        <time>2010-09-26T08:13:32Z</time>
      </trkpt>
      <trkpt lat="43.59688" lon="2.96706">
        <ele>988.37280273438</ele>
        <time>2010-09-26T08:13:36Z</time>
      </trkpt>
      <trkpt lat="43.59683" lon="2.96708">
        <ele>985.48852539062</ele>
        <time>2010-09-26T08:13:40Z</time>
      </trkpt>
      <trkpt lat="43.5968" lon="2.9671">
        <ele>983.08520507812</ele>
        <time>2010-09-26T08:13:44Z</time>
      </trkpt>
      <trkpt lat="43.59677" lon="2.96712">
        <ele>982.1240234375</ele>
        <time>2010-09-26T08:13:46Z</time>
      </trkpt>
      <trkpt lat="43.59674" lon="2.96713">
        <ele>981.64331054688</ele>
        <time>2010-09-26T08:13:49Z</time>
      </trkpt>
      <trkpt lat="43.59673" lon="2.96714">
        <ele>980.68212890625</ele>
        <time>2010-09-26T08:13:51Z</time>
      </trkpt>
      <trkpt lat="43.5967" lon="2.96715">
        <ele>980.20141601562</ele>
        <time>2010-09-26T08:13:54Z</time>
      </trkpt>
      <trkpt lat="43.59665" lon="2.9671">
        <ele>978.27880859375</ele>
        <time>2010-09-26T08:13:59Z</time>
      </trkpt>
      <trkpt lat="43.59661" lon="2.96714">
        <ele>975.39477539062</ele>
        <time>2010-09-26T08:14:06Z</time>
      </trkpt>
      <trkpt lat="43.59657" lon="2.96715">
        <ele>972.0302734375</ele>
        <time>2010-09-26T08:14:12Z</time>
      </trkpt>
      <trkpt lat="43.59657" lon="2.96719">
        <ele>971.06884765625</ele>
        <time>2010-09-26T08:14:16Z</time>
      </trkpt>
      <trkpt lat="43.59654" lon="2.96722">
        <ele>970.107421875</ele>
        <time>2010-09-26T08:14:21Z</time>
      </trkpt>
      <trkpt lat="43.59653" lon="2.96722">
        <ele>971.06884765625</ele>
        <time>2010-09-26T08:14:29Z</time>
      </trkpt>
      <trkpt lat="43.59652" lon="2.96729">
        <ele>969.14624023438</ele>
        <time>2010-09-26T08:14:50Z</time>
      </trkpt>
      <trkpt lat="43.5965" lon="2.96731">
        <ele>970.58813476562</ele>
        <time>2010-09-26T08:14:57Z</time>
      </trkpt>
      <trkpt lat="43.59647" lon="2.96734">
        <ele>971.54931640625</ele>
        <time>2010-09-26T08:15:02Z</time>
      </trkpt>
      <trkpt lat="43.59643" lon="2.96733">
        <ele>971.54931640625</ele>
        <time>2010-09-26T08:15:07Z</time>
      </trkpt>
      <trkpt lat="43.59637" lon="2.96736">
        <ele>970.58813476562</ele>
        <time>2010-09-26T08:15:13Z</time>
      </trkpt>
      <trkpt lat="43.59634" lon="2.9674">
        <ele>971.54931640625</ele>
        <time>2010-09-26T08:15:18Z</time>
      </trkpt>
      <trkpt lat="43.59631" lon="2.96741">
        <ele>972.51098632812</ele>
        <time>2010-09-26T08:15:23Z</time>
      </trkpt>
      <trkpt lat="43.59626" lon="2.96744">
        <ele>974.43359375</ele>
        <time>2010-09-26T08:15:28Z</time>
      </trkpt>
      <trkpt lat="43.59624" lon="2.96745">
        <ele>975.39477539062</ele>
        <time>2010-09-26T08:15:29Z</time>
      </trkpt>
      <trkpt lat="43.5962" lon="2.96752">
        <ele>978.75952148438</ele>
        <time>2010-09-26T08:15:37Z</time>
      </trkpt>
      <trkpt lat="43.59618" lon="2.96752">
        <ele>978.75952148438</ele>
        <time>2010-09-26T08:15:38Z</time>
      </trkpt>
      <trkpt lat="43.59616" lon="2.96755">
        <ele>980.20141601562</ele>
        <time>2010-09-26T08:15:43Z</time>
      </trkpt>
      <trkpt lat="43.59615" lon="2.9676">
        <ele>981.64331054688</ele>
        <time>2010-09-26T08:15:48Z</time>
      </trkpt>
      <trkpt lat="43.59613" lon="2.96766">
        <ele>983.08520507812</ele>
        <time>2010-09-26T08:15:54Z</time>
      </trkpt>
      <trkpt lat="43.59607" lon="2.96767">
        <ele>985.00805664062</ele>
        <time>2010-09-26T08:16:00Z</time>
      </trkpt>
      <trkpt lat="43.59604" lon="2.9677">
        <ele>985.96923828125</ele>
        <time>2010-09-26T08:16:05Z</time>
      </trkpt>
      <trkpt lat="43.596" lon="2.96777">
        <ele>986.44995117188</ele>
        <time>2010-09-26T08:16:12Z</time>
      </trkpt>
      <trkpt lat="43.59595" lon="2.96783">
        <ele>988.37280273438</ele>
        <time>2010-09-26T08:16:20Z</time>
      </trkpt>
      <trkpt lat="43.59591" lon="2.96787">
        <ele>989.81469726562</ele>
        <time>2010-09-26T08:16:26Z</time>
      </trkpt>
      <trkpt lat="43.5959" lon="2.9679">
        <ele>991.25659179688</ele>
        <time>2010-09-26T08:16:31Z</time>
      </trkpt>
      <trkpt lat="43.59586" lon="2.96795">
        <ele>992.69873046875</ele>
        <time>2010-09-26T08:16:38Z</time>
      </trkpt>
      <trkpt lat="43.59581" lon="2.96798">
        <ele>993.17919921875</ele>
        <time>2010-09-26T08:16:44Z</time>
      </trkpt>
      <trkpt lat="43.59575" lon="2.968">
        <ele>993.65991210938</ele>
        <time>2010-09-26T08:16:51Z</time>
      </trkpt>
      <trkpt lat="43.59571" lon="2.96803">
        <ele>995.58251953125</ele>
        <time>2010-09-26T08:16:58Z</time>
      </trkpt>
      <trkpt lat="43.59566" lon="2.96805">
        <ele>996.06323242188</ele>
        <time>2010-09-26T08:17:04Z</time>
      </trkpt>
      <trkpt lat="43.5956" lon="2.96808">
        <ele>997.98583984375</ele>
        <time>2010-09-26T08:17:10Z</time>
      </trkpt>
      <trkpt lat="43.59556" lon="2.96808">
        <ele>998.46630859375</ele>
        <time>2010-09-26T08:17:15Z</time>
      </trkpt>
      <trkpt lat="43.59551" lon="2.96809">
        <ele>999.427734375</ele>
        <time>2010-09-26T08:17:20Z</time>
      </trkpt>
      <trkpt lat="43.59544" lon="2.9681">
        <ele>1001.3503417969</ele>
        <time>2010-09-26T08:17:26Z</time>
      </trkpt>
      <trkpt lat="43.59542" lon="2.96811">
        <ele>1001.8310546875</ele>
        <time>2010-09-26T08:17:27Z</time>
      </trkpt>
      <trkpt lat="43.59538" lon="2.9681">
        <ele>1001.8310546875</ele>
        <time>2010-09-26T08:17:31Z</time>
      </trkpt>
      <trkpt lat="43.59531" lon="2.96812">
        <ele>1003.7536621094</ele>
        <time>2010-09-26T08:17:39Z</time>
      </trkpt>
      <trkpt lat="43.59525" lon="2.96812">
        <ele>1004.7150878906</ele>
        <time>2010-09-26T08:17:45Z</time>
      </trkpt>
      <trkpt lat="43.59523" lon="2.96812">
        <ele>1004.7150878906</ele>
        <time>2010-09-26T08:17:47Z</time>
      </trkpt>
      <trkpt lat="43.5952" lon="2.96812">
        <ele>1005.1958007812</ele>
        <time>2010-09-26T08:17:50Z</time>
      </trkpt>
      <trkpt lat="43.59516" lon="2.96815">
        <ele>1007.5991210938</ele>
        <time>2010-09-26T08:17:55Z</time>
      </trkpt>
      <trkpt lat="43.59512" lon="2.96818">
        <ele>1010.0021972656</ele>
        <time>2010-09-26T08:18:01Z</time>
      </trkpt>
      <trkpt lat="43.59507" lon="2.96822">
        <ele>1012.4055175781</ele>
        <time>2010-09-26T08:18:07Z</time>
      </trkpt>
      <trkpt lat="43.59503" lon="2.96825">
        <ele>1013.3669433594</ele>
        <time>2010-09-26T08:18:13Z</time>
      </trkpt>
      <trkpt lat="43.59498" lon="2.96828">
        <ele>1015.7702636719</ele>
        <time>2010-09-26T08:18:20Z</time>
      </trkpt>
      <trkpt lat="43.59493" lon="2.96831">
        <ele>1017.2121582031</ele>
        <time>2010-09-26T08:18:27Z</time>
      </trkpt>
      <trkpt lat="43.59491" lon="2.96833">
        <ele>1018.6540527344</ele>
        <time>2010-09-26T08:18:33Z</time>
      </trkpt>
      <trkpt lat="43.59488" lon="2.96834">
        <ele>1019.6154785156</ele>
        <time>2010-09-26T08:18:37Z</time>
      </trkpt>
      <trkpt lat="43.59486" lon="2.96837">
        <ele>1021.0576171875</ele>
        <time>2010-09-26T08:18:42Z</time>
      </trkpt>
      <trkpt lat="43.59483" lon="2.96841">
        <ele>1023.94140625</ele>
        <time>2010-09-26T08:18:48Z</time>
      </trkpt>
      <trkpt lat="43.59479" lon="2.96844">
        <ele>1025.3833007812</ele>
        <time>2010-09-26T08:18:54Z</time>
      </trkpt>
      <trkpt lat="43.59479" lon="2.96847">
        <ele>1024.9028320312</ele>
        <time>2010-09-26T08:18:58Z</time>
      </trkpt>
      <trkpt lat="43.5948" lon="2.96853">
        <ele>1024.9028320312</ele>
        <time>2010-09-26T08:19:04Z</time>
      </trkpt>
      <trkpt lat="43.59478" lon="2.96857">
        <ele>1026.3447265625</ele>
        <time>2010-09-26T08:19:09Z</time>
      </trkpt>
      <trkpt lat="43.59477" lon="2.9686">
        <ele>1028.2673339844</ele>
        <time>2010-09-26T08:19:14Z</time>
      </trkpt>
      <trkpt lat="43.59473" lon="2.96864">
        <ele>1030.6706542969</ele>
        <time>2010-09-26T08:19:21Z</time>
      </trkpt>
      <trkpt lat="43.5947" lon="2.96866">
        <ele>1031.6318359375</ele>
        <time>2010-09-26T08:19:27Z</time>
      </trkpt>
      <trkpt lat="43.59466" lon="2.96869">
        <ele>1034.5158691406</ele>
        <time>2010-09-26T08:19:34Z</time>
      </trkpt>
      <trkpt lat="43.59464" lon="2.96875">
        <ele>1035.9577636719</ele>
        <time>2010-09-26T08:19:40Z</time>
      </trkpt>
      <trkpt lat="43.59458" lon="2.96879">
        <ele>1038.361328125</ele>
        <time>2010-09-26T08:19:48Z</time>
      </trkpt>
      <trkpt lat="43.59454" lon="2.96884">
        <ele>1039.8032226562</ele>
        <time>2010-09-26T08:19:55Z</time>
      </trkpt>
      <trkpt lat="43.59449" lon="2.96891">
        <ele>1041.2451171875</ele>
        <time>2010-09-26T08:20:03Z</time>
      </trkpt>
      <trkpt lat="43.59444" lon="2.96895">
        <ele>1041.7258300781</ele>
        <time>2010-09-26T08:20:10Z</time>
      </trkpt>
      <trkpt lat="43.59441" lon="2.96901">
        <ele>1043.6484375</ele>
        <time>2010-09-26T08:20:18Z</time>
      </trkpt>
      <trkpt lat="43.59439" lon="2.96908">
        <ele>1045.0903320312</ele>
        <time>2010-09-26T08:20:25Z</time>
      </trkpt>
      <trkpt lat="43.59436" lon="2.96913">
        <ele>1046.5324707031</ele>
        <time>2010-09-26T08:20:31Z</time>
      </trkpt>
      <trkpt lat="43.59431" lon="2.96919">
        <ele>1047.0129394531</ele>
        <time>2010-09-26T08:20:38Z</time>
      </trkpt>
      <trkpt lat="43.59427" lon="2.96924">
        <ele>1048.4548339844</ele>
        <time>2010-09-26T08:20:45Z</time>
      </trkpt>
      <trkpt lat="43.59421" lon="2.96932">
        <ele>1050.3776855469</ele>
        <time>2010-09-26T08:20:54Z</time>
      </trkpt>
      <trkpt lat="43.59417" lon="2.96934">
        <ele>1050.8581542969</ele>
        <time>2010-09-26T08:20:59Z</time>
      </trkpt>
      <trkpt lat="43.59412" lon="2.96937">
        <ele>1052.3002929688</ele>
        <time>2010-09-26T08:21:05Z</time>
      </trkpt>
      <trkpt lat="43.59406" lon="2.96931">
        <ele>1051.8195800781</ele>
        <time>2010-09-26T08:21:13Z</time>
      </trkpt>
      <trkpt lat="43.59403" lon="2.96927">
        <ele>1051.3388671875</ele>
        <time>2010-09-26T08:21:18Z</time>
      </trkpt>
      <trkpt lat="43.59396" lon="2.96926">
        <ele>1051.8195800781</ele>
        <time>2010-09-26T08:21:25Z</time>
      </trkpt>
      <trkpt lat="43.59392" lon="2.96923">
        <ele>1051.8195800781</ele>
        <time>2010-09-26T08:21:31Z</time>
      </trkpt>
      <trkpt lat="43.59389" lon="2.9692">
        <ele>1052.7810058594</ele>
        <time>2010-09-26T08:21:37Z</time>
      </trkpt>
      <trkpt lat="43.59388" lon="2.96915">
        <ele>1053.26171875</ele>
        <time>2010-09-26T08:21:42Z</time>
      </trkpt>
      <trkpt lat="43.59385" lon="2.96913">
        <ele>1053.26171875</ele>
        <time>2010-09-26T08:21:56Z</time>
      </trkpt>
      <trkpt lat="43.59383" lon="2.96911">
        <ele>1053.26171875</ele>
        <time>2010-09-26T08:22:01Z</time>
      </trkpt>
      <trkpt lat="43.59384" lon="2.96912">
        <ele>1053.26171875</ele>
        <time>2010-09-26T08:22:17Z</time>
      </trkpt>
      <trkpt lat="43.59385" lon="2.96915">
        <ele>1052.7810058594</ele>
        <time>2010-09-26T08:22:21Z</time>
      </trkpt>
      <trkpt lat="43.59388" lon="2.96919">
        <ele>1053.7424316406</ele>
        <time>2010-09-26T08:22:26Z</time>
      </trkpt>
      <trkpt lat="43.59392" lon="2.96924">
        <ele>1053.7424316406</ele>
        <time>2010-09-26T08:22:32Z</time>
      </trkpt>
      <trkpt lat="43.59392" lon="2.96927">
        <ele>1053.7424316406</ele>
        <time>2010-09-26T08:22:33Z</time>
      </trkpt>
      <trkpt lat="43.5939" lon="2.96936">
        <ele>1053.7424316406</ele>
        <time>2010-09-26T08:22:37Z</time>
      </trkpt>
      <trkpt lat="43.59388" lon="2.96951">
        <ele>1054.2231445312</ele>
        <time>2010-09-26T08:22:46Z</time>
      </trkpt>
      <trkpt lat="43.59384" lon="2.96962">
        <ele>1055.1843261719</ele>
        <time>2010-09-26T08:22:54Z</time>
      </trkpt>
      <trkpt lat="43.59381" lon="2.96973">
        <ele>1056.1455078125</ele>
        <time>2010-09-26T08:22:59Z</time>
      </trkpt>
      <trkpt lat="43.59381" lon="2.96974">
        <ele>1056.1455078125</ele>
        <time>2010-09-26T08:23:00Z</time>
      </trkpt>
      <trkpt lat="43.59374" lon="2.96983">
        <ele>1055.1843261719</ele>
        <time>2010-09-26T08:23:07Z</time>
      </trkpt>
      <trkpt lat="43.59371" lon="2.96989">
        <ele>1054.7036132812</ele>
        <time>2010-09-26T08:23:10Z</time>
      </trkpt>
      <trkpt lat="43.5937" lon="2.96993">
        <ele>1054.7036132812</ele>
        <time>2010-09-26T08:23:12Z</time>
      </trkpt>
      <trkpt lat="43.59372" lon="2.97008">
        <ele>1057.1069335938</ele>
        <time>2010-09-26T08:23:18Z</time>
      </trkpt>
      <trkpt lat="43.5937" lon="2.97022">
        <ele>1057.5876464844</ele>
        <time>2010-09-26T08:23:22Z</time>
      </trkpt>
      <trkpt lat="43.59374" lon="2.97034">
        <ele>1057.5876464844</ele>
        <time>2010-09-26T08:23:26Z</time>
      </trkpt>
      <trkpt lat="43.59388" lon="2.97039">
        <ele>1057.5876464844</ele>
        <time>2010-09-26T08:23:33Z</time>
      </trkpt>
      <trkpt lat="43.59394" lon="2.97044">
        <ele>1058.548828125</ele>
        <time>2010-09-26T08:23:36Z</time>
      </trkpt>
      <trkpt lat="43.59403" lon="2.97057">
        <ele>1057.5876464844</ele>
        <time>2010-09-26T08:23:41Z</time>
      </trkpt>
      <trkpt lat="43.59404" lon="2.9706">
        <ele>1057.1069335938</ele>
        <time>2010-09-26T08:23:42Z</time>
      </trkpt>
      <trkpt lat="43.59406" lon="2.97066">
        <ele>1057.1069335938</ele>
        <time>2010-09-26T08:23:44Z</time>
      </trkpt>
      <trkpt lat="43.59403" lon="2.97081">
        <ele>1054.7036132812</ele>
        <time>2010-09-26T08:23:48Z</time>
      </trkpt>
      <trkpt lat="43.59401" lon="2.97084">
        <ele>1054.2231445312</ele>
        <time>2010-09-26T08:23:49Z</time>
      </trkpt>
      <trkpt lat="43.59401" lon="2.97098">
        <ele>1051.3388671875</ele>
        <time>2010-09-26T08:23:54Z</time>
      </trkpt>
      <trkpt lat="43.59399" lon="2.9711">
        <ele>1049.4162597656</ele>
        <time>2010-09-26T08:23:59Z</time>
      </trkpt>
      <trkpt lat="43.59399" lon="2.97114">
        <ele>1049.4162597656</ele>
        <time>2010-09-26T08:24:00Z</time>
      </trkpt>
      <trkpt lat="43.59409" lon="2.97136">
        <ele>1048.4548339844</ele>
        <time>2010-09-26T08:24:06Z</time>
      </trkpt>
      <trkpt lat="43.59414" lon="2.97142">
        <ele>1048.4548339844</ele>
        <time>2010-09-26T08:24:08Z</time>
      </trkpt>
      <trkpt lat="43.5942" lon="2.97148">
        <ele>1049.4162597656</ele>
        <time>2010-09-26T08:24:11Z</time>
      </trkpt>
      <trkpt lat="43.59417" lon="2.97164">
        <ele>1048.4548339844</ele>
        <time>2010-09-26T08:24:15Z</time>
      </trkpt>
      <trkpt lat="43.59418" lon="2.97178">
        <ele>1047.0129394531</ele>
        <time>2010-09-26T08:24:19Z</time>
      </trkpt>
      <trkpt lat="43.5942" lon="2.97192">
        <ele>1047.4936523438</ele>
        <time>2010-09-26T08:24:23Z</time>
      </trkpt>
      <trkpt lat="43.59421" lon="2.97205">
        <ele>1047.4936523438</ele>
        <time>2010-09-26T08:24:26Z</time>
      </trkpt>
      <trkpt lat="43.59422" lon="2.97216">
        <ele>1047.9743652344</ele>
        <time>2010-09-26T08:24:30Z</time>
      </trkpt>
      <trkpt lat="43.59421" lon="2.97228">
        <ele>1048.935546875</ele>
        <time>2010-09-26T08:24:33Z</time>
      </trkpt>
      <trkpt lat="43.59422" lon="2.97232">
        <ele>1049.8969726562</ele>
        <time>2010-09-26T08:24:34Z</time>
      </trkpt>
      <trkpt lat="43.59426" lon="2.97253">
        <ele>1049.8969726562</ele>
        <time>2010-09-26T08:24:39Z</time>
      </trkpt>
      <trkpt lat="43.59428" lon="2.97264">
        <ele>1050.3776855469</ele>
        <time>2010-09-26T08:24:42Z</time>
      </trkpt>
      <trkpt lat="43.5943" lon="2.97276">
        <ele>1050.8581542969</ele>
        <time>2010-09-26T08:24:46Z</time>
      </trkpt>
      <trkpt lat="43.59431" lon="2.97287">
        <ele>1050.8581542969</ele>
        <time>2010-09-26T08:24:49Z</time>
      </trkpt>
      <trkpt lat="43.59434" lon="2.97296">
        <ele>1050.3776855469</ele>
        <time>2010-09-26T08:24:53Z</time>
      </trkpt>
      <trkpt lat="43.59434" lon="2.97297">
        <ele>1050.3776855469</ele>
        <time>2010-09-26T08:24:54Z</time>
      </trkpt>
      <trkpt lat="43.59436" lon="2.97309">
        <ele>1050.8581542969</ele>
        <time>2010-09-26T08:25:02Z</time>
      </trkpt>
      <trkpt lat="43.59438" lon="2.97318">
        <ele>1051.3388671875</ele>
        <time>2010-09-26T08:25:07Z</time>
      </trkpt>
      <trkpt lat="43.59439" lon="2.97338">
        <ele>1049.8969726562</ele>
        <time>2010-09-26T08:25:13Z</time>
      </trkpt>
      <trkpt lat="43.5944" lon="2.97349">
        <ele>1052.3002929688</ele>
        <time>2010-09-26T08:25:18Z</time>
      </trkpt>
      <trkpt lat="43.59439" lon="2.97352">
        <ele>1051.8195800781</ele>
        <time>2010-09-26T08:25:19Z</time>
      </trkpt>
      <trkpt lat="43.59426" lon="2.97363">
        <ele>1048.4548339844</ele>
        <time>2010-09-26T08:25:25Z</time>
      </trkpt>
      <trkpt lat="43.59422" lon="2.97365">
        <ele>1047.4936523438</ele>
        <time>2010-09-26T08:25:27Z</time>
      </trkpt>
      <trkpt lat="43.59414" lon="2.97383">
        <ele>1047.9743652344</ele>
        <time>2010-09-26T08:25:33Z</time>
      </trkpt>
      <trkpt lat="43.59416" lon="2.97388">
        <ele>1048.4548339844</ele>
        <time>2010-09-26T08:25:35Z</time>
      </trkpt>
      <trkpt lat="43.59421" lon="2.97409">
        <ele>1049.4162597656</ele>
        <time>2010-09-26T08:25:41Z</time>
      </trkpt>
      <trkpt lat="43.59424" lon="2.9742">
        <ele>1049.8969726562</ele>
        <time>2010-09-26T08:25:44Z</time>
      </trkpt>
      <trkpt lat="43.59427" lon="2.97432">
        <ele>1051.8195800781</ele>
        <time>2010-09-26T08:25:48Z</time>
      </trkpt>
      <trkpt lat="43.59428" lon="2.97439">
        <ele>1051.8195800781</ele>
        <time>2010-09-26T08:25:50Z</time>
      </trkpt>
      <trkpt lat="43.59433" lon="2.97448">
        <ele>1052.7810058594</ele>
        <time>2010-09-26T08:25:54Z</time>
      </trkpt>
      <trkpt lat="43.5944" lon="2.97451">
        <ele>1052.7810058594</ele>
        <time>2010-09-26T08:25:58Z</time>
      </trkpt>
      <trkpt lat="43.59443" lon="2.97452">
        <ele>1052.7810058594</ele>
        <time>2010-09-26T08:25:59Z</time>
      </trkpt>
      <trkpt lat="43.59456" lon="2.97463">
        <ele>1051.8195800781</ele>
        <time>2010-09-26T08:26:05Z</time>
      </trkpt>
      <trkpt lat="43.59464" lon="2.97475">
        <ele>1049.8969726562</ele>
        <time>2010-09-26T08:26:10Z</time>
      </trkpt>
      <trkpt lat="43.5947" lon="2.97483">
        <ele>1048.935546875</ele>
        <time>2010-09-26T08:26:13Z</time>
      </trkpt>
      <trkpt lat="43.59477" lon="2.97493">
        <ele>1049.8969726562</ele>
        <time>2010-09-26T08:26:18Z</time>
      </trkpt>
      <trkpt lat="43.59484" lon="2.97507">
        <ele>1051.3388671875</ele>
        <time>2010-09-26T08:26:25Z</time>
      </trkpt>
      <trkpt lat="43.59489" lon="2.97512">
        <ele>1052.7810058594</ele>
        <time>2010-09-26T08:26:28Z</time>
      </trkpt>
      <trkpt lat="43.59502" lon="2.97528">
        <ele>1056.1455078125</ele>
        <time>2010-09-26T08:26:36Z</time>
      </trkpt>
      <trkpt lat="43.59509" lon="2.97538">
        <ele>1057.1069335938</ele>
        <time>2010-09-26T08:26:41Z</time>
      </trkpt>
      <trkpt lat="43.5951" lon="2.9754">
        <ele>1057.5876464844</ele>
        <time>2010-09-26T08:26:42Z</time>
      </trkpt>
      <trkpt lat="43.59519" lon="2.97553">
        <ele>1058.548828125</ele>
        <time>2010-09-26T08:26:49Z</time>
      </trkpt>
      <trkpt lat="43.59526" lon="2.97564">
        <ele>1058.548828125</ele>
        <time>2010-09-26T08:26:54Z</time>
      </trkpt>
      <trkpt lat="43.59534" lon="2.97577">
        <ele>1059.9907226562</ele>
        <time>2010-09-26T08:27:00Z</time>
      </trkpt>
      <trkpt lat="43.59538" lon="2.97582">
        <ele>1061.4328613281</ele>
        <time>2010-09-26T08:27:02Z</time>
      </trkpt>
      <trkpt lat="43.59544" lon="2.97591">
        <ele>1063.35546875</ele>
        <time>2010-09-26T08:27:07Z</time>
      </trkpt>
      <trkpt lat="43.59551" lon="2.97605">
        <ele>1063.8359375</ele>
        <time>2010-09-26T08:27:13Z</time>
      </trkpt>
      <trkpt lat="43.59554" lon="2.97612">
        <ele>1064.7973632812</ele>
        <time>2010-09-26T08:27:16Z</time>
      </trkpt>
      <trkpt lat="43.59556" lon="2.97624">
        <ele>1064.3166503906</ele>
        <time>2010-09-26T08:27:20Z</time>
      </trkpt>
      <trkpt lat="43.59562" lon="2.97634">
        <ele>1065.2780761719</ele>
        <time>2010-09-26T08:27:24Z</time>
      </trkpt>
      <trkpt lat="43.59565" lon="2.97644">
        <ele>1067.2006835938</ele>
        <time>2010-09-26T08:27:28Z</time>
      </trkpt>
      <trkpt lat="43.59568" lon="2.97658">
        <ele>1069.1235351562</ele>
        <time>2010-09-26T08:27:33Z</time>
      </trkpt>
      <trkpt lat="43.59568" lon="2.97668">
        <ele>1069.6042480469</ele>
        <time>2010-09-26T08:27:36Z</time>
      </trkpt>
      <trkpt lat="43.59569" lon="2.9768">
        <ele>1071.0461425781</ele>
        <time>2010-09-26T08:27:40Z</time>
      </trkpt>
      <trkpt lat="43.59571" lon="2.977">
        <ele>1069.6042480469</ele>
        <time>2010-09-26T08:27:46Z</time>
      </trkpt>
      <trkpt lat="43.59579" lon="2.97715">
        <ele>1067.2006835938</ele>
        <time>2010-09-26T08:27:52Z</time>
      </trkpt>
      <trkpt lat="43.59582" lon="2.97714">
        <ele>1067.6811523438</ele>
        <time>2010-09-26T08:27:58Z</time>
      </trkpt>
      <trkpt lat="43.59582" lon="2.97715">
        <ele>1064.7973632812</ele>
        <time>2010-09-26T08:28:19Z</time>
      </trkpt>
      <trkpt lat="43.59582" lon="2.97716">
        <ele>1064.3166503906</ele>
        <time>2010-09-26T08:28:32Z</time>
      </trkpt>
      <trkpt lat="43.59584" lon="2.97717">
        <ele>1063.8359375</ele>
        <time>2010-09-26T08:28:41Z</time>
      </trkpt>
      <trkpt lat="43.59584" lon="2.97718">
        <ele>1065.2780761719</ele>
        <time>2010-09-26T08:29:01Z</time>
      </trkpt>
      <trkpt lat="43.59583" lon="2.97721">
        <ele>1064.3166503906</ele>
        <time>2010-09-26T08:29:20Z</time>
      </trkpt>
      <trkpt lat="43.59583" lon="2.97723">
        <ele>1066.7199707031</ele>
        <time>2010-09-26T08:29:29Z</time>
      </trkpt>
      <trkpt lat="43.59587" lon="2.97725">
        <ele>1066.7199707031</ele>
        <time>2010-09-26T08:29:38Z</time>
      </trkpt>
      <trkpt lat="43.5959" lon="2.9773">
        <ele>1066.2392578125</ele>
        <time>2010-09-26T08:29:45Z</time>
      </trkpt>
      <trkpt lat="43.59594" lon="2.97731">
        <ele>1066.2392578125</ele>
        <time>2010-09-26T08:29:50Z</time>
      </trkpt>
      <trkpt lat="43.59596" lon="2.97734">
        <ele>1065.2780761719</ele>
        <time>2010-09-26T08:29:56Z</time>
      </trkpt>
      <trkpt lat="43.59599" lon="2.97736">
        <ele>1064.7973632812</ele>
        <time>2010-09-26T08:30:02Z</time>
      </trkpt>
      <trkpt lat="43.59602" lon="2.97738">
        <ele>1063.8359375</ele>
        <time>2010-09-26T08:30:08Z</time>
      </trkpt>
      <trkpt lat="43.59608" lon="2.97741">
        <ele>1063.35546875</ele>
        <time>2010-09-26T08:30:15Z</time>
      </trkpt>
      <trkpt lat="43.59614" lon="2.97748">
        <ele>1059.9907226562</ele>
        <time>2010-09-26T08:30:23Z</time>
      </trkpt>
      <trkpt lat="43.59618" lon="2.97751">
        <ele>1061.9135742188</ele>
        <time>2010-09-26T08:30:29Z</time>
      </trkpt>
      <trkpt lat="43.59622" lon="2.97753">
        <ele>1063.8359375</ele>
        <time>2010-09-26T08:30:32Z</time>
      </trkpt>
      <trkpt lat="43.59626" lon="2.97759">
        <ele>1064.3166503906</ele>
        <time>2010-09-26T08:30:38Z</time>
      </trkpt>
      <trkpt lat="43.59631" lon="2.97763">
        <ele>1063.8359375</ele>
        <time>2010-09-26T08:30:45Z</time>
      </trkpt>
      <trkpt lat="43.59638" lon="2.97771">
        <ele>1061.9135742188</ele>
        <time>2010-09-26T08:30:49Z</time>
      </trkpt>
      <trkpt lat="43.59649" lon="2.9778">
        <ele>1063.8359375</ele>
        <time>2010-09-26T08:30:53Z</time>
      </trkpt>
      <trkpt lat="43.59658" lon="2.97791">
        <ele>1063.35546875</ele>
        <time>2010-09-26T08:30:58Z</time>
      </trkpt>
      <trkpt lat="43.59669" lon="2.97803">
        <ele>1068.162109375</ele>
        <time>2010-09-26T08:31:04Z</time>
      </trkpt>
      <trkpt lat="43.59679" lon="2.97813">
        <ele>1066.2392578125</ele>
        <time>2010-09-26T08:31:09Z</time>
      </trkpt>
      <trkpt lat="43.59688" lon="2.97824">
        <ele>1063.8359375</ele>
        <time>2010-09-26T08:31:13Z</time>
      </trkpt>
      <trkpt lat="43.59698" lon="2.97834">
        <ele>1063.35546875</ele>
        <time>2010-09-26T08:31:18Z</time>
      </trkpt>
      <trkpt lat="43.59706" lon="2.9784">
        <ele>1063.8359375</ele>
        <time>2010-09-26T08:31:22Z</time>
      </trkpt>
      <trkpt lat="43.59709" lon="2.9784">
        <ele>1064.7973632812</ele>
        <time>2010-09-26T08:31:23Z</time>
      </trkpt>
      <trkpt lat="43.59728" lon="2.97836">
        <ele>1065.7587890625</ele>
        <time>2010-09-26T08:31:30Z</time>
      </trkpt>
      <trkpt lat="43.5973" lon="2.97836">
        <ele>1064.7973632812</ele>
        <time>2010-09-26T08:31:31Z</time>
      </trkpt>
      <trkpt lat="43.59741" lon="2.97837">
        <ele>1066.2392578125</ele>
        <time>2010-09-26T08:31:35Z</time>
      </trkpt>
      <trkpt lat="43.59756" lon="2.97838">
        <ele>1064.7973632812</ele>
        <time>2010-09-26T08:31:43Z</time>
      </trkpt>
      <trkpt lat="43.59766" lon="2.97837">
        <ele>1063.35546875</ele>
        <time>2010-09-26T08:31:47Z</time>
      </trkpt>
      <trkpt lat="43.59781" lon="2.97836">
        <ele>1061.4328613281</ele>
        <time>2010-09-26T08:31:53Z</time>
      </trkpt>
      <trkpt lat="43.59783" lon="2.97836">
        <ele>1061.4328613281</ele>
        <time>2010-09-26T08:31:54Z</time>
      </trkpt>
      <trkpt lat="43.59792" lon="2.97838">
        <ele>1062.8747558594</ele>
        <time>2010-09-26T08:31:58Z</time>
      </trkpt>
      <trkpt lat="43.598" lon="2.97844">
        <ele>1060.4714355469</ele>
        <time>2010-09-26T08:32:02Z</time>
      </trkpt>
      <trkpt lat="43.5981" lon="2.97853">
        <ele>1059.9907226562</ele>
        <time>2010-09-26T08:32:07Z</time>
      </trkpt>
      <trkpt lat="43.59815" lon="2.97861">
        <ele>1059.9907226562</ele>
        <time>2010-09-26T08:32:10Z</time>
      </trkpt>
      <trkpt lat="43.59819" lon="2.97865">
        <ele>1059.5102539062</ele>
        <time>2010-09-26T08:32:12Z</time>
      </trkpt>
      <trkpt lat="43.59828" lon="2.97873">
        <ele>1061.4328613281</ele>
        <time>2010-09-26T08:32:16Z</time>
      </trkpt>
      <trkpt lat="43.59837" lon="2.97887">
        <ele>1061.9135742188</ele>
        <time>2010-09-26T08:32:22Z</time>
      </trkpt>
      <trkpt lat="43.59841" lon="2.97895">
        <ele>1061.9135742188</ele>
        <time>2010-09-26T08:32:25Z</time>
      </trkpt>
      <trkpt lat="43.59845" lon="2.97901">
        <ele>1062.8747558594</ele>
        <time>2010-09-26T08:32:29Z</time>
      </trkpt>
      <trkpt lat="43.59848" lon="2.97901">
        <ele>1066.2392578125</ele>
        <time>2010-09-26T08:32:40Z</time>
      </trkpt>
      <trkpt lat="43.5985" lon="2.97905">
        <ele>1064.7973632812</ele>
        <time>2010-09-26T08:32:47Z</time>
      </trkpt>
      <trkpt lat="43.59853" lon="2.97912">
        <ele>1061.9135742188</ele>
        <time>2010-09-26T08:32:52Z</time>
      </trkpt>
      <trkpt lat="43.59858" lon="2.97926">
        <ele>1060.9521484375</ele>
        <time>2010-09-26T08:32:57Z</time>
      </trkpt>
      <trkpt lat="43.59867" lon="2.97932">
        <ele>1060.9521484375</ele>
        <time>2010-09-26T08:33:00Z</time>
      </trkpt>
      <trkpt lat="43.59873" lon="2.97942">
        <ele>1060.4714355469</ele>
        <time>2010-09-26T08:33:03Z</time>
      </trkpt>
      <trkpt lat="43.59878" lon="2.97955">
        <ele>1060.4714355469</ele>
        <time>2010-09-26T08:33:07Z</time>
      </trkpt>
      <trkpt lat="43.59889" lon="2.9797">
        <ele>1059.9907226562</ele>
        <time>2010-09-26T08:33:13Z</time>
      </trkpt>
      <trkpt lat="43.59895" lon="2.97986">
        <ele>1059.0295410156</ele>
        <time>2010-09-26T08:33:18Z</time>
      </trkpt>
      <trkpt lat="43.59896" lon="2.97989">
        <ele>1058.548828125</ele>
        <time>2010-09-26T08:33:19Z</time>
      </trkpt>
      <trkpt lat="43.59906" lon="2.98001">
        <ele>1055.6650390625</ele>
        <time>2010-09-26T08:33:25Z</time>
      </trkpt>
      <trkpt lat="43.59918" lon="2.9801">
        <ele>1056.1455078125</ele>
        <time>2010-09-26T08:33:29Z</time>
      </trkpt>
      <trkpt lat="43.59925" lon="2.98025">
        <ele>1056.1455078125</ele>
        <time>2010-09-26T08:33:34Z</time>
      </trkpt>
      <trkpt lat="43.59931" lon="2.98039">
        <ele>1056.6262207031</ele>
        <time>2010-09-26T08:33:38Z</time>
      </trkpt>
      <trkpt lat="43.59939" lon="2.98048">
        <ele>1057.1069335938</ele>
        <time>2010-09-26T08:33:42Z</time>
      </trkpt>
      <trkpt lat="43.59954" lon="2.98057">
        <ele>1059.0295410156</ele>
        <time>2010-09-26T08:33:48Z</time>
      </trkpt>
      <trkpt lat="43.59959" lon="2.98065">
        <ele>1060.4714355469</ele>
        <time>2010-09-26T08:33:52Z</time>
      </trkpt>
      <trkpt lat="43.59968" lon="2.98075">
        <ele>1060.9521484375</ele>
        <time>2010-09-26T08:33:57Z</time>
      </trkpt>
      <trkpt lat="43.59973" lon="2.98083">
        <ele>1061.4328613281</ele>
        <time>2010-09-26T08:34:00Z</time>
      </trkpt>
      <trkpt lat="43.59984" lon="2.98096">
        <ele>1062.3940429688</ele>
        <time>2010-09-26T08:34:06Z</time>
      </trkpt>
      <trkpt lat="43.59991" lon="2.9811">
        <ele>1060.9521484375</ele>
        <time>2010-09-26T08:34:11Z</time>
      </trkpt>
      <trkpt lat="43.59998" lon="2.98123">
        <ele>1059.5102539062</ele>
        <time>2010-09-26T08:34:15Z</time>
      </trkpt>
      <trkpt lat="43.60004" lon="2.98131">
        <ele>1058.548828125</ele>
        <time>2010-09-26T08:34:18Z</time>
      </trkpt>
      <trkpt lat="43.60013" lon="2.98146">
        <ele>1058.548828125</ele>
        <time>2010-09-26T08:34:23Z</time>
      </trkpt>
      <trkpt lat="43.60019" lon="2.98154">
        <ele>1058.548828125</ele>
        <time>2010-09-26T08:34:27Z</time>
      </trkpt>
      <trkpt lat="43.60021" lon="2.98156">
        <ele>1059.0295410156</ele>
        <time>2010-09-26T08:34:29Z</time>
      </trkpt>
      <trkpt lat="43.60026" lon="2.98163">
        <ele>1059.0295410156</ele>
        <time>2010-09-26T08:34:33Z</time>
      </trkpt>
      <trkpt lat="43.60035" lon="2.98176">
        <ele>1056.6262207031</ele>
        <time>2010-09-26T08:34:39Z</time>
      </trkpt>
      <trkpt lat="43.60036" lon="2.98178">
        <ele>1056.6262207031</ele>
        <time>2010-09-26T08:34:40Z</time>
      </trkpt>
      <trkpt lat="43.60047" lon="2.98191">
        <ele>1054.7036132812</ele>
        <time>2010-09-26T08:34:46Z</time>
      </trkpt>
      <trkpt lat="43.60053" lon="2.98197">
        <ele>1053.26171875</ele>
        <time>2010-09-26T08:34:49Z</time>
      </trkpt>
      <trkpt lat="43.60061" lon="2.98211">
        <ele>1051.8195800781</ele>
        <time>2010-09-26T08:34:54Z</time>
      </trkpt>
      <trkpt lat="43.60062" lon="2.98214">
        <ele>1051.8195800781</ele>
        <time>2010-09-26T08:34:55Z</time>
      </trkpt>
      <trkpt lat="43.60075" lon="2.98234">
        <ele>1049.4162597656</ele>
        <time>2010-09-26T08:35:02Z</time>
      </trkpt>
      <trkpt lat="43.60083" lon="2.98247">
        <ele>1047.4936523438</ele>
        <time>2010-09-26T08:35:07Z</time>
      </trkpt>
      <trkpt lat="43.60092" lon="2.98261">
        <ele>1046.5324707031</ele>
        <time>2010-09-26T08:35:12Z</time>
      </trkpt>
      <trkpt lat="43.60106" lon="2.98276">
        <ele>1046.0517578125</ele>
        <time>2010-09-26T08:35:18Z</time>
      </trkpt>
      <trkpt lat="43.60115" lon="2.98284">
        <ele>1045.0903320312</ele>
        <time>2010-09-26T08:35:22Z</time>
      </trkpt>
      <trkpt lat="43.60127" lon="2.98292">
        <ele>1044.6096191406</ele>
        <time>2010-09-26T08:35:27Z</time>
      </trkpt>
      <trkpt lat="43.60134" lon="2.98308">
        <ele>1044.1291503906</ele>
        <time>2010-09-26T08:35:32Z</time>
      </trkpt>
      <trkpt lat="43.60142" lon="2.9832">
        <ele>1045.0903320312</ele>
        <time>2010-09-26T08:35:37Z</time>
      </trkpt>
      <trkpt lat="43.60153" lon="2.98334">
        <ele>1045.0903320312</ele>
        <time>2010-09-26T08:35:44Z</time>
      </trkpt>
      <trkpt lat="43.60155" lon="2.98336">
        <ele>1045.0903320312</ele>
        <time>2010-09-26T08:35:48Z</time>
      </trkpt>
      <trkpt lat="43.60157" lon="2.9834">
        <ele>1044.6096191406</ele>
        <time>2010-09-26T08:35:50Z</time>
      </trkpt>
      <trkpt lat="43.60164" lon="2.98359">
        <ele>1043.1677246094</ele>
        <time>2010-09-26T08:35:56Z</time>
      </trkpt>
      <trkpt lat="43.60168" lon="2.98375">
        <ele>1043.6484375</ele>
        <time>2010-09-26T08:36:01Z</time>
      </trkpt>
      <trkpt lat="43.60173" lon="2.98389">
        <ele>1044.1291503906</ele>
        <time>2010-09-26T08:36:05Z</time>
      </trkpt>
      <trkpt lat="43.60181" lon="2.98398">
        <ele>1044.1291503906</ele>
        <time>2010-09-26T08:36:09Z</time>
      </trkpt>
      <trkpt lat="43.60187" lon="2.98413">
        <ele>1045.5710449219</ele>
        <time>2010-09-26T08:36:14Z</time>
      </trkpt>
      <trkpt lat="43.60189" lon="2.98421">
        <ele>1046.0517578125</ele>
        <time>2010-09-26T08:36:17Z</time>
      </trkpt>
      <trkpt lat="43.60201" lon="2.98425">
        <ele>1045.5710449219</ele>
        <time>2010-09-26T08:36:21Z</time>
      </trkpt>
      <trkpt lat="43.60213" lon="2.98429">
        <ele>1046.5324707031</ele>
        <time>2010-09-26T08:36:25Z</time>
      </trkpt>
      <trkpt lat="43.60218" lon="2.98435">
        <ele>1047.0129394531</ele>
        <time>2010-09-26T08:36:28Z</time>
      </trkpt>
      <trkpt lat="43.60223" lon="2.98452">
        <ele>1047.0129394531</ele>
        <time>2010-09-26T08:36:34Z</time>
      </trkpt>
      <trkpt lat="43.60222" lon="2.98458">
        <ele>1047.0129394531</ele>
        <time>2010-09-26T08:36:36Z</time>
      </trkpt>
      <trkpt lat="43.60226" lon="2.98474">
        <ele>1048.4548339844</ele>
        <time>2010-09-26T08:36:41Z</time>
      </trkpt>
      <trkpt lat="43.60223" lon="2.98487">
        <ele>1048.935546875</ele>
        <time>2010-09-26T08:36:45Z</time>
      </trkpt>
      <trkpt lat="43.60223" lon="2.98502">
        <ele>1049.4162597656</ele>
        <time>2010-09-26T08:36:50Z</time>
      </trkpt>
      <trkpt lat="43.60225" lon="2.98518">
        <ele>1050.8581542969</ele>
        <time>2010-09-26T08:36:55Z</time>
      </trkpt>
      <trkpt lat="43.60224" lon="2.98527">
        <ele>1050.3776855469</ele>
        <time>2010-09-26T08:36:58Z</time>
      </trkpt>
      <trkpt lat="43.60228" lon="2.98535">
        <ele>1050.8581542969</ele>
        <time>2010-09-26T08:37:02Z</time>
      </trkpt>
      <trkpt lat="43.60229" lon="2.98543">
        <ele>1050.3776855469</ele>
        <time>2010-09-26T08:37:05Z</time>
      </trkpt>
      <trkpt lat="43.60227" lon="2.98557">
        <ele>1049.4162597656</ele>
        <time>2010-09-26T08:37:09Z</time>
      </trkpt>
      <trkpt lat="43.60227" lon="2.98569">
        <ele>1048.935546875</ele>
        <time>2010-09-26T08:37:13Z</time>
      </trkpt>
      <trkpt lat="43.60228" lon="2.98585">
        <ele>1048.4548339844</ele>
        <time>2010-09-26T08:37:18Z</time>
      </trkpt>
      <trkpt lat="43.60226" lon="2.98596">
        <ele>1047.9743652344</ele>
        <time>2010-09-26T08:37:22Z</time>
      </trkpt>
      <trkpt lat="43.60223" lon="2.98606">
        <ele>1047.9743652344</ele>
        <time>2010-09-26T08:37:25Z</time>
      </trkpt>
      <trkpt lat="43.60223" lon="2.98615">
        <ele>1048.4548339844</ele>
        <time>2010-09-26T08:37:28Z</time>
      </trkpt>
      <trkpt lat="43.60222" lon="2.98628">
        <ele>1049.4162597656</ele>
        <time>2010-09-26T08:37:32Z</time>
      </trkpt>
      <trkpt lat="43.60224" lon="2.98642">
        <ele>1050.8581542969</ele>
        <time>2010-09-26T08:37:37Z</time>
      </trkpt>
      <trkpt lat="43.60224" lon="2.98645">
        <ele>1051.3388671875</ele>
        <time>2010-09-26T08:37:38Z</time>
      </trkpt>
      <trkpt lat="43.60225" lon="2.98668">
        <ele>1052.7810058594</ele>
        <time>2010-09-26T08:37:46Z</time>
      </trkpt>
      <trkpt lat="43.60225" lon="2.98678">
        <ele>1054.2231445312</ele>
        <time>2010-09-26T08:37:53Z</time>
      </trkpt>
      <trkpt lat="43.60226" lon="2.98686">
        <ele>1056.1455078125</ele>
        <time>2010-09-26T08:37:59Z</time>
      </trkpt>
      <trkpt lat="43.60227" lon="2.98694">
        <ele>1057.5876464844</ele>
        <time>2010-09-26T08:38:05Z</time>
      </trkpt>
      <trkpt lat="43.60229" lon="2.98698">
        <ele>1058.068359375</ele>
        <time>2010-09-26T08:38:08Z</time>
      </trkpt>
      <trkpt lat="43.60235" lon="2.98713">
        <ele>1060.4714355469</ele>
        <time>2010-09-26T08:38:18Z</time>
      </trkpt>
      <trkpt lat="43.60238" lon="2.98718">
        <ele>1061.4328613281</ele>
        <time>2010-09-26T08:38:22Z</time>
      </trkpt>
      <trkpt lat="43.60246" lon="2.98732">
        <ele>1063.35546875</ele>
        <time>2010-09-26T08:38:32Z</time>
      </trkpt>
      <trkpt lat="43.60249" lon="2.98742">
        <ele>1064.3166503906</ele>
        <time>2010-09-26T08:38:39Z</time>
      </trkpt>
      <trkpt lat="43.60253" lon="2.98752">
        <ele>1065.7587890625</ele>
        <time>2010-09-26T08:38:46Z</time>
      </trkpt>
      <trkpt lat="43.60257" lon="2.98764">
        <ele>1066.7199707031</ele>
        <time>2010-09-26T08:38:53Z</time>
      </trkpt>
      <trkpt lat="43.60262" lon="2.98776">
        <ele>1068.162109375</ele>
        <time>2010-09-26T08:39:01Z</time>
      </trkpt>
      <trkpt lat="43.60267" lon="2.98786">
        <ele>1070.0847167969</ele>
        <time>2010-09-26T08:39:09Z</time>
      </trkpt>
      <trkpt lat="43.6027" lon="2.98793">
        <ele>1070.0847167969</ele>
        <time>2010-09-26T08:39:15Z</time>
      </trkpt>
      <trkpt lat="43.60272" lon="2.98796">
        <ele>1070.0847167969</ele>
        <time>2010-09-26T08:39:20Z</time>
      </trkpt>
      <trkpt lat="43.60276" lon="2.98806">
        <ele>1070.0847167969</ele>
        <time>2010-09-26T08:39:28Z</time>
      </trkpt>
      <trkpt lat="43.60281" lon="2.98822">
        <ele>1070.0847167969</ele>
        <time>2010-09-26T08:39:34Z</time>
      </trkpt>
      <trkpt lat="43.60285" lon="2.98842">
        <ele>1068.162109375</ele>
        <time>2010-09-26T08:39:39Z</time>
      </trkpt>
      <trkpt lat="43.60287" lon="2.98843">
        <ele>1065.7587890625</ele>
        <time>2010-09-26T08:39:46Z</time>
      </trkpt>
      <trkpt lat="43.60288" lon="2.98846">
        <ele>1066.2392578125</ele>
        <time>2010-09-26T08:39:51Z</time>
      </trkpt>
      <trkpt lat="43.6029" lon="2.98849">
        <ele>1066.2392578125</ele>
        <time>2010-09-26T08:39:53Z</time>
      </trkpt>
      <trkpt lat="43.60294" lon="2.98857">
        <ele>1066.2392578125</ele>
        <time>2010-09-26T08:39:58Z</time>
      </trkpt>
      <trkpt lat="43.60297" lon="2.98864">
        <ele>1066.7199707031</ele>
        <time>2010-09-26T08:40:02Z</time>
      </trkpt>
      <trkpt lat="43.60306" lon="2.98885">
        <ele>1064.3166503906</ele>
        <time>2010-09-26T08:40:09Z</time>
      </trkpt>
      <trkpt lat="43.60312" lon="2.98896">
        <ele>1063.8359375</ele>
        <time>2010-09-26T08:40:13Z</time>
      </trkpt>
      <trkpt lat="43.60318" lon="2.98908">
        <ele>1062.8747558594</ele>
        <time>2010-09-26T08:40:17Z</time>
      </trkpt>
      <trkpt lat="43.60327" lon="2.98924">
        <ele>1062.3940429688</ele>
        <time>2010-09-26T08:40:22Z</time>
      </trkpt>
      <trkpt lat="43.60331" lon="2.98936">
        <ele>1061.9135742188</ele>
        <time>2010-09-26T08:40:26Z</time>
      </trkpt>
      <trkpt lat="43.60336" lon="2.9895">
        <ele>1061.4328613281</ele>
        <time>2010-09-26T08:40:30Z</time>
      </trkpt>
      <trkpt lat="43.60343" lon="2.98975">
        <ele>1060.9521484375</ele>
        <time>2010-09-26T08:40:37Z</time>
      </trkpt>
      <trkpt lat="43.60347" lon="2.98987">
        <ele>1060.9521484375</ele>
        <time>2010-09-26T08:40:41Z</time>
      </trkpt>
      <trkpt lat="43.60351" lon="2.9901">
        <ele>1060.4714355469</ele>
        <time>2010-09-26T08:40:47Z</time>
      </trkpt>
      <trkpt lat="43.60355" lon="2.99027">
        <ele>1059.0295410156</ele>
        <time>2010-09-26T08:40:52Z</time>
      </trkpt>
      <trkpt lat="43.60361" lon="2.99048">
        <ele>1059.0295410156</ele>
        <time>2010-09-26T08:40:58Z</time>
      </trkpt>
      <trkpt lat="43.60365" lon="2.99062">
        <ele>1059.0295410156</ele>
        <time>2010-09-26T08:41:02Z</time>
      </trkpt>
      <trkpt lat="43.60367" lon="2.99073">
        <ele>1059.5102539062</ele>
        <time>2010-09-26T08:41:05Z</time>
      </trkpt>
      <trkpt lat="43.60371" lon="2.99088">
        <ele>1059.5102539062</ele>
        <time>2010-09-26T08:41:09Z</time>
      </trkpt>
      <trkpt lat="43.60373" lon="2.99091">
        <ele>1059.5102539062</ele>
        <time>2010-09-26T08:41:10Z</time>
      </trkpt>
      <trkpt lat="43.60379" lon="2.99111">
        <ele>1059.5102539062</ele>
        <time>2010-09-26T08:41:16Z</time>
      </trkpt>
      <trkpt lat="43.60381" lon="2.99114">
        <ele>1059.9907226562</ele>
        <time>2010-09-26T08:41:17Z</time>
      </trkpt>
      <trkpt lat="43.60387" lon="2.99135">
        <ele>1059.9907226562</ele>
        <time>2010-09-26T08:41:23Z</time>
      </trkpt>
      <trkpt lat="43.60389" lon="2.99151">
        <ele>1059.5102539062</ele>
        <time>2010-09-26T08:41:27Z</time>
      </trkpt>
      <trkpt lat="43.60393" lon="2.99169">
        <ele>1059.5102539062</ele>
        <time>2010-09-26T08:41:32Z</time>
      </trkpt>
      <trkpt lat="43.60395" lon="2.99189">
        <ele>1059.5102539062</ele>
        <time>2010-09-26T08:41:37Z</time>
      </trkpt>
      <trkpt lat="43.60397" lon="2.99208">
        <ele>1059.9907226562</ele>
        <time>2010-09-26T08:41:42Z</time>
      </trkpt>
      <trkpt lat="43.60398" lon="2.99228">
        <ele>1059.9907226562</ele>
        <time>2010-09-26T08:41:48Z</time>
      </trkpt>
      <trkpt lat="43.60399" lon="2.99238">
        <ele>1059.9907226562</ele>
        <time>2010-09-26T08:41:51Z</time>
      </trkpt>
      <trkpt lat="43.60401" lon="2.99258">
        <ele>1061.9135742188</ele>
        <time>2010-09-26T08:41:57Z</time>
      </trkpt>
      <trkpt lat="43.60403" lon="2.99275">
        <ele>1062.8747558594</ele>
        <time>2010-09-26T08:42:02Z</time>
      </trkpt>
      <trkpt lat="43.60404" lon="2.99288">
        <ele>1063.8359375</ele>
        <time>2010-09-26T08:42:06Z</time>
      </trkpt>
      <trkpt lat="43.60406" lon="2.99306">
        <ele>1064.3166503906</ele>
        <time>2010-09-26T08:42:11Z</time>
      </trkpt>
      <trkpt lat="43.60405" lon="2.99324">
        <ele>1063.35546875</ele>
        <time>2010-09-26T08:42:16Z</time>
      </trkpt>
      <trkpt lat="43.60406" lon="2.99346">
        <ele>1063.35546875</ele>
        <time>2010-09-26T08:42:22Z</time>
      </trkpt>
      <trkpt lat="43.60407" lon="2.99368">
        <ele>1062.3940429688</ele>
        <time>2010-09-26T08:42:28Z</time>
      </trkpt>
      <trkpt lat="43.60409" lon="2.99385">
        <ele>1061.9135742188</ele>
        <time>2010-09-26T08:42:33Z</time>
      </trkpt>
      <trkpt lat="43.60412" lon="2.99406">
        <ele>1063.35546875</ele>
        <time>2010-09-26T08:42:39Z</time>
      </trkpt>
      <trkpt lat="43.60414" lon="2.99422">
        <ele>1062.3940429688</ele>
        <time>2010-09-26T08:42:44Z</time>
      </trkpt>
      <trkpt lat="43.60414" lon="2.9943">
        <ele>1061.9135742188</ele>
        <time>2010-09-26T08:42:46Z</time>
      </trkpt>
      <trkpt lat="43.60414" lon="2.99445">
        <ele>1060.9521484375</ele>
        <time>2010-09-26T08:42:50Z</time>
      </trkpt>
      <trkpt lat="43.60416" lon="2.99472">
        <ele>1059.5102539062</ele>
        <time>2010-09-26T08:42:58Z</time>
      </trkpt>
      <trkpt lat="43.60417" lon="2.99498">
        <ele>1059.0295410156</ele>
        <time>2010-09-26T08:43:05Z</time>
      </trkpt>
      <trkpt lat="43.60418" lon="2.99508">
        <ele>1058.548828125</ele>
        <time>2010-09-26T08:43:08Z</time>
      </trkpt>
      <trkpt lat="43.60417" lon="2.99531">
        <ele>1058.068359375</ele>
        <time>2010-09-26T08:43:14Z</time>
      </trkpt>
      <trkpt lat="43.60419" lon="2.99548">
        <ele>1057.1069335938</ele>
        <time>2010-09-26T08:43:19Z</time>
      </trkpt>
      <trkpt lat="43.6042" lon="2.99564">
        <ele>1056.1455078125</ele>
        <time>2010-09-26T08:43:24Z</time>
      </trkpt>
      <trkpt lat="43.60423" lon="2.9958">
        <ele>1056.1455078125</ele>
        <time>2010-09-26T08:43:29Z</time>
      </trkpt>
      <trkpt lat="43.60427" lon="2.99596">
        <ele>1055.1843261719</ele>
        <time>2010-09-26T08:43:34Z</time>
      </trkpt>
      <trkpt lat="43.60431" lon="2.99613">
        <ele>1054.2231445312</ele>
        <time>2010-09-26T08:43:39Z</time>
      </trkpt>
      <trkpt lat="43.60436" lon="2.99633">
        <ele>1051.8195800781</ele>
        <time>2010-09-26T08:43:46Z</time>
      </trkpt>
      <trkpt lat="43.60439" lon="2.99643">
        <ele>1049.8969726562</ele>
        <time>2010-09-26T08:43:51Z</time>
      </trkpt>
      <trkpt lat="43.60439" lon="2.99645">
        <ele>1048.4548339844</ele>
        <time>2010-09-26T08:44:00Z</time>
      </trkpt>
      <trkpt lat="43.60444" lon="2.99664">
        <ele>1047.0129394531</ele>
        <time>2010-09-26T08:44:05Z</time>
      </trkpt>
      <trkpt lat="43.60453" lon="2.99677">
        <ele>1046.0517578125</ele>
        <time>2010-09-26T08:44:09Z</time>
      </trkpt>
      <trkpt lat="43.60459" lon="2.99685">
        <ele>1044.6096191406</ele>
        <time>2010-09-26T08:44:13Z</time>
      </trkpt>
      <trkpt lat="43.6046" lon="2.99688">
        <ele>1044.6096191406</ele>
        <time>2010-09-26T08:44:14Z</time>
      </trkpt>
      <trkpt lat="43.60463" lon="2.99695">
        <ele>1043.1677246094</ele>
        <time>2010-09-26T08:44:17Z</time>
      </trkpt>
      <trkpt lat="43.60465" lon="2.99708">
        <ele>1039.3225097656</ele>
        <time>2010-09-26T08:44:23Z</time>
      </trkpt>
      <trkpt lat="43.60474" lon="2.99724">
        <ele>1036.9191894531</ele>
        <time>2010-09-26T08:44:29Z</time>
      </trkpt>
      <trkpt lat="43.60481" lon="2.99741">
        <ele>1033.5544433594</ele>
        <time>2010-09-26T08:44:35Z</time>
      </trkpt>
      <trkpt lat="43.60485" lon="2.99751">
        <ele>1031.1513671875</ele>
        <time>2010-09-26T08:44:39Z</time>
      </trkpt>
      <trkpt lat="43.60492" lon="2.99759">
        <ele>1029.228515625</ele>
        <time>2010-09-26T08:44:43Z</time>
      </trkpt>
      <trkpt lat="43.60495" lon="2.99763">
        <ele>1029.228515625</ele>
        <time>2010-09-26T08:44:45Z</time>
      </trkpt>
      <trkpt lat="43.60502" lon="2.9978">
        <ele>1027.3061523438</ele>
        <time>2010-09-26T08:44:51Z</time>
      </trkpt>
      <trkpt lat="43.60509" lon="2.99796">
        <ele>1024.9028320312</ele>
        <time>2010-09-26T08:44:57Z</time>
      </trkpt>
      <trkpt lat="43.60514" lon="2.99809">
        <ele>1023.94140625</ele>
        <time>2010-09-26T08:45:02Z</time>
      </trkpt>
      <trkpt lat="43.60516" lon="2.99812">
        <ele>1023.4609375</ele>
        <time>2010-09-26T08:45:03Z</time>
      </trkpt>
      <trkpt lat="43.60519" lon="2.99826">
        <ele>1021.0576171875</ele>
        <time>2010-09-26T08:45:08Z</time>
      </trkpt>
      <trkpt lat="43.60521" lon="2.99833">
        <ele>1019.6154785156</ele>
        <time>2010-09-26T08:45:11Z</time>
      </trkpt>
      <trkpt lat="43.60526" lon="2.99851">
        <ele>1017.2121582031</ele>
        <time>2010-09-26T08:45:18Z</time>
      </trkpt>
      <trkpt lat="43.60532" lon="2.9986">
        <ele>1015.2895507812</ele>
        <time>2010-09-26T08:45:23Z</time>
      </trkpt>
      <trkpt lat="43.60537" lon="2.99875">
        <ele>1012.4055175781</ele>
        <time>2010-09-26T08:45:30Z</time>
      </trkpt>
      <trkpt lat="43.60545" lon="2.99886">
        <ele>1010.4829101562</ele>
        <time>2010-09-26T08:45:36Z</time>
      </trkpt>
      <trkpt lat="43.6055" lon="2.99893">
        <ele>1009.5217285156</ele>
        <time>2010-09-26T08:45:40Z</time>
      </trkpt>
      <trkpt lat="43.60558" lon="2.99898">
        <ele>1008.5603027344</ele>
        <time>2010-09-26T08:45:45Z</time>
      </trkpt>
      <trkpt lat="43.6056" lon="2.99903">
        <ele>1007.5991210938</ele>
        <time>2010-09-26T08:45:47Z</time>
      </trkpt>
      <trkpt lat="43.60568" lon="2.99921">
        <ele>1005.1958007812</ele>
        <time>2010-09-26T08:45:54Z</time>
      </trkpt>
      <trkpt lat="43.60574" lon="2.99931">
        <ele>1004.2346191406</ele>
        <time>2010-09-26T08:45:59Z</time>
      </trkpt>
      <trkpt lat="43.60575" lon="2.99934">
        <ele>1004.2346191406</ele>
        <time>2010-09-26T08:46:00Z</time>
      </trkpt>
      <trkpt lat="43.60582" lon="2.99945">
        <ele>1003.2729492188</ele>
        <time>2010-09-26T08:46:05Z</time>
      </trkpt>
      <trkpt lat="43.60587" lon="2.99959">
        <ele>1002.3115234375</ele>
        <time>2010-09-26T08:46:10Z</time>
      </trkpt>
      <trkpt lat="43.60592" lon="2.9997">
        <ele>1001.8310546875</ele>
        <time>2010-09-26T08:46:14Z</time>
      </trkpt>
      <trkpt lat="43.606" lon="2.99977">
        <ele>1001.3503417969</ele>
        <time>2010-09-26T08:46:18Z</time>
      </trkpt>
      <trkpt lat="43.60604" lon="2.99983">
        <ele>1000.8696289062</ele>
        <time>2010-09-26T08:46:21Z</time>
      </trkpt>
      <trkpt lat="43.60606" lon="2.99985">
        <ele>1000.3891601562</ele>
        <time>2010-09-26T08:46:22Z</time>
      </trkpt>
      <trkpt lat="43.60624" lon="2.99998">
        <ele>1000.8696289062</ele>
        <time>2010-09-26T08:46:30Z</time>
      </trkpt>
      <trkpt lat="43.60629" lon="3.00001">
        <ele>1000.3891601562</ele>
        <time>2010-09-26T08:46:33Z</time>
      </trkpt>
      <trkpt lat="43.60639" lon="3.00018">
        <ele>997.0244140625</ele>
        <time>2010-09-26T08:46:40Z</time>
      </trkpt>
      <trkpt lat="43.6064" lon="3.00019">
        <ele>996.5439453125</ele>
        <time>2010-09-26T08:46:41Z</time>
      </trkpt>
      <trkpt lat="43.60646" lon="3.00032">
        <ele>993.65991210938</ele>
        <time>2010-09-26T08:46:47Z</time>
      </trkpt>
      <trkpt lat="43.60647" lon="3.00041">
        <ele>992.21801757812</ele>
        <time>2010-09-26T08:46:52Z</time>
      </trkpt>
      <trkpt lat="43.6065" lon="3.00049">
        <ele>991.25659179688</ele>
        <time>2010-09-26T08:46:56Z</time>
      </trkpt>
      <trkpt lat="43.60651" lon="3.00055">
        <ele>989.333984375</ele>
        <time>2010-09-26T08:46:59Z</time>
      </trkpt>
      <trkpt lat="43.60664" lon="3.00074">
        <ele>986.93041992188</ele>
        <time>2010-09-26T08:47:07Z</time>
      </trkpt>
      <trkpt lat="43.6067" lon="3.00086">
        <ele>985.48852539062</ele>
        <time>2010-09-26T08:47:12Z</time>
      </trkpt>
      <trkpt lat="43.60685" lon="3.00095">
        <ele>985.48852539062</ele>
        <time>2010-09-26T08:47:18Z</time>
      </trkpt>
      <trkpt lat="43.60688" lon="3.00096">
        <ele>985.96923828125</ele>
        <time>2010-09-26T08:47:19Z</time>
      </trkpt>
      <trkpt lat="43.60698" lon="3.00105">
        <ele>984.52734375</ele>
        <time>2010-09-26T08:47:24Z</time>
      </trkpt>
      <trkpt lat="43.6071" lon="3.00114">
        <ele>982.60473632812</ele>
        <time>2010-09-26T08:47:30Z</time>
      </trkpt>
      <trkpt lat="43.60717" lon="3.00123">
        <ele>981.16284179688</ele>
        <time>2010-09-26T08:47:34Z</time>
      </trkpt>
      <trkpt lat="43.60725" lon="3.00137">
        <ele>979.720703125</ele>
        <time>2010-09-26T08:47:39Z</time>
      </trkpt>
      <trkpt lat="43.60731" lon="3.00151">
        <ele>978.75952148438</ele>
        <time>2010-09-26T08:47:44Z</time>
      </trkpt>
      <trkpt lat="43.60738" lon="3.00162">
        <ele>978.27880859375</ele>
        <time>2010-09-26T08:47:48Z</time>
      </trkpt>
      <trkpt lat="43.60739" lon="3.00164">
        <ele>977.79809570312</ele>
        <time>2010-09-26T08:47:49Z</time>
      </trkpt>
      <trkpt lat="43.60744" lon="3.00175">
        <ele>977.79809570312</ele>
        <time>2010-09-26T08:47:53Z</time>
      </trkpt>
      <trkpt lat="43.60749" lon="3.00185">
        <ele>977.31762695312</ele>
        <time>2010-09-26T08:47:57Z</time>
      </trkpt>
      <trkpt lat="43.60758" lon="3.00197">
        <ele>976.8369140625</ele>
        <time>2010-09-26T08:48:02Z</time>
      </trkpt>
      <trkpt lat="43.60769" lon="3.00209">
        <ele>974.43359375</ele>
        <time>2010-09-26T08:48:08Z</time>
      </trkpt>
      <trkpt lat="43.60773" lon="3.0021">
        <ele>973.95288085938</ele>
        <time>2010-09-26T08:48:11Z</time>
      </trkpt>
      <trkpt lat="43.60779" lon="3.00213">
        <ele>971.54931640625</ele>
        <time>2010-09-26T08:48:17Z</time>
      </trkpt>
      <trkpt lat="43.60782" lon="3.00221">
        <ele>969.626953125</ele>
        <time>2010-09-26T08:48:21Z</time>
      </trkpt>
      <trkpt lat="43.60786" lon="3.00226">
        <ele>969.14624023438</ele>
        <time>2010-09-26T08:48:24Z</time>
      </trkpt>
      <trkpt lat="43.60791" lon="3.00229">
        <ele>968.66552734375</ele>
        <time>2010-09-26T08:48:27Z</time>
      </trkpt>
      <trkpt lat="43.60796" lon="3.00234">
        <ele>967.7041015625</ele>
        <time>2010-09-26T08:48:31Z</time>
      </trkpt>
      <trkpt lat="43.60806" lon="3.00236">
        <ele>965.30102539062</ele>
        <time>2010-09-26T08:48:37Z</time>
      </trkpt>
      <trkpt lat="43.60811" lon="3.0024">
        <ele>963.85888671875</ele>
        <time>2010-09-26T08:48:41Z</time>
      </trkpt>
      <trkpt lat="43.60815" lon="3.0024">
        <ele>963.85888671875</ele>
        <time>2010-09-26T08:48:44Z</time>
      </trkpt>
      <trkpt lat="43.60819" lon="3.00244">
        <ele>962.89770507812</ele>
        <time>2010-09-26T08:48:50Z</time>
      </trkpt>
      <trkpt lat="43.60821" lon="3.00245">
        <ele>961.9365234375</ele>
        <time>2010-09-26T08:48:56Z</time>
      </trkpt>
      <trkpt lat="43.6083" lon="3.00251">
        <ele>960.013671875</ele>
        <time>2010-09-26T08:49:00Z</time>
      </trkpt>
      <trkpt lat="43.60833" lon="3.00264">
        <ele>957.61059570312</ele>
        <time>2010-09-26T08:49:05Z</time>
      </trkpt>
      <trkpt lat="43.60835" lon="3.00268">
        <ele>956.16845703125</ele>
        <time>2010-09-26T08:49:09Z</time>
      </trkpt>
      <trkpt lat="43.60837" lon="3.00269">
        <ele>955.68774414062</ele>
        <time>2010-09-26T08:49:15Z</time>
      </trkpt>
      <trkpt lat="43.60841" lon="3.00274">
        <ele>954.72631835938</ele>
        <time>2010-09-26T08:49:20Z</time>
      </trkpt>
      <trkpt lat="43.60842" lon="3.00276">
        <ele>954.24584960938</ele>
        <time>2010-09-26T08:49:21Z</time>
      </trkpt>
      <trkpt lat="43.60852" lon="3.0028">
        <ele>950.88110351562</ele>
        <time>2010-09-26T08:49:27Z</time>
      </trkpt>
      <trkpt lat="43.60859" lon="3.00284">
        <ele>947.99731445312</ele>
        <time>2010-09-26T08:49:32Z</time>
      </trkpt>
      <trkpt lat="43.60869" lon="3.00284">
        <ele>945.59399414062</ele>
        <time>2010-09-26T08:49:37Z</time>
      </trkpt>
      <trkpt lat="43.60873" lon="3.00288">
        <ele>945.11328125</ele>
        <time>2010-09-26T08:49:39Z</time>
      </trkpt>
      <trkpt lat="43.60884" lon="3.00298">
        <ele>943.19067382812</ele>
        <time>2010-09-26T08:49:45Z</time>
      </trkpt>
      <trkpt lat="43.60885" lon="3.00299">
        <ele>942.71020507812</ele>
        <time>2010-09-26T08:49:46Z</time>
      </trkpt>
      <trkpt lat="43.60891" lon="3.0031">
        <ele>939.34521484375</ele>
        <time>2010-09-26T08:49:52Z</time>
      </trkpt>
      <trkpt lat="43.60892" lon="3.0032">
        <ele>939.82592773438</ele>
        <time>2010-09-26T08:49:57Z</time>
      </trkpt>
      <trkpt lat="43.60895" lon="3.00325">
        <ele>938.86474609375</ele>
        <time>2010-09-26T08:50:01Z</time>
      </trkpt>
      <trkpt lat="43.60897" lon="3.00333">
        <ele>937.9033203125</ele>
        <time>2010-09-26T08:50:05Z</time>
      </trkpt>
      <trkpt lat="43.60902" lon="3.00341">
        <ele>935.5</ele>
        <time>2010-09-26T08:50:10Z</time>
      </trkpt>
      <trkpt lat="43.60907" lon="3.00345">
        <ele>932.6162109375</ele>
        <time>2010-09-26T08:50:14Z</time>
      </trkpt>
      <trkpt lat="43.60913" lon="3.0035">
        <ele>931.17431640625</ele>
        <time>2010-09-26T08:50:19Z</time>
      </trkpt>
      <trkpt lat="43.60916" lon="3.0035">
        <ele>929.73217773438</ele>
        <time>2010-09-26T08:50:21Z</time>
      </trkpt>
      <trkpt lat="43.60922" lon="3.00356">
        <ele>926.84838867188</ele>
        <time>2010-09-26T08:50:28Z</time>
      </trkpt>
      <trkpt lat="43.60923" lon="3.00366">
        <ele>924.44506835938</ele>
        <time>2010-09-26T08:50:34Z</time>
      </trkpt>
      <trkpt lat="43.60925" lon="3.0037">
        <ele>923.96411132812</ele>
        <time>2010-09-26T08:50:36Z</time>
      </trkpt>
      <trkpt lat="43.60929" lon="3.00378">
        <ele>923.0029296875</ele>
        <time>2010-09-26T08:50:41Z</time>
      </trkpt>
      <trkpt lat="43.60936" lon="3.00387">
        <ele>919.63842773438</ele>
        <time>2010-09-26T08:50:46Z</time>
      </trkpt>
      <trkpt lat="43.60941" lon="3.00392">
        <ele>916.75439453125</ele>
        <time>2010-09-26T08:50:50Z</time>
      </trkpt>
      <trkpt lat="43.60943" lon="3.00394">
        <ele>916.27368164062</ele>
        <time>2010-09-26T08:50:52Z</time>
      </trkpt>
      <trkpt lat="43.60949" lon="3.00404">
        <ele>914.35107421875</ele>
        <time>2010-09-26T08:50:58Z</time>
      </trkpt>
      <trkpt lat="43.60954" lon="3.00411">
        <ele>913.38989257812</ele>
        <time>2010-09-26T08:51:03Z</time>
      </trkpt>
      <trkpt lat="43.60957" lon="3.0042">
        <ele>911.94799804688</ele>
        <time>2010-09-26T08:51:08Z</time>
      </trkpt>
      <trkpt lat="43.60958" lon="3.00422">
        <ele>911.46728515625</ele>
        <time>2010-09-26T08:51:09Z</time>
      </trkpt>
      <trkpt lat="43.6096" lon="3.0043">
        <ele>909.06396484375</ele>
        <time>2010-09-26T08:51:14Z</time>
      </trkpt>
      <trkpt lat="43.60966" lon="3.00438">
        <ele>906.66040039062</ele>
        <time>2010-09-26T08:51:21Z</time>
      </trkpt>
      <trkpt lat="43.60969" lon="3.00446">
        <ele>904.73779296875</ele>
        <time>2010-09-26T08:51:26Z</time>
      </trkpt>
      <trkpt lat="43.60975" lon="3.00455">
        <ele>902.33447265625</ele>
        <time>2010-09-26T08:51:31Z</time>
      </trkpt>
      <trkpt lat="43.60979" lon="3.00461">
        <ele>899.93139648438</ele>
        <time>2010-09-26T08:51:35Z</time>
      </trkpt>
      <trkpt lat="43.60984" lon="3.00463">
        <ele>899.93139648438</ele>
        <time>2010-09-26T08:51:39Z</time>
      </trkpt>
      <trkpt lat="43.60989" lon="3.00468">
        <ele>897.52807617188</ele>
        <time>2010-09-26T08:51:44Z</time>
      </trkpt>
      <trkpt lat="43.60991" lon="3.00475">
        <ele>895.60546875</ele>
        <time>2010-09-26T08:51:49Z</time>
      </trkpt>
      <trkpt lat="43.60993" lon="3.00481">
        <ele>893.2021484375</ele>
        <time>2010-09-26T08:51:54Z</time>
      </trkpt>
      <trkpt lat="43.60993" lon="3.00482">
        <ele>892.24096679688</ele>
        <time>2010-09-26T08:51:55Z</time>
      </trkpt>
      <trkpt lat="43.60992" lon="3.00485">
        <ele>891.279296875</ele>
        <time>2010-09-26T08:51:57Z</time>
      </trkpt>
      <trkpt lat="43.60997" lon="3.00492">
        <ele>887.91479492188</ele>
        <time>2010-09-26T08:52:03Z</time>
      </trkpt>
      <trkpt lat="43.60999" lon="3.00493">
        <ele>887.43408203125</ele>
        <time>2010-09-26T08:52:05Z</time>
      </trkpt>
      <trkpt lat="43.61003" lon="3.00498">
        <ele>885.51147460938</ele>
        <time>2010-09-26T08:52:11Z</time>
      </trkpt>
      <trkpt lat="43.61005" lon="3.00501">
        <ele>884.06958007812</ele>
        <time>2010-09-26T08:52:14Z</time>
      </trkpt>
      <trkpt lat="43.61013" lon="3.00504">
        <ele>881.18579101562</ele>
        <time>2010-09-26T08:52:19Z</time>
      </trkpt>
      <trkpt lat="43.61016" lon="3.00508">
        <ele>879.74365234375</ele>
        <time>2010-09-26T08:52:22Z</time>
      </trkpt>
      <trkpt lat="43.61022" lon="3.00513">
        <ele>878.3017578125</ele>
        <time>2010-09-26T08:52:27Z</time>
      </trkpt>
      <trkpt lat="43.61024" lon="3.00514">
        <ele>877.34057617188</ele>
        <time>2010-09-26T08:52:29Z</time>
      </trkpt>
      <trkpt lat="43.61026" lon="3.0052">
        <ele>875.41748046875</ele>
        <time>2010-09-26T08:52:34Z</time>
      </trkpt>
      <trkpt lat="43.61027" lon="3.00521">
        <ele>875.41748046875</ele>
        <time>2010-09-26T08:52:35Z</time>
      </trkpt>
      <trkpt lat="43.61028" lon="3.00524">
        <ele>874.45629882812</ele>
        <time>2010-09-26T08:52:38Z</time>
      </trkpt>
      <trkpt lat="43.61029" lon="3.00529">
        <ele>873.9755859375</ele>
        <time>2010-09-26T08:52:44Z</time>
      </trkpt>
      <trkpt lat="43.61035" lon="3.00532">
        <ele>872.53369140625</ele>
        <time>2010-09-26T08:52:49Z</time>
      </trkpt>
      <trkpt lat="43.61037" lon="3.00533">
        <ele>871.572265625</ele>
        <time>2010-09-26T08:52:51Z</time>
      </trkpt>
      <trkpt lat="43.61042" lon="3.00536">
        <ele>870.13037109375</ele>
        <time>2010-09-26T08:52:56Z</time>
      </trkpt>
      <trkpt lat="43.61043" lon="3.00542">
        <ele>868.20776367188</ele>
        <time>2010-09-26T08:53:02Z</time>
      </trkpt>
      <trkpt lat="43.61044" lon="3.00549">
        <ele>865.8046875</ele>
        <time>2010-09-26T08:53:09Z</time>
      </trkpt>
      <trkpt lat="43.61045" lon="3.00551">
        <ele>865.32397460938</ele>
        <time>2010-09-26T08:53:14Z</time>
      </trkpt>
      <trkpt lat="43.61048" lon="3.00557">
        <ele>864.36254882812</ele>
        <time>2010-09-26T08:53:19Z</time>
      </trkpt>
      <trkpt lat="43.61049" lon="3.0056">
        <ele>863.4013671875</ele>
        <time>2010-09-26T08:53:21Z</time>
      </trkpt>
      <trkpt lat="43.6105" lon="3.00567">
        <ele>861.95947265625</ele>
        <time>2010-09-26T08:53:26Z</time>
      </trkpt>
      <trkpt lat="43.6105" lon="3.00573">
        <ele>859.55590820312</ele>
        <time>2010-09-26T08:53:33Z</time>
      </trkpt>
      <trkpt lat="43.6105" lon="3.00576">
        <ele>858.11401367188</ele>
        <time>2010-09-26T08:53:38Z</time>
      </trkpt>
      <trkpt lat="43.6105" lon="3.00581">
        <ele>857.15258789062</ele>
        <time>2010-09-26T08:53:42Z</time>
      </trkpt>
      <trkpt lat="43.61051" lon="3.00583">
        <ele>856.19116210938</ele>
        <time>2010-09-26T08:53:46Z</time>
      </trkpt>
      <trkpt lat="43.61055" lon="3.0059">
        <ele>854.26879882812</ele>
        <time>2010-09-26T08:53:52Z</time>
      </trkpt>
      <trkpt lat="43.61058" lon="3.00595">
        <ele>852.34594726562</ele>
        <time>2010-09-26T08:53:56Z</time>
      </trkpt>
      <trkpt lat="43.61056" lon="3.00601">
        <ele>850.42358398438</ele>
        <time>2010-09-26T08:54:01Z</time>
      </trkpt>
      <trkpt lat="43.61055" lon="3.00603">
        <ele>849.46215820312</ele>
        <time>2010-09-26T08:54:04Z</time>
      </trkpt>
      <trkpt lat="43.61058" lon="3.00609">
        <ele>847.53955078125</ele>
        <time>2010-09-26T08:54:10Z</time>
      </trkpt>
      <trkpt lat="43.6106" lon="3.00616">
        <ele>845.13623046875</ele>
        <time>2010-09-26T08:54:16Z</time>
      </trkpt>
      <trkpt lat="43.61064" lon="3.00619">
        <ele>844.17504882812</ele>
        <time>2010-09-26T08:54:20Z</time>
      </trkpt>
      <trkpt lat="43.61064" lon="3.00621">
        <ele>843.69409179688</ele>
        <time>2010-09-26T08:54:21Z</time>
      </trkpt>
      <trkpt lat="43.61072" lon="3.0062">
        <ele>842.73291015625</ele>
        <time>2010-09-26T08:54:26Z</time>
      </trkpt>
      <trkpt lat="43.61073" lon="3.00623">
        <ele>841.771484375</ele>
        <time>2010-09-26T08:54:28Z</time>
      </trkpt>
      <trkpt lat="43.61076" lon="3.00635">
        <ele>838.8876953125</ele>
        <time>2010-09-26T08:54:34Z</time>
      </trkpt>
      <trkpt lat="43.61079" lon="3.0064">
        <ele>836.484375</ele>
        <time>2010-09-26T08:54:39Z</time>
      </trkpt>
      <trkpt lat="43.6108" lon="3.00647">
        <ele>835.04248046875</ele>
        <time>2010-09-26T08:54:43Z</time>
      </trkpt>
      <trkpt lat="43.61079" lon="3.00653">
        <ele>833.11962890625</ele>
        <time>2010-09-26T08:54:49Z</time>
      </trkpt>
      <trkpt lat="43.61077" lon="3.00659">
        <ele>831.677734375</ele>
        <time>2010-09-26T08:54:53Z</time>
      </trkpt>
      <trkpt lat="43.61079" lon="3.00669">
        <ele>829.2744140625</ele>
        <time>2010-09-26T08:54:59Z</time>
      </trkpt>
      <trkpt lat="43.61075" lon="3.00676">
        <ele>827.35180664062</ele>
        <time>2010-09-26T08:55:05Z</time>
      </trkpt>
      <trkpt lat="43.6107" lon="3.0068">
        <ele>825.42895507812</ele>
        <time>2010-09-26T08:55:10Z</time>
      </trkpt>
      <trkpt lat="43.61066" lon="3.00685">
        <ele>824.4677734375</ele>
        <time>2010-09-26T08:55:15Z</time>
      </trkpt>
      <trkpt lat="43.61061" lon="3.00686">
        <ele>823.02587890625</ele>
        <time>2010-09-26T08:55:19Z</time>
      </trkpt>
      <trkpt lat="43.61058" lon="3.00688">
        <ele>822.064453125</ele>
        <time>2010-09-26T08:55:23Z</time>
      </trkpt>
      <trkpt lat="43.61057" lon="3.00696">
        <ele>820.14184570312</ele>
        <time>2010-09-26T08:55:29Z</time>
      </trkpt>
      <trkpt lat="43.61057" lon="3.00703">
        <ele>820.14184570312</ele>
        <time>2010-09-26T08:55:34Z</time>
      </trkpt>
      <trkpt lat="43.61057" lon="3.00708">
        <ele>819.1806640625</ele>
        <time>2010-09-26T08:55:38Z</time>
      </trkpt>
      <trkpt lat="43.6106" lon="3.00714">
        <ele>817.25805664062</ele>
        <time>2010-09-26T08:55:44Z</time>
      </trkpt>
      <trkpt lat="43.61064" lon="3.00722">
        <ele>814.3740234375</ele>
        <time>2010-09-26T08:55:49Z</time>
      </trkpt>
      <trkpt lat="43.61068" lon="3.0073">
        <ele>811.48999023438</ele>
        <time>2010-09-26T08:55:55Z</time>
      </trkpt>
      <trkpt lat="43.61072" lon="3.00734">
        <ele>809.5673828125</ele>
        <time>2010-09-26T08:55:59Z</time>
      </trkpt>
      <trkpt lat="43.61074" lon="3.00737">
        <ele>809.08666992188</ele>
        <time>2010-09-26T08:56:01Z</time>
      </trkpt>
      <trkpt lat="43.61077" lon="3.00735">
        <ele>808.12548828125</ele>
        <time>2010-09-26T08:56:07Z</time>
      </trkpt>
      <trkpt lat="43.61081" lon="3.00731">
        <ele>808.12548828125</ele>
        <time>2010-09-26T08:56:13Z</time>
      </trkpt>
      <trkpt lat="43.61086" lon="3.00729">
        <ele>807.1640625</ele>
        <time>2010-09-26T08:56:22Z</time>
      </trkpt>
      <trkpt lat="43.61087" lon="3.00726">
        <ele>806.68334960938</ele>
        <time>2010-09-26T08:56:35Z</time>
      </trkpt>
      <trkpt lat="43.61089" lon="3.00727">
        <ele>808.12548828125</ele>
        <time>2010-09-26T08:56:44Z</time>
      </trkpt>
      <trkpt lat="43.61087" lon="3.00726">
        <ele>808.60595703125</ele>
        <time>2010-09-26T08:57:07Z</time>
      </trkpt>
      <trkpt lat="43.61089" lon="3.00727">
        <ele>808.60595703125</ele>
        <time>2010-09-26T08:57:13Z</time>
      </trkpt>
      <trkpt lat="43.61091" lon="3.00732">
        <ele>811.48999023438</ele>
        <time>2010-09-26T08:57:34Z</time>
      </trkpt>
      <trkpt lat="43.61094" lon="3.00736">
        <ele>813.89331054688</ele>
        <time>2010-09-26T08:57:57Z</time>
      </trkpt>
      <trkpt lat="43.61093" lon="3.00734">
        <ele>811.48999023438</ele>
        <time>2010-09-26T08:58:06Z</time>
      </trkpt>
      <trkpt lat="43.61091" lon="3.00731">
        <ele>809.08666992188</ele>
        <time>2010-09-26T08:58:15Z</time>
      </trkpt>
      <trkpt lat="43.6109" lon="3.00731">
        <ele>809.08666992188</ele>
        <time>2010-09-26T08:58:24Z</time>
      </trkpt>
      <trkpt lat="43.6109" lon="3.0073">
        <ele>808.60595703125</ele>
        <time>2010-09-26T08:58:35Z</time>
      </trkpt>
      <trkpt lat="43.6109" lon="3.00728">
        <ele>808.60595703125</ele>
        <time>2010-09-26T08:59:18Z</time>
      </trkpt>
      <trkpt lat="43.61092" lon="3.00729">
        <ele>807.1640625</ele>
        <time>2010-09-26T08:59:35Z</time>
      </trkpt>
      <trkpt lat="43.61091" lon="3.00728">
        <ele>808.60595703125</ele>
        <time>2010-09-26T08:59:52Z</time>
      </trkpt>
      <trkpt lat="43.6109" lon="3.00729">
        <ele>810.0478515625</ele>
        <time>2010-09-26T09:00:19Z</time>
      </trkpt>
      <trkpt lat="43.61094" lon="3.00729">
        <ele>808.60595703125</ele>
        <time>2010-09-26T09:00:41Z</time>
      </trkpt>
      <trkpt lat="43.61094" lon="3.0073">
        <ele>808.60595703125</ele>
        <time>2010-09-26T09:00:55Z</time>
      </trkpt>
      <trkpt lat="43.61095" lon="3.00732">
        <ele>809.5673828125</ele>
        <time>2010-09-26T09:01:04Z</time>
      </trkpt>
      <trkpt lat="43.61097" lon="3.00732">
        <ele>808.60595703125</ele>
        <time>2010-09-26T09:01:12Z</time>
      </trkpt>
      <trkpt lat="43.61098" lon="3.00733">
        <ele>807.1640625</ele>
        <time>2010-09-26T09:01:21Z</time>
      </trkpt>
      <trkpt lat="43.611" lon="3.00735">
        <ele>804.7607421875</ele>
        <time>2010-09-26T09:01:28Z</time>
      </trkpt>
      <trkpt lat="43.61103" lon="3.00737">
        <ele>802.357421875</ele>
        <time>2010-09-26T09:01:35Z</time>
      </trkpt>
      <trkpt lat="43.61107" lon="3.00739">
        <ele>800.91552734375</ele>
        <time>2010-09-26T09:01:41Z</time>
      </trkpt>
      <trkpt lat="43.6111" lon="3.00743">
        <ele>800.43505859375</ele>
        <time>2010-09-26T09:01:46Z</time>
      </trkpt>
      <trkpt lat="43.61113" lon="3.00747">
        <ele>798.99291992188</ele>
        <time>2010-09-26T09:01:52Z</time>
      </trkpt>
      <trkpt lat="43.61117" lon="3.00751">
        <ele>797.55102539062</ele>
        <time>2010-09-26T09:01:57Z</time>
      </trkpt>
      <trkpt lat="43.61115" lon="3.00753">
        <ele>795.62817382812</ele>
        <time>2010-09-26T09:02:01Z</time>
      </trkpt>
      <trkpt lat="43.61112" lon="3.00757">
        <ele>794.66674804688</ele>
        <time>2010-09-26T09:02:05Z</time>
      </trkpt>
      <trkpt lat="43.61109" lon="3.0076">
        <ele>794.18627929688</ele>
        <time>2010-09-26T09:02:09Z</time>
      </trkpt>
      <trkpt lat="43.61107" lon="3.00766">
        <ele>793.70556640625</ele>
        <time>2010-09-26T09:02:14Z</time>
      </trkpt>
      <trkpt lat="43.61104" lon="3.00769">
        <ele>791.78295898438</ele>
        <time>2010-09-26T09:02:20Z</time>
      </trkpt>
      <trkpt lat="43.61099" lon="3.00777">
        <ele>790.82153320312</ele>
        <time>2010-09-26T09:02:27Z</time>
      </trkpt>
      <trkpt lat="43.61089" lon="3.00784">
        <ele>790.34106445312</ele>
        <time>2010-09-26T09:02:32Z</time>
      </trkpt>
      <trkpt lat="43.61079" lon="3.00789">
        <ele>789.37963867188</ele>
        <time>2010-09-26T09:02:38Z</time>
      </trkpt>
      <trkpt lat="43.61076" lon="3.00792">
        <ele>788.41845703125</ele>
        <time>2010-09-26T09:02:42Z</time>
      </trkpt>
      <trkpt lat="43.61078" lon="3.00801">
        <ele>786.97631835938</ele>
        <time>2010-09-26T09:02:48Z</time>
      </trkpt>
      <trkpt lat="43.61078" lon="3.00805">
        <ele>786.49584960938</ele>
        <time>2010-09-26T09:02:51Z</time>
      </trkpt>
      <trkpt lat="43.61078" lon="3.0081">
        <ele>785.53442382812</ele>
        <time>2010-09-26T09:02:57Z</time>
      </trkpt>
      <trkpt lat="43.61084" lon="3.00811">
        <ele>782.65063476562</ele>
        <time>2010-09-26T09:03:04Z</time>
      </trkpt>
      <trkpt lat="43.61089" lon="3.00812">
        <ele>781.68920898438</ele>
        <time>2010-09-26T09:03:08Z</time>
      </trkpt>
      <trkpt lat="43.61095" lon="3.00812">
        <ele>778.32446289062</ele>
        <time>2010-09-26T09:03:13Z</time>
      </trkpt>
      <trkpt lat="43.61096" lon="3.00816">
        <ele>776.40185546875</ele>
        <time>2010-09-26T09:03:17Z</time>
      </trkpt>
      <trkpt lat="43.61089" lon="3.00823">
        <ele>775.92114257812</ele>
        <time>2010-09-26T09:03:23Z</time>
      </trkpt>
      <trkpt lat="43.61081" lon="3.00831">
        <ele>773.51806640625</ele>
        <time>2010-09-26T09:03:28Z</time>
      </trkpt>
      <trkpt lat="43.61079" lon="3.00835">
        <ele>772.07592773438</ele>
        <time>2010-09-26T09:03:30Z</time>
      </trkpt>
      <trkpt lat="43.6107" lon="3.00836">
        <ele>767.75</ele>
        <time>2010-09-26T09:03:38Z</time>
      </trkpt>
      <trkpt lat="43.61067" lon="3.00832">
        <ele>759.09814453125</ele>
        <time>2010-09-26T09:03:45Z</time>
      </trkpt>
      <trkpt lat="43.61065" lon="3.00829">
        <ele>754.77221679688</ele>
        <time>2010-09-26T09:03:49Z</time>
      </trkpt>
      <trkpt lat="43.61061" lon="3.00825">
        <ele>747.08154296875</ele>
        <time>2010-09-26T09:03:55Z</time>
      </trkpt>
      <trkpt lat="43.6106" lon="3.00822">
        <ele>742.755859375</ele>
        <time>2010-09-26T09:04:00Z</time>
      </trkpt>
      <trkpt lat="43.61055" lon="3.00816">
        <ele>742.27514648438</ele>
        <time>2010-09-26T09:04:05Z</time>
      </trkpt>
      <trkpt lat="43.61037" lon="3.00809">
        <ele>766.30810546875</ele>
        <time>2010-09-26T09:04:11Z</time>
      </trkpt>
      <trkpt lat="43.61033" lon="3.00809">
        <ele>770.63403320312</ele>
        <time>2010-09-26T09:04:21Z</time>
      </trkpt>
      <trkpt lat="43.61032" lon="3.00808">
        <ele>772.556640625</ele>
        <time>2010-09-26T09:04:31Z</time>
      </trkpt>
      <trkpt lat="43.61032" lon="3.0081">
        <ele>773.03735351562</ele>
        <time>2010-09-26T09:04:38Z</time>
      </trkpt>
      <trkpt lat="43.61032" lon="3.00808">
        <ele>774.9599609375</ele>
        <time>2010-09-26T09:04:45Z</time>
      </trkpt>
      <trkpt lat="43.61032" lon="3.00809">
        <ele>774.47924804688</ele>
        <time>2010-09-26T09:04:50Z</time>
      </trkpt>
      <trkpt lat="43.61033" lon="3.00811">
        <ele>773.99853515625</ele>
        <time>2010-09-26T09:04:57Z</time>
      </trkpt>
      <trkpt lat="43.61033" lon="3.00811">
        <ele>773.99853515625</ele>
        <time>2010-09-26T09:05:04Z</time>
      </trkpt>
      <trkpt lat="43.61032" lon="3.00811">
        <ele>773.99853515625</ele>
        <time>2010-09-26T09:05:11Z</time>
      </trkpt>
      <trkpt lat="43.6103" lon="3.00809">
        <ele>775.92114257812</ele>
        <time>2010-09-26T09:05:17Z</time>
      </trkpt>
      <trkpt lat="43.6103" lon="3.00808">
        <ele>775.92114257812</ele>
        <time>2010-09-26T09:05:23Z</time>
      </trkpt>
      <trkpt lat="43.61032" lon="3.00807">
        <ele>775.4404296875</ele>
        <time>2010-09-26T09:05:34Z</time>
      </trkpt>
      <trkpt lat="43.61033" lon="3.00807">
        <ele>774.9599609375</ele>
        <time>2010-09-26T09:05:53Z</time>
      </trkpt>
      <trkpt lat="43.61033" lon="3.00806">
        <ele>776.40185546875</ele>
        <time>2010-09-26T09:06:11Z</time>
      </trkpt>
      <trkpt lat="43.61029" lon="3.00802">
        <ele>777.36328125</ele>
        <time>2010-09-26T09:06:27Z</time>
      </trkpt>
      <trkpt lat="43.61025" lon="3.00803">
        <ele>776.40185546875</ele>
        <time>2010-09-26T09:06:33Z</time>
      </trkpt>
      <trkpt lat="43.61019" lon="3.00802">
        <ele>776.88256835938</ele>
        <time>2010-09-26T09:06:37Z</time>
      </trkpt>
      <trkpt lat="43.61016" lon="3.00809">
        <ele>777.36328125</ele>
        <time>2010-09-26T09:06:41Z</time>
      </trkpt>
      <trkpt lat="43.61015" lon="3.0081">
        <ele>777.84375</ele>
        <time>2010-09-26T09:06:43Z</time>
      </trkpt>
      <trkpt lat="43.61011" lon="3.00816">
        <ele>774.47924804688</ele>
        <time>2010-09-26T09:06:49Z</time>
      </trkpt>
      <trkpt lat="43.61005" lon="3.00813">
        <ele>771.11474609375</ele>
        <time>2010-09-26T09:06:55Z</time>
      </trkpt>
      <trkpt lat="43.60998" lon="3.00809">
        <ele>765.82763671875</ele>
        <time>2010-09-26T09:07:00Z</time>
      </trkpt>
      <trkpt lat="43.60992" lon="3.00805">
        <ele>759.57885742188</ele>
        <time>2010-09-26T09:07:07Z</time>
      </trkpt>
      <trkpt lat="43.60989" lon="3.00802">
        <ele>757.65625</ele>
        <time>2010-09-26T09:07:12Z</time>
      </trkpt>
      <trkpt lat="43.60983" lon="3.00795">
        <ele>755.2529296875</ele>
        <time>2010-09-26T09:07:16Z</time>
      </trkpt>
      <trkpt lat="43.60975" lon="3.00792">
        <ele>755.2529296875</ele>
        <time>2010-09-26T09:07:20Z</time>
      </trkpt>
      <trkpt lat="43.60963" lon="3.00789">
        <ele>754.77221679688</ele>
        <time>2010-09-26T09:07:26Z</time>
      </trkpt>
      <trkpt lat="43.60962" lon="3.00789">
        <ele>753.33032226562</ele>
        <time>2010-09-26T09:07:28Z</time>
      </trkpt>
      <trkpt lat="43.60955" lon="3.00791">
        <ele>749.48510742188</ele>
        <time>2010-09-26T09:07:34Z</time>
      </trkpt>
      <trkpt lat="43.60951" lon="3.00793">
        <ele>747.08154296875</ele>
        <time>2010-09-26T09:07:37Z</time>
      </trkpt>
      <trkpt lat="43.60949" lon="3.00793">
        <ele>745.15893554688</ele>
        <time>2010-09-26T09:07:39Z</time>
      </trkpt>
      <trkpt lat="43.60943" lon="3.00793">
        <ele>743.236328125</ele>
        <time>2010-09-26T09:07:45Z</time>
      </trkpt>
      <trkpt lat="43.60942" lon="3.00794">
        <ele>741.79443359375</ele>
        <time>2010-09-26T09:07:47Z</time>
      </trkpt>
      <trkpt lat="43.60937" lon="3.00795">
        <ele>740.3525390625</ele>
        <time>2010-09-26T09:07:51Z</time>
      </trkpt>
      <trkpt lat="43.60937" lon="3.00796">
        <ele>738.42993164062</ele>
        <time>2010-09-26T09:07:53Z</time>
      </trkpt>
      <trkpt lat="43.60932" lon="3.00797">
        <ele>736.50732421875</ele>
        <time>2010-09-26T09:07:59Z</time>
      </trkpt>
      <trkpt lat="43.60927" lon="3.00796">
        <ele>735.5458984375</ele>
        <time>2010-09-26T09:08:05Z</time>
      </trkpt>
      <trkpt lat="43.60922" lon="3.00796">
        <ele>734.10400390625</ele>
        <time>2010-09-26T09:08:10Z</time>
      </trkpt>
      <trkpt lat="43.60918" lon="3.00797">
        <ele>729.77783203125</ele>
        <time>2010-09-26T09:08:15Z</time>
      </trkpt>
      <trkpt lat="43.60917" lon="3.00798">
        <ele>725.9326171875</ele>
        <time>2010-09-26T09:08:19Z</time>
      </trkpt>
      <trkpt lat="43.60901" lon="3.00795">
        <ele>744.19775390625</ele>
        <time>2010-09-26T09:08:23Z</time>
      </trkpt>
      <trkpt lat="43.60893" lon="3.00798">
        <ele>738.91064453125</ele>
        <time>2010-09-26T09:08:30Z</time>
      </trkpt>
      <trkpt lat="43.60889" lon="3.00796">
        <ele>738.42993164062</ele>
        <time>2010-09-26T09:08:34Z</time>
      </trkpt>
      <trkpt lat="43.60883" lon="3.00792">
        <ele>743.236328125</ele>
        <time>2010-09-26T09:08:39Z</time>
      </trkpt>
      <trkpt lat="43.60877" lon="3.00794">
        <ele>749.00439453125</ele>
        <time>2010-09-26T09:08:48Z</time>
      </trkpt>
      <trkpt lat="43.60867" lon="3.00792">
        <ele>747.56225585938</ele>
        <time>2010-09-26T09:08:53Z</time>
      </trkpt>
      <trkpt lat="43.60865" lon="3.00792">
        <ele>746.60107421875</ele>
        <time>2010-09-26T09:08:55Z</time>
      </trkpt>
      <trkpt lat="43.60861" lon="3.00789">
        <ele>746.12036132812</ele>
        <time>2010-09-26T09:08:59Z</time>
      </trkpt>
      <trkpt lat="43.60858" lon="3.00791">
        <ele>744.19775390625</ele>
        <time>2010-09-26T09:09:03Z</time>
      </trkpt>
      <trkpt lat="43.60851" lon="3.00789">
        <ele>742.27514648438</ele>
        <time>2010-09-26T09:09:09Z</time>
      </trkpt>
      <trkpt lat="43.60843" lon="3.00786">
        <ele>747.08154296875</ele>
        <time>2010-09-26T09:09:14Z</time>
      </trkpt>
      <trkpt lat="43.60839" lon="3.00784">
        <ele>747.08154296875</ele>
        <time>2010-09-26T09:09:18Z</time>
      </trkpt>
      <trkpt lat="43.60837" lon="3.00783">
        <ele>747.56225585938</ele>
        <time>2010-09-26T09:09:20Z</time>
      </trkpt>
      <trkpt lat="43.60832" lon="3.0078">
        <ele>746.60107421875</ele>
        <time>2010-09-26T09:09:25Z</time>
      </trkpt>
      <trkpt lat="43.6083" lon="3.00781">
        <ele>747.08154296875</ele>
        <time>2010-09-26T09:09:27Z</time>
      </trkpt>
      <trkpt lat="43.60822" lon="3.00779">
        <ele>747.56225585938</ele>
        <time>2010-09-26T09:09:33Z</time>
      </trkpt>
      <trkpt lat="43.60819" lon="3.0078">
        <ele>743.236328125</ele>
        <time>2010-09-26T09:09:38Z</time>
      </trkpt>
      <trkpt lat="43.60815" lon="3.00779">
        <ele>742.27514648438</ele>
        <time>2010-09-26T09:09:42Z</time>
      </trkpt>
      <trkpt lat="43.60811" lon="3.00779">
        <ele>739.39111328125</ele>
        <time>2010-09-26T09:09:46Z</time>
      </trkpt>
      <trkpt lat="43.6081" lon="3.00779">
        <ele>738.91064453125</ele>
        <time>2010-09-26T09:09:47Z</time>
      </trkpt>
      <trkpt lat="43.60808" lon="3.00775">
        <ele>737.94921875</ele>
        <time>2010-09-26T09:09:51Z</time>
      </trkpt>
      <trkpt lat="43.60804" lon="3.0077">
        <ele>735.5458984375</ele>
        <time>2010-09-26T09:09:57Z</time>
      </trkpt>
      <trkpt lat="43.60802" lon="3.00772">
        <ele>731.21997070312</ele>
        <time>2010-09-26T09:10:02Z</time>
      </trkpt>
      <trkpt lat="43.60799" lon="3.00775">
        <ele>728.3359375</ele>
        <time>2010-09-26T09:10:06Z</time>
      </trkpt>
      <trkpt lat="43.60791" lon="3.00771">
        <ele>730.7392578125</ele>
        <time>2010-09-26T09:10:12Z</time>
      </trkpt>
      <trkpt lat="43.60787" lon="3.00772">
        <ele>726.89404296875</ele>
        <time>2010-09-26T09:10:18Z</time>
      </trkpt>
      <trkpt lat="43.60785" lon="3.00772">
        <ele>724.01000976562</ele>
        <time>2010-09-26T09:10:22Z</time>
      </trkpt>
      <trkpt lat="43.60782" lon="3.00772">
        <ele>721.12622070312</ele>
        <time>2010-09-26T09:10:26Z</time>
      </trkpt>
      <trkpt lat="43.60779" lon="3.00771">
        <ele>717.76147460938</ele>
        <time>2010-09-26T09:10:30Z</time>
      </trkpt>
      <trkpt lat="43.60777" lon="3.00769">
        <ele>715.8388671875</ele>
        <time>2010-09-26T09:10:32Z</time>
      </trkpt>
      <trkpt lat="43.60772" lon="3.00766">
        <ele>711.0322265625</ele>
        <time>2010-09-26T09:10:36Z</time>
      </trkpt>
      <trkpt lat="43.60764" lon="3.00762">
        <ele>711.99365234375</ele>
        <time>2010-09-26T09:10:42Z</time>
      </trkpt>
      <trkpt lat="43.60758" lon="3.00764">
        <ele>709.59033203125</ele>
        <time>2010-09-26T09:10:49Z</time>
      </trkpt>
      <trkpt lat="43.60758" lon="3.00765">
        <ele>709.10961914062</ele>
        <time>2010-09-26T09:10:50Z</time>
      </trkpt>
      <trkpt lat="43.60753" lon="3.0077">
        <ele>708.1484375</ele>
        <time>2010-09-26T09:10:55Z</time>
      </trkpt>
      <trkpt lat="43.60748" lon="3.00772">
        <ele>708.62890625</ele>
        <time>2010-09-26T09:11:00Z</time>
      </trkpt>
      <trkpt lat="43.6074" lon="3.00774">
        <ele>710.55151367188</ele>
        <time>2010-09-26T09:11:05Z</time>
      </trkpt>
      <trkpt lat="43.60732" lon="3.00775">
        <ele>710.07080078125</ele>
        <time>2010-09-26T09:11:09Z</time>
      </trkpt>
      <trkpt lat="43.60727" lon="3.00776">
        <ele>709.10961914062</ele>
        <time>2010-09-26T09:11:13Z</time>
      </trkpt>
      <trkpt lat="43.60725" lon="3.00778">
        <ele>709.59033203125</ele>
        <time>2010-09-26T09:11:16Z</time>
      </trkpt>
      <trkpt lat="43.60713" lon="3.00782">
        <ele>715.8388671875</ele>
        <time>2010-09-26T09:11:21Z</time>
      </trkpt>
      <trkpt lat="43.60702" lon="3.00784">
        <ele>722.08740234375</ele>
        <time>2010-09-26T09:11:24Z</time>
      </trkpt>
      <trkpt lat="43.60687" lon="3.00786">
        <ele>733.62329101562</ele>
        <time>2010-09-26T09:11:28Z</time>
      </trkpt>
      <trkpt lat="43.60672" lon="3.00785">
        <ele>744.67822265625</ele>
        <time>2010-09-26T09:11:32Z</time>
      </trkpt>
      <trkpt lat="43.60658" lon="3.00785">
        <ele>752.36889648438</ele>
        <time>2010-09-26T09:11:36Z</time>
      </trkpt>
      <trkpt lat="43.60653" lon="3.00787">
        <ele>748.04321289062</ele>
        <time>2010-09-26T09:11:41Z</time>
      </trkpt>
      <trkpt lat="43.60654" lon="3.00789">
        <ele>743.236328125</ele>
        <time>2010-09-26T09:11:45Z</time>
      </trkpt>
      <trkpt lat="43.60654" lon="3.00792">
        <ele>739.39111328125</ele>
        <time>2010-09-26T09:11:49Z</time>
      </trkpt>
      <trkpt lat="43.60646" lon="3.00798">
        <ele>739.87182617188</ele>
        <time>2010-09-26T09:11:54Z</time>
      </trkpt>
      <trkpt lat="43.60635" lon="3.00801">
        <ele>745.15893554688</ele>
        <time>2010-09-26T09:11:59Z</time>
      </trkpt>
      <trkpt lat="43.60628" lon="3.00808">
        <ele>747.56225585938</ele>
        <time>2010-09-26T09:12:04Z</time>
      </trkpt>
      <trkpt lat="43.60616" lon="3.00814">
        <ele>751.40771484375</ele>
        <time>2010-09-26T09:12:08Z</time>
      </trkpt>
      <trkpt lat="43.6061" lon="3.00818">
        <ele>750.44653320312</ele>
        <time>2010-09-26T09:12:12Z</time>
      </trkpt>
      <trkpt lat="43.60608" lon="3.00829">
        <ele>748.52368164062</ele>
        <time>2010-09-26T09:12:16Z</time>
      </trkpt>
      <trkpt lat="43.60601" lon="3.00841">
        <ele>750.44653320312</ele>
        <time>2010-09-26T09:12:22Z</time>
      </trkpt>
      <trkpt lat="43.60601" lon="3.00841">
        <ele>748.52368164062</ele>
        <time>2010-09-26T09:12:23Z</time>
      </trkpt>
      <trkpt lat="43.60599" lon="3.0084">
        <ele>742.755859375</ele>
        <time>2010-09-26T09:12:27Z</time>
      </trkpt>
      <trkpt lat="43.60595" lon="3.00846">
        <ele>740.8330078125</ele>
        <time>2010-09-26T09:12:32Z</time>
      </trkpt>
      <trkpt lat="43.60596" lon="3.00848">
        <ele>738.42993164062</ele>
        <time>2010-09-26T09:12:33Z</time>
      </trkpt>
      <trkpt lat="43.60596" lon="3.00856">
        <ele>733.62329101562</ele>
        <time>2010-09-26T09:12:38Z</time>
      </trkpt>
      <trkpt lat="43.6059" lon="3.00864">
        <ele>730.25854492188</ele>
        <time>2010-09-26T09:12:42Z</time>
      </trkpt>
      <trkpt lat="43.60587" lon="3.00874">
        <ele>724.01000976562</ele>
        <time>2010-09-26T09:12:48Z</time>
      </trkpt>
      <trkpt lat="43.60587" lon="3.00875">
        <ele>723.048828125</ele>
        <time>2010-09-26T09:12:49Z</time>
      </trkpt>
      <trkpt lat="43.60582" lon="3.00884">
        <ele>719.20361328125</ele>
        <time>2010-09-26T09:12:54Z</time>
      </trkpt>
      <trkpt lat="43.60579" lon="3.00889">
        <ele>714.39672851562</ele>
        <time>2010-09-26T09:13:00Z</time>
      </trkpt>
      <trkpt lat="43.60575" lon="3.00888">
        <ele>716.80029296875</ele>
        <time>2010-09-26T09:13:06Z</time>
      </trkpt>
      <trkpt lat="43.60574" lon="3.00888">
        <ele>716.80029296875</ele>
        <time>2010-09-26T09:13:08Z</time>
      </trkpt>
      <trkpt lat="43.60571" lon="3.00888">
        <ele>718.72290039062</ele>
        <time>2010-09-26T09:13:14Z</time>
      </trkpt>
      <trkpt lat="43.60569" lon="3.0089">
        <ele>715.35815429688</ele>
        <time>2010-09-26T09:13:20Z</time>
      </trkpt>
      <trkpt lat="43.60571" lon="3.00893">
        <ele>715.8388671875</ele>
        <time>2010-09-26T09:13:24Z</time>
      </trkpt>
      <trkpt lat="43.6057" lon="3.00898">
        <ele>715.35815429688</ele>
        <time>2010-09-26T09:13:28Z</time>
      </trkpt>
      <trkpt lat="43.60565" lon="3.00895">
        <ele>711.0322265625</ele>
        <time>2010-09-26T09:13:34Z</time>
      </trkpt>
      <trkpt lat="43.60563" lon="3.00895">
        <ele>707.66772460938</ele>
        <time>2010-09-26T09:13:39Z</time>
      </trkpt>
      <trkpt lat="43.60561" lon="3.00896">
        <ele>703.82250976562</ele>
        <time>2010-09-26T09:13:43Z</time>
      </trkpt>
      <trkpt lat="43.60561" lon="3.00898">
        <ele>703.341796875</ele>
        <time>2010-09-26T09:13:44Z</time>
      </trkpt>
      <trkpt lat="43.60561" lon="3.00905">
        <ele>698.53491210938</ele>
        <time>2010-09-26T09:13:48Z</time>
      </trkpt>
      <trkpt lat="43.60555" lon="3.00904">
        <ele>695.65112304688</ele>
        <time>2010-09-26T09:13:54Z</time>
      </trkpt>
      <trkpt lat="43.60554" lon="3.00909">
        <ele>689.40258789062</ele>
        <time>2010-09-26T09:13:57Z</time>
      </trkpt>
      <trkpt lat="43.60545" lon="3.00906">
        <ele>689.88330078125</ele>
        <time>2010-09-26T09:14:01Z</time>
      </trkpt>
      <trkpt lat="43.60543" lon="3.00905">
        <ele>689.88330078125</ele>
        <time>2010-09-26T09:14:02Z</time>
      </trkpt>
      <trkpt lat="43.60535" lon="3.00898">
        <ele>691.80590820312</ele>
        <time>2010-09-26T09:14:07Z</time>
      </trkpt>
      <trkpt lat="43.60534" lon="3.00891">
        <ele>692.76733398438</ele>
        <time>2010-09-26T09:14:12Z</time>
      </trkpt>
      <trkpt lat="43.6053" lon="3.00882">
        <ele>694.68969726562</ele>
        <time>2010-09-26T09:14:21Z</time>
      </trkpt>
      <trkpt lat="43.60531" lon="3.00879">
        <ele>693.728515625</ele>
        <time>2010-09-26T09:14:25Z</time>
      </trkpt>
      <trkpt lat="43.60529" lon="3.00875">
        <ele>698.53491210938</ele>
        <time>2010-09-26T09:14:29Z</time>
      </trkpt>
      <trkpt lat="43.60528" lon="3.00869">
        <ele>700.9384765625</ele>
        <time>2010-09-26T09:14:34Z</time>
      </trkpt>
      <trkpt lat="43.60523" lon="3.00866">
        <ele>699.97705078125</ele>
        <time>2010-09-26T09:14:41Z</time>
      </trkpt>
      <trkpt lat="43.60516" lon="3.00862">
        <ele>701.41918945312</ele>
        <time>2010-09-26T09:14:47Z</time>
      </trkpt>
      <trkpt lat="43.60516" lon="3.00864">
        <ele>698.53491210938</ele>
        <time>2010-09-26T09:14:50Z</time>
      </trkpt>
      <trkpt lat="43.60509" lon="3.0086">
        <ele>696.61254882812</ele>
        <time>2010-09-26T09:14:55Z</time>
      </trkpt>
      <trkpt lat="43.60508" lon="3.0086">
        <ele>696.61254882812</ele>
        <time>2010-09-26T09:14:56Z</time>
      </trkpt>
      <trkpt lat="43.60499" lon="3.00852">
        <ele>692.28662109375</ele>
        <time>2010-09-26T09:15:00Z</time>
      </trkpt>
      <trkpt lat="43.60493" lon="3.00843">
        <ele>686.99926757812</ele>
        <time>2010-09-26T09:15:05Z</time>
      </trkpt>
      <trkpt lat="43.60488" lon="3.00837">
        <ele>685.07690429688</ele>
        <time>2010-09-26T09:15:10Z</time>
      </trkpt>
      <trkpt lat="43.6048" lon="3.00831">
        <ele>685.07690429688</ele>
        <time>2010-09-26T09:15:14Z</time>
      </trkpt>
      <trkpt lat="43.60478" lon="3.00829">
        <ele>685.55737304688</ele>
        <time>2010-09-26T09:15:16Z</time>
      </trkpt>
      <trkpt lat="43.60477" lon="3.00829">
        <ele>682.19262695312</ele>
        <time>2010-09-26T09:15:18Z</time>
      </trkpt>
      <trkpt lat="43.60474" lon="3.00828">
        <ele>679.30859375</ele>
        <time>2010-09-26T09:15:22Z</time>
      </trkpt>
      <trkpt lat="43.60472" lon="3.0083">
        <ele>679.30859375</ele>
        <time>2010-09-26T09:15:24Z</time>
      </trkpt>
      <trkpt lat="43.60464" lon="3.00829">
        <ele>676.4248046875</ele>
        <time>2010-09-26T09:15:30Z</time>
      </trkpt>
      <trkpt lat="43.6046" lon="3.00824">
        <ele>675.46337890625</ele>
        <time>2010-09-26T09:15:36Z</time>
      </trkpt>
      <trkpt lat="43.60458" lon="3.00823">
        <ele>675.46337890625</ele>
        <time>2010-09-26T09:15:38Z</time>
      </trkpt>
      <trkpt lat="43.60452" lon="3.00821">
        <ele>677.38623046875</ele>
        <time>2010-09-26T09:15:41Z</time>
      </trkpt>
      <trkpt lat="43.60449" lon="3.0082">
        <ele>676.90551757812</ele>
        <time>2010-09-26T09:15:47Z</time>
      </trkpt>
      <trkpt lat="43.60443" lon="3.00818">
        <ele>674.021484375</ele>
        <time>2010-09-26T09:15:53Z</time>
      </trkpt>
      <trkpt lat="43.60436" lon="3.00814">
        <ele>670.65698242188</ele>
        <time>2010-09-26T09:15:59Z</time>
      </trkpt>
      <trkpt lat="43.60429" lon="3.00811">
        <ele>671.1376953125</ele>
        <time>2010-09-26T09:16:04Z</time>
      </trkpt>
      <trkpt lat="43.60421" lon="3.00801">
        <ele>671.6181640625</ele>
        <time>2010-09-26T09:16:08Z</time>
      </trkpt>
      <trkpt lat="43.60417" lon="3.00796">
        <ele>672.57958984375</ele>
        <time>2010-09-26T09:16:12Z</time>
      </trkpt>
      <trkpt lat="43.60413" lon="3.00788">
        <ele>671.6181640625</ele>
        <time>2010-09-26T09:16:17Z</time>
      </trkpt>
      <trkpt lat="43.60405" lon="3.00784">
        <ele>679.78930664062</ele>
        <time>2010-09-26T09:16:20Z</time>
      </trkpt>
      <trkpt lat="43.604" lon="3.00783">
        <ele>683.15380859375</ele>
        <time>2010-09-26T09:16:24Z</time>
      </trkpt>
      <trkpt lat="43.60392" lon="3.00785">
        <ele>685.07690429688</ele>
        <time>2010-09-26T09:16:31Z</time>
      </trkpt>
      <trkpt lat="43.6038" lon="3.00783">
        <ele>694.20922851562</ele>
        <time>2010-09-26T09:16:47Z</time>
      </trkpt>
      <trkpt lat="43.60379" lon="3.00782">
        <ele>697.09301757812</ele>
        <time>2010-09-26T09:16:54Z</time>
      </trkpt>
      <trkpt lat="43.60377" lon="3.0078">
        <ele>698.53491210938</ele>
        <time>2010-09-26T09:17:06Z</time>
      </trkpt>
      <trkpt lat="43.60375" lon="3.0078">
        <ele>698.05444335938</ele>
        <time>2010-09-26T09:17:13Z</time>
      </trkpt>
      <trkpt lat="43.60372" lon="3.00782">
        <ele>696.61254882812</ele>
        <time>2010-09-26T09:17:16Z</time>
      </trkpt>
      <trkpt lat="43.60366" lon="3.00781">
        <ele>695.65112304688</ele>
        <time>2010-09-26T09:17:20Z</time>
      </trkpt>
      <trkpt lat="43.60362" lon="3.00786">
        <ele>692.76733398438</ele>
        <time>2010-09-26T09:17:28Z</time>
      </trkpt>
      <trkpt lat="43.6036" lon="3.0079">
        <ele>690.84448242188</ele>
        <time>2010-09-26T09:17:33Z</time>
      </trkpt>
      <trkpt lat="43.60355" lon="3.00791">
        <ele>689.40258789062</ele>
        <time>2010-09-26T09:17:37Z</time>
      </trkpt>
      <trkpt lat="43.60352" lon="3.0079">
        <ele>688.92211914062</ele>
        <time>2010-09-26T09:17:40Z</time>
      </trkpt>
      <trkpt lat="43.6035" lon="3.00789">
        <ele>688.92211914062</ele>
        <time>2010-09-26T09:17:42Z</time>
      </trkpt>
      <trkpt lat="43.60345" lon="3.00791">
        <ele>686.99926757812</ele>
        <time>2010-09-26T09:17:49Z</time>
      </trkpt>
      <trkpt lat="43.60343" lon="3.00794">
        <ele>686.99926757812</ele>
        <time>2010-09-26T09:17:51Z</time>
      </trkpt>
      <trkpt lat="43.60339" lon="3.00797">
        <ele>683.15380859375</ele>
        <time>2010-09-26T09:17:57Z</time>
      </trkpt>
      <trkpt lat="43.60338" lon="3.00799">
        <ele>682.67333984375</ele>
        <time>2010-09-26T09:17:58Z</time>
      </trkpt>
      <trkpt lat="43.60334" lon="3.00803">
        <ele>681.2314453125</ele>
        <time>2010-09-26T09:18:02Z</time>
      </trkpt>
      <trkpt lat="43.60329" lon="3.00807">
        <ele>678.828125</ele>
        <time>2010-09-26T09:18:08Z</time>
      </trkpt>
      <trkpt lat="43.60323" lon="3.00812">
        <ele>675.46337890625</ele>
        <time>2010-09-26T09:18:13Z</time>
      </trkpt>
      <trkpt lat="43.60315" lon="3.00818">
        <ele>674.021484375</ele>
        <time>2010-09-26T09:18:17Z</time>
      </trkpt>
      <trkpt lat="43.60312" lon="3.0082">
        <ele>674.021484375</ele>
        <time>2010-09-26T09:18:19Z</time>
      </trkpt>
      <trkpt lat="43.60304" lon="3.00822">
        <ele>677.38623046875</ele>
        <time>2010-09-26T09:18:23Z</time>
      </trkpt>
      <trkpt lat="43.60297" lon="3.00823">
        <ele>677.38623046875</ele>
        <time>2010-09-26T09:18:28Z</time>
      </trkpt>
      <trkpt lat="43.60284" lon="3.0083">
        <ele>681.2314453125</ele>
        <time>2010-09-26T09:18:33Z</time>
      </trkpt>
      <trkpt lat="43.60276" lon="3.00834">
        <ele>680.75073242188</ele>
        <time>2010-09-26T09:18:36Z</time>
      </trkpt>
      <trkpt lat="43.60266" lon="3.00834">
        <ele>679.30859375</ele>
        <time>2010-09-26T09:18:40Z</time>
      </trkpt>
      <trkpt lat="43.60254" lon="3.00833">
        <ele>678.828125</ele>
        <time>2010-09-26T09:18:44Z</time>
      </trkpt>
      <trkpt lat="43.60249" lon="3.00832">
        <ele>677.86669921875</ele>
        <time>2010-09-26T09:18:47Z</time>
      </trkpt>
      <trkpt lat="43.60236" lon="3.00831">
        <ele>676.90551757812</ele>
        <time>2010-09-26T09:18:53Z</time>
      </trkpt>
      <trkpt lat="43.60228" lon="3.0083">
        <ele>676.4248046875</ele>
        <time>2010-09-26T09:18:57Z</time>
      </trkpt>
      <trkpt lat="43.60216" lon="3.0083">
        <ele>676.4248046875</ele>
        <time>2010-09-26T09:19:02Z</time>
      </trkpt>
      <trkpt lat="43.60205" lon="3.00824">
        <ele>675.46337890625</ele>
        <time>2010-09-26T09:19:08Z</time>
      </trkpt>
      <trkpt lat="43.60201" lon="3.00821">
        <ele>674.50219726562</ele>
        <time>2010-09-26T09:19:11Z</time>
      </trkpt>
      <trkpt lat="43.60202" lon="3.00819">
        <ele>672.09887695312</ele>
        <time>2010-09-26T09:19:15Z</time>
      </trkpt>
      <trkpt lat="43.60197" lon="3.00816">
        <ele>669.21508789062</ele>
        <time>2010-09-26T09:19:20Z</time>
      </trkpt>
      <trkpt lat="43.60195" lon="3.00814">
        <ele>669.21508789062</ele>
        <time>2010-09-26T09:19:21Z</time>
      </trkpt>
      <trkpt lat="43.60192" lon="3.00811">
        <ele>669.69580078125</ele>
        <time>2010-09-26T09:19:24Z</time>
      </trkpt>
      <trkpt lat="43.60191" lon="3.00807">
        <ele>669.69580078125</ele>
        <time>2010-09-26T09:19:30Z</time>
      </trkpt>
      <trkpt lat="43.60189" lon="3.008">
        <ele>668.25366210938</ele>
        <time>2010-09-26T09:19:35Z</time>
      </trkpt>
      <trkpt lat="43.60186" lon="3.00797">
        <ele>668.734375</ele>
        <time>2010-09-26T09:19:37Z</time>
      </trkpt>
      <trkpt lat="43.60179" lon="3.00789">
        <ele>669.69580078125</ele>
        <time>2010-09-26T09:19:42Z</time>
      </trkpt>
      <trkpt lat="43.6017" lon="3.00782">
        <ele>670.17626953125</ele>
        <time>2010-09-26T09:19:48Z</time>
      </trkpt>
      <trkpt lat="43.60168" lon="3.00776">
        <ele>667.29223632812</ele>
        <time>2010-09-26T09:19:53Z</time>
      </trkpt>
      <trkpt lat="43.60161" lon="3.0077">
        <ele>664.408203125</ele>
        <time>2010-09-26T09:19:59Z</time>
      </trkpt>
      <trkpt lat="43.60158" lon="3.00766">
        <ele>663.92749023438</ele>
        <time>2010-09-26T09:20:01Z</time>
      </trkpt>
      <trkpt lat="43.60143" lon="3.00758">
        <ele>663.92749023438</ele>
        <time>2010-09-26T09:20:07Z</time>
      </trkpt>
      <trkpt lat="43.60141" lon="3.00756">
        <ele>663.44702148438</ele>
        <time>2010-09-26T09:20:08Z</time>
      </trkpt>
      <trkpt lat="43.60139" lon="3.00753">
        <ele>661.5244140625</ele>
        <time>2010-09-26T09:20:11Z</time>
      </trkpt>
      <trkpt lat="43.60135" lon="3.00748">
        <ele>661.04370117188</ele>
        <time>2010-09-26T09:20:15Z</time>
      </trkpt>
      <trkpt lat="43.60126" lon="3.00746">
        <ele>662.00512695312</ele>
        <time>2010-09-26T09:20:20Z</time>
      </trkpt>
      <trkpt lat="43.60115" lon="3.00739">
        <ele>662.48559570312</ele>
        <time>2010-09-26T09:20:25Z</time>
      </trkpt>
      <trkpt lat="43.60104" lon="3.00738">
        <ele>661.04370117188</ele>
        <time>2010-09-26T09:20:30Z</time>
      </trkpt>
      <trkpt lat="43.60098" lon="3.00739">
        <ele>662.00512695312</ele>
        <time>2010-09-26T09:20:34Z</time>
      </trkpt>
      <trkpt lat="43.60093" lon="3.00744">
        <ele>662.96630859375</ele>
        <time>2010-09-26T09:20:38Z</time>
      </trkpt>
      <trkpt lat="43.60088" lon="3.00748">
        <ele>663.44702148438</ele>
        <time>2010-09-26T09:20:41Z</time>
      </trkpt>
      <trkpt lat="43.60083" lon="3.00749">
        <ele>664.88891601562</ele>
        <time>2010-09-26T09:20:45Z</time>
      </trkpt>
      <trkpt lat="43.6007" lon="3.0075">
        <ele>665.36962890625</ele>
        <time>2010-09-26T09:20:52Z</time>
      </trkpt>
      <trkpt lat="43.60068" lon="3.0075">
        <ele>664.88891601562</ele>
        <time>2010-09-26T09:20:53Z</time>
      </trkpt>
      <trkpt lat="43.60062" lon="3.00749">
        <ele>664.408203125</ele>
        <time>2010-09-26T09:20:58Z</time>
      </trkpt>
      <trkpt lat="43.60054" lon="3.0075">
        <ele>663.44702148438</ele>
        <time>2010-09-26T09:21:03Z</time>
      </trkpt>
      <trkpt lat="43.6005" lon="3.00751">
        <ele>662.00512695312</ele>
        <time>2010-09-26T09:21:06Z</time>
      </trkpt>
      <trkpt lat="43.60041" lon="3.00748">
        <ele>661.04370117188</ele>
        <time>2010-09-26T09:21:10Z</time>
      </trkpt>
      <trkpt lat="43.60034" lon="3.00742">
        <ele>660.56298828125</ele>
        <time>2010-09-26T09:21:14Z</time>
      </trkpt>
      <trkpt lat="43.60024" lon="3.0074">
        <ele>659.60180664062</ele>
        <time>2010-09-26T09:21:19Z</time>
      </trkpt>
      <trkpt lat="43.60021" lon="3.0074">
        <ele>658.15991210938</ele>
        <time>2010-09-26T09:21:21Z</time>
      </trkpt>
      <trkpt lat="43.60014" lon="3.00737">
        <ele>656.7177734375</ele>
        <time>2010-09-26T09:21:26Z</time>
      </trkpt>
      <trkpt lat="43.60006" lon="3.00732">
        <ele>654.31469726562</ele>
        <time>2010-09-26T09:21:30Z</time>
      </trkpt>
      <trkpt lat="43.59999" lon="3.00729">
        <ele>653.833984375</ele>
        <time>2010-09-26T09:21:35Z</time>
      </trkpt>
      <trkpt lat="43.59985" lon="3.00724">
        <ele>652.39184570312</ele>
        <time>2010-09-26T09:21:41Z</time>
      </trkpt>
      <trkpt lat="43.59972" lon="3.0072">
        <ele>649.98852539062</ele>
        <time>2010-09-26T09:21:46Z</time>
      </trkpt>
      <trkpt lat="43.59959" lon="3.00716">
        <ele>648.06591796875</ele>
        <time>2010-09-26T09:21:51Z</time>
      </trkpt>
      <trkpt lat="43.59952" lon="3.00711">
        <ele>646.14331054688</ele>
        <time>2010-09-26T09:21:56Z</time>
      </trkpt>
      <trkpt lat="43.59945" lon="3.00708">
        <ele>645.18188476562</ele>
        <time>2010-09-26T09:22:00Z</time>
      </trkpt>
      <trkpt lat="43.59939" lon="3.00703">
        <ele>642.77880859375</ele>
        <time>2010-09-26T09:22:06Z</time>
      </trkpt>
      <trkpt lat="43.59938" lon="3.00702">
        <ele>641.8173828125</ele>
        <time>2010-09-26T09:22:07Z</time>
      </trkpt>
      <trkpt lat="43.59929" lon="3.00691">
        <ele>640.37548828125</ele>
        <time>2010-09-26T09:22:12Z</time>
      </trkpt>
      <trkpt lat="43.59922" lon="3.00682">
        <ele>640.37548828125</ele>
        <time>2010-09-26T09:22:17Z</time>
      </trkpt>
      <trkpt lat="43.59916" lon="3.00674">
        <ele>637.97216796875</ele>
        <time>2010-09-26T09:22:21Z</time>
      </trkpt>
      <trkpt lat="43.59914" lon="3.00673">
        <ele>637.97216796875</ele>
        <time>2010-09-26T09:22:22Z</time>
      </trkpt>
      <trkpt lat="43.59911" lon="3.00668">
        <ele>637.0107421875</ele>
        <time>2010-09-26T09:22:25Z</time>
      </trkpt>
      <trkpt lat="43.59899" lon="3.00661">
        <ele>637.97216796875</ele>
        <time>2010-09-26T09:22:31Z</time>
      </trkpt>
      <trkpt lat="43.59888" lon="3.00653">
        <ele>637.49145507812</ele>
        <time>2010-09-26T09:22:35Z</time>
      </trkpt>
      <trkpt lat="43.59885" lon="3.00651">
        <ele>637.49145507812</ele>
        <time>2010-09-26T09:22:37Z</time>
      </trkpt>
      <trkpt lat="43.59878" lon="3.00654">
        <ele>637.49145507812</ele>
        <time>2010-09-26T09:22:42Z</time>
      </trkpt>
      <trkpt lat="43.59873" lon="3.00655">
        <ele>638.93359375</ele>
        <time>2010-09-26T09:22:45Z</time>
      </trkpt>
      <trkpt lat="43.59861" lon="3.00661">
        <ele>639.4140625</ele>
        <time>2010-09-26T09:22:52Z</time>
      </trkpt>
      <trkpt lat="43.59851" lon="3.00661">
        <ele>639.4140625</ele>
        <time>2010-09-26T09:22:57Z</time>
      </trkpt>
      <trkpt lat="43.59847" lon="3.0066">
        <ele>638.93359375</ele>
        <time>2010-09-26T09:23:00Z</time>
      </trkpt>
      <trkpt lat="43.5984" lon="3.00658">
        <ele>638.93359375</ele>
        <time>2010-09-26T09:23:06Z</time>
      </trkpt>
      <trkpt lat="43.59836" lon="3.00656">
        <ele>637.97216796875</ele>
        <time>2010-09-26T09:23:16Z</time>
      </trkpt>
      <trkpt lat="43.59833" lon="3.00656">
        <ele>637.97216796875</ele>
        <time>2010-09-26T09:23:22Z</time>
      </trkpt>
      <trkpt lat="43.59832" lon="3.00655">
        <ele>637.0107421875</ele>
        <time>2010-09-26T09:23:28Z</time>
      </trkpt>
      <trkpt lat="43.5983" lon="3.00656">
        <ele>637.49145507812</ele>
        <time>2010-09-26T09:23:40Z</time>
      </trkpt>
      <trkpt lat="43.59826" lon="3.00657">
        <ele>645.18188476562</ele>
        <time>2010-09-26T09:23:57Z</time>
      </trkpt>
      <trkpt lat="43.59826" lon="3.00655">
        <ele>643.73999023438</ele>
        <time>2010-09-26T09:24:09Z</time>
      </trkpt>
      <trkpt lat="43.59825" lon="3.00655">
        <ele>643.25927734375</ele>
        <time>2010-09-26T09:24:27Z</time>
      </trkpt>
      <trkpt lat="43.59825" lon="3.00655">
        <ele>641.8173828125</ele>
        <time>2010-09-26T09:24:36Z</time>
      </trkpt>
      <trkpt lat="43.59826" lon="3.00654">
        <ele>638.93359375</ele>
        <time>2010-09-26T09:24:42Z</time>
      </trkpt>
      <trkpt lat="43.59829" lon="3.00653">
        <ele>635.56860351562</ele>
        <time>2010-09-26T09:24:49Z</time>
      </trkpt>
      <trkpt lat="43.59829" lon="3.00654">
        <ele>636.04956054688</ele>
        <time>2010-09-26T09:24:58Z</time>
      </trkpt>
      <trkpt lat="43.5983" lon="3.00655">
        <ele>638.45288085938</ele>
        <time>2010-09-26T09:25:10Z</time>
      </trkpt>
      <trkpt lat="43.59827" lon="3.00654">
        <ele>637.0107421875</ele>
        <time>2010-09-26T09:25:15Z</time>
      </trkpt>
      <trkpt lat="43.5983" lon="3.00653">
        <ele>635.08813476562</ele>
        <time>2010-09-26T09:25:25Z</time>
      </trkpt>
      <trkpt lat="43.59832" lon="3.00652">
        <ele>631.72338867188</ele>
        <time>2010-09-26T09:25:44Z</time>
      </trkpt>
      <trkpt lat="43.59834" lon="3.00655">
        <ele>639.89477539062</ele>
        <time>2010-09-26T09:26:33Z</time>
      </trkpt>
      <trkpt lat="43.59831" lon="3.00656">
        <ele>638.93359375</ele>
        <time>2010-09-26T09:26:43Z</time>
      </trkpt>
      <trkpt lat="43.59829" lon="3.00659">
        <ele>638.93359375</ele>
        <time>2010-09-26T09:26:49Z</time>
      </trkpt>
      <trkpt lat="43.59824" lon="3.00662">
        <ele>638.45288085938</ele>
        <time>2010-09-26T09:26:52Z</time>
      </trkpt>
      <trkpt lat="43.59818" lon="3.00663">
        <ele>638.93359375</ele>
        <time>2010-09-26T09:26:57Z</time>
      </trkpt>
      <trkpt lat="43.59813" lon="3.00664">
        <ele>639.89477539062</ele>
        <time>2010-09-26T09:27:03Z</time>
      </trkpt>
      <trkpt lat="43.59809" lon="3.00665">
        <ele>638.45288085938</ele>
        <time>2010-09-26T09:27:13Z</time>
      </trkpt>
      <trkpt lat="43.59806" lon="3.00665">
        <ele>638.45288085938</ele>
        <time>2010-09-26T09:27:17Z</time>
      </trkpt>
      <trkpt lat="43.59801" lon="3.00668">
        <ele>637.0107421875</ele>
        <time>2010-09-26T09:27:21Z</time>
      </trkpt>
      <trkpt lat="43.59795" lon="3.00671">
        <ele>635.56860351562</ele>
        <time>2010-09-26T09:27:26Z</time>
      </trkpt>
      <trkpt lat="43.59793" lon="3.00673">
        <ele>636.5302734375</ele>
        <time>2010-09-26T09:27:28Z</time>
      </trkpt>
      <trkpt lat="43.59788" lon="3.00678">
        <ele>634.607421875</ele>
        <time>2010-09-26T09:27:33Z</time>
      </trkpt>
      <trkpt lat="43.59781" lon="3.0068">
        <ele>631.72338867188</ele>
        <time>2010-09-26T09:27:37Z</time>
      </trkpt>
      <trkpt lat="43.59776" lon="3.00682">
        <ele>630.28149414062</ele>
        <time>2010-09-26T09:27:41Z</time>
      </trkpt>
      <trkpt lat="43.59774" lon="3.00684">
        <ele>629.32006835938</ele>
        <time>2010-09-26T09:27:43Z</time>
      </trkpt>
      <trkpt lat="43.5977" lon="3.00686">
        <ele>626.9169921875</ele>
        <time>2010-09-26T09:27:49Z</time>
      </trkpt>
      <trkpt lat="43.59769" lon="3.00692">
        <ele>624.99438476562</ele>
        <time>2010-09-26T09:27:55Z</time>
      </trkpt>
      <trkpt lat="43.5977" lon="3.00698">
        <ele>622.59106445312</ele>
        <time>2010-09-26T09:27:59Z</time>
      </trkpt>
      <trkpt lat="43.59772" lon="3.007">
        <ele>621.14916992188</ele>
        <time>2010-09-26T09:28:01Z</time>
      </trkpt>
      <trkpt lat="43.59776" lon="3.00699">
        <ele>618.26489257812</ele>
        <time>2010-09-26T09:28:06Z</time>
      </trkpt>
      <trkpt lat="43.59777" lon="3.00704">
        <ele>616.34228515625</ele>
        <time>2010-09-26T09:28:11Z</time>
      </trkpt>
      <trkpt lat="43.59777" lon="3.00708">
        <ele>615.38110351562</ele>
        <time>2010-09-26T09:28:15Z</time>
      </trkpt>
      <trkpt lat="43.59777" lon="3.00712">
        <ele>612.97778320312</ele>
        <time>2010-09-26T09:28:19Z</time>
      </trkpt>
      <trkpt lat="43.59781" lon="3.00714">
        <ele>609.61328125</ele>
        <time>2010-09-26T09:28:24Z</time>
      </trkpt>
      <trkpt lat="43.59784" lon="3.00716">
        <ele>608.17138671875</ele>
        <time>2010-09-26T09:28:29Z</time>
      </trkpt>
      <trkpt lat="43.59785" lon="3.00723">
        <ele>605.28735351562</ele>
        <time>2010-09-26T09:28:35Z</time>
      </trkpt>
      <trkpt lat="43.59789" lon="3.00727">
        <ele>600.96118164062</ele>
        <time>2010-09-26T09:28:39Z</time>
      </trkpt>
      <trkpt lat="43.59792" lon="3.0073">
        <ele>599.03857421875</ele>
        <time>2010-09-26T09:28:44Z</time>
      </trkpt>
      <trkpt lat="43.59792" lon="3.00734">
        <ele>596.63549804688</ele>
        <time>2010-09-26T09:28:49Z</time>
      </trkpt>
      <trkpt lat="43.59788" lon="3.00742">
        <ele>593.27075195312</ele>
        <time>2010-09-26T09:28:55Z</time>
      </trkpt>
      <trkpt lat="43.59782" lon="3.00747">
        <ele>591.34814453125</ele>
        <time>2010-09-26T09:29:01Z</time>
      </trkpt>
      <trkpt lat="43.59781" lon="3.0075">
        <ele>590.86743164062</ele>
        <time>2010-09-26T09:29:04Z</time>
      </trkpt>
      <trkpt lat="43.59779" lon="3.00753">
        <ele>590.86743164062</ele>
        <time>2010-09-26T09:29:07Z</time>
      </trkpt>
      <trkpt lat="43.59775" lon="3.00761">
        <ele>588.94506835938</ele>
        <time>2010-09-26T09:29:12Z</time>
      </trkpt>
      <trkpt lat="43.59774" lon="3.00764">
        <ele>587.02197265625</ele>
        <time>2010-09-26T09:29:17Z</time>
      </trkpt>
      <trkpt lat="43.59772" lon="3.00767">
        <ele>585.580078125</ele>
        <time>2010-09-26T09:29:20Z</time>
      </trkpt>
      <trkpt lat="43.59766" lon="3.00767">
        <ele>582.6962890625</ele>
        <time>2010-09-26T09:29:26Z</time>
      </trkpt>
      <trkpt lat="43.59762" lon="3.00771">
        <ele>579.81225585938</ele>
        <time>2010-09-26T09:29:31Z</time>
      </trkpt>
      <trkpt lat="43.5976" lon="3.00775">
        <ele>578.37036132812</ele>
        <time>2010-09-26T09:29:35Z</time>
      </trkpt>
      <trkpt lat="43.59759" lon="3.00777">
        <ele>577.8896484375</ele>
        <time>2010-09-26T09:29:36Z</time>
      </trkpt>
      <trkpt lat="43.59753" lon="3.0078">
        <ele>576.92846679688</ele>
        <time>2010-09-26T09:29:40Z</time>
      </trkpt>
      <trkpt lat="43.59746" lon="3.00783">
        <ele>575.486328125</ele>
        <time>2010-09-26T09:29:45Z</time>
      </trkpt>
      <trkpt lat="43.59739" lon="3.00791">
        <ele>572.6025390625</ele>
        <time>2010-09-26T09:29:51Z</time>
      </trkpt>
      <trkpt lat="43.59736" lon="3.00795">
        <ele>571.64086914062</ele>
        <time>2010-09-26T09:29:55Z</time>
      </trkpt>
      <trkpt lat="43.59734" lon="3.00798">
        <ele>570.6796875</ele>
        <time>2010-09-26T09:29:57Z</time>
      </trkpt>
      <trkpt lat="43.59726" lon="3.00803">
        <ele>569.23779296875</ele>
        <time>2010-09-26T09:30:03Z</time>
      </trkpt>
      <trkpt lat="43.59719" lon="3.00807">
        <ele>569.71850585938</ele>
        <time>2010-09-26T09:30:08Z</time>
      </trkpt>
      <trkpt lat="43.59712" lon="3.00811">
        <ele>574.52514648438</ele>
        <time>2010-09-26T09:30:12Z</time>
      </trkpt>
      <trkpt lat="43.597" lon="3.00816">
        <ele>578.85107421875</ele>
        <time>2010-09-26T09:30:17Z</time>
      </trkpt>
      <trkpt lat="43.59684" lon="3.0082">
        <ele>586.06079101562</ele>
        <time>2010-09-26T09:30:22Z</time>
      </trkpt>
      <trkpt lat="43.59671" lon="3.00823">
        <ele>586.54150390625</ele>
        <time>2010-09-26T09:30:26Z</time>
      </trkpt>
      <trkpt lat="43.59657" lon="3.00824">
        <ele>583.1767578125</ele>
        <time>2010-09-26T09:30:31Z</time>
      </trkpt>
      <trkpt lat="43.59653" lon="3.00824">
        <ele>581.73486328125</ele>
        <time>2010-09-26T09:30:33Z</time>
      </trkpt>
      <trkpt lat="43.59651" lon="3.0083">
        <ele>574.04443359375</ele>
        <time>2010-09-26T09:30:37Z</time>
      </trkpt>
      <trkpt lat="43.59642" lon="3.0084">
        <ele>568.75708007812</ele>
        <time>2010-09-26T09:30:43Z</time>
      </trkpt>
      <trkpt lat="43.59631" lon="3.00846">
        <ele>563.95043945312</ele>
        <time>2010-09-26T09:30:49Z</time>
      </trkpt>
      <trkpt lat="43.59622" lon="3.00848">
        <ele>558.66333007812</ele>
        <time>2010-09-26T09:30:54Z</time>
      </trkpt>
      <trkpt lat="43.59607" lon="3.00845">
        <ele>552.41455078125</ele>
        <time>2010-09-26T09:31:00Z</time>
      </trkpt>
      <trkpt lat="43.59601" lon="3.00847">
        <ele>549.53076171875</ele>
        <time>2010-09-26T09:31:03Z</time>
      </trkpt>
      <trkpt lat="43.59596" lon="3.00854">
        <ele>545.685546875</ele>
        <time>2010-09-26T09:31:08Z</time>
      </trkpt>
      <trkpt lat="43.59586" lon="3.00857">
        <ele>540.87890625</ele>
        <time>2010-09-26T09:31:12Z</time>
      </trkpt>
      <trkpt lat="43.59576" lon="3.00862">
        <ele>538.95629882812</ele>
        <time>2010-09-26T09:31:17Z</time>
      </trkpt>
      <trkpt lat="43.59575" lon="3.00864">
        <ele>537.51428222656</ele>
        <time>2010-09-26T09:31:20Z</time>
      </trkpt>
      <trkpt lat="43.59573" lon="3.00865">
        <ele>537.51428222656</ele>
        <time>2010-09-26T09:31:22Z</time>
      </trkpt>
      <trkpt lat="43.59565" lon="3.00868">
        <ele>534.63037109375</ele>
        <time>2010-09-26T09:31:28Z</time>
      </trkpt>
      <trkpt lat="43.59563" lon="3.0087">
        <ele>534.63037109375</ele>
        <time>2010-09-26T09:31:30Z</time>
      </trkpt>
      <trkpt lat="43.59562" lon="3.00873">
        <ele>533.18835449219</ele>
        <time>2010-09-26T09:31:32Z</time>
      </trkpt>
      <trkpt lat="43.59561" lon="3.00878">
        <ele>530.78515625</ele>
        <time>2010-09-26T09:31:36Z</time>
      </trkpt>
      <trkpt lat="43.59562" lon="3.00883">
        <ele>529.34313964844</ele>
        <time>2010-09-26T09:31:39Z</time>
      </trkpt>
      <trkpt lat="43.59559" lon="3.00885">
        <ele>528.3818359375</ele>
        <time>2010-09-26T09:31:41Z</time>
      </trkpt>
      <trkpt lat="43.59548" lon="3.00882">
        <ele>525.01721191406</ele>
        <time>2010-09-26T09:31:45Z</time>
      </trkpt>
      <trkpt lat="43.59533" lon="3.00875">
        <ele>521.65258789062</ele>
        <time>2010-09-26T09:31:50Z</time>
      </trkpt>
      <trkpt lat="43.59528" lon="3.00876">
        <ele>518.28784179688</ele>
        <time>2010-09-26T09:31:55Z</time>
      </trkpt>
      <trkpt lat="43.59522" lon="3.0088">
        <ele>515.88464355469</ele>
        <time>2010-09-26T09:32:01Z</time>
      </trkpt>
      <trkpt lat="43.59511" lon="3.00876">
        <ele>514.44262695312</ele>
        <time>2010-09-26T09:32:07Z</time>
      </trkpt>
      <trkpt lat="43.59502" lon="3.00873">
        <ele>511.07800292969</ele>
        <time>2010-09-26T09:32:12Z</time>
      </trkpt>
      <trkpt lat="43.59489" lon="3.0087">
        <ele>505.31018066406</ele>
        <time>2010-09-26T09:32:18Z</time>
      </trkpt>
      <trkpt lat="43.59486" lon="3.00869">
        <ele>503.38745117188</ele>
        <time>2010-09-26T09:32:20Z</time>
      </trkpt>
      <trkpt lat="43.59477" lon="3.00867">
        <ele>503.8681640625</ele>
        <time>2010-09-26T09:32:25Z</time>
      </trkpt>
      <trkpt lat="43.59473" lon="3.00866">
        <ele>501.46484375</ele>
        <time>2010-09-26T09:32:29Z</time>
      </trkpt>
      <trkpt lat="43.59468" lon="3.00861">
        <ele>500.02294921875</ele>
        <time>2010-09-26T09:32:34Z</time>
      </trkpt>
      <trkpt lat="43.59458" lon="3.00857">
        <ele>495.69689941406</ele>
        <time>2010-09-26T09:32:40Z</time>
      </trkpt>
      <trkpt lat="43.59453" lon="3.00854">
        <ele>495.21618652344</ele>
        <time>2010-09-26T09:32:45Z</time>
      </trkpt>
      <trkpt lat="43.59442" lon="3.00848">
        <ele>496.65832519531</ele>
        <time>2010-09-26T09:32:52Z</time>
      </trkpt>
      <trkpt lat="43.59437" lon="3.0085">
        <ele>493.29357910156</ele>
        <time>2010-09-26T09:32:57Z</time>
      </trkpt>
      <trkpt lat="43.59435" lon="3.00853">
        <ele>490.89038085938</ele>
        <time>2010-09-26T09:33:01Z</time>
      </trkpt>
      <trkpt lat="43.59431" lon="3.00854">
        <ele>488.48718261719</ele>
        <time>2010-09-26T09:33:05Z</time>
      </trkpt>
      <trkpt lat="43.59428" lon="3.00855">
        <ele>486.08374023438</ele>
        <time>2010-09-26T09:33:09Z</time>
      </trkpt>
      <trkpt lat="43.59424" lon="3.00855">
        <ele>484.1611328125</ele>
        <time>2010-09-26T09:33:13Z</time>
      </trkpt>
      <trkpt lat="43.59421" lon="3.00854">
        <ele>481.27722167969</ele>
        <time>2010-09-26T09:33:17Z</time>
      </trkpt>
      <trkpt lat="43.59418" lon="3.00856">
        <ele>480.31591796875</ele>
        <time>2010-09-26T09:33:22Z</time>
      </trkpt>
      <trkpt lat="43.59415" lon="3.00859">
        <ele>477.91247558594</ele>
        <time>2010-09-26T09:33:26Z</time>
      </trkpt>
      <trkpt lat="43.5941" lon="3.00861">
        <ele>471.18334960938</ele>
        <time>2010-09-26T09:33:36Z</time>
      </trkpt>
      <trkpt lat="43.59406" lon="3.00862">
        <ele>466.857421875</ele>
        <time>2010-09-26T09:33:40Z</time>
      </trkpt>
      <trkpt lat="43.594" lon="3.00861">
        <ele>464.93481445312</ele>
        <time>2010-09-26T09:33:45Z</time>
      </trkpt>
      <trkpt lat="43.59396" lon="3.0086">
        <ele>464.93481445312</ele>
        <time>2010-09-26T09:33:49Z</time>
      </trkpt>
      <trkpt lat="43.59394" lon="3.0086">
        <ele>464.93481445312</ele>
        <time>2010-09-26T09:33:51Z</time>
      </trkpt>
      <trkpt lat="43.59386" lon="3.00854">
        <ele>465.41552734375</ele>
        <time>2010-09-26T09:33:57Z</time>
      </trkpt>
      <trkpt lat="43.59382" lon="3.00851">
        <ele>463.97338867188</ele>
        <time>2010-09-26T09:34:02Z</time>
      </trkpt>
      <trkpt lat="43.59377" lon="3.00852">
        <ele>457.24426269531</ele>
        <time>2010-09-26T09:34:07Z</time>
      </trkpt>
      <trkpt lat="43.59375" lon="3.00853">
        <ele>457.72497558594</ele>
        <time>2010-09-26T09:34:08Z</time>
      </trkpt>
      <trkpt lat="43.59369" lon="3.00853">
        <ele>454.8408203125</ele>
        <time>2010-09-26T09:34:13Z</time>
      </trkpt>
      <trkpt lat="43.59363" lon="3.00852">
        <ele>452.43762207031</ele>
        <time>2010-09-26T09:34:18Z</time>
      </trkpt>
      <trkpt lat="43.59358" lon="3.00849">
        <ele>451.47631835938</ele>
        <time>2010-09-26T09:34:23Z</time>
      </trkpt>
      <trkpt lat="43.59356" lon="3.00849">
        <ele>447.15026855469</ele>
        <time>2010-09-26T09:34:27Z</time>
      </trkpt>
      <trkpt lat="43.59354" lon="3.00855">
        <ele>438.01782226562</ele>
        <time>2010-09-26T09:34:35Z</time>
      </trkpt>
      <trkpt lat="43.5935" lon="3.00854">
        <ele>434.6533203125</ele>
        <time>2010-09-26T09:34:39Z</time>
      </trkpt>
      <trkpt lat="43.59342" lon="3.00857">
        <ele>432.25</ele>
        <time>2010-09-26T09:34:47Z</time>
      </trkpt>
      <trkpt lat="43.59336" lon="3.00854">
        <ele>431.28857421875</ele>
        <time>2010-09-26T09:34:53Z</time>
      </trkpt>
      <trkpt lat="43.59332" lon="3.00856">
        <ele>429.84655761719</ele>
        <time>2010-09-26T09:34:58Z</time>
      </trkpt>
      <trkpt lat="43.59326" lon="3.00855">
        <ele>427.92395019531</ele>
        <time>2010-09-26T09:35:04Z</time>
      </trkpt>
      <trkpt lat="43.59325" lon="3.0086">
        <ele>416.38818359375</ele>
        <time>2010-09-26T09:35:11Z</time>
      </trkpt>
      <trkpt lat="43.59322" lon="3.00863">
        <ele>411.10095214844</ele>
        <time>2010-09-26T09:35:16Z</time>
      </trkpt>
      <trkpt lat="43.59309" lon="3.00867">
        <ele>400.0458984375</ele>
        <time>2010-09-26T09:35:29Z</time>
      </trkpt>
      <trkpt lat="43.59289" lon="3.00864">
        <ele>400.52648925781</ele>
        <time>2010-09-26T09:35:45Z</time>
      </trkpt>
      <trkpt lat="43.59279" lon="3.00863">
        <ele>401.48779296875</ele>
        <time>2010-09-26T09:35:51Z</time>
      </trkpt>
      <trkpt lat="43.59271" lon="3.00862">
        <ele>401.00708007812</ele>
        <time>2010-09-26T09:35:56Z</time>
      </trkpt>
      <trkpt lat="43.59265" lon="3.00861">
        <ele>402.9296875</ele>
        <time>2010-09-26T09:36:00Z</time>
      </trkpt>
      <trkpt lat="43.59258" lon="3.0086">
        <ele>403.41040039062</ele>
        <time>2010-09-26T09:36:04Z</time>
      </trkpt>
      <trkpt lat="43.59248" lon="3.00857">
        <ele>403.89111328125</ele>
        <time>2010-09-26T09:36:09Z</time>
      </trkpt>
      <trkpt lat="43.5924" lon="3.00854">
        <ele>399.56506347656</ele>
        <time>2010-09-26T09:36:14Z</time>
      </trkpt>
      <trkpt lat="43.59237" lon="3.00855">
        <ele>393.79724121094</ele>
        <time>2010-09-26T09:36:20Z</time>
      </trkpt>
      <trkpt lat="43.59234" lon="3.00854">
        <ele>392.8359375</ele>
        <time>2010-09-26T09:36:24Z</time>
      </trkpt>
      <trkpt lat="43.59228" lon="3.00856">
        <ele>396.20056152344</ele>
        <time>2010-09-26T09:36:32Z</time>
      </trkpt>
      <trkpt lat="43.59223" lon="3.00856">
        <ele>392.8359375</ele>
        <time>2010-09-26T09:36:39Z</time>
      </trkpt>
      <trkpt lat="43.59213" lon="3.00851">
        <ele>395.71984863281</ele>
        <time>2010-09-26T09:36:44Z</time>
      </trkpt>
      <trkpt lat="43.59208" lon="3.0085">
        <ele>395.71984863281</ele>
        <time>2010-09-26T09:36:48Z</time>
      </trkpt>
      <trkpt lat="43.592" lon="3.0085">
        <ele>392.35534667969</ele>
        <time>2010-09-26T09:36:53Z</time>
      </trkpt>
      <trkpt lat="43.59196" lon="3.00847">
        <ele>392.35534667969</ele>
        <time>2010-09-26T09:36:55Z</time>
      </trkpt>
      <trkpt lat="43.59189" lon="3.00843">
        <ele>388.99060058594</ele>
        <time>2010-09-26T09:36:59Z</time>
      </trkpt>
      <trkpt lat="43.59184" lon="3.00834">
        <ele>389.95190429688</ele>
        <time>2010-09-26T09:37:03Z</time>
      </trkpt>
      <trkpt lat="43.59175" lon="3.00828">
        <ele>389.47119140625</ele>
        <time>2010-09-26T09:37:09Z</time>
      </trkpt>
      <trkpt lat="43.59172" lon="3.0083">
        <ele>389.47119140625</ele>
        <time>2010-09-26T09:37:13Z</time>
      </trkpt>
      <trkpt lat="43.5917" lon="3.00831">
        <ele>387.54858398438</ele>
        <time>2010-09-26T09:37:16Z</time>
      </trkpt>
      <trkpt lat="43.59161" lon="3.00831">
        <ele>388.99060058594</ele>
        <time>2010-09-26T09:37:22Z</time>
      </trkpt>
      <trkpt lat="43.59148" lon="3.00831">
        <ele>407.25561523438</ele>
        <time>2010-09-26T09:37:25Z</time>
      </trkpt>
      <trkpt lat="43.59144" lon="3.00832">
        <ele>407.25561523438</ele>
        <time>2010-09-26T09:37:29Z</time>
      </trkpt>
      <trkpt lat="43.59138" lon="3.00827">
        <ele>404.85229492188</ele>
        <time>2010-09-26T09:37:34Z</time>
      </trkpt>
      <trkpt lat="43.59136" lon="3.00826">
        <ele>404.37170410156</ele>
        <time>2010-09-26T09:37:36Z</time>
      </trkpt>
      <trkpt lat="43.59133" lon="3.00824">
        <ele>402.9296875</ele>
        <time>2010-09-26T09:37:41Z</time>
      </trkpt>
      <trkpt lat="43.59136" lon="3.00828">
        <ele>395.71984863281</ele>
        <time>2010-09-26T09:37:45Z</time>
      </trkpt>
      <trkpt lat="43.59126" lon="3.00829">
        <ele>404.85229492188</ele>
        <time>2010-09-26T09:37:49Z</time>
      </trkpt>
      <trkpt lat="43.59117" lon="3.00831">
        <ele>412.06225585938</ele>
        <time>2010-09-26T09:37:52Z</time>
      </trkpt>
      <trkpt lat="43.59109" lon="3.00838">
        <ele>410.1396484375</ele>
        <time>2010-09-26T09:37:57Z</time>
      </trkpt>
      <trkpt lat="43.591" lon="3.00838">
        <ele>407.736328125</ele>
        <time>2010-09-26T09:38:02Z</time>
      </trkpt>
      <trkpt lat="43.59089" lon="3.00839">
        <ele>404.85229492188</ele>
        <time>2010-09-26T09:38:09Z</time>
      </trkpt>
      <trkpt lat="43.59079" lon="3.00842">
        <ele>414.94616699219</ele>
        <time>2010-09-26T09:38:16Z</time>
      </trkpt>
      <trkpt lat="43.59083" lon="3.00842">
        <ele>409.65905761719</ele>
        <time>2010-09-26T09:38:34Z</time>
      </trkpt>
      <trkpt lat="43.59075" lon="3.0084">
        <ele>422.15600585938</ele>
        <time>2010-09-26T09:38:46Z</time>
      </trkpt>
      <trkpt lat="43.59082" lon="3.0084">
        <ele>405.3330078125</ele>
        <time>2010-09-26T09:39:14Z</time>
      </trkpt>
      <trkpt lat="43.5907" lon="3.00832">
        <ele>404.85229492188</ele>
        <time>2010-09-26T09:39:22Z</time>
      </trkpt>
      <trkpt lat="43.59084" lon="3.00835">
        <ele>388.029296875</ele>
        <time>2010-09-26T09:39:38Z</time>
      </trkpt>
      <trkpt lat="43.59087" lon="3.0084">
        <ele>377.45483398438</ele>
        <time>2010-09-26T09:39:55Z</time>
      </trkpt>
      <trkpt lat="43.59082" lon="3.0084">
        <ele>377.45483398438</ele>
        <time>2010-09-26T09:40:01Z</time>
      </trkpt>
      <trkpt lat="43.59079" lon="3.0084">
        <ele>376.97424316406</ele>
        <time>2010-09-26T09:40:05Z</time>
      </trkpt>
      <trkpt lat="43.59078" lon="3.0084">
        <ele>376.01281738281</ele>
        <time>2010-09-26T09:40:08Z</time>
      </trkpt>
      <trkpt lat="43.59074" lon="3.00841">
        <ele>377.45483398438</ele>
        <time>2010-09-26T09:40:11Z</time>
      </trkpt>
      <trkpt lat="43.59065" lon="3.00844">
        <ele>376.01281738281</ele>
        <time>2010-09-26T09:40:18Z</time>
      </trkpt>
      <trkpt lat="43.59058" lon="3.00846">
        <ele>377.93542480469</ele>
        <time>2010-09-26T09:40:22Z</time>
      </trkpt>
      <trkpt lat="43.5905" lon="3.00845">
        <ele>376.01281738281</ele>
        <time>2010-09-26T09:40:28Z</time>
      </trkpt>
      <trkpt lat="43.59042" lon="3.00844">
        <ele>373.60949707031</ele>
        <time>2010-09-26T09:40:33Z</time>
      </trkpt>
      <trkpt lat="43.59037" lon="3.00842">
        <ele>372.64819335938</ele>
        <time>2010-09-26T09:40:36Z</time>
      </trkpt>
      <trkpt lat="43.59028" lon="3.00843">
        <ele>371.20629882812</ele>
        <time>2010-09-26T09:40:41Z</time>
      </trkpt>
      <trkpt lat="43.59021" lon="3.00842">
        <ele>384.18408203125</ele>
        <time>2010-09-26T09:40:49Z</time>
      </trkpt>
      <trkpt lat="43.59019" lon="3.00842">
        <ele>382.74206542969</ele>
        <time>2010-09-26T09:40:57Z</time>
      </trkpt>
      <trkpt lat="43.59008" lon="3.00837">
        <ele>390.4326171875</ele>
        <time>2010-09-26T09:41:03Z</time>
      </trkpt>
      <trkpt lat="43.58998" lon="3.00836">
        <ele>392.35534667969</ele>
        <time>2010-09-26T09:41:10Z</time>
      </trkpt>
      <trkpt lat="43.58997" lon="3.00836">
        <ele>392.35534667969</ele>
        <time>2010-09-26T09:41:11Z</time>
      </trkpt>
      <trkpt lat="43.58989" lon="3.00842">
        <ele>396.20056152344</ele>
        <time>2010-09-26T09:41:16Z</time>
      </trkpt>
      <trkpt lat="43.58987" lon="3.00846">
        <ele>391.87451171875</ele>
        <time>2010-09-26T09:41:28Z</time>
      </trkpt>
      <trkpt lat="43.58984" lon="3.0085">
        <ele>389.95190429688</ele>
        <time>2010-09-26T09:41:33Z</time>
      </trkpt>
      <trkpt lat="43.5898" lon="3.00855">
        <ele>389.95190429688</ele>
        <time>2010-09-26T09:41:38Z</time>
      </trkpt>
      <trkpt lat="43.58974" lon="3.00858">
        <ele>390.4326171875</ele>
        <time>2010-09-26T09:41:43Z</time>
      </trkpt>
      <trkpt lat="43.58972" lon="3.00857">
        <ele>391.39379882812</ele>
        <time>2010-09-26T09:41:44Z</time>
      </trkpt>
      <trkpt lat="43.58965" lon="3.00855">
        <ele>388.99060058594</ele>
        <time>2010-09-26T09:41:50Z</time>
      </trkpt>
      <trkpt lat="43.58956" lon="3.00856">
        <ele>386.58740234375</ele>
        <time>2010-09-26T09:41:55Z</time>
      </trkpt>
      <trkpt lat="43.58952" lon="3.00854">
        <ele>386.10668945312</ele>
        <time>2010-09-26T09:41:57Z</time>
      </trkpt>
      <trkpt lat="43.58941" lon="3.00857">
        <ele>386.10668945312</ele>
        <time>2010-09-26T09:42:02Z</time>
      </trkpt>
      <trkpt lat="43.5893" lon="3.00859">
        <ele>384.18408203125</ele>
        <time>2010-09-26T09:42:06Z</time>
      </trkpt>
      <trkpt lat="43.58921" lon="3.00858">
        <ele>381.30004882812</ele>
        <time>2010-09-26T09:42:11Z</time>
      </trkpt>
      <trkpt lat="43.58919" lon="3.00857">
        <ele>380.33874511719</ele>
        <time>2010-09-26T09:42:13Z</time>
      </trkpt>
      <trkpt lat="43.58915" lon="3.00859">
        <ele>380.33874511719</ele>
        <time>2010-09-26T09:42:16Z</time>
      </trkpt>
      <trkpt lat="43.58903" lon="3.00858">
        <ele>378.89685058594</ele>
        <time>2010-09-26T09:42:21Z</time>
      </trkpt>
      <trkpt lat="43.58893" lon="3.00857">
        <ele>374.09008789062</ele>
        <time>2010-09-26T09:42:25Z</time>
      </trkpt>
      <trkpt lat="43.58883" lon="3.00858">
        <ele>370.7255859375</ele>
        <time>2010-09-26T09:42:30Z</time>
      </trkpt>
      <trkpt lat="43.58883" lon="3.00859">
        <ele>369.28369140625</ele>
        <time>2010-09-26T09:42:31Z</time>
      </trkpt>
      <trkpt lat="43.58878" lon="3.00861">
        <ele>369.28369140625</ele>
        <time>2010-09-26T09:42:35Z</time>
      </trkpt>
      <trkpt lat="43.58869" lon="3.00862">
        <ele>363.03503417969</ele>
        <time>2010-09-26T09:42:40Z</time>
      </trkpt>
      <trkpt lat="43.58857" lon="3.00862">
        <ele>362.07373046875</ele>
        <time>2010-09-26T09:42:45Z</time>
      </trkpt>
      <trkpt lat="43.58851" lon="3.00862">
        <ele>358.708984375</ele>
        <time>2010-09-26T09:42:48Z</time>
      </trkpt>
      <trkpt lat="43.58841" lon="3.00866">
        <ele>364.95764160156</ele>
        <time>2010-09-26T09:42:54Z</time>
      </trkpt>
      <trkpt lat="43.58828" lon="3.00863">
        <ele>366.88024902344</ele>
        <time>2010-09-26T09:43:00Z</time>
      </trkpt>
      <trkpt lat="43.58809" lon="3.00857">
        <ele>367.84155273438</ele>
        <time>2010-09-26T09:43:07Z</time>
      </trkpt>
      <trkpt lat="43.58806" lon="3.00856">
        <ele>367.36096191406</ele>
        <time>2010-09-26T09:43:08Z</time>
      </trkpt>
      <trkpt lat="43.58796" lon="3.00854">
        <ele>366.39953613281</ele>
        <time>2010-09-26T09:43:13Z</time>
      </trkpt>
      <trkpt lat="43.5879" lon="3.00857">
        <ele>365.9189453125</ele>
        <time>2010-09-26T09:43:17Z</time>
      </trkpt>
      <trkpt lat="43.58788" lon="3.00858">
        <ele>365.43835449219</ele>
        <time>2010-09-26T09:43:19Z</time>
      </trkpt>
      <trkpt lat="43.58784" lon="3.00859">
        <ele>365.9189453125</ele>
        <time>2010-09-26T09:43:22Z</time>
      </trkpt>
      <trkpt lat="43.58778" lon="3.00861">
        <ele>366.39953613281</ele>
        <time>2010-09-26T09:43:27Z</time>
      </trkpt>
      <trkpt lat="43.58776" lon="3.00862">
        <ele>366.88024902344</ele>
        <time>2010-09-26T09:43:28Z</time>
      </trkpt>
      <trkpt lat="43.58772" lon="3.00863">
        <ele>366.39953613281</ele>
        <time>2010-09-26T09:43:31Z</time>
      </trkpt>
      <trkpt lat="43.58766" lon="3.00864">
        <ele>364.95764160156</ele>
        <time>2010-09-26T09:43:37Z</time>
      </trkpt>
      <trkpt lat="43.58758" lon="3.0086">
        <ele>363.51574707031</ele>
        <time>2010-09-26T09:43:42Z</time>
      </trkpt>
      <trkpt lat="43.58752" lon="3.00854">
        <ele>361.59313964844</ele>
        <time>2010-09-26T09:43:46Z</time>
      </trkpt>
      <trkpt lat="43.58741" lon="3.0085">
        <ele>359.67041015625</ele>
        <time>2010-09-26T09:43:50Z</time>
      </trkpt>
      <trkpt lat="43.58737" lon="3.00851">
        <ele>358.22839355469</ele>
        <time>2010-09-26T09:43:52Z</time>
      </trkpt>
      <trkpt lat="43.58729" lon="3.00853">
        <ele>358.22839355469</ele>
        <time>2010-09-26T09:43:57Z</time>
      </trkpt>
      <trkpt lat="43.58719" lon="3.00856">
        <ele>357.74780273438</ele>
        <time>2010-09-26T09:44:01Z</time>
      </trkpt>
      <trkpt lat="43.58715" lon="3.00855">
        <ele>358.22839355469</ele>
        <time>2010-09-26T09:44:03Z</time>
      </trkpt>
      <trkpt lat="43.5871" lon="3.00856">
        <ele>357.74780273438</ele>
        <time>2010-09-26T09:44:08Z</time>
      </trkpt>
      <trkpt lat="43.58708" lon="3.00862">
        <ele>355.8251953125</ele>
        <time>2010-09-26T09:44:12Z</time>
      </trkpt>
      <trkpt lat="43.587" lon="3.00862">
        <ele>352.94116210938</ele>
        <time>2010-09-26T09:44:16Z</time>
      </trkpt>
      <trkpt lat="43.58692" lon="3.00858">
        <ele>350.05725097656</ele>
        <time>2010-09-26T09:44:21Z</time>
      </trkpt>
      <trkpt lat="43.58685" lon="3.00861">
        <ele>349.09582519531</ele>
        <time>2010-09-26T09:44:26Z</time>
      </trkpt>
      <trkpt lat="43.58678" lon="3.00865">
        <ele>347.17321777344</ele>
        <time>2010-09-26T09:44:31Z</time>
      </trkpt>
      <trkpt lat="43.58667" lon="3.00866">
        <ele>346.21203613281</ele>
        <time>2010-09-26T09:44:36Z</time>
      </trkpt>
      <trkpt lat="43.58665" lon="3.00865">
        <ele>346.69262695312</ele>
        <time>2010-09-26T09:44:37Z</time>
      </trkpt>
      <trkpt lat="43.58662" lon="3.00863">
        <ele>345.73132324219</ele>
        <time>2010-09-26T09:44:40Z</time>
      </trkpt>
      <trkpt lat="43.58658" lon="3.00858">
        <ele>345.25061035156</ele>
        <time>2010-09-26T09:44:45Z</time>
      </trkpt>
      <trkpt lat="43.58651" lon="3.00853">
        <ele>343.32788085938</ele>
        <time>2010-09-26T09:44:53Z</time>
      </trkpt>
      <trkpt lat="43.58648" lon="3.00854">
        <ele>340.92468261719</ele>
        <time>2010-09-26T09:44:57Z</time>
      </trkpt>
      <trkpt lat="43.58646" lon="3.00858">
        <ele>338.521484375</ele>
        <time>2010-09-26T09:45:02Z</time>
      </trkpt>
      <trkpt lat="43.58644" lon="3.00861">
        <ele>333.71472167969</ele>
        <time>2010-09-26T09:45:08Z</time>
      </trkpt>
      <trkpt lat="43.58641" lon="3.00858">
        <ele>327.94677734375</ele>
        <time>2010-09-26T09:45:15Z</time>
      </trkpt>
      <trkpt lat="43.58634" lon="3.00857">
        <ele>326.98559570312</ele>
        <time>2010-09-26T09:45:21Z</time>
      </trkpt>
      <trkpt lat="43.58627" lon="3.00856">
        <ele>326.5048828125</ele>
        <time>2010-09-26T09:45:27Z</time>
      </trkpt>
      <trkpt lat="43.58625" lon="3.00857">
        <ele>325.54357910156</ele>
        <time>2010-09-26T09:45:29Z</time>
      </trkpt>
      <trkpt lat="43.58621" lon="3.0086">
        <ele>322.65966796875</ele>
        <time>2010-09-26T09:45:34Z</time>
      </trkpt>
      <trkpt lat="43.58617" lon="3.00862">
        <ele>321.2177734375</ele>
        <time>2010-09-26T09:45:38Z</time>
      </trkpt>
      <trkpt lat="43.58608" lon="3.00866">
        <ele>318.33361816406</ele>
        <time>2010-09-26T09:45:43Z</time>
      </trkpt>
      <trkpt lat="43.586" lon="3.00872">
        <ele>317.37243652344</ele>
        <time>2010-09-26T09:45:47Z</time>
      </trkpt>
      <trkpt lat="43.58594" lon="3.00877">
        <ele>316.89172363281</ele>
        <time>2010-09-26T09:45:50Z</time>
      </trkpt>
      <trkpt lat="43.58588" lon="3.00888">
        <ele>314.48840332031</ele>
        <time>2010-09-26T09:45:56Z</time>
      </trkpt>
      <trkpt lat="43.58583" lon="3.0089">
        <ele>312.56579589844</ele>
        <time>2010-09-26T09:46:01Z</time>
      </trkpt>
      <trkpt lat="43.58581" lon="3.00894">
        <ele>315.93041992188</ele>
        <time>2010-09-26T09:46:07Z</time>
      </trkpt>
      <trkpt lat="43.58579" lon="3.00895">
        <ele>315.93041992188</ele>
        <time>2010-09-26T09:46:09Z</time>
      </trkpt>
      <trkpt lat="43.58568" lon="3.00897">
        <ele>316.89172363281</ele>
        <time>2010-09-26T09:46:14Z</time>
      </trkpt>
      <trkpt lat="43.58559" lon="3.00896">
        <ele>316.89172363281</ele>
        <time>2010-09-26T09:46:18Z</time>
      </trkpt>
      <trkpt lat="43.58557" lon="3.00896">
        <ele>317.37243652344</ele>
        <time>2010-09-26T09:46:19Z</time>
      </trkpt>
      <trkpt lat="43.58541" lon="3.009">
        <ele>317.85302734375</ele>
        <time>2010-09-26T09:46:25Z</time>
      </trkpt>
      <trkpt lat="43.58537" lon="3.00898">
        <ele>317.37243652344</ele>
        <time>2010-09-26T09:46:27Z</time>
      </trkpt>
      <trkpt lat="43.58523" lon="3.00899">
        <ele>316.41101074219</ele>
        <time>2010-09-26T09:46:32Z</time>
      </trkpt>
      <trkpt lat="43.58513" lon="3.00901">
        <ele>314.48840332031</ele>
        <time>2010-09-26T09:46:37Z</time>
      </trkpt>
      <trkpt lat="43.585" lon="3.00904">
        <ele>314.0078125</ele>
        <time>2010-09-26T09:46:41Z</time>
      </trkpt>
      <trkpt lat="43.58494" lon="3.00908">
        <ele>313.52722167969</ele>
        <time>2010-09-26T09:46:44Z</time>
      </trkpt>
      <trkpt lat="43.5848" lon="3.00917">
        <ele>312.08520507812</ele>
        <time>2010-09-26T09:46:49Z</time>
      </trkpt>
      <trkpt lat="43.58468" lon="3.00921">
        <ele>311.12377929688</ele>
        <time>2010-09-26T09:46:53Z</time>
      </trkpt>
      <trkpt lat="43.58458" lon="3.0093">
        <ele>312.08520507812</ele>
        <time>2010-09-26T09:46:57Z</time>
      </trkpt>
      <trkpt lat="43.58451" lon="3.00941">
        <ele>311.12377929688</ele>
        <time>2010-09-26T09:47:01Z</time>
      </trkpt>
      <trkpt lat="43.5845" lon="3.00944">
        <ele>311.12377929688</ele>
        <time>2010-09-26T09:47:02Z</time>
      </trkpt>
      <trkpt lat="43.58444" lon="3.0095">
        <ele>311.12377929688</ele>
        <time>2010-09-26T09:47:05Z</time>
      </trkpt>
      <trkpt lat="43.5843" lon="3.00957">
        <ele>310.64306640625</ele>
        <time>2010-09-26T09:47:11Z</time>
      </trkpt>
      <trkpt lat="43.58424" lon="3.0096">
        <ele>310.64306640625</ele>
        <time>2010-09-26T09:47:14Z</time>
      </trkpt>
      <trkpt lat="43.58414" lon="3.00961">
        <ele>310.64306640625</ele>
        <time>2010-09-26T09:47:19Z</time>
      </trkpt>
      <trkpt lat="43.58403" lon="3.0096">
        <ele>307.27856445312</ele>
        <time>2010-09-26T09:47:25Z</time>
      </trkpt>
      <trkpt lat="43.58397" lon="3.00964">
        <ele>305.83666992188</ele>
        <time>2010-09-26T09:47:28Z</time>
      </trkpt>
      <trkpt lat="43.58385" lon="3.00968">
        <ele>304.87524414062</ele>
        <time>2010-09-26T09:47:34Z</time>
      </trkpt>
      <trkpt lat="43.58375" lon="3.00968">
        <ele>303.43322753906</ele>
        <time>2010-09-26T09:47:38Z</time>
      </trkpt>
      <trkpt lat="43.58366" lon="3.00963">
        <ele>302.47192382812</ele>
        <time>2010-09-26T09:47:42Z</time>
      </trkpt>
      <trkpt lat="43.58359" lon="3.00958">
        <ele>300.54931640625</ele>
        <time>2010-09-26T09:47:47Z</time>
      </trkpt>
      <trkpt lat="43.5835" lon="3.00959">
        <ele>298.62670898438</ele>
        <time>2010-09-26T09:47:53Z</time>
      </trkpt>
      <trkpt lat="43.58348" lon="3.00959">
        <ele>298.62670898438</ele>
        <time>2010-09-26T09:47:55Z</time>
      </trkpt>
      <trkpt lat="43.58337" lon="3.00964">
        <ele>299.10729980469</ele>
        <time>2010-09-26T09:48:02Z</time>
      </trkpt>
      <trkpt lat="43.58331" lon="3.00969">
        <ele>300.06872558594</ele>
        <time>2010-09-26T09:48:06Z</time>
      </trkpt>
      <trkpt lat="43.58328" lon="3.0097">
        <ele>300.54931640625</ele>
        <time>2010-09-26T09:48:08Z</time>
      </trkpt>
      <trkpt lat="43.58323" lon="3.00976">
        <ele>301.99133300781</ele>
        <time>2010-09-26T09:48:13Z</time>
      </trkpt>
      <trkpt lat="43.58318" lon="3.00981">
        <ele>301.02990722656</ele>
        <time>2010-09-26T09:48:18Z</time>
      </trkpt>
      <trkpt lat="43.58318" lon="3.00982">
        <ele>300.06872558594</ele>
        <time>2010-09-26T09:48:19Z</time>
      </trkpt>
      <trkpt lat="43.58313" lon="3.00986">
        <ele>298.62670898438</ele>
        <time>2010-09-26T09:48:23Z</time>
      </trkpt>
      <trkpt lat="43.58303" lon="3.00992">
        <ele>296.22351074219</ele>
        <time>2010-09-26T09:48:31Z</time>
      </trkpt>
      <trkpt lat="43.58297" lon="3.00998">
        <ele>294.78137207031</ele>
        <time>2010-09-26T09:48:36Z</time>
      </trkpt>
      <trkpt lat="43.58295" lon="3.01">
        <ele>293.33935546875</ele>
        <time>2010-09-26T09:48:38Z</time>
      </trkpt>
      <trkpt lat="43.5829" lon="3.01005">
        <ele>292.37817382812</ele>
        <time>2010-09-26T09:48:42Z</time>
      </trkpt>
      <trkpt lat="43.58281" lon="3.01007">
        <ele>292.85876464844</ele>
        <time>2010-09-26T09:48:50Z</time>
      </trkpt>
      <trkpt lat="43.58269" lon="3.01007">
        <ele>293.82006835938</ele>
        <time>2010-09-26T09:48:59Z</time>
      </trkpt>
      <trkpt lat="43.58258" lon="3.01009">
        <ele>293.82006835938</ele>
        <time>2010-09-26T09:49:07Z</time>
      </trkpt>
      <trkpt lat="43.58244" lon="3.0101">
        <ele>293.33935546875</ele>
        <time>2010-09-26T09:49:17Z</time>
      </trkpt>
      <trkpt lat="43.58234" lon="3.01012">
        <ele>292.85876464844</ele>
        <time>2010-09-26T09:49:24Z</time>
      </trkpt>
      <trkpt lat="43.58219" lon="3.01015">
        <ele>292.85876464844</ele>
        <time>2010-09-26T09:49:33Z</time>
      </trkpt>
      <trkpt lat="43.58205" lon="3.01019">
        <ele>292.85876464844</ele>
        <time>2010-09-26T09:49:42Z</time>
      </trkpt>
      <trkpt lat="43.58195" lon="3.01022">
        <ele>291.8974609375</ele>
        <time>2010-09-26T09:49:49Z</time>
      </trkpt>
      <trkpt lat="43.58187" lon="3.01026">
        <ele>290.93615722656</ele>
        <time>2010-09-26T09:49:55Z</time>
      </trkpt>
      <trkpt lat="43.58181" lon="3.0103">
        <ele>291.8974609375</ele>
        <time>2010-09-26T09:49:59Z</time>
      </trkpt>
      <trkpt lat="43.58173" lon="3.01031">
        <ele>289.97485351562</ele>
        <time>2010-09-26T09:50:05Z</time>
      </trkpt>
      <trkpt lat="43.58171" lon="3.01032">
        <ele>289.494140625</ele>
        <time>2010-09-26T09:50:06Z</time>
      </trkpt>
      <trkpt lat="43.58167" lon="3.01032">
        <ele>288.53295898438</ele>
        <time>2010-09-26T09:50:09Z</time>
      </trkpt>
      <trkpt lat="43.58158" lon="3.01029">
        <ele>287.0908203125</ele>
        <time>2010-09-26T09:50:15Z</time>
      </trkpt>
      <trkpt lat="43.58152" lon="3.01023">
        <ele>285.64880371094</ele>
        <time>2010-09-26T09:50:20Z</time>
      </trkpt>
      <trkpt lat="43.58145" lon="3.01014">
        <ele>284.20690917969</ele>
        <time>2010-09-26T09:50:26Z</time>
      </trkpt>
      <trkpt lat="43.58141" lon="3.01002">
        <ele>285.16821289062</ele>
        <time>2010-09-26T09:50:33Z</time>
      </trkpt>
      <trkpt lat="43.5814" lon="3.01">
        <ele>285.16821289062</ele>
        <time>2010-09-26T09:50:34Z</time>
      </trkpt>
      <trkpt lat="43.58138" lon="3.00983">
        <ele>282.76501464844</ele>
        <time>2010-09-26T09:50:42Z</time>
      </trkpt>
      <trkpt lat="43.58137" lon="3.00979">
        <ele>282.76501464844</ele>
        <time>2010-09-26T09:50:44Z</time>
      </trkpt>
      <trkpt lat="43.58134" lon="3.00971">
        <ele>281.32299804688</ele>
        <time>2010-09-26T09:50:48Z</time>
      </trkpt>
      <trkpt lat="43.58128" lon="3.0096">
        <ele>281.80358886719</ele>
        <time>2010-09-26T09:50:55Z</time>
      </trkpt>
      <trkpt lat="43.58125" lon="3.00949">
        <ele>281.32299804688</ele>
        <time>2010-09-26T09:51:01Z</time>
      </trkpt>
      <trkpt lat="43.58123" lon="3.00946">
        <ele>282.28430175781</ele>
        <time>2010-09-26T09:51:03Z</time>
      </trkpt>
      <trkpt lat="43.58117" lon="3.00936">
        <ele>284.20690917969</ele>
        <time>2010-09-26T09:51:09Z</time>
      </trkpt>
      <trkpt lat="43.58112" lon="3.00927">
        <ele>284.20690917969</ele>
        <time>2010-09-26T09:51:15Z</time>
      </trkpt>
      <trkpt lat="43.5811" lon="3.00921">
        <ele>283.24560546875</ele>
        <time>2010-09-26T09:51:18Z</time>
      </trkpt>
      <trkpt lat="43.58105" lon="3.00908">
        <ele>280.36169433594</ele>
        <time>2010-09-26T09:51:25Z</time>
      </trkpt>
      <trkpt lat="43.58104" lon="3.00907">
        <ele>278.91967773438</ele>
        <time>2010-09-26T09:51:26Z</time>
      </trkpt>
      <trkpt lat="43.58101" lon="3.00903">
        <ele>278.43896484375</ele>
        <time>2010-09-26T09:51:29Z</time>
      </trkpt>
      <trkpt lat="43.58096" lon="3.00893">
        <ele>274.59375</ele>
        <time>2010-09-26T09:51:36Z</time>
      </trkpt>
      <trkpt lat="43.58095" lon="3.00892">
        <ele>274.11303710938</ele>
        <time>2010-09-26T09:51:37Z</time>
      </trkpt>
      <trkpt lat="43.58091" lon="3.0088">
        <ele>269.787109375</ele>
        <time>2010-09-26T09:51:43Z</time>
      </trkpt>
      <trkpt lat="43.58086" lon="3.00872">
        <ele>267.38391113281</ele>
        <time>2010-09-26T09:51:48Z</time>
      </trkpt>
      <trkpt lat="43.58081" lon="3.00867">
        <ele>267.38391113281</ele>
        <time>2010-09-26T09:51:52Z</time>
      </trkpt>
      <trkpt lat="43.58079" lon="3.00866">
        <ele>265.46130371094</ele>
        <time>2010-09-26T09:51:54Z</time>
      </trkpt>
      <trkpt lat="43.58071" lon="3.00856">
        <ele>262.5771484375</ele>
        <time>2010-09-26T09:52:00Z</time>
      </trkpt>
      <trkpt lat="43.58066" lon="3.00848">
        <ele>258.73193359375</ele>
        <time>2010-09-26T09:52:06Z</time>
      </trkpt>
      <trkpt lat="43.58063" lon="3.00841">
        <ele>259.693359375</ele>
        <time>2010-09-26T09:52:10Z</time>
      </trkpt>
      <trkpt lat="43.5806" lon="3.00834">
        <ele>261.13525390625</ele>
        <time>2010-09-26T09:52:14Z</time>
      </trkpt>
      <trkpt lat="43.58057" lon="3.00825">
        <ele>258.73193359375</ele>
        <time>2010-09-26T09:52:19Z</time>
      </trkpt>
      <trkpt lat="43.58053" lon="3.00818">
        <ele>258.25134277344</ele>
        <time>2010-09-26T09:52:23Z</time>
      </trkpt>
      <trkpt lat="43.58052" lon="3.00817">
        <ele>257.77075195312</ele>
        <time>2010-09-26T09:52:24Z</time>
      </trkpt>
      <trkpt lat="43.58045" lon="3.00806">
        <ele>258.25134277344</ele>
        <time>2010-09-26T09:52:31Z</time>
      </trkpt>
      <trkpt lat="43.58042" lon="3.00796">
        <ele>259.21264648438</ele>
        <time>2010-09-26T09:52:36Z</time>
      </trkpt>
      <trkpt lat="43.58038" lon="3.00785">
        <ele>259.693359375</ele>
        <time>2010-09-26T09:52:40Z</time>
      </trkpt>
      <trkpt lat="43.58038" lon="3.00778">
        <ele>257.77075195312</ele>
        <time>2010-09-26T09:52:45Z</time>
      </trkpt>
      <trkpt lat="43.58039" lon="3.00766">
        <ele>251.52209472656</ele>
        <time>2010-09-26T09:52:51Z</time>
      </trkpt>
      <trkpt lat="43.58039" lon="3.00759">
        <ele>250.56079101562</ele>
        <time>2010-09-26T09:52:55Z</time>
      </trkpt>
      <trkpt lat="43.58037" lon="3.00748">
        <ele>250.56079101562</ele>
        <time>2010-09-26T09:53:02Z</time>
      </trkpt>
      <trkpt lat="43.58037" lon="3.00746">
        <ele>249.59948730469</ele>
        <time>2010-09-26T09:53:03Z</time>
      </trkpt>
      <trkpt lat="43.58034" lon="3.00736">
        <ele>251.04138183594</ele>
        <time>2010-09-26T09:53:09Z</time>
      </trkpt>
      <trkpt lat="43.58033" lon="3.00731">
        <ele>252.00280761719</ele>
        <time>2010-09-26T09:53:12Z</time>
      </trkpt>
      <trkpt lat="43.58032" lon="3.00722">
        <ele>249.59948730469</ele>
        <time>2010-09-26T09:53:17Z</time>
      </trkpt>
      <trkpt lat="43.58028" lon="3.00709">
        <ele>247.6767578125</ele>
        <time>2010-09-26T09:53:24Z</time>
      </trkpt>
      <trkpt lat="43.58023" lon="3.00699">
        <ele>243.83154296875</ele>
        <time>2010-09-26T09:53:30Z</time>
      </trkpt>
      <trkpt lat="43.58023" lon="3.00689">
        <ele>243.35083007812</ele>
        <time>2010-09-26T09:53:35Z</time>
      </trkpt>
      <trkpt lat="43.58021" lon="3.00679">
        <ele>247.19604492188</ele>
        <time>2010-09-26T09:53:40Z</time>
      </trkpt>
      <trkpt lat="43.58021" lon="3.00673">
        <ele>246.71545410156</ele>
        <time>2010-09-26T09:53:43Z</time>
      </trkpt>
      <trkpt lat="43.5802" lon="3.00669">
        <ele>246.23486328125</ele>
        <time>2010-09-26T09:53:45Z</time>
      </trkpt>
      <trkpt lat="43.58018" lon="3.00659">
        <ele>241.90893554688</ele>
        <time>2010-09-26T09:53:51Z</time>
      </trkpt>
      <trkpt lat="43.58015" lon="3.00655">
        <ele>243.35083007812</ele>
        <time>2010-09-26T09:53:54Z</time>
      </trkpt>
      <trkpt lat="43.58012" lon="3.00651">
        <ele>244.31225585938</ele>
        <time>2010-09-26T09:53:57Z</time>
      </trkpt>
      <trkpt lat="43.58007" lon="3.00647">
        <ele>246.23486328125</ele>
        <time>2010-09-26T09:54:00Z</time>
      </trkpt>
      <trkpt lat="43.57998" lon="3.00638">
        <ele>247.6767578125</ele>
        <time>2010-09-26T09:54:07Z</time>
      </trkpt>
      <trkpt lat="43.57994" lon="3.00633">
        <ele>247.19604492188</ele>
        <time>2010-09-26T09:54:10Z</time>
      </trkpt>
      <trkpt lat="43.57986" lon="3.00628">
        <ele>252.00280761719</ele>
        <time>2010-09-26T09:54:14Z</time>
      </trkpt>
      <trkpt lat="43.57982" lon="3.00622">
        <ele>252.4833984375</ele>
        <time>2010-09-26T09:54:19Z</time>
      </trkpt>
      <trkpt lat="43.57972" lon="3.00613">
        <ele>253.92541503906</ele>
        <time>2010-09-26T09:54:26Z</time>
      </trkpt>
      <trkpt lat="43.57969" lon="3.00608">
        <ele>253.44470214844</ele>
        <time>2010-09-26T09:54:29Z</time>
      </trkpt>
      <trkpt lat="43.57967" lon="3.00604">
        <ele>253.92541503906</ele>
        <time>2010-09-26T09:54:32Z</time>
      </trkpt>
      <trkpt lat="43.57965" lon="3.00595">
        <ele>252.00280761719</ele>
        <time>2010-09-26T09:54:37Z</time>
      </trkpt>
      <trkpt lat="43.57959" lon="3.00586">
        <ele>250.08020019531</ele>
        <time>2010-09-26T09:54:42Z</time>
      </trkpt>
      <trkpt lat="43.57956" lon="3.0058">
        <ele>247.6767578125</ele>
        <time>2010-09-26T09:54:45Z</time>
      </trkpt>
      <trkpt lat="43.57953" lon="3.00574">
        <ele>246.71545410156</ele>
        <time>2010-09-26T09:54:48Z</time>
      </trkpt>
      <trkpt lat="43.57952" lon="3.00565">
        <ele>245.2734375</ele>
        <time>2010-09-26T09:54:52Z</time>
      </trkpt>
      <trkpt lat="43.57952" lon="3.00551">
        <ele>243.35083007812</ele>
        <time>2010-09-26T09:54:59Z</time>
      </trkpt>
      <trkpt lat="43.57952" lon="3.00542">
        <ele>243.35083007812</ele>
        <time>2010-09-26T09:55:04Z</time>
      </trkpt>
      <trkpt lat="43.57954" lon="3.00527">
        <ele>244.31225585938</ele>
        <time>2010-09-26T09:55:12Z</time>
      </trkpt>
      <trkpt lat="43.57954" lon="3.00521">
        <ele>245.2734375</ele>
        <time>2010-09-26T09:55:16Z</time>
      </trkpt>
      <trkpt lat="43.57953" lon="3.00515">
        <ele>246.23486328125</ele>
        <time>2010-09-26T09:55:19Z</time>
      </trkpt>
      <trkpt lat="43.57952" lon="3.00501">
        <ele>248.15759277344</ele>
        <time>2010-09-26T09:55:27Z</time>
      </trkpt>
      <trkpt lat="43.57953" lon="3.00496">
        <ele>247.6767578125</ele>
        <time>2010-09-26T09:55:29Z</time>
      </trkpt>
      <trkpt lat="43.57952" lon="3.00483">
        <ele>244.79284667969</ele>
        <time>2010-09-26T09:55:36Z</time>
      </trkpt>
      <trkpt lat="43.57952" lon="3.00467">
        <ele>239.02490234375</ele>
        <time>2010-09-26T09:55:44Z</time>
      </trkpt>
      <trkpt lat="43.57951" lon="3.00453">
        <ele>237.10229492188</ele>
        <time>2010-09-26T09:55:52Z</time>
      </trkpt>
      <trkpt lat="43.57951" lon="3.00451">
        <ele>237.10229492188</ele>
        <time>2010-09-26T09:55:53Z</time>
      </trkpt>
      <trkpt lat="43.57944" lon="3.00442">
        <ele>242.87023925781</ele>
        <time>2010-09-26T09:55:58Z</time>
      </trkpt>
      <trkpt lat="43.57945" lon="3.00441">
        <ele>242.87023925781</ele>
        <time>2010-09-26T09:55:59Z</time>
      </trkpt>
      <trkpt lat="43.57944" lon="3.00429">
        <ele>241.42822265625</ele>
        <time>2010-09-26T09:56:06Z</time>
      </trkpt>
      <trkpt lat="43.57944" lon="3.00418">
        <ele>238.54431152344</ele>
        <time>2010-09-26T09:56:12Z</time>
      </trkpt>
      <trkpt lat="43.57945" lon="3.00408">
        <ele>238.54431152344</ele>
        <time>2010-09-26T09:56:20Z</time>
      </trkpt>
      <trkpt lat="43.57944" lon="3.004">
        <ele>241.42822265625</ele>
        <time>2010-09-26T09:56:25Z</time>
      </trkpt>
      <trkpt lat="43.57944" lon="3.00396">
        <ele>240.46704101562</ele>
        <time>2010-09-26T09:56:27Z</time>
      </trkpt>
      <trkpt lat="43.57944" lon="3.00389">
        <ele>239.02490234375</ele>
        <time>2010-09-26T09:56:31Z</time>
      </trkpt>
      <trkpt lat="43.57941" lon="3.00377">
        <ele>239.98620605469</ele>
        <time>2010-09-26T09:56:38Z</time>
      </trkpt>
      <trkpt lat="43.57938" lon="3.00367">
        <ele>237.10229492188</ele>
        <time>2010-09-26T09:56:45Z</time>
      </trkpt>
      <trkpt lat="43.57935" lon="3.00361">
        <ele>236.14099121094</ele>
        <time>2010-09-26T09:56:51Z</time>
      </trkpt>
      <trkpt lat="43.57934" lon="3.00359">
        <ele>235.1796875</ele>
        <time>2010-09-26T09:56:52Z</time>
      </trkpt>
      <trkpt lat="43.5793" lon="3.00346">
        <ele>235.66027832031</ele>
        <time>2010-09-26T09:57:00Z</time>
      </trkpt>
      <trkpt lat="43.57928" lon="3.00339">
        <ele>240.94763183594</ele>
        <time>2010-09-26T09:57:04Z</time>
      </trkpt>
      <trkpt lat="43.57926" lon="3.00331">
        <ele>244.31225585938</ele>
        <time>2010-09-26T09:57:12Z</time>
      </trkpt>
      <trkpt lat="43.57926" lon="3.00324">
        <ele>243.83154296875</ele>
        <time>2010-09-26T09:57:16Z</time>
      </trkpt>
      <trkpt lat="43.57924" lon="3.00315">
        <ele>243.83154296875</ele>
        <time>2010-09-26T09:57:21Z</time>
      </trkpt>
      <trkpt lat="43.57925" lon="3.00304">
        <ele>239.50549316406</ele>
        <time>2010-09-26T09:57:28Z</time>
      </trkpt>
      <trkpt lat="43.5793" lon="3.00293">
        <ele>234.21838378906</ele>
        <time>2010-09-26T09:57:34Z</time>
      </trkpt>
      <trkpt lat="43.57932" lon="3.0029">
        <ele>233.25708007812</ele>
        <time>2010-09-26T09:57:36Z</time>
      </trkpt>
      <trkpt lat="43.57932" lon="3.00285">
        <ele>231.33435058594</ele>
        <time>2010-09-26T09:57:40Z</time>
      </trkpt>
      <trkpt lat="43.57932" lon="3.00279">
        <ele>230.85375976562</ele>
        <time>2010-09-26T09:57:43Z</time>
      </trkpt>
      <trkpt lat="43.57929" lon="3.00267">
        <ele>234.21838378906</ele>
        <time>2010-09-26T09:57:49Z</time>
      </trkpt>
      <trkpt lat="43.5793" lon="3.00259">
        <ele>237.58288574219</ele>
        <time>2010-09-26T09:57:54Z</time>
      </trkpt>
      <trkpt lat="43.57929" lon="3.0025">
        <ele>243.35083007812</ele>
        <time>2010-09-26T09:57:59Z</time>
      </trkpt>
      <trkpt lat="43.57929" lon="3.00245">
        <ele>244.79284667969</ele>
        <time>2010-09-26T09:58:02Z</time>
      </trkpt>
      <trkpt lat="43.57931" lon="3.00236">
        <ele>247.6767578125</ele>
        <time>2010-09-26T09:58:08Z</time>
      </trkpt>
      <trkpt lat="43.57933" lon="3.00233">
        <ele>246.71545410156</ele>
        <time>2010-09-26T09:58:14Z</time>
      </trkpt>
      <trkpt lat="43.57934" lon="3.0023">
        <ele>246.71545410156</ele>
        <time>2010-09-26T09:58:32Z</time>
      </trkpt>
      <trkpt lat="43.57934" lon="3.00229">
        <ele>247.6767578125</ele>
        <time>2010-09-26T09:58:43Z</time>
      </trkpt>
      <trkpt lat="43.57939" lon="3.00231">
        <ele>249.11877441406</ele>
        <time>2010-09-26T09:58:50Z</time>
      </trkpt>
      <trkpt lat="43.57941" lon="3.00234">
        <ele>255.36730957031</ele>
        <time>2010-09-26T09:58:55Z</time>
      </trkpt>
      <trkpt lat="43.57943" lon="3.00237">
        <ele>259.21264648438</ele>
        <time>2010-09-26T09:59:00Z</time>
      </trkpt>
      <trkpt lat="43.57947" lon="3.00243">
        <ele>260.65454101562</ele>
        <time>2010-09-26T09:59:07Z</time>
      </trkpt>
      <trkpt lat="43.57949" lon="3.00249">
        <ele>262.5771484375</ele>
        <time>2010-09-26T09:59:12Z</time>
      </trkpt>
      <trkpt lat="43.57952" lon="3.00254">
        <ele>263.05786132812</ele>
        <time>2010-09-26T09:59:18Z</time>
      </trkpt>
      <trkpt lat="43.57956" lon="3.00258">
        <ele>262.09655761719</ele>
        <time>2010-09-26T09:59:23Z</time>
      </trkpt>
      <trkpt lat="43.57961" lon="3.00261">
        <ele>260.65454101562</ele>
        <time>2010-09-26T09:59:29Z</time>
      </trkpt>
      <trkpt lat="43.57962" lon="3.00266">
        <ele>263.05786132812</ele>
        <time>2010-09-26T09:59:35Z</time>
      </trkpt>
      <trkpt lat="43.57965" lon="3.00263">
        <ele>262.09655761719</ele>
        <time>2010-09-26T09:59:39Z</time>
      </trkpt>
      <trkpt lat="43.57967" lon="3.00257">
        <ele>261.13525390625</ele>
        <time>2010-09-26T09:59:46Z</time>
      </trkpt>
      <trkpt lat="43.57967" lon="3.00251">
        <ele>259.693359375</ele>
        <time>2010-09-26T09:59:51Z</time>
      </trkpt>
      <trkpt lat="43.57967" lon="3.00242">
        <ele>263.05786132812</ele>
        <time>2010-09-26T09:59:57Z</time>
      </trkpt>
      <trkpt lat="43.57967" lon="3.0024">
        <ele>263.53857421875</ele>
        <time>2010-09-26T09:59:59Z</time>
      </trkpt>
      <trkpt lat="43.57964" lon="3.00232">
        <ele>264.98059082031</ele>
        <time>2010-09-26T10:00:05Z</time>
      </trkpt>
      <trkpt lat="43.57964" lon="3.00231">
        <ele>263.53857421875</ele>
        <time>2010-09-26T10:00:06Z</time>
      </trkpt>
      <trkpt lat="43.57967" lon="3.00225">
        <ele>263.05786132812</ele>
        <time>2010-09-26T10:00:10Z</time>
      </trkpt>
      <trkpt lat="43.57971" lon="3.00218">
        <ele>264.01928710938</ele>
        <time>2010-09-26T10:00:17Z</time>
      </trkpt>
      <trkpt lat="43.57973" lon="3.00207">
        <ele>263.53857421875</ele>
        <time>2010-09-26T10:00:25Z</time>
      </trkpt>
      <trkpt lat="43.57974" lon="3.00204">
        <ele>263.53857421875</ele>
        <time>2010-09-26T10:00:27Z</time>
      </trkpt>
      <trkpt lat="43.57975" lon="3.00198">
        <ele>262.5771484375</ele>
        <time>2010-09-26T10:00:32Z</time>
      </trkpt>
      <trkpt lat="43.57977" lon="3.00191">
        <ele>263.53857421875</ele>
        <time>2010-09-26T10:00:36Z</time>
      </trkpt>
      <trkpt lat="43.57975" lon="3.00183">
        <ele>271.22912597656</ele>
        <time>2010-09-26T10:00:43Z</time>
      </trkpt>
      <trkpt lat="43.57976" lon="3.00181">
        <ele>271.70971679688</ele>
        <time>2010-09-26T10:00:44Z</time>
      </trkpt>
      <trkpt lat="43.57975" lon="3.00178">
        <ele>273.63244628906</ele>
        <time>2010-09-26T10:00:46Z</time>
      </trkpt>
      <trkpt lat="43.57977" lon="3.0017">
        <ele>274.59375</ele>
        <time>2010-09-26T10:00:52Z</time>
      </trkpt>
      <trkpt lat="43.57977" lon="3.00163">
        <ele>276.51635742188</ele>
        <time>2010-09-26T10:00:58Z</time>
      </trkpt>
      <trkpt lat="43.57981" lon="3.00155">
        <ele>274.11303710938</ele>
        <time>2010-09-26T10:01:05Z</time>
      </trkpt>
      <trkpt lat="43.57981" lon="3.00151">
        <ele>277.95825195312</ele>
        <time>2010-09-26T10:01:12Z</time>
      </trkpt>
      <trkpt lat="43.57983" lon="3.00147">
        <ele>281.80358886719</ele>
        <time>2010-09-26T10:01:19Z</time>
      </trkpt>
      <trkpt lat="43.57984" lon="3.00144">
        <ele>284.68762207031</ele>
        <time>2010-09-26T10:01:31Z</time>
      </trkpt>
      <trkpt lat="43.5799" lon="3.0014">
        <ele>282.28430175781</ele>
        <time>2010-09-26T10:01:37Z</time>
      </trkpt>
      <trkpt lat="43.57992" lon="3.00139">
        <ele>281.80358886719</ele>
        <time>2010-09-26T10:01:39Z</time>
      </trkpt>
      <trkpt lat="43.57995" lon="3.00138">
        <ele>281.32299804688</ele>
        <time>2010-09-26T10:01:42Z</time>
      </trkpt>
      <trkpt lat="43.58001" lon="3.00133">
        <ele>281.80358886719</ele>
        <time>2010-09-26T10:01:49Z</time>
      </trkpt>
      <trkpt lat="43.58007" lon="3.0013">
        <ele>283.24560546875</ele>
        <time>2010-09-26T10:01:56Z</time>
      </trkpt>
      <trkpt lat="43.58012" lon="3.00129">
        <ele>283.24560546875</ele>
        <time>2010-09-26T10:02:00Z</time>
      </trkpt>
      <trkpt lat="43.58018" lon="3.00126">
        <ele>287.57141113281</ele>
        <time>2010-09-26T10:02:06Z</time>
      </trkpt>
      <trkpt lat="43.58021" lon="3.00124">
        <ele>287.57141113281</ele>
        <time>2010-09-26T10:02:10Z</time>
      </trkpt>
      <trkpt lat="43.58027" lon="3.00121">
        <ele>290.45556640625</ele>
        <time>2010-09-26T10:02:18Z</time>
      </trkpt>
      <trkpt lat="43.58032" lon="3.00117">
        <ele>292.85876464844</ele>
        <time>2010-09-26T10:02:27Z</time>
      </trkpt>
      <trkpt lat="43.58037" lon="3.00115">
        <ele>293.82006835938</ele>
        <time>2010-09-26T10:02:33Z</time>
      </trkpt>
      <trkpt lat="43.58041" lon="3.0011">
        <ele>295.74267578125</ele>
        <time>2010-09-26T10:02:39Z</time>
      </trkpt>
      <trkpt lat="43.58043" lon="3.00106">
        <ele>296.7041015625</ele>
        <time>2010-09-26T10:02:44Z</time>
      </trkpt>
      <trkpt lat="43.58048" lon="3.00099">
        <ele>296.7041015625</ele>
        <time>2010-09-26T10:02:50Z</time>
      </trkpt>
      <trkpt lat="43.58051" lon="3.00097">
        <ele>296.22351074219</ele>
        <time>2010-09-26T10:02:53Z</time>
      </trkpt>
      <trkpt lat="43.58059" lon="3.00094">
        <ele>299.10729980469</ele>
        <time>2010-09-26T10:03:01Z</time>
      </trkpt>
      <trkpt lat="43.58067" lon="3.00091">
        <ele>300.06872558594</ele>
        <time>2010-09-26T10:03:09Z</time>
      </trkpt>
      <trkpt lat="43.58073" lon="3.00083">
        <ele>300.54931640625</ele>
        <time>2010-09-26T10:03:18Z</time>
      </trkpt>
      <trkpt lat="43.58076" lon="3.00079">
        <ele>299.58801269531</ele>
        <time>2010-09-26T10:03:22Z</time>
      </trkpt>
      <trkpt lat="43.58081" lon="3.00077">
        <ele>302.47192382812</ele>
        <time>2010-09-26T10:03:28Z</time>
      </trkpt>
      <trkpt lat="43.58084" lon="3.00076">
        <ele>304.87524414062</ele>
        <time>2010-09-26T10:03:34Z</time>
      </trkpt>
      <trkpt lat="43.58086" lon="3.00073">
        <ele>306.31726074219</ele>
        <time>2010-09-26T10:03:38Z</time>
      </trkpt>
      <trkpt lat="43.58091" lon="3.00068">
        <ele>309.201171875</ele>
        <time>2010-09-26T10:03:45Z</time>
      </trkpt>
      <trkpt lat="43.58096" lon="3.00063">
        <ele>312.56579589844</ele>
        <time>2010-09-26T10:03:52Z</time>
      </trkpt>
      <trkpt lat="43.58102" lon="3.0006">
        <ele>314.48840332031</ele>
        <time>2010-09-26T10:03:59Z</time>
      </trkpt>
      <trkpt lat="43.58107" lon="3.00059">
        <ele>314.0078125</ele>
        <time>2010-09-26T10:04:04Z</time>
      </trkpt>
      <trkpt lat="43.58111" lon="3.00056">
        <ele>315.44982910156</ele>
        <time>2010-09-26T10:04:10Z</time>
      </trkpt>
      <trkpt lat="43.58115" lon="3.00052">
        <ele>314.48840332031</ele>
        <time>2010-09-26T10:04:15Z</time>
      </trkpt>
      <trkpt lat="43.58118" lon="3.00048">
        <ele>315.44982910156</ele>
        <time>2010-09-26T10:04:19Z</time>
      </trkpt>
      <trkpt lat="43.58122" lon="3.00041">
        <ele>315.44982910156</ele>
        <time>2010-09-26T10:04:25Z</time>
      </trkpt>
      <trkpt lat="43.58125" lon="3.00039">
        <ele>314.0078125</ele>
        <time>2010-09-26T10:04:29Z</time>
      </trkpt>
      <trkpt lat="43.5813" lon="3.00037">
        <ele>316.89172363281</ele>
        <time>2010-09-26T10:04:36Z</time>
      </trkpt>
      <trkpt lat="43.58128" lon="3.00034">
        <ele>326.5048828125</ele>
        <time>2010-09-26T10:04:49Z</time>
      </trkpt>
      <trkpt lat="43.58136" lon="3.00035">
        <ele>318.81433105469</ele>
        <time>2010-09-26T10:05:01Z</time>
      </trkpt>
      <trkpt lat="43.58135" lon="3.00033">
        <ele>322.17895507812</ele>
        <time>2010-09-26T10:05:08Z</time>
      </trkpt>
      <trkpt lat="43.58136" lon="3.00028">
        <ele>322.65966796875</ele>
        <time>2010-09-26T10:05:13Z</time>
      </trkpt>
      <trkpt lat="43.5814" lon="3.0002">
        <ele>325.06298828125</ele>
        <time>2010-09-26T10:05:20Z</time>
      </trkpt>
      <trkpt lat="43.58142" lon="3.00016">
        <ele>327.94677734375</ele>
        <time>2010-09-26T10:05:25Z</time>
      </trkpt>
      <trkpt lat="43.58144" lon="3.00012">
        <ele>328.90832519531</ele>
        <time>2010-09-26T10:05:29Z</time>
      </trkpt>
      <trkpt lat="43.58145" lon="3.00008">
        <ele>329.86950683594</ele>
        <time>2010-09-26T10:05:33Z</time>
      </trkpt>
      <trkpt lat="43.58149" lon="3.00001">
        <ele>331.3115234375</ele>
        <time>2010-09-26T10:05:40Z</time>
      </trkpt>
      <trkpt lat="43.58152" lon="2.99995">
        <ele>330.83093261719</ele>
        <time>2010-09-26T10:05:45Z</time>
      </trkpt>
      <trkpt lat="43.58152" lon="2.99994">
        <ele>331.3115234375</ele>
        <time>2010-09-26T10:05:46Z</time>
      </trkpt>
      <trkpt lat="43.58157" lon="2.9999">
        <ele>335.15673828125</ele>
        <time>2010-09-26T10:05:53Z</time>
      </trkpt>
      <trkpt lat="43.58161" lon="2.99992">
        <ele>335.63732910156</ele>
        <time>2010-09-26T10:05:58Z</time>
      </trkpt>
      <trkpt lat="43.58163" lon="2.99994">
        <ele>336.1181640625</ele>
        <time>2010-09-26T10:06:02Z</time>
      </trkpt>
      <trkpt lat="43.5817" lon="2.99995">
        <ele>334.67614746094</ele>
        <time>2010-09-26T10:06:08Z</time>
      </trkpt>
      <trkpt lat="43.58171" lon="2.99997">
        <ele>336.59887695312</ele>
        <time>2010-09-26T10:06:12Z</time>
      </trkpt>
      <trkpt lat="43.58173" lon="3.00001">
        <ele>338.521484375</ele>
        <time>2010-09-26T10:06:17Z</time>
      </trkpt>
      <trkpt lat="43.58175" lon="3.00005">
        <ele>340.92468261719</ele>
        <time>2010-09-26T10:06:23Z</time>
      </trkpt>
      <trkpt lat="43.58181" lon="3.00009">
        <ele>339.48266601562</ele>
        <time>2010-09-26T10:06:29Z</time>
      </trkpt>
      <trkpt lat="43.58182" lon="3.00012">
        <ele>342.36669921875</ele>
        <time>2010-09-26T10:06:33Z</time>
      </trkpt>
      <trkpt lat="43.58186" lon="3.00013">
        <ele>342.84729003906</ele>
        <time>2010-09-26T10:06:37Z</time>
      </trkpt>
      <trkpt lat="43.58189" lon="3.00016">
        <ele>344.28942871094</ele>
        <time>2010-09-26T10:06:42Z</time>
      </trkpt>
      <trkpt lat="43.58191" lon="3.00017">
        <ele>346.21203613281</ele>
        <time>2010-09-26T10:06:47Z</time>
      </trkpt>
      <trkpt lat="43.58195" lon="3.00018">
        <ele>347.65393066406</ele>
        <time>2010-09-26T10:06:52Z</time>
      </trkpt>
      <trkpt lat="43.58199" lon="3.00017">
        <ele>348.615234375</ele>
        <time>2010-09-26T10:06:57Z</time>
      </trkpt>
      <trkpt lat="43.58203" lon="3.00021">
        <ele>346.69262695312</ele>
        <time>2010-09-26T10:07:02Z</time>
      </trkpt>
      <trkpt lat="43.58205" lon="3.00026">
        <ele>348.615234375</ele>
        <time>2010-09-26T10:07:07Z</time>
      </trkpt>
      <trkpt lat="43.58207" lon="3.00028">
        <ele>348.615234375</ele>
        <time>2010-09-26T10:07:11Z</time>
      </trkpt>
      <trkpt lat="43.58208" lon="3.00027">
        <ele>347.65393066406</ele>
        <time>2010-09-26T10:07:23Z</time>
      </trkpt>
      <trkpt lat="43.58206" lon="3.00032">
        <ele>349.57653808594</ele>
        <time>2010-09-26T10:07:44Z</time>
      </trkpt>
      <trkpt lat="43.58203" lon="3.00038">
        <ele>353.90258789062</ele>
        <time>2010-09-26T10:08:00Z</time>
      </trkpt>
      <trkpt lat="43.58199" lon="3.00046">
        <ele>358.708984375</ele>
        <time>2010-09-26T10:08:15Z</time>
      </trkpt>
      <trkpt lat="43.58197" lon="3.00051">
        <ele>359.18969726562</ele>
        <time>2010-09-26T10:08:21Z</time>
      </trkpt>
      <trkpt lat="43.58196" lon="3.00056">
        <ele>363.99633789062</ele>
        <time>2010-09-26T10:08:26Z</time>
      </trkpt>
      <trkpt lat="43.58197" lon="3.0006">
        <ele>364.95764160156</ele>
        <time>2010-09-26T10:08:32Z</time>
      </trkpt>
      <trkpt lat="43.582" lon="3.00063">
        <ele>364.95764160156</ele>
        <time>2010-09-26T10:08:39Z</time>
      </trkpt>
      <trkpt lat="43.58205" lon="3.00067">
        <ele>363.99633789062</ele>
        <time>2010-09-26T10:08:46Z</time>
      </trkpt>
      <trkpt lat="43.58206" lon="3.00071">
        <ele>368.80297851562</ele>
        <time>2010-09-26T10:08:54Z</time>
      </trkpt>
      <trkpt lat="43.58207" lon="3.00067">
        <ele>369.28369140625</ele>
        <time>2010-09-26T10:09:03Z</time>
      </trkpt>
      <trkpt lat="43.58209" lon="3.00064">
        <ele>371.68688964844</ele>
        <time>2010-09-26T10:09:13Z</time>
      </trkpt>
      <trkpt lat="43.58212" lon="3.00066">
        <ele>372.64819335938</ele>
        <time>2010-09-26T10:09:19Z</time>
      </trkpt>
      <trkpt lat="43.58214" lon="3.0007">
        <ele>376.01281738281</ele>
        <time>2010-09-26T10:09:27Z</time>
      </trkpt>
      <trkpt lat="43.58215" lon="3.00074">
        <ele>380.33874511719</ele>
        <time>2010-09-26T10:09:32Z</time>
      </trkpt>
      <trkpt lat="43.58218" lon="3.00079">
        <ele>385.14538574219</ele>
        <time>2010-09-26T10:09:42Z</time>
      </trkpt>
      <trkpt lat="43.58221" lon="3.0008">
        <ele>385.14538574219</ele>
        <time>2010-09-26T10:09:47Z</time>
      </trkpt>
      <trkpt lat="43.58226" lon="3.00082">
        <ele>384.66479492188</ele>
        <time>2010-09-26T10:09:54Z</time>
      </trkpt>
      <trkpt lat="43.58228" lon="3.00085">
        <ele>385.14538574219</ele>
        <time>2010-09-26T10:10:02Z</time>
      </trkpt>
      <trkpt lat="43.5823" lon="3.00088">
        <ele>388.029296875</ele>
        <time>2010-09-26T10:10:09Z</time>
      </trkpt>
      <trkpt lat="43.58231" lon="3.00093">
        <ele>390.4326171875</ele>
        <time>2010-09-26T10:10:16Z</time>
      </trkpt>
      <trkpt lat="43.58232" lon="3.00099">
        <ele>392.8359375</ele>
        <time>2010-09-26T10:10:23Z</time>
      </trkpt>
      <trkpt lat="43.58232" lon="3.00103">
        <ele>395.71984863281</ele>
        <time>2010-09-26T10:10:29Z</time>
      </trkpt>
      <trkpt lat="43.58234" lon="3.00106">
        <ele>397.64245605469</ele>
        <time>2010-09-26T10:10:34Z</time>
      </trkpt>
      <trkpt lat="43.58236" lon="3.00111">
        <ele>399.56506347656</ele>
        <time>2010-09-26T10:10:40Z</time>
      </trkpt>
      <trkpt lat="43.58237" lon="3.00114">
        <ele>401.00708007812</ele>
        <time>2010-09-26T10:10:46Z</time>
      </trkpt>
      <trkpt lat="43.58239" lon="3.00119">
        <ele>403.89111328125</ele>
        <time>2010-09-26T10:10:53Z</time>
      </trkpt>
      <trkpt lat="43.58241" lon="3.00119">
        <ele>405.3330078125</ele>
        <time>2010-09-26T10:10:59Z</time>
      </trkpt>
      <trkpt lat="43.58243" lon="3.0012">
        <ele>408.69763183594</ele>
        <time>2010-09-26T10:11:11Z</time>
      </trkpt>
      <trkpt lat="43.58245" lon="3.00123">
        <ele>410.62023925781</ele>
        <time>2010-09-26T10:11:17Z</time>
      </trkpt>
      <trkpt lat="43.58247" lon="3.00125">
        <ele>409.65905761719</ele>
        <time>2010-09-26T10:11:23Z</time>
      </trkpt>
      <trkpt lat="43.58247" lon="3.00129">
        <ele>412.06225585938</ele>
        <time>2010-09-26T10:11:31Z</time>
      </trkpt>
      <trkpt lat="43.58248" lon="3.00133">
        <ele>410.62023925781</ele>
        <time>2010-09-26T10:11:39Z</time>
      </trkpt>
      <trkpt lat="43.58247" lon="3.00137">
        <ele>412.06225585938</ele>
        <time>2010-09-26T10:11:44Z</time>
      </trkpt>
      <trkpt lat="43.58251" lon="3.0014">
        <ele>413.50427246094</ele>
        <time>2010-09-26T10:11:50Z</time>
      </trkpt>
      <trkpt lat="43.58253" lon="3.00146">
        <ele>414.94616699219</ele>
        <time>2010-09-26T10:11:56Z</time>
      </trkpt>
      <trkpt lat="43.58255" lon="3.00152">
        <ele>417.349609375</ele>
        <time>2010-09-26T10:12:02Z</time>
      </trkpt>
      <trkpt lat="43.58255" lon="3.00157">
        <ele>422.63671875</ele>
        <time>2010-09-26T10:12:09Z</time>
      </trkpt>
      <trkpt lat="43.58257" lon="3.0016">
        <ele>423.11743164062</ele>
        <time>2010-09-26T10:12:16Z</time>
      </trkpt>
      <trkpt lat="43.58258" lon="3.00163">
        <ele>424.07873535156</ele>
        <time>2010-09-26T10:12:20Z</time>
      </trkpt>
      <trkpt lat="43.58262" lon="3.0017">
        <ele>425.52075195312</ele>
        <time>2010-09-26T10:12:33Z</time>
      </trkpt>
      <trkpt lat="43.58264" lon="3.00172">
        <ele>428.40466308594</ele>
        <time>2010-09-26T10:12:38Z</time>
      </trkpt>
      <trkpt lat="43.58265" lon="3.00175">
        <ele>428.40466308594</ele>
        <time>2010-09-26T10:12:42Z</time>
      </trkpt>
      <trkpt lat="43.58268" lon="3.00179">
        <ele>428.88537597656</ele>
        <time>2010-09-26T10:12:48Z</time>
      </trkpt>
      <trkpt lat="43.5827" lon="3.0018">
        <ele>430.32727050781</ele>
        <time>2010-09-26T10:12:52Z</time>
      </trkpt>
      <trkpt lat="43.58271" lon="3.00184">
        <ele>428.88537597656</ele>
        <time>2010-09-26T10:12:59Z</time>
      </trkpt>
      <trkpt lat="43.58273" lon="3.00187">
        <ele>428.88537597656</ele>
        <time>2010-09-26T10:13:05Z</time>
      </trkpt>
      <trkpt lat="43.58274" lon="3.00193">
        <ele>429.84655761719</ele>
        <time>2010-09-26T10:13:12Z</time>
      </trkpt>
      <trkpt lat="43.58276" lon="3.00192">
        <ele>429.36596679688</ele>
        <time>2010-09-26T10:13:17Z</time>
      </trkpt>
      <trkpt lat="43.58279" lon="3.00194">
        <ele>432.73071289062</ele>
        <time>2010-09-26T10:13:23Z</time>
      </trkpt>
      <trkpt lat="43.58282" lon="3.00194">
        <ele>434.6533203125</ele>
        <time>2010-09-26T10:13:30Z</time>
      </trkpt>
      <trkpt lat="43.58283" lon="3.00194">
        <ele>434.6533203125</ele>
        <time>2010-09-26T10:13:35Z</time>
      </trkpt>
      <trkpt lat="43.58284" lon="3.00197">
        <ele>436.09521484375</ele>
        <time>2010-09-26T10:13:44Z</time>
      </trkpt>
      <trkpt lat="43.58285" lon="3.00201">
        <ele>438.01782226562</ele>
        <time>2010-09-26T10:13:50Z</time>
      </trkpt>
      <trkpt lat="43.58286" lon="3.00203">
        <ele>438.97912597656</ele>
        <time>2010-09-26T10:13:54Z</time>
      </trkpt>
      <trkpt lat="43.58287" lon="3.00206">
        <ele>438.49853515625</ele>
        <time>2010-09-26T10:13:59Z</time>
      </trkpt>
      <trkpt lat="43.58289" lon="3.00209">
        <ele>441.38244628906</ele>
        <time>2010-09-26T10:14:05Z</time>
      </trkpt>
      <trkpt lat="43.5829" lon="3.00214">
        <ele>442.34387207031</ele>
        <time>2010-09-26T10:14:10Z</time>
      </trkpt>
      <trkpt lat="43.58293" lon="3.00217">
        <ele>443.30505371094</ele>
        <time>2010-09-26T10:14:16Z</time>
      </trkpt>
      <trkpt lat="43.58295" lon="3.0022">
        <ele>444.7470703125</ele>
        <time>2010-09-26T10:14:21Z</time>
      </trkpt>
      <trkpt lat="43.58298" lon="3.0022">
        <ele>445.70837402344</ele>
        <time>2010-09-26T10:14:26Z</time>
      </trkpt>
      <trkpt lat="43.58301" lon="3.00223">
        <ele>446.66967773438</ele>
        <time>2010-09-26T10:14:31Z</time>
      </trkpt>
      <trkpt lat="43.58304" lon="3.00227">
        <ele>447.15026855469</ele>
        <time>2010-09-26T10:14:36Z</time>
      </trkpt>
      <trkpt lat="43.58307" lon="3.0023">
        <ele>448.59240722656</ele>
        <time>2010-09-26T10:14:43Z</time>
      </trkpt>
      <trkpt lat="43.58309" lon="3.00231">
        <ele>449.5537109375</ele>
        <time>2010-09-26T10:14:49Z</time>
      </trkpt>
      <trkpt lat="43.58312" lon="3.00232">
        <ele>450.51501464844</ele>
        <time>2010-09-26T10:14:55Z</time>
      </trkpt>
      <trkpt lat="43.58315" lon="3.00234">
        <ele>450.99560546875</ele>
        <time>2010-09-26T10:15:01Z</time>
      </trkpt>
      <trkpt lat="43.58318" lon="3.00233">
        <ele>451.47631835938</ele>
        <time>2010-09-26T10:15:05Z</time>
      </trkpt>
      <trkpt lat="43.5832" lon="3.0023">
        <ele>452.43762207031</ele>
        <time>2010-09-26T10:15:10Z</time>
      </trkpt>
      <trkpt lat="43.58323" lon="3.00226">
        <ele>454.8408203125</ele>
        <time>2010-09-26T10:15:17Z</time>
      </trkpt>
      <trkpt lat="43.58327" lon="3.00222">
        <ele>457.72497558594</ele>
        <time>2010-09-26T10:15:24Z</time>
      </trkpt>
      <trkpt lat="43.58329" lon="3.00219">
        <ele>459.64758300781</ele>
        <time>2010-09-26T10:15:32Z</time>
      </trkpt>
      <trkpt lat="43.58334" lon="3.00216">
        <ele>459.64758300781</ele>
        <time>2010-09-26T10:15:42Z</time>
      </trkpt>
      <trkpt lat="43.58336" lon="3.00215">
        <ele>462.05078125</ele>
        <time>2010-09-26T10:15:47Z</time>
      </trkpt>
      <trkpt lat="43.58339" lon="3.00216">
        <ele>463.97338867188</ele>
        <time>2010-09-26T10:15:54Z</time>
      </trkpt>
      <trkpt lat="43.58341" lon="3.00222">
        <ele>468.29931640625</ele>
        <time>2010-09-26T10:16:00Z</time>
      </trkpt>
      <trkpt lat="43.58342" lon="3.00226">
        <ele>472.14465332031</ele>
        <time>2010-09-26T10:16:05Z</time>
      </trkpt>
      <trkpt lat="43.58346" lon="3.00232">
        <ele>475.50927734375</ele>
        <time>2010-09-26T10:16:13Z</time>
      </trkpt>
      <trkpt lat="43.5835" lon="3.00228">
        <ele>475.98986816406</ele>
        <time>2010-09-26T10:16:22Z</time>
      </trkpt>
      <trkpt lat="43.58355" lon="3.00226">
        <ele>472.14465332031</ele>
        <time>2010-09-26T10:16:27Z</time>
      </trkpt>
      <trkpt lat="43.5836" lon="3.00221">
        <ele>472.62536621094</ele>
        <time>2010-09-26T10:16:35Z</time>
      </trkpt>
      <trkpt lat="43.58365" lon="3.00218">
        <ele>472.62536621094</ele>
        <time>2010-09-26T10:16:42Z</time>
      </trkpt>
      <trkpt lat="43.58369" lon="3.00219">
        <ele>473.10607910156</ele>
        <time>2010-09-26T10:16:48Z</time>
      </trkpt>
      <trkpt lat="43.5837" lon="3.00224">
        <ele>475.50927734375</ele>
        <time>2010-09-26T10:16:54Z</time>
      </trkpt>
      <trkpt lat="43.58372" lon="3.00228">
        <ele>475.50927734375</ele>
        <time>2010-09-26T10:17:00Z</time>
      </trkpt>
      <trkpt lat="43.58373" lon="3.00234">
        <ele>481.27722167969</ele>
        <time>2010-09-26T10:17:07Z</time>
      </trkpt>
      <trkpt lat="43.58373" lon="3.00238">
        <ele>480.31591796875</ele>
        <time>2010-09-26T10:17:11Z</time>
      </trkpt>
      <trkpt lat="43.58374" lon="3.00241">
        <ele>483.68041992188</ele>
        <time>2010-09-26T10:17:15Z</time>
      </trkpt>
      <trkpt lat="43.58376" lon="3.00244">
        <ele>486.08374023438</ele>
        <time>2010-09-26T10:17:19Z</time>
      </trkpt>
      <trkpt lat="43.58378" lon="3.00248">
        <ele>487.04504394531</ele>
        <time>2010-09-26T10:17:25Z</time>
      </trkpt>
      <trkpt lat="43.5838" lon="3.00251">
        <ele>489.44836425781</ele>
        <time>2010-09-26T10:17:31Z</time>
      </trkpt>
      <trkpt lat="43.58381" lon="3.00252">
        <ele>490.89038085938</ele>
        <time>2010-09-26T10:17:34Z</time>
      </trkpt>
      <trkpt lat="43.58385" lon="3.00252">
        <ele>489.44836425781</ele>
        <time>2010-09-26T10:17:39Z</time>
      </trkpt>
      <trkpt lat="43.58388" lon="3.00254">
        <ele>489.92907714844</ele>
        <time>2010-09-26T10:17:44Z</time>
      </trkpt>
      <trkpt lat="43.58391" lon="3.00257">
        <ele>490.40979003906</ele>
        <time>2010-09-26T10:17:50Z</time>
      </trkpt>
      <trkpt lat="43.58395" lon="3.00258">
        <ele>493.29357910156</ele>
        <time>2010-09-26T10:17:57Z</time>
      </trkpt>
      <trkpt lat="43.58397" lon="3.00261">
        <ele>494.73559570312</ele>
        <time>2010-09-26T10:18:03Z</time>
      </trkpt>
      <trkpt lat="43.58399" lon="3.00265">
        <ele>498.10034179688</ele>
        <time>2010-09-26T10:18:12Z</time>
      </trkpt>
      <trkpt lat="43.58407" lon="3.0027">
        <ele>498.10034179688</ele>
        <time>2010-09-26T10:18:27Z</time>
      </trkpt>
      <trkpt lat="43.5841" lon="3.00273">
        <ele>502.42614746094</ele>
        <time>2010-09-26T10:18:36Z</time>
      </trkpt>
      <trkpt lat="43.58413" lon="3.00267">
        <ele>501.46484375</ele>
        <time>2010-09-26T10:18:43Z</time>
      </trkpt>
      <trkpt lat="43.58415" lon="3.00265">
        <ele>502.42614746094</ele>
        <time>2010-09-26T10:18:48Z</time>
      </trkpt>
      <trkpt lat="43.58417" lon="3.00263">
        <ele>501.46484375</ele>
        <time>2010-09-26T10:18:52Z</time>
      </trkpt>
      <trkpt lat="43.5842" lon="3.00259">
        <ele>504.82946777344</ele>
        <time>2010-09-26T10:19:00Z</time>
      </trkpt>
      <trkpt lat="43.58422" lon="3.00256">
        <ele>506.75207519531</ele>
        <time>2010-09-26T10:19:05Z</time>
      </trkpt>
      <trkpt lat="43.58424" lon="3.00253">
        <ele>506.271484375</ele>
        <time>2010-09-26T10:19:10Z</time>
      </trkpt>
      <trkpt lat="43.58427" lon="3.00252">
        <ele>506.271484375</ele>
        <time>2010-09-26T10:19:16Z</time>
      </trkpt>
      <trkpt lat="43.58428" lon="3.00251">
        <ele>507.23278808594</ele>
        <time>2010-09-26T10:19:20Z</time>
      </trkpt>
      <trkpt lat="43.58429" lon="3.00255">
        <ele>513.96203613281</ele>
        <time>2010-09-26T10:19:28Z</time>
      </trkpt>
      <trkpt lat="43.58431" lon="3.00253">
        <ele>513.96203613281</ele>
        <time>2010-09-26T10:19:33Z</time>
      </trkpt>
      <trkpt lat="43.58434" lon="3.00251">
        <ele>514.92333984375</ele>
        <time>2010-09-26T10:19:40Z</time>
      </trkpt>
      <trkpt lat="43.58437" lon="3.00249">
        <ele>520.69128417969</ele>
        <time>2010-09-26T10:19:52Z</time>
      </trkpt>
      <trkpt lat="43.58439" lon="3.00251">
        <ele>523.09460449219</ele>
        <time>2010-09-26T10:19:58Z</time>
      </trkpt>
      <trkpt lat="43.5844" lon="3.00252">
        <ele>525.01721191406</ele>
        <time>2010-09-26T10:20:04Z</time>
      </trkpt>
      <trkpt lat="43.58443" lon="3.00255">
        <ele>526.45910644531</ele>
        <time>2010-09-26T10:20:12Z</time>
      </trkpt>
      <trkpt lat="43.58444" lon="3.00257">
        <ele>527.42041015625</ele>
        <time>2010-09-26T10:20:17Z</time>
      </trkpt>
      <trkpt lat="43.58446" lon="3.00259">
        <ele>528.3818359375</ele>
        <time>2010-09-26T10:20:21Z</time>
      </trkpt>
      <trkpt lat="43.58448" lon="3.0026">
        <ele>532.22705078125</ele>
        <time>2010-09-26T10:20:28Z</time>
      </trkpt>
      <trkpt lat="43.58451" lon="3.00259">
        <ele>532.70776367188</ele>
        <time>2010-09-26T10:20:33Z</time>
      </trkpt>
      <trkpt lat="43.58453" lon="3.00262">
        <ele>535.11096191406</ele>
        <time>2010-09-26T10:20:39Z</time>
      </trkpt>
      <trkpt lat="43.58454" lon="3.00265">
        <ele>536.55310058594</ele>
        <time>2010-09-26T10:20:45Z</time>
      </trkpt>
      <trkpt lat="43.58456" lon="3.00267">
        <ele>537.99499511719</ele>
        <time>2010-09-26T10:20:52Z</time>
      </trkpt>
      <trkpt lat="43.58461" lon="3.0027">
        <ele>539.91760253906</ele>
        <time>2010-09-26T10:21:04Z</time>
      </trkpt>
      <trkpt lat="43.58464" lon="3.00273">
        <ele>542.80151367188</ele>
        <time>2010-09-26T10:21:12Z</time>
      </trkpt>
      <trkpt lat="43.58466" lon="3.00272">
        <ele>545.685546875</ele>
        <time>2010-09-26T10:21:19Z</time>
      </trkpt>
      <trkpt lat="43.58469" lon="3.00268">
        <ele>544.72424316406</ele>
        <time>2010-09-26T10:21:26Z</time>
      </trkpt>
      <trkpt lat="43.58471" lon="3.00266">
        <ele>544.72424316406</ele>
        <time>2010-09-26T10:21:32Z</time>
      </trkpt>
      <trkpt lat="43.58472" lon="3.00266">
        <ele>546.16625976562</ele>
        <time>2010-09-26T10:21:38Z</time>
      </trkpt>
      <trkpt lat="43.58475" lon="3.00269">
        <ele>548.0888671875</ele>
        <time>2010-09-26T10:21:43Z</time>
      </trkpt>
      <trkpt lat="43.58478" lon="3.0027">
        <ele>549.05004882812</ele>
        <time>2010-09-26T10:21:48Z</time>
      </trkpt>
      <trkpt lat="43.5848" lon="3.0027">
        <ele>549.05004882812</ele>
        <time>2010-09-26T10:21:53Z</time>
      </trkpt>
      <trkpt lat="43.58485" lon="3.00268">
        <ele>552.89526367188</ele>
        <time>2010-09-26T10:22:08Z</time>
      </trkpt>
      <trkpt lat="43.58486" lon="3.00268">
        <ele>554.81787109375</ele>
        <time>2010-09-26T10:22:13Z</time>
      </trkpt>
      <trkpt lat="43.58488" lon="3.00266">
        <ele>554.33740234375</ele>
        <time>2010-09-26T10:22:17Z</time>
      </trkpt>
      <trkpt lat="43.5849" lon="3.00264">
        <ele>554.33740234375</ele>
        <time>2010-09-26T10:22:21Z</time>
      </trkpt>
      <trkpt lat="43.58492" lon="3.00265">
        <ele>559.62475585938</ele>
        <time>2010-09-26T10:22:27Z</time>
      </trkpt>
      <trkpt lat="43.58494" lon="3.00267">
        <ele>561.54736328125</ele>
        <time>2010-09-26T10:22:32Z</time>
      </trkpt>
      <trkpt lat="43.58497" lon="3.00266">
        <ele>561.06665039062</ele>
        <time>2010-09-26T10:22:38Z</time>
      </trkpt>
      <trkpt lat="43.585" lon="3.00266">
        <ele>561.06665039062</ele>
        <time>2010-09-26T10:22:42Z</time>
      </trkpt>
      <trkpt lat="43.58503" lon="3.00265">
        <ele>562.9892578125</ele>
        <time>2010-09-26T10:22:50Z</time>
      </trkpt>
      <trkpt lat="43.58506" lon="3.00262">
        <ele>563.95043945312</ele>
        <time>2010-09-26T10:22:55Z</time>
      </trkpt>
      <trkpt lat="43.58511" lon="3.00261">
        <ele>565.392578125</ele>
        <time>2010-09-26T10:23:03Z</time>
      </trkpt>
      <trkpt lat="43.58512" lon="3.00264">
        <ele>565.87329101562</ele>
        <time>2010-09-26T10:23:09Z</time>
      </trkpt>
      <trkpt lat="43.58514" lon="3.00268">
        <ele>569.23779296875</ele>
        <time>2010-09-26T10:23:14Z</time>
      </trkpt>
      <trkpt lat="43.58518" lon="3.00271">
        <ele>574.52514648438</ele>
        <time>2010-09-26T10:23:29Z</time>
      </trkpt>
      <trkpt lat="43.58519" lon="3.00275">
        <ele>575.96704101562</ele>
        <time>2010-09-26T10:23:33Z</time>
      </trkpt>
      <trkpt lat="43.58527" lon="3.00277">
        <ele>577.4091796875</ele>
        <time>2010-09-26T10:23:44Z</time>
      </trkpt>
      <trkpt lat="43.58529" lon="3.00282">
        <ele>577.8896484375</ele>
        <time>2010-09-26T10:23:52Z</time>
      </trkpt>
      <trkpt lat="43.58533" lon="3.00284">
        <ele>580.29296875</ele>
        <time>2010-09-26T10:23:59Z</time>
      </trkpt>
      <trkpt lat="43.58535" lon="3.00287">
        <ele>581.73486328125</ele>
        <time>2010-09-26T10:24:05Z</time>
      </trkpt>
      <trkpt lat="43.58536" lon="3.00292">
        <ele>584.61889648438</ele>
        <time>2010-09-26T10:24:12Z</time>
      </trkpt>
      <trkpt lat="43.58538" lon="3.00297">
        <ele>585.580078125</ele>
        <time>2010-09-26T10:24:18Z</time>
      </trkpt>
      <trkpt lat="43.58539" lon="3.00304">
        <ele>586.54150390625</ele>
        <time>2010-09-26T10:24:25Z</time>
      </trkpt>
      <trkpt lat="43.58541" lon="3.00307">
        <ele>588.46435546875</ele>
        <time>2010-09-26T10:24:30Z</time>
      </trkpt>
      <trkpt lat="43.58545" lon="3.00311">
        <ele>589.90625</ele>
        <time>2010-09-26T10:24:36Z</time>
      </trkpt>
      <trkpt lat="43.58548" lon="3.00315">
        <ele>593.75146484375</ele>
        <time>2010-09-26T10:24:41Z</time>
      </trkpt>
      <trkpt lat="43.58551" lon="3.00318">
        <ele>595.67407226562</ele>
        <time>2010-09-26T10:24:46Z</time>
      </trkpt>
      <trkpt lat="43.58555" lon="3.00321">
        <ele>594.71264648438</ele>
        <time>2010-09-26T10:24:50Z</time>
      </trkpt>
      <trkpt lat="43.58558" lon="3.00323">
        <ele>595.67407226562</ele>
        <time>2010-09-26T10:24:55Z</time>
      </trkpt>
      <trkpt lat="43.58561" lon="3.00326">
        <ele>597.5966796875</ele>
        <time>2010-09-26T10:25:00Z</time>
      </trkpt>
      <trkpt lat="43.58565" lon="3.00325">
        <ele>599.03857421875</ele>
        <time>2010-09-26T10:25:06Z</time>
      </trkpt>
      <trkpt lat="43.58568" lon="3.00323">
        <ele>599.51928710938</ele>
        <time>2010-09-26T10:25:11Z</time>
      </trkpt>
      <trkpt lat="43.5857" lon="3.00318">
        <ele>600</ele>
        <time>2010-09-26T10:25:16Z</time>
      </trkpt>
      <trkpt lat="43.58572" lon="3.00317">
        <ele>602.8837890625</ele>
        <time>2010-09-26T10:25:22Z</time>
      </trkpt>
      <trkpt lat="43.58576" lon="3.00315">
        <ele>603.36450195312</ele>
        <time>2010-09-26T10:25:29Z</time>
      </trkpt>
      <trkpt lat="43.58582" lon="3.00317">
        <ele>603.36450195312</ele>
        <time>2010-09-26T10:25:37Z</time>
      </trkpt>
      <trkpt lat="43.58585" lon="3.00315">
        <ele>605.28735351562</ele>
        <time>2010-09-26T10:25:43Z</time>
      </trkpt>
      <trkpt lat="43.58587" lon="3.00313">
        <ele>606.72924804688</ele>
        <time>2010-09-26T10:25:48Z</time>
      </trkpt>
      <trkpt lat="43.58589" lon="3.00311">
        <ele>608.65185546875</ele>
        <time>2010-09-26T10:25:53Z</time>
      </trkpt>
      <trkpt lat="43.58593" lon="3.00312">
        <ele>612.4970703125</ele>
        <time>2010-09-26T10:26:02Z</time>
      </trkpt>
      <trkpt lat="43.58594" lon="3.0031">
        <ele>612.97778320312</ele>
        <time>2010-09-26T10:26:08Z</time>
      </trkpt>
      <trkpt lat="43.58597" lon="3.00306">
        <ele>612.97778320312</ele>
        <time>2010-09-26T10:26:18Z</time>
      </trkpt>
      <trkpt lat="43.58601" lon="3.00304">
        <ele>613.45849609375</ele>
        <time>2010-09-26T10:26:24Z</time>
      </trkpt>
      <trkpt lat="43.58604" lon="3.00302">
        <ele>613.93896484375</ele>
        <time>2010-09-26T10:26:29Z</time>
      </trkpt>
      <trkpt lat="43.58607" lon="3.003">
        <ele>614.900390625</ele>
        <time>2010-09-26T10:26:34Z</time>
      </trkpt>
      <trkpt lat="43.58611" lon="3.00298">
        <ele>616.34228515625</ele>
        <time>2010-09-26T10:26:40Z</time>
      </trkpt>
      <trkpt lat="43.58617" lon="3.00294">
        <ele>616.82299804688</ele>
        <time>2010-09-26T10:26:48Z</time>
      </trkpt>
      <trkpt lat="43.5862" lon="3.00291">
        <ele>618.26489257812</ele>
        <time>2010-09-26T10:26:54Z</time>
      </trkpt>
      <trkpt lat="43.58625" lon="3.00283">
        <ele>616.82299804688</ele>
        <time>2010-09-26T10:27:02Z</time>
      </trkpt>
      <trkpt lat="43.58627" lon="3.00277">
        <ele>616.82299804688</ele>
        <time>2010-09-26T10:27:09Z</time>
      </trkpt>
      <trkpt lat="43.58629" lon="3.00275">
        <ele>617.7841796875</ele>
        <time>2010-09-26T10:27:14Z</time>
      </trkpt>
      <trkpt lat="43.58629" lon="3.00273">
        <ele>622.1103515625</ele>
        <time>2010-09-26T10:27:24Z</time>
      </trkpt>
      <trkpt lat="43.58631" lon="3.00271">
        <ele>623.55249023438</ele>
        <time>2010-09-26T10:27:30Z</time>
      </trkpt>
      <trkpt lat="43.58633" lon="3.00269">
        <ele>625.47485351562</ele>
        <time>2010-09-26T10:27:37Z</time>
      </trkpt>
      <trkpt lat="43.58635" lon="3.00266">
        <ele>628.83959960938</ele>
        <time>2010-09-26T10:27:44Z</time>
      </trkpt>
      <trkpt lat="43.58636" lon="3.00264">
        <ele>630.28149414062</ele>
        <time>2010-09-26T10:27:48Z</time>
      </trkpt>
      <trkpt lat="43.58638" lon="3.00261">
        <ele>632.2041015625</ele>
        <time>2010-09-26T10:27:54Z</time>
      </trkpt>
      <trkpt lat="43.58639" lon="3.00261">
        <ele>634.12670898438</ele>
        <time>2010-09-26T10:27:59Z</time>
      </trkpt>
      <trkpt lat="43.5864" lon="3.0026">
        <ele>634.12670898438</ele>
        <time>2010-09-26T10:28:05Z</time>
      </trkpt>
      <trkpt lat="43.58637" lon="3.00259">
        <ele>634.607421875</ele>
        <time>2010-09-26T10:28:13Z</time>
      </trkpt>
      <trkpt lat="43.58637" lon="3.00256">
        <ele>634.12670898438</ele>
        <time>2010-09-26T10:28:17Z</time>
      </trkpt>
      <trkpt lat="43.5864" lon="3.00253">
        <ele>633.64599609375</ele>
        <time>2010-09-26T10:28:22Z</time>
      </trkpt>
      <trkpt lat="43.5864" lon="3.00247">
        <ele>632.68481445312</ele>
        <time>2010-09-26T10:28:27Z</time>
      </trkpt>
      <trkpt lat="43.58641" lon="3.00241">
        <ele>631.72338867188</ele>
        <time>2010-09-26T10:28:32Z</time>
      </trkpt>
      <trkpt lat="43.58645" lon="3.00237">
        <ele>632.2041015625</ele>
        <time>2010-09-26T10:28:38Z</time>
      </trkpt>
      <trkpt lat="43.58648" lon="3.00233">
        <ele>632.68481445312</ele>
        <time>2010-09-26T10:28:44Z</time>
      </trkpt>
      <trkpt lat="43.58651" lon="3.00228">
        <ele>631.24291992188</ele>
        <time>2010-09-26T10:28:49Z</time>
      </trkpt>
      <trkpt lat="43.58654" lon="3.00222">
        <ele>631.72338867188</ele>
        <time>2010-09-26T10:28:55Z</time>
      </trkpt>
      <trkpt lat="43.58656" lon="3.00218">
        <ele>634.12670898438</ele>
        <time>2010-09-26T10:28:59Z</time>
      </trkpt>
      <trkpt lat="43.58657" lon="3.00212">
        <ele>636.04956054688</ele>
        <time>2010-09-26T10:29:04Z</time>
      </trkpt>
      <trkpt lat="43.58661" lon="3.00205">
        <ele>635.56860351562</ele>
        <time>2010-09-26T10:29:10Z</time>
      </trkpt>
      <trkpt lat="43.58662" lon="3.00201">
        <ele>635.56860351562</ele>
        <time>2010-09-26T10:29:14Z</time>
      </trkpt>
      <trkpt lat="43.58662" lon="3.00193">
        <ele>634.607421875</ele>
        <time>2010-09-26T10:29:20Z</time>
      </trkpt>
      <trkpt lat="43.58663" lon="3.00188">
        <ele>634.12670898438</ele>
        <time>2010-09-26T10:29:25Z</time>
      </trkpt>
      <trkpt lat="43.58664" lon="3.00186">
        <ele>636.5302734375</ele>
        <time>2010-09-26T10:29:30Z</time>
      </trkpt>
      <trkpt lat="43.58667" lon="3.00182">
        <ele>639.4140625</ele>
        <time>2010-09-26T10:29:36Z</time>
      </trkpt>
      <trkpt lat="43.58669" lon="3.00177">
        <ele>641.8173828125</ele>
        <time>2010-09-26T10:29:42Z</time>
      </trkpt>
      <trkpt lat="43.58669" lon="3.00174">
        <ele>643.73999023438</ele>
        <time>2010-09-26T10:29:48Z</time>
      </trkpt>
      <trkpt lat="43.58671" lon="3.00171">
        <ele>645.18188476562</ele>
        <time>2010-09-26T10:29:53Z</time>
      </trkpt>
      <trkpt lat="43.58673" lon="3.00168">
        <ele>646.14331054688</ele>
        <time>2010-09-26T10:29:59Z</time>
      </trkpt>
      <trkpt lat="43.58674" lon="3.00164">
        <ele>648.54638671875</ele>
        <time>2010-09-26T10:30:07Z</time>
      </trkpt>
      <trkpt lat="43.58675" lon="3.00163">
        <ele>649.5078125</ele>
        <time>2010-09-26T10:30:13Z</time>
      </trkpt>
      <trkpt lat="43.58674" lon="3.0016">
        <ele>654.31469726562</ele>
        <time>2010-09-26T10:30:23Z</time>
      </trkpt>
      <trkpt lat="43.58675" lon="3.00156">
        <ele>654.31469726562</ele>
        <time>2010-09-26T10:30:27Z</time>
      </trkpt>
      <trkpt lat="43.58675" lon="3.00151">
        <ele>657.19848632812</ele>
        <time>2010-09-26T10:30:33Z</time>
      </trkpt>
      <trkpt lat="43.58676" lon="3.0015">
        <ele>659.12109375</ele>
        <time>2010-09-26T10:30:38Z</time>
      </trkpt>
      <trkpt lat="43.5868" lon="3.00149">
        <ele>659.12109375</ele>
        <time>2010-09-26T10:30:46Z</time>
      </trkpt>
      <trkpt lat="43.58682" lon="3.00149">
        <ele>660.56298828125</ele>
        <time>2010-09-26T10:30:52Z</time>
      </trkpt>
      <trkpt lat="43.58686" lon="3.00149">
        <ele>662.00512695312</ele>
        <time>2010-09-26T10:31:00Z</time>
      </trkpt>
      <trkpt lat="43.58688" lon="3.00149">
        <ele>663.44702148438</ele>
        <time>2010-09-26T10:31:06Z</time>
      </trkpt>
      <trkpt lat="43.5869" lon="3.00144">
        <ele>663.92749023438</ele>
        <time>2010-09-26T10:31:18Z</time>
      </trkpt>
      <trkpt lat="43.5869" lon="3.00139">
        <ele>671.1376953125</ele>
        <time>2010-09-26T10:31:34Z</time>
      </trkpt>
      <trkpt lat="43.58691" lon="3.00135">
        <ele>674.50219726562</ele>
        <time>2010-09-26T10:31:42Z</time>
      </trkpt>
      <trkpt lat="43.58692" lon="3.00133">
        <ele>674.021484375</ele>
        <time>2010-09-26T10:31:46Z</time>
      </trkpt>
      <trkpt lat="43.58695" lon="3.00133">
        <ele>677.86669921875</ele>
        <time>2010-09-26T10:31:53Z</time>
      </trkpt>
      <trkpt lat="43.58697" lon="3.00134">
        <ele>680.27001953125</ele>
        <time>2010-09-26T10:31:59Z</time>
      </trkpt>
      <trkpt lat="43.58698" lon="3.00135">
        <ele>682.19262695312</ele>
        <time>2010-09-26T10:32:09Z</time>
      </trkpt>
      <trkpt lat="43.587" lon="3.00138">
        <ele>682.67333984375</ele>
        <time>2010-09-26T10:32:15Z</time>
      </trkpt>
      <trkpt lat="43.58702" lon="3.0014">
        <ele>683.63452148438</ele>
        <time>2010-09-26T10:32:20Z</time>
      </trkpt>
      <trkpt lat="43.58705" lon="3.00143">
        <ele>682.67333984375</ele>
        <time>2010-09-26T10:32:26Z</time>
      </trkpt>
      <trkpt lat="43.58707" lon="3.00144">
        <ele>682.67333984375</ele>
        <time>2010-09-26T10:32:31Z</time>
      </trkpt>
      <trkpt lat="43.58709" lon="3.00147">
        <ele>683.63452148438</ele>
        <time>2010-09-26T10:32:37Z</time>
      </trkpt>
      <trkpt lat="43.5871" lon="3.00152">
        <ele>686.99926757812</ele>
        <time>2010-09-26T10:32:44Z</time>
      </trkpt>
      <trkpt lat="43.58711" lon="3.00153">
        <ele>689.40258789062</ele>
        <time>2010-09-26T10:32:51Z</time>
      </trkpt>
      <trkpt lat="43.58713" lon="3.00152">
        <ele>689.40258789062</ele>
        <time>2010-09-26T10:32:55Z</time>
      </trkpt>
      <trkpt lat="43.58714" lon="3.0015">
        <ele>691.3251953125</ele>
        <time>2010-09-26T10:33:02Z</time>
      </trkpt>
      <trkpt lat="43.58715" lon="3.00147">
        <ele>691.80590820312</ele>
        <time>2010-09-26T10:33:06Z</time>
      </trkpt>
      <trkpt lat="43.58718" lon="3.00145">
        <ele>691.80590820312</ele>
        <time>2010-09-26T10:33:11Z</time>
      </trkpt>
      <trkpt lat="43.58719" lon="3.00144">
        <ele>691.80590820312</ele>
        <time>2010-09-26T10:33:15Z</time>
      </trkpt>
      <trkpt lat="43.58721" lon="3.00141">
        <ele>693.728515625</ele>
        <time>2010-09-26T10:33:20Z</time>
      </trkpt>
      <trkpt lat="43.58722" lon="3.00138">
        <ele>693.728515625</ele>
        <time>2010-09-26T10:33:25Z</time>
      </trkpt>
      <trkpt lat="43.58723" lon="3.00135">
        <ele>694.68969726562</ele>
        <time>2010-09-26T10:33:29Z</time>
      </trkpt>
      <trkpt lat="43.58725" lon="3.00131">
        <ele>696.61254882812</ele>
        <time>2010-09-26T10:33:36Z</time>
      </trkpt>
      <trkpt lat="43.58726" lon="3.00127">
        <ele>697.09301757812</ele>
        <time>2010-09-26T10:33:41Z</time>
      </trkpt>
      <trkpt lat="43.58727" lon="3.00121">
        <ele>699.015625</ele>
        <time>2010-09-26T10:33:47Z</time>
      </trkpt>
      <trkpt lat="43.58728" lon="3.00119">
        <ele>701.41918945312</ele>
        <time>2010-09-26T10:33:52Z</time>
      </trkpt>
      <trkpt lat="43.58729" lon="3.00118">
        <ele>702.86108398438</ele>
        <time>2010-09-26T10:33:57Z</time>
      </trkpt>
      <trkpt lat="43.58733" lon="3.00114">
        <ele>701.89990234375</ele>
        <time>2010-09-26T10:34:07Z</time>
      </trkpt>
      <trkpt lat="43.58735" lon="3.00115">
        <ele>703.341796875</ele>
        <time>2010-09-26T10:34:12Z</time>
      </trkpt>
      <trkpt lat="43.58736" lon="3.00118">
        <ele>706.70629882812</ele>
        <time>2010-09-26T10:34:18Z</time>
      </trkpt>
      <trkpt lat="43.58736" lon="3.00121">
        <ele>709.10961914062</ele>
        <time>2010-09-26T10:34:25Z</time>
      </trkpt>
      <trkpt lat="43.58738" lon="3.00122">
        <ele>710.07080078125</ele>
        <time>2010-09-26T10:34:32Z</time>
      </trkpt>
      <trkpt lat="43.5874" lon="3.00122">
        <ele>711.0322265625</ele>
        <time>2010-09-26T10:34:37Z</time>
      </trkpt>
      <trkpt lat="43.58743" lon="3.00124">
        <ele>712.95483398438</ele>
        <time>2010-09-26T10:34:43Z</time>
      </trkpt>
      <trkpt lat="43.58745" lon="3.00125">
        <ele>715.8388671875</ele>
        <time>2010-09-26T10:34:50Z</time>
      </trkpt>
      <trkpt lat="43.58746" lon="3.00121">
        <ele>716.80029296875</ele>
        <time>2010-09-26T10:34:56Z</time>
      </trkpt>
      <trkpt lat="43.58747" lon="3.00119">
        <ele>718.2421875</ele>
        <time>2010-09-26T10:35:01Z</time>
      </trkpt>
      <trkpt lat="43.58749" lon="3.00117">
        <ele>720.16479492188</ele>
        <time>2010-09-26T10:35:07Z</time>
      </trkpt>
      <trkpt lat="43.58751" lon="3.00114">
        <ele>722.56811523438</ele>
        <time>2010-09-26T10:35:13Z</time>
      </trkpt>
      <trkpt lat="43.58753" lon="3.00106">
        <ele>726.89404296875</ele>
        <time>2010-09-26T10:35:31Z</time>
      </trkpt>
      <trkpt lat="43.58754" lon="3.00104">
        <ele>730.7392578125</ele>
        <time>2010-09-26T10:35:39Z</time>
      </trkpt>
      <trkpt lat="43.58757" lon="3.001">
        <ele>730.7392578125</ele>
        <time>2010-09-26T10:35:47Z</time>
      </trkpt>
      <trkpt lat="43.58762" lon="3.00098">
        <ele>731.21997070312</ele>
        <time>2010-09-26T10:35:54Z</time>
      </trkpt>
      <trkpt lat="43.58764" lon="3.00096">
        <ele>731.70043945312</ele>
        <time>2010-09-26T10:36:00Z</time>
      </trkpt>
      <trkpt lat="43.58765" lon="3.00094">
        <ele>734.10400390625</ele>
        <time>2010-09-26T10:36:06Z</time>
      </trkpt>
      <trkpt lat="43.58767" lon="3.00092">
        <ele>736.50732421875</ele>
        <time>2010-09-26T10:36:12Z</time>
      </trkpt>
      <trkpt lat="43.58769" lon="3.00089">
        <ele>738.91064453125</ele>
        <time>2010-09-26T10:36:19Z</time>
      </trkpt>
      <trkpt lat="43.58772" lon="3.00088">
        <ele>740.3525390625</ele>
        <time>2010-09-26T10:36:26Z</time>
      </trkpt>
      <trkpt lat="43.58774" lon="3.00087">
        <ele>741.31372070312</ele>
        <time>2010-09-26T10:36:31Z</time>
      </trkpt>
      <trkpt lat="43.58775" lon="3.00084">
        <ele>743.236328125</ele>
        <time>2010-09-26T10:36:37Z</time>
      </trkpt>
      <trkpt lat="43.58778" lon="3.00081">
        <ele>743.236328125</ele>
        <time>2010-09-26T10:36:42Z</time>
      </trkpt>
      <trkpt lat="43.5878" lon="3.00079">
        <ele>744.19775390625</ele>
        <time>2010-09-26T10:36:49Z</time>
      </trkpt>
      <trkpt lat="43.58783" lon="3.00079">
        <ele>746.12036132812</ele>
        <time>2010-09-26T10:36:55Z</time>
      </trkpt>
      <trkpt lat="43.58784" lon="3.00077">
        <ele>747.08154296875</ele>
        <time>2010-09-26T10:37:02Z</time>
      </trkpt>
      <trkpt lat="43.58789" lon="3.00072">
        <ele>748.04321289062</ele>
        <time>2010-09-26T10:37:09Z</time>
      </trkpt>
      <trkpt lat="43.58792" lon="3.0007">
        <ele>749.48510742188</ele>
        <time>2010-09-26T10:37:14Z</time>
      </trkpt>
      <trkpt lat="43.58794" lon="3.00067">
        <ele>750.44653320312</ele>
        <time>2010-09-26T10:37:18Z</time>
      </trkpt>
      <trkpt lat="43.58797" lon="3.00061">
        <ele>750.92700195312</ele>
        <time>2010-09-26T10:37:24Z</time>
      </trkpt>
      <trkpt lat="43.58801" lon="3.00058">
        <ele>751.88842773438</ele>
        <time>2010-09-26T10:37:30Z</time>
      </trkpt>
      <trkpt lat="43.58805" lon="3.00056">
        <ele>752.36889648438</ele>
        <time>2010-09-26T10:37:35Z</time>
      </trkpt>
      <trkpt lat="43.58807" lon="3.00054">
        <ele>752.849609375</ele>
        <time>2010-09-26T10:37:40Z</time>
      </trkpt>
      <trkpt lat="43.58807" lon="3.0005">
        <ele>753.81103515625</ele>
        <time>2010-09-26T10:37:46Z</time>
      </trkpt>
      <trkpt lat="43.58809" lon="3.00049">
        <ele>753.81103515625</ele>
        <time>2010-09-26T10:37:49Z</time>
      </trkpt>
      <trkpt lat="43.58813" lon="3.00043">
        <ele>754.29174804688</ele>
        <time>2010-09-26T10:37:55Z</time>
      </trkpt>
      <trkpt lat="43.58816" lon="3.0004">
        <ele>754.29174804688</ele>
        <time>2010-09-26T10:38:00Z</time>
      </trkpt>
      <trkpt lat="43.58815" lon="3.00036">
        <ele>753.33032226562</ele>
        <time>2010-09-26T10:38:07Z</time>
      </trkpt>
      <trkpt lat="43.58817" lon="3.00034">
        <ele>759.57885742188</ele>
        <time>2010-09-26T10:38:18Z</time>
      </trkpt>
      <trkpt lat="43.58816" lon="3.00032">
        <ele>761.02075195312</ele>
        <time>2010-09-26T10:38:22Z</time>
      </trkpt>
      <trkpt lat="43.58814" lon="3.0003">
        <ele>761.98217773438</ele>
        <time>2010-09-26T10:38:28Z</time>
      </trkpt>
      <trkpt lat="43.58811" lon="3.00029">
        <ele>763.90454101562</ele>
        <time>2010-09-26T10:38:35Z</time>
      </trkpt>
      <trkpt lat="43.58809" lon="3.0003">
        <ele>765.34692382812</ele>
        <time>2010-09-26T10:38:40Z</time>
      </trkpt>
      <trkpt lat="43.58808" lon="3.00029">
        <ele>766.30810546875</ele>
        <time>2010-09-26T10:38:45Z</time>
      </trkpt>
      <trkpt lat="43.58807" lon="3.00031">
        <ele>766.78881835938</ele>
        <time>2010-09-26T10:38:55Z</time>
      </trkpt>
      <trkpt lat="43.5881" lon="3.00034">
        <ele>766.78881835938</ele>
        <time>2010-09-26T10:39:01Z</time>
      </trkpt>
      <trkpt lat="43.58811" lon="3.00035">
        <ele>766.30810546875</ele>
        <time>2010-09-26T10:39:09Z</time>
      </trkpt>
      <trkpt lat="43.5881" lon="3.00034">
        <ele>765.82763671875</ele>
        <time>2010-09-26T10:39:19Z</time>
      </trkpt>
      <trkpt lat="43.5881" lon="3.00035">
        <ele>764.8662109375</ele>
        <time>2010-09-26T10:39:26Z</time>
      </trkpt>
      <trkpt lat="43.58811" lon="3.00035">
        <ele>764.8662109375</ele>
        <time>2010-09-26T10:39:43Z</time>
      </trkpt>
      <trkpt lat="43.58811" lon="3.00035">
        <ele>765.34692382812</ele>
        <time>2010-09-26T10:40:06Z</time>
      </trkpt>
      <trkpt lat="43.58811" lon="3.00036">
        <ele>765.82763671875</ele>
        <time>2010-09-26T10:40:31Z</time>
      </trkpt>
      <trkpt lat="43.58811" lon="3.00036">
        <ele>766.30810546875</ele>
        <time>2010-09-26T10:40:47Z</time>
      </trkpt>
      <trkpt lat="43.5881" lon="3.00034">
        <ele>766.30810546875</ele>
        <time>2010-09-26T10:40:54Z</time>
      </trkpt>
      <trkpt lat="43.58809" lon="3.00032">
        <ele>765.82763671875</ele>
        <time>2010-09-26T10:40:58Z</time>
      </trkpt>
      <trkpt lat="43.58807" lon="3.00031">
        <ele>764.8662109375</ele>
        <time>2010-09-26T10:41:05Z</time>
      </trkpt>
      <trkpt lat="43.58807" lon="3.0003">
        <ele>764.38549804688</ele>
        <time>2010-09-26T10:41:38Z</time>
      </trkpt>
      <trkpt lat="43.58809" lon="3.00032">
        <ele>764.38549804688</ele>
        <time>2010-09-26T10:41:48Z</time>
      </trkpt>
      <trkpt lat="43.58811" lon="3.00034">
        <ele>763.90454101562</ele>
        <time>2010-09-26T10:41:54Z</time>
      </trkpt>
      <trkpt lat="43.58811" lon="3.00035">
        <ele>763.90454101562</ele>
        <time>2010-09-26T10:42:02Z</time>
      </trkpt>
      <trkpt lat="43.5881" lon="3.00034">
        <ele>763.42407226562</ele>
        <time>2010-09-26T10:42:07Z</time>
      </trkpt>
      <trkpt lat="43.5881" lon="3.00034">
        <ele>763.90454101562</ele>
        <time>2010-09-26T10:42:15Z</time>
      </trkpt>
      <trkpt lat="43.5881" lon="3.00034">
        <ele>763.90454101562</ele>
        <time>2010-09-26T10:42:27Z</time>
      </trkpt>
      <trkpt lat="43.58811" lon="3.00035">
        <ele>765.34692382812</ele>
        <time>2010-09-26T10:42:47Z</time>
      </trkpt>
      <trkpt lat="43.58811" lon="3.00035">
        <ele>765.34692382812</ele>
        <time>2010-09-26T10:43:06Z</time>
      </trkpt>
      <trkpt lat="43.58811" lon="3.00035">
        <ele>764.8662109375</ele>
        <time>2010-09-26T10:43:27Z</time>
      </trkpt>
      <trkpt lat="43.58812" lon="3.00035">
        <ele>764.38549804688</ele>
        <time>2010-09-26T10:43:46Z</time>
      </trkpt>
      <trkpt lat="43.58812" lon="3.00036">
        <ele>763.90454101562</ele>
        <time>2010-09-26T10:43:57Z</time>
      </trkpt>
      <trkpt lat="43.58811" lon="3.00034">
        <ele>762.943359375</ele>
        <time>2010-09-26T10:44:16Z</time>
      </trkpt>
      <trkpt lat="43.5881" lon="3.00034">
        <ele>763.42407226562</ele>
        <time>2010-09-26T10:44:23Z</time>
      </trkpt>
      <trkpt lat="43.58809" lon="3.00034">
        <ele>764.8662109375</ele>
        <time>2010-09-26T10:45:23Z</time>
      </trkpt>
      <trkpt lat="43.58808" lon="3.00034">
        <ele>764.38549804688</ele>
        <time>2010-09-26T10:45:32Z</time>
      </trkpt>
      <trkpt lat="43.58808" lon="3.00031">
        <ele>763.90454101562</ele>
        <time>2010-09-26T10:45:36Z</time>
      </trkpt>
      <trkpt lat="43.5881" lon="3.0003">
        <ele>763.42407226562</ele>
        <time>2010-09-26T10:45:42Z</time>
      </trkpt>
      <trkpt lat="43.58811" lon="3.00027">
        <ele>762.46264648438</ele>
        <time>2010-09-26T10:45:46Z</time>
      </trkpt>
      <trkpt lat="43.5881" lon="3.00021">
        <ele>761.02075195312</ele>
        <time>2010-09-26T10:45:51Z</time>
      </trkpt>
      <trkpt lat="43.5881" lon="3.00015">
        <ele>759.57885742188</ele>
        <time>2010-09-26T10:45:56Z</time>
      </trkpt>
      <trkpt lat="43.58809" lon="3.00014">
        <ele>759.57885742188</ele>
        <time>2010-09-26T10:46:00Z</time>
      </trkpt>
      <trkpt lat="43.58809" lon="3.0001">
        <ele>760.5400390625</ele>
        <time>2010-09-26T10:46:06Z</time>
      </trkpt>
      <trkpt lat="43.5881" lon="3.00004">
        <ele>761.98217773438</ele>
        <time>2010-09-26T10:46:11Z</time>
      </trkpt>
      <trkpt lat="43.58811" lon="2.99998">
        <ele>763.42407226562</ele>
        <time>2010-09-26T10:46:16Z</time>
      </trkpt>
      <trkpt lat="43.58812" lon="2.99992">
        <ele>765.34692382812</ele>
        <time>2010-09-26T10:46:22Z</time>
      </trkpt>
      <trkpt lat="43.58813" lon="2.99986">
        <ele>767.75</ele>
        <time>2010-09-26T10:46:29Z</time>
      </trkpt>
      <trkpt lat="43.58817" lon="2.99978">
        <ele>769.19213867188</ele>
        <time>2010-09-26T10:46:39Z</time>
      </trkpt>
      <trkpt lat="43.58818" lon="2.99972">
        <ele>770.63403320312</ele>
        <time>2010-09-26T10:46:46Z</time>
      </trkpt>
      <trkpt lat="43.5882" lon="2.99968">
        <ele>771.59521484375</ele>
        <time>2010-09-26T10:46:51Z</time>
      </trkpt>
      <trkpt lat="43.58824" lon="2.99963">
        <ele>773.51806640625</ele>
        <time>2010-09-26T10:47:00Z</time>
      </trkpt>
      <trkpt lat="43.58827" lon="2.99966">
        <ele>774.9599609375</ele>
        <time>2010-09-26T10:47:06Z</time>
      </trkpt>
      <trkpt lat="43.5883" lon="2.99969">
        <ele>775.92114257812</ele>
        <time>2010-09-26T10:47:12Z</time>
      </trkpt>
      <trkpt lat="43.58833" lon="2.9997">
        <ele>776.88256835938</ele>
        <time>2010-09-26T10:47:17Z</time>
      </trkpt>
      <trkpt lat="43.58838" lon="2.99973">
        <ele>778.80517578125</ele>
        <time>2010-09-26T10:47:23Z</time>
      </trkpt>
      <trkpt lat="43.58841" lon="2.99972">
        <ele>778.80517578125</ele>
        <time>2010-09-26T10:47:29Z</time>
      </trkpt>
      <trkpt lat="43.58846" lon="2.99969">
        <ele>778.32446289062</ele>
        <time>2010-09-26T10:47:36Z</time>
      </trkpt>
      <trkpt lat="43.58849" lon="2.99969">
        <ele>778.80517578125</ele>
        <time>2010-09-26T10:47:41Z</time>
      </trkpt>
      <trkpt lat="43.58852" lon="2.99966">
        <ele>780.72802734375</ele>
        <time>2010-09-26T10:47:48Z</time>
      </trkpt>
      <trkpt lat="43.58852" lon="2.99961">
        <ele>781.20874023438</ele>
        <time>2010-09-26T10:47:54Z</time>
      </trkpt>
      <trkpt lat="43.58854" lon="2.99954">
        <ele>781.20874023438</ele>
        <time>2010-09-26T10:48:00Z</time>
      </trkpt>
      <trkpt lat="43.58855" lon="2.9995">
        <ele>781.68920898438</ele>
        <time>2010-09-26T10:48:05Z</time>
      </trkpt>
      <trkpt lat="43.58857" lon="2.99945">
        <ele>783.13110351562</ele>
        <time>2010-09-26T10:48:11Z</time>
      </trkpt>
      <trkpt lat="43.58857" lon="2.99939">
        <ele>785.05395507812</ele>
        <time>2010-09-26T10:48:17Z</time>
      </trkpt>
      <trkpt lat="43.58854" lon="2.99937">
        <ele>786.97631835938</ele>
        <time>2010-09-26T10:48:22Z</time>
      </trkpt>
      <trkpt lat="43.58853" lon="2.9993">
        <ele>787.93774414062</ele>
        <time>2010-09-26T10:48:29Z</time>
      </trkpt>
      <trkpt lat="43.58855" lon="2.99925">
        <ele>789.8603515625</ele>
        <time>2010-09-26T10:48:35Z</time>
      </trkpt>
      <trkpt lat="43.58859" lon="2.99924">
        <ele>791.30224609375</ele>
        <time>2010-09-26T10:48:41Z</time>
      </trkpt>
      <trkpt lat="43.58864" lon="2.99925">
        <ele>791.78295898438</ele>
        <time>2010-09-26T10:48:45Z</time>
      </trkpt>
      <trkpt lat="43.58867" lon="2.99922">
        <ele>793.22485351562</ele>
        <time>2010-09-26T10:48:52Z</time>
      </trkpt>
      <trkpt lat="43.5887" lon="2.99922">
        <ele>794.66674804688</ele>
        <time>2010-09-26T10:48:58Z</time>
      </trkpt>
      <trkpt lat="43.58875" lon="2.99922">
        <ele>795.62817382812</ele>
        <time>2010-09-26T10:49:04Z</time>
      </trkpt>
      <trkpt lat="43.5888" lon="2.9992">
        <ele>795.62817382812</ele>
        <time>2010-09-26T10:49:10Z</time>
      </trkpt>
      <trkpt lat="43.58884" lon="2.99916">
        <ele>796.58984375</ele>
        <time>2010-09-26T10:49:16Z</time>
      </trkpt>
      <trkpt lat="43.58884" lon="2.99914">
        <ele>797.55102539062</ele>
        <time>2010-09-26T10:49:21Z</time>
      </trkpt>
      <trkpt lat="43.58883" lon="2.99908">
        <ele>799.4736328125</ele>
        <time>2010-09-26T10:49:29Z</time>
      </trkpt>
      <trkpt lat="43.58878" lon="2.99906">
        <ele>801.39624023438</ele>
        <time>2010-09-26T10:49:36Z</time>
      </trkpt>
      <trkpt lat="43.58876" lon="2.99902">
        <ele>803.31884765625</ele>
        <time>2010-09-26T10:49:41Z</time>
      </trkpt>
      <trkpt lat="43.58874" lon="2.99899">
        <ele>803.79956054688</ele>
        <time>2010-09-26T10:49:46Z</time>
      </trkpt>
      <trkpt lat="43.58868" lon="2.999">
        <ele>804.2802734375</ele>
        <time>2010-09-26T10:49:52Z</time>
      </trkpt>
      <trkpt lat="43.58868" lon="2.99897">
        <ele>805.24145507812</ele>
        <time>2010-09-26T10:49:56Z</time>
      </trkpt>
      <trkpt lat="43.5887" lon="2.99895">
        <ele>807.1640625</ele>
        <time>2010-09-26T10:50:01Z</time>
      </trkpt>
      <trkpt lat="43.58873" lon="2.99894">
        <ele>809.08666992188</ele>
        <time>2010-09-26T10:50:06Z</time>
      </trkpt>
      <trkpt lat="43.58875" lon="2.99889">
        <ele>811.00927734375</ele>
        <time>2010-09-26T10:50:13Z</time>
      </trkpt>
      <trkpt lat="43.58879" lon="2.99887">
        <ele>812.45141601562</ele>
        <time>2010-09-26T10:50:20Z</time>
      </trkpt>
      <trkpt lat="43.58878" lon="2.99883">
        <ele>813.41284179688</ele>
        <time>2010-09-26T10:50:25Z</time>
      </trkpt>
      <trkpt lat="43.58879" lon="2.99879">
        <ele>813.41284179688</ele>
        <time>2010-09-26T10:50:30Z</time>
      </trkpt>
      <trkpt lat="43.5888" lon="2.99874">
        <ele>814.85473632812</ele>
        <time>2010-09-26T10:50:37Z</time>
      </trkpt>
      <trkpt lat="43.58883" lon="2.9987">
        <ele>816.29663085938</ele>
        <time>2010-09-26T10:50:43Z</time>
      </trkpt>
      <trkpt lat="43.58887" lon="2.99871">
        <ele>818.69995117188</ele>
        <time>2010-09-26T10:50:49Z</time>
      </trkpt>
      <trkpt lat="43.58887" lon="2.99871">
        <ele>819.66137695312</ele>
        <time>2010-09-26T10:50:54Z</time>
      </trkpt>
      <trkpt lat="43.58892" lon="2.9987">
        <ele>820.62255859375</ele>
        <time>2010-09-26T10:51:01Z</time>
      </trkpt>
      <trkpt lat="43.58896" lon="2.99869">
        <ele>822.064453125</ele>
        <time>2010-09-26T10:51:06Z</time>
      </trkpt>
      <trkpt lat="43.589" lon="2.99865">
        <ele>823.50659179688</ele>
        <time>2010-09-26T10:51:12Z</time>
      </trkpt>
      <trkpt lat="43.58903" lon="2.9986">
        <ele>825.42895507812</ele>
        <time>2010-09-26T10:51:18Z</time>
      </trkpt>
      <trkpt lat="43.58907" lon="2.99855">
        <ele>826.39038085938</ele>
        <time>2010-09-26T10:51:25Z</time>
      </trkpt>
      <trkpt lat="43.58907" lon="2.9985">
        <ele>827.83227539062</ele>
        <time>2010-09-26T10:51:32Z</time>
      </trkpt>
      <trkpt lat="43.58905" lon="2.99846">
        <ele>829.75512695312</ele>
        <time>2010-09-26T10:51:38Z</time>
      </trkpt>
      <trkpt lat="43.58905" lon="2.99846">
        <ele>830.23583984375</ele>
        <time>2010-09-26T10:51:43Z</time>
      </trkpt>
      <trkpt lat="43.58902" lon="2.99846">
        <ele>832.15844726562</ele>
        <time>2010-09-26T10:52:03Z</time>
      </trkpt>
      <trkpt lat="43.58904" lon="2.99842">
        <ele>833.60034179688</ele>
        <time>2010-09-26T10:52:08Z</time>
      </trkpt>
      <trkpt lat="43.58905" lon="2.99837">
        <ele>834.0810546875</ele>
        <time>2010-09-26T10:52:13Z</time>
      </trkpt>
      <trkpt lat="43.58907" lon="2.99836">
        <ele>836.484375</ele>
        <time>2010-09-26T10:52:17Z</time>
      </trkpt>
      <trkpt lat="43.58912" lon="2.99831">
        <ele>838.40698242188</ele>
        <time>2010-09-26T10:52:24Z</time>
      </trkpt>
      <trkpt lat="43.58915" lon="2.99829">
        <ele>839.84887695312</ele>
        <time>2010-09-26T10:52:30Z</time>
      </trkpt>
      <trkpt lat="43.58915" lon="2.99825">
        <ele>840.81005859375</ele>
        <time>2010-09-26T10:52:35Z</time>
      </trkpt>
      <trkpt lat="43.58918" lon="2.99824">
        <ele>842.25219726562</ele>
        <time>2010-09-26T10:52:40Z</time>
      </trkpt>
      <trkpt lat="43.58921" lon="2.99822">
        <ele>842.73291015625</ele>
        <time>2010-09-26T10:52:44Z</time>
      </trkpt>
      <trkpt lat="43.58924" lon="2.99821">
        <ele>844.17504882812</ele>
        <time>2010-09-26T10:52:49Z</time>
      </trkpt>
      <trkpt lat="43.58928" lon="2.99818">
        <ele>845.13623046875</ele>
        <time>2010-09-26T10:52:57Z</time>
      </trkpt>
      <trkpt lat="43.5893" lon="2.99815">
        <ele>845.61694335938</ele>
        <time>2010-09-26T10:53:03Z</time>
      </trkpt>
      <trkpt lat="43.58934" lon="2.99813">
        <ele>846.57836914062</ele>
        <time>2010-09-26T10:53:08Z</time>
      </trkpt>
      <trkpt lat="43.58935" lon="2.9981">
        <ele>847.53955078125</ele>
        <time>2010-09-26T10:53:13Z</time>
      </trkpt>
      <trkpt lat="43.58934" lon="2.99806">
        <ele>848.9814453125</ele>
        <time>2010-09-26T10:53:18Z</time>
      </trkpt>
      <trkpt lat="43.58937" lon="2.99803">
        <ele>849.94287109375</ele>
        <time>2010-09-26T10:53:23Z</time>
      </trkpt>
      <trkpt lat="43.58939" lon="2.998">
        <ele>850.90405273438</ele>
        <time>2010-09-26T10:53:28Z</time>
      </trkpt>
      <trkpt lat="43.58942" lon="2.99795">
        <ele>852.82666015625</ele>
        <time>2010-09-26T10:53:35Z</time>
      </trkpt>
      <trkpt lat="43.58942" lon="2.99789">
        <ele>854.26879882812</ele>
        <time>2010-09-26T10:53:41Z</time>
      </trkpt>
      <trkpt lat="43.58941" lon="2.99784">
        <ele>856.19116210938</ele>
        <time>2010-09-26T10:53:47Z</time>
      </trkpt>
      <trkpt lat="43.58942" lon="2.9978">
        <ele>856.671875</ele>
        <time>2010-09-26T10:53:53Z</time>
      </trkpt>
      <trkpt lat="43.58944" lon="2.99776">
        <ele>858.59448242188</ele>
        <time>2010-09-26T10:54:01Z</time>
      </trkpt>
      <trkpt lat="43.58947" lon="2.99773">
        <ele>860.03662109375</ele>
        <time>2010-09-26T10:54:10Z</time>
      </trkpt>
      <trkpt lat="43.58949" lon="2.99771">
        <ele>861.95947265625</ele>
        <time>2010-09-26T10:54:15Z</time>
      </trkpt>
      <trkpt lat="43.58952" lon="2.9977">
        <ele>863.4013671875</ele>
        <time>2010-09-26T10:54:21Z</time>
      </trkpt>
      <trkpt lat="43.58955" lon="2.99767">
        <ele>862.92065429688</ele>
        <time>2010-09-26T10:54:27Z</time>
      </trkpt>
      <trkpt lat="43.58959" lon="2.99761">
        <ele>863.4013671875</ele>
        <time>2010-09-26T10:54:35Z</time>
      </trkpt>
      <trkpt lat="43.58962" lon="2.99758">
        <ele>865.32397460938</ele>
        <time>2010-09-26T10:54:42Z</time>
      </trkpt>
      <trkpt lat="43.58963" lon="2.99754">
        <ele>866.76586914062</ele>
        <time>2010-09-26T10:54:48Z</time>
      </trkpt>
      <trkpt lat="43.58965" lon="2.99749">
        <ele>868.6884765625</ele>
        <time>2010-09-26T10:54:55Z</time>
      </trkpt>
      <trkpt lat="43.58969" lon="2.99744">
        <ele>870.61108398438</ele>
        <time>2010-09-26T10:55:02Z</time>
      </trkpt>
      <trkpt lat="43.58974" lon="2.99743">
        <ele>870.61108398438</ele>
        <time>2010-09-26T10:55:08Z</time>
      </trkpt>
      <trkpt lat="43.58979" lon="2.99742">
        <ele>871.091796875</ele>
        <time>2010-09-26T10:55:15Z</time>
      </trkpt>
      <trkpt lat="43.58982" lon="2.99739">
        <ele>871.572265625</ele>
        <time>2010-09-26T10:55:22Z</time>
      </trkpt>
      <trkpt lat="43.58987" lon="2.9974">
        <ele>872.53369140625</ele>
        <time>2010-09-26T10:55:28Z</time>
      </trkpt>
      <trkpt lat="43.58991" lon="2.99736">
        <ele>874.45629882812</ele>
        <time>2010-09-26T10:55:35Z</time>
      </trkpt>
      <trkpt lat="43.58995" lon="2.99733">
        <ele>875.89819335938</ele>
        <time>2010-09-26T10:55:41Z</time>
      </trkpt>
      <trkpt lat="43.58996" lon="2.9973">
        <ele>876.37915039062</ele>
        <time>2010-09-26T10:55:47Z</time>
      </trkpt>
      <trkpt lat="43.58998" lon="2.99725">
        <ele>877.34057617188</ele>
        <time>2010-09-26T10:55:54Z</time>
      </trkpt>
      <trkpt lat="43.59" lon="2.99723">
        <ele>878.3017578125</ele>
        <time>2010-09-26T10:56:00Z</time>
      </trkpt>
      <trkpt lat="43.59003" lon="2.9972">
        <ele>878.78247070312</ele>
        <time>2010-09-26T10:56:06Z</time>
      </trkpt>
      <trkpt lat="43.59005" lon="2.99718">
        <ele>879.26293945312</ele>
        <time>2010-09-26T10:56:10Z</time>
      </trkpt>
      <trkpt lat="43.5901" lon="2.99716">
        <ele>880.22436523438</ele>
        <time>2010-09-26T10:56:18Z</time>
      </trkpt>
      <trkpt lat="43.59016" lon="2.99711">
        <ele>881.18579101562</ele>
        <time>2010-09-26T10:56:25Z</time>
      </trkpt>
      <trkpt lat="43.59022" lon="2.99708">
        <ele>881.18579101562</ele>
        <time>2010-09-26T10:56:31Z</time>
      </trkpt>
      <trkpt lat="43.59026" lon="2.99704">
        <ele>881.66625976562</ele>
        <time>2010-09-26T10:56:37Z</time>
      </trkpt>
      <trkpt lat="43.59033" lon="2.99699">
        <ele>883.10815429688</ele>
        <time>2010-09-26T10:56:44Z</time>
      </trkpt>
      <trkpt lat="43.59034" lon="2.99698">
        <ele>883.5888671875</ele>
        <time>2010-09-26T10:56:46Z</time>
      </trkpt>
      <trkpt lat="43.5904" lon="2.99693">
        <ele>886.47290039062</ele>
        <time>2010-09-26T10:56:54Z</time>
      </trkpt>
      <trkpt lat="43.59047" lon="2.99689">
        <ele>887.91479492188</ele>
        <time>2010-09-26T10:57:00Z</time>
      </trkpt>
      <trkpt lat="43.59053" lon="2.99684">
        <ele>890.79858398438</ele>
        <time>2010-09-26T10:57:08Z</time>
      </trkpt>
      <trkpt lat="43.59058" lon="2.99681">
        <ele>892.24096679688</ele>
        <time>2010-09-26T10:57:14Z</time>
      </trkpt>
      <trkpt lat="43.5906" lon="2.99677">
        <ele>894.16357421875</ele>
        <time>2010-09-26T10:57:19Z</time>
      </trkpt>
      <trkpt lat="43.59063" lon="2.99675">
        <ele>894.64404296875</ele>
        <time>2010-09-26T10:57:24Z</time>
      </trkpt>
      <trkpt lat="43.59067" lon="2.99673">
        <ele>896.56689453125</ele>
        <time>2010-09-26T10:57:29Z</time>
      </trkpt>
      <trkpt lat="43.5907" lon="2.9967">
        <ele>898.96997070312</ele>
        <time>2010-09-26T10:57:35Z</time>
      </trkpt>
      <trkpt lat="43.59073" lon="2.9967">
        <ele>900.412109375</ele>
        <time>2010-09-26T10:57:40Z</time>
      </trkpt>
      <trkpt lat="43.59076" lon="2.9967">
        <ele>900.892578125</ele>
        <time>2010-09-26T10:57:45Z</time>
      </trkpt>
      <trkpt lat="43.59081" lon="2.99667">
        <ele>901.37329101562</ele>
        <time>2010-09-26T10:57:52Z</time>
      </trkpt>
      <trkpt lat="43.59084" lon="2.99661">
        <ele>902.81518554688</ele>
        <time>2010-09-26T10:58:00Z</time>
      </trkpt>
      <trkpt lat="43.59088" lon="2.99658">
        <ele>905.21850585938</ele>
        <time>2010-09-26T10:58:06Z</time>
      </trkpt>
      <trkpt lat="43.5909" lon="2.99653">
        <ele>907.14111328125</ele>
        <time>2010-09-26T10:58:12Z</time>
      </trkpt>
      <trkpt lat="43.59095" lon="2.99651">
        <ele>907.62182617188</ele>
        <time>2010-09-26T10:58:20Z</time>
      </trkpt>
      <trkpt lat="43.59098" lon="2.99649">
        <ele>909.06396484375</ele>
        <time>2010-09-26T10:58:25Z</time>
      </trkpt>
      <trkpt lat="43.59101" lon="2.99648">
        <ele>910.505859375</ele>
        <time>2010-09-26T10:58:30Z</time>
      </trkpt>
      <trkpt lat="43.59103" lon="2.99642">
        <ele>911.94799804688</ele>
        <time>2010-09-26T10:58:36Z</time>
      </trkpt>
      <trkpt lat="43.59103" lon="2.99637">
        <ele>912.42846679688</ele>
        <time>2010-09-26T10:58:41Z</time>
      </trkpt>
      <trkpt lat="43.59105" lon="2.99633">
        <ele>912.42846679688</ele>
        <time>2010-09-26T10:58:46Z</time>
      </trkpt>
      <trkpt lat="43.59108" lon="2.99629">
        <ele>911.94799804688</ele>
        <time>2010-09-26T10:58:53Z</time>
      </trkpt>
      <trkpt lat="43.59112" lon="2.99628">
        <ele>911.46728515625</ele>
        <time>2010-09-26T10:58:58Z</time>
      </trkpt>
      <trkpt lat="43.59118" lon="2.99628">
        <ele>912.42846679688</ele>
        <time>2010-09-26T10:59:04Z</time>
      </trkpt>
      <trkpt lat="43.59122" lon="2.99625">
        <ele>913.87036132812</ele>
        <time>2010-09-26T10:59:09Z</time>
      </trkpt>
      <trkpt lat="43.59131" lon="2.99622">
        <ele>915.79321289062</ele>
        <time>2010-09-26T10:59:18Z</time>
      </trkpt>
      <trkpt lat="43.59135" lon="2.99619">
        <ele>916.75439453125</ele>
        <time>2010-09-26T10:59:24Z</time>
      </trkpt>
      <trkpt lat="43.59138" lon="2.99617">
        <ele>916.27368164062</ele>
        <time>2010-09-26T10:59:29Z</time>
      </trkpt>
      <trkpt lat="43.5914" lon="2.99614">
        <ele>915.3125</ele>
        <time>2010-09-26T10:59:34Z</time>
      </trkpt>
      <trkpt lat="43.59141" lon="2.9961">
        <ele>914.83178710938</ele>
        <time>2010-09-26T10:59:41Z</time>
      </trkpt>
      <trkpt lat="43.59144" lon="2.99606">
        <ele>914.35107421875</ele>
        <time>2010-09-26T10:59:46Z</time>
      </trkpt>
      <trkpt lat="43.59148" lon="2.99602">
        <ele>916.27368164062</ele>
        <time>2010-09-26T10:59:53Z</time>
      </trkpt>
      <trkpt lat="43.5915" lon="2.99596">
        <ele>918.67700195312</ele>
        <time>2010-09-26T11:00:00Z</time>
      </trkpt>
      <trkpt lat="43.59153" lon="2.99589">
        <ele>920.599609375</ele>
        <time>2010-09-26T11:00:08Z</time>
      </trkpt>
      <trkpt lat="43.59157" lon="2.99586">
        <ele>923.0029296875</ele>
        <time>2010-09-26T11:00:14Z</time>
      </trkpt>
      <trkpt lat="43.5916" lon="2.99585">
        <ele>925.40625</ele>
        <time>2010-09-26T11:00:18Z</time>
      </trkpt>
      <trkpt lat="43.59163" lon="2.99581">
        <ele>927.3291015625</ele>
        <time>2010-09-26T11:00:24Z</time>
      </trkpt>
      <trkpt lat="43.59167" lon="2.99577">
        <ele>929.25146484375</ele>
        <time>2010-09-26T11:00:30Z</time>
      </trkpt>
      <trkpt lat="43.59171" lon="2.99573">
        <ele>931.17431640625</ele>
        <time>2010-09-26T11:00:37Z</time>
      </trkpt>
      <trkpt lat="43.59172" lon="2.99566">
        <ele>932.6162109375</ele>
        <time>2010-09-26T11:00:42Z</time>
      </trkpt>
      <trkpt lat="43.59174" lon="2.99561">
        <ele>934.05810546875</ele>
        <time>2010-09-26T11:00:47Z</time>
      </trkpt>
      <trkpt lat="43.59177" lon="2.99557">
        <ele>935.01953125</ele>
        <time>2010-09-26T11:00:53Z</time>
      </trkpt>
      <trkpt lat="43.59178" lon="2.99552">
        <ele>936.94189453125</ele>
        <time>2010-09-26T11:00:59Z</time>
      </trkpt>
      <trkpt lat="43.59181" lon="2.99547">
        <ele>937.9033203125</ele>
        <time>2010-09-26T11:01:06Z</time>
      </trkpt>
      <trkpt lat="43.59184" lon="2.99544">
        <ele>938.86474609375</ele>
        <time>2010-09-26T11:01:11Z</time>
      </trkpt>
      <trkpt lat="43.59185" lon="2.9954">
        <ele>939.34521484375</ele>
        <time>2010-09-26T11:01:16Z</time>
      </trkpt>
      <trkpt lat="43.59187" lon="2.99536">
        <ele>939.82592773438</ele>
        <time>2010-09-26T11:01:21Z</time>
      </trkpt>
      <trkpt lat="43.5919" lon="2.99534">
        <ele>940.30688476562</ele>
        <time>2010-09-26T11:01:26Z</time>
      </trkpt>
      <trkpt lat="43.59195" lon="2.9953">
        <ele>942.2294921875</ele>
        <time>2010-09-26T11:01:31Z</time>
      </trkpt>
      <trkpt lat="43.59199" lon="2.99526">
        <ele>944.15209960938</ele>
        <time>2010-09-26T11:01:37Z</time>
      </trkpt>
      <trkpt lat="43.59204" lon="2.99523">
        <ele>945.59399414062</ele>
        <time>2010-09-26T11:01:43Z</time>
      </trkpt>
      <trkpt lat="43.59208" lon="2.9952">
        <ele>947.03588867188</ele>
        <time>2010-09-26T11:01:49Z</time>
      </trkpt>
      <trkpt lat="43.59209" lon="2.9952">
        <ele>947.99731445312</ele>
        <time>2010-09-26T11:01:53Z</time>
      </trkpt>
      <trkpt lat="43.59214" lon="2.99516">
        <ele>949.919921875</ele>
        <time>2010-09-26T11:02:00Z</time>
      </trkpt>
      <trkpt lat="43.59217" lon="2.99513">
        <ele>950.88110351562</ele>
        <time>2010-09-26T11:02:06Z</time>
      </trkpt>
      <trkpt lat="43.59222" lon="2.99507">
        <ele>952.32299804688</ele>
        <time>2010-09-26T11:02:14Z</time>
      </trkpt>
      <trkpt lat="43.59225" lon="2.99501">
        <ele>953.28442382812</ele>
        <time>2010-09-26T11:02:21Z</time>
      </trkpt>
      <trkpt lat="43.59224" lon="2.99496">
        <ele>953.28442382812</ele>
        <time>2010-09-26T11:02:26Z</time>
      </trkpt>
      <trkpt lat="43.59224" lon="2.99492">
        <ele>954.72631835938</ele>
        <time>2010-09-26T11:02:31Z</time>
      </trkpt>
      <trkpt lat="43.59227" lon="2.99485">
        <ele>955.68774414062</ele>
        <time>2010-09-26T11:02:38Z</time>
      </trkpt>
      <trkpt lat="43.5923" lon="2.99481">
        <ele>956.64916992188</ele>
        <time>2010-09-26T11:02:44Z</time>
      </trkpt>
      <trkpt lat="43.59232" lon="2.99479">
        <ele>958.09130859375</ele>
        <time>2010-09-26T11:02:53Z</time>
      </trkpt>
      <trkpt lat="43.59231" lon="2.99476">
        <ele>958.57177734375</ele>
        <time>2010-09-26T11:03:09Z</time>
      </trkpt>
      <trkpt lat="43.5923" lon="2.99475">
        <ele>957.61059570312</ele>
        <time>2010-09-26T11:03:10Z</time>
      </trkpt>
      <trkpt lat="43.59223" lon="2.99474">
        <ele>958.57177734375</ele>
        <time>2010-09-26T11:03:17Z</time>
      </trkpt>
      <trkpt lat="43.59231" lon="2.99478">
        <ele>951.84252929688</ele>
        <time>2010-09-26T11:03:22Z</time>
      </trkpt>
      <trkpt lat="43.59236" lon="2.99474">
        <ele>949.43920898438</ele>
        <time>2010-09-26T11:03:28Z</time>
      </trkpt>
      <trkpt lat="43.59237" lon="2.99474">
        <ele>949.43920898438</ele>
        <time>2010-09-26T11:03:30Z</time>
      </trkpt>
      <trkpt lat="43.59235" lon="2.99489">
        <ele>951.84252929688</ele>
        <time>2010-09-26T11:03:38Z</time>
      </trkpt>
      <trkpt lat="43.59236" lon="2.99489">
        <ele>952.32299804688</ele>
        <time>2010-09-26T11:03:39Z</time>
      </trkpt>
      <trkpt lat="43.59239" lon="2.99489">
        <ele>955.68774414062</ele>
        <time>2010-09-26T11:03:42Z</time>
      </trkpt>
      <trkpt lat="43.5924" lon="2.9949">
        <ele>959.05249023438</ele>
        <time>2010-09-26T11:03:47Z</time>
      </trkpt>
      <trkpt lat="43.5924" lon="2.99491">
        <ele>959.533203125</ele>
        <time>2010-09-26T11:03:48Z</time>
      </trkpt>
      <trkpt lat="43.59222" lon="2.99474">
        <ele>963.37841796875</ele>
        <time>2010-09-26T11:03:52Z</time>
      </trkpt>
      <trkpt lat="43.59225" lon="2.99473">
        <ele>962.89770507812</ele>
        <time>2010-09-26T11:03:56Z</time>
      </trkpt>
      <trkpt lat="43.59228" lon="2.99488">
        <ele>966.26220703125</ele>
        <time>2010-09-26T11:04:11Z</time>
      </trkpt>
      <trkpt lat="43.59227" lon="2.99494">
        <ele>968.18481445312</ele>
        <time>2010-09-26T11:04:15Z</time>
      </trkpt>
      <trkpt lat="43.59229" lon="2.99486">
        <ele>963.37841796875</ele>
        <time>2010-09-26T11:04:20Z</time>
      </trkpt>
      <trkpt lat="43.59231" lon="2.99479">
        <ele>957.1298828125</ele>
        <time>2010-09-26T11:04:42Z</time>
      </trkpt>
      <trkpt lat="43.59232" lon="2.99478">
        <ele>958.09130859375</ele>
        <time>2010-09-26T11:04:59Z</time>
      </trkpt>
      <trkpt lat="43.59233" lon="2.99479">
        <ele>955.20703125</ele>
        <time>2010-09-26T11:05:18Z</time>
      </trkpt>
      <trkpt lat="43.59232" lon="2.9948">
        <ele>955.68774414062</ele>
        <time>2010-09-26T11:05:30Z</time>
      </trkpt>
      <trkpt lat="43.59232" lon="2.99478">
        <ele>955.68774414062</ele>
        <time>2010-09-26T11:05:58Z</time>
      </trkpt>
      <trkpt lat="43.59231" lon="2.99476">
        <ele>954.72631835938</ele>
        <time>2010-09-26T11:07:01Z</time>
      </trkpt>
      <trkpt lat="43.59234" lon="2.99474">
        <ele>954.72631835938</ele>
        <time>2010-09-26T11:07:04Z</time>
      </trkpt>
      <trkpt lat="43.5924" lon="2.99473">
        <ele>954.72631835938</ele>
        <time>2010-09-26T11:07:09Z</time>
      </trkpt>
      <trkpt lat="43.59241" lon="2.99472">
        <ele>954.72631835938</ele>
        <time>2010-09-26T11:07:10Z</time>
      </trkpt>
      <trkpt lat="43.5924" lon="2.99464">
        <ele>956.64916992188</ele>
        <time>2010-09-26T11:07:18Z</time>
      </trkpt>
      <trkpt lat="43.59239" lon="2.99459">
        <ele>957.1298828125</ele>
        <time>2010-09-26T11:07:24Z</time>
      </trkpt>
      <trkpt lat="43.59235" lon="2.99454">
        <ele>959.05249023438</ele>
        <time>2010-09-26T11:07:31Z</time>
      </trkpt>
      <trkpt lat="43.59235" lon="2.99449">
        <ele>960.49438476562</ele>
        <time>2010-09-26T11:07:37Z</time>
      </trkpt>
      <trkpt lat="43.59234" lon="2.99443">
        <ele>961.9365234375</ele>
        <time>2010-09-26T11:07:43Z</time>
      </trkpt>
      <trkpt lat="43.59233" lon="2.9944">
        <ele>962.4169921875</ele>
        <time>2010-09-26T11:07:47Z</time>
      </trkpt>
      <trkpt lat="43.59232" lon="2.99435">
        <ele>963.85888671875</ele>
        <time>2010-09-26T11:07:53Z</time>
      </trkpt>
      <trkpt lat="43.5923" lon="2.99429">
        <ele>964.33959960938</ele>
        <time>2010-09-26T11:07:59Z</time>
      </trkpt>
      <trkpt lat="43.59229" lon="2.99423">
        <ele>965.78173828125</ele>
        <time>2010-09-26T11:08:05Z</time>
      </trkpt>
      <trkpt lat="43.59229" lon="2.99416">
        <ele>967.7041015625</ele>
        <time>2010-09-26T11:08:11Z</time>
      </trkpt>
      <trkpt lat="43.59231" lon="2.99409">
        <ele>969.14624023438</ele>
        <time>2010-09-26T11:08:17Z</time>
      </trkpt>
      <trkpt lat="43.59233" lon="2.99399">
        <ele>969.626953125</ele>
        <time>2010-09-26T11:08:24Z</time>
      </trkpt>
      <trkpt lat="43.59234" lon="2.99398">
        <ele>969.14624023438</ele>
        <time>2010-09-26T11:08:25Z</time>
      </trkpt>
      <trkpt lat="43.59238" lon="2.99392">
        <ele>969.626953125</ele>
        <time>2010-09-26T11:08:31Z</time>
      </trkpt>
      <trkpt lat="43.59241" lon="2.99384">
        <ele>970.107421875</ele>
        <time>2010-09-26T11:08:38Z</time>
      </trkpt>
      <trkpt lat="43.59243" lon="2.99378">
        <ele>970.107421875</ele>
        <time>2010-09-26T11:08:44Z</time>
      </trkpt>
      <trkpt lat="43.59244" lon="2.99372">
        <ele>971.06884765625</ele>
        <time>2010-09-26T11:08:50Z</time>
      </trkpt>
      <trkpt lat="43.59249" lon="2.99368">
        <ele>971.06884765625</ele>
        <time>2010-09-26T11:08:57Z</time>
      </trkpt>
      <trkpt lat="43.59254" lon="2.99364">
        <ele>971.54931640625</ele>
        <time>2010-09-26T11:09:04Z</time>
      </trkpt>
      <trkpt lat="43.59254" lon="2.99362">
        <ele>972.0302734375</ele>
        <time>2010-09-26T11:09:17Z</time>
      </trkpt>
      <trkpt lat="43.5926" lon="2.99357">
        <ele>972.0302734375</ele>
        <time>2010-09-26T11:09:23Z</time>
      </trkpt>
      <trkpt lat="43.59264" lon="2.99353">
        <ele>971.54931640625</ele>
        <time>2010-09-26T11:09:28Z</time>
      </trkpt>
      <trkpt lat="43.59268" lon="2.99349">
        <ele>972.51098632812</ele>
        <time>2010-09-26T11:09:33Z</time>
      </trkpt>
      <trkpt lat="43.5927" lon="2.99347">
        <ele>972.51098632812</ele>
        <time>2010-09-26T11:09:38Z</time>
      </trkpt>
      <trkpt lat="43.59276" lon="2.99343">
        <ele>972.99169921875</ele>
        <time>2010-09-26T11:09:45Z</time>
      </trkpt>
      <trkpt lat="43.59284" lon="2.99338">
        <ele>973.47241210938</ele>
        <time>2010-09-26T11:09:54Z</time>
      </trkpt>
      <trkpt lat="43.59287" lon="2.99335">
        <ele>973.47241210938</ele>
        <time>2010-09-26T11:09:58Z</time>
      </trkpt>
      <trkpt lat="43.59293" lon="2.99332">
        <ele>974.43359375</ele>
        <time>2010-09-26T11:10:05Z</time>
      </trkpt>
      <trkpt lat="43.59297" lon="2.99329">
        <ele>974.91430664062</ele>
        <time>2010-09-26T11:10:13Z</time>
      </trkpt>
      <trkpt lat="43.59303" lon="2.99323">
        <ele>975.39477539062</ele>
        <time>2010-09-26T11:10:20Z</time>
      </trkpt>
      <trkpt lat="43.59312" lon="2.99315">
        <ele>975.39477539062</ele>
        <time>2010-09-26T11:10:30Z</time>
      </trkpt>
      <trkpt lat="43.59319" lon="2.99307">
        <ele>974.91430664062</ele>
        <time>2010-09-26T11:10:39Z</time>
      </trkpt>
      <trkpt lat="43.5933" lon="2.99302">
        <ele>974.91430664062</ele>
        <time>2010-09-26T11:10:48Z</time>
      </trkpt>
      <trkpt lat="43.59341" lon="2.99295">
        <ele>975.39477539062</ele>
        <time>2010-09-26T11:10:58Z</time>
      </trkpt>
      <trkpt lat="43.59347" lon="2.99284">
        <ele>974.43359375</ele>
        <time>2010-09-26T11:11:06Z</time>
      </trkpt>
      <trkpt lat="43.59353" lon="2.99277">
        <ele>974.91430664062</ele>
        <time>2010-09-26T11:11:13Z</time>
      </trkpt>
      <trkpt lat="43.59362" lon="2.99271">
        <ele>975.87548828125</ele>
        <time>2010-09-26T11:11:22Z</time>
      </trkpt>
      <trkpt lat="43.59368" lon="2.99266">
        <ele>976.8369140625</ele>
        <time>2010-09-26T11:11:29Z</time>
      </trkpt>
      <trkpt lat="43.5937" lon="2.99265">
        <ele>977.31762695312</ele>
        <time>2010-09-26T11:11:35Z</time>
      </trkpt>
      <trkpt lat="43.5937" lon="2.99268">
        <ele>978.27880859375</ele>
        <time>2010-09-26T11:11:40Z</time>
      </trkpt>
      <trkpt lat="43.59371" lon="2.99263">
        <ele>978.27880859375</ele>
        <time>2010-09-26T11:11:45Z</time>
      </trkpt>
      <trkpt lat="43.59378" lon="2.99257">
        <ele>977.79809570312</ele>
        <time>2010-09-26T11:11:52Z</time>
      </trkpt>
      <trkpt lat="43.59383" lon="2.99253">
        <ele>977.31762695312</ele>
        <time>2010-09-26T11:11:57Z</time>
      </trkpt>
      <trkpt lat="43.59389" lon="2.99246">
        <ele>976.35620117188</ele>
        <time>2010-09-26T11:12:05Z</time>
      </trkpt>
      <trkpt lat="43.59396" lon="2.9924">
        <ele>975.87548828125</ele>
        <time>2010-09-26T11:12:13Z</time>
      </trkpt>
      <trkpt lat="43.59399" lon="2.99238">
        <ele>975.87548828125</ele>
        <time>2010-09-26T11:12:17Z</time>
      </trkpt>
      <trkpt lat="43.59409" lon="2.9923">
        <ele>976.35620117188</ele>
        <time>2010-09-26T11:12:27Z</time>
      </trkpt>
      <trkpt lat="43.59413" lon="2.99228">
        <ele>975.87548828125</ele>
        <time>2010-09-26T11:12:31Z</time>
      </trkpt>
      <trkpt lat="43.59418" lon="2.99223">
        <ele>975.87548828125</ele>
        <time>2010-09-26T11:12:37Z</time>
      </trkpt>
      <trkpt lat="43.59423" lon="2.99219">
        <ele>975.87548828125</ele>
        <time>2010-09-26T11:12:42Z</time>
      </trkpt>
      <trkpt lat="43.59428" lon="2.99213">
        <ele>974.91430664062</ele>
        <time>2010-09-26T11:12:49Z</time>
      </trkpt>
      <trkpt lat="43.59429" lon="2.99209">
        <ele>974.43359375</ele>
        <time>2010-09-26T11:12:52Z</time>
      </trkpt>
      <trkpt lat="43.59431" lon="2.99199">
        <ele>975.87548828125</ele>
        <time>2010-09-26T11:12:59Z</time>
      </trkpt>
      <trkpt lat="43.59436" lon="2.99196">
        <ele>977.31762695312</ele>
        <time>2010-09-26T11:13:06Z</time>
      </trkpt>
      <trkpt lat="43.59441" lon="2.99187">
        <ele>975.87548828125</ele>
        <time>2010-09-26T11:13:14Z</time>
      </trkpt>
      <trkpt lat="43.59443" lon="2.99183">
        <ele>976.35620117188</ele>
        <time>2010-09-26T11:13:18Z</time>
      </trkpt>
      <trkpt lat="43.59447" lon="2.99173">
        <ele>977.79809570312</ele>
        <time>2010-09-26T11:13:25Z</time>
      </trkpt>
      <trkpt lat="43.59447" lon="2.99166">
        <ele>978.27880859375</ele>
        <time>2010-09-26T11:13:31Z</time>
      </trkpt>
      <trkpt lat="43.5945" lon="2.99158">
        <ele>980.20141601562</ele>
        <time>2010-09-26T11:13:38Z</time>
      </trkpt>
      <trkpt lat="43.59453" lon="2.99151">
        <ele>982.1240234375</ele>
        <time>2010-09-26T11:13:46Z</time>
      </trkpt>
      <trkpt lat="43.59456" lon="2.99145">
        <ele>984.52734375</ele>
        <time>2010-09-26T11:13:52Z</time>
      </trkpt>
      <trkpt lat="43.59458" lon="2.99139">
        <ele>985.96923828125</ele>
        <time>2010-09-26T11:13:59Z</time>
      </trkpt>
      <trkpt lat="43.59459" lon="2.99132">
        <ele>988.37280273438</ele>
        <time>2010-09-26T11:14:05Z</time>
      </trkpt>
      <trkpt lat="43.59462" lon="2.9913">
        <ele>989.333984375</ele>
        <time>2010-09-26T11:14:10Z</time>
      </trkpt>
      <trkpt lat="43.59462" lon="2.99125">
        <ele>990.29541015625</ele>
        <time>2010-09-26T11:14:16Z</time>
      </trkpt>
      <trkpt lat="43.59462" lon="2.99118">
        <ele>990.77587890625</ele>
        <time>2010-09-26T11:14:23Z</time>
      </trkpt>
      <trkpt lat="43.59465" lon="2.99112">
        <ele>993.17919921875</ele>
        <time>2010-09-26T11:14:31Z</time>
      </trkpt>
      <trkpt lat="43.59466" lon="2.99107">
        <ele>994.140625</ele>
        <time>2010-09-26T11:14:36Z</time>
      </trkpt>
      <trkpt lat="43.59469" lon="2.99105">
        <ele>994.140625</ele>
        <time>2010-09-26T11:14:42Z</time>
      </trkpt>
      <trkpt lat="43.5947" lon="2.99099">
        <ele>995.58251953125</ele>
        <time>2010-09-26T11:14:48Z</time>
      </trkpt>
      <trkpt lat="43.59468" lon="2.99092">
        <ele>996.06323242188</ele>
        <time>2010-09-26T11:14:54Z</time>
      </trkpt>
      <trkpt lat="43.59469" lon="2.99087">
        <ele>996.5439453125</ele>
        <time>2010-09-26T11:14:59Z</time>
      </trkpt>
      <trkpt lat="43.59473" lon="2.99081">
        <ele>997.50512695312</ele>
        <time>2010-09-26T11:15:06Z</time>
      </trkpt>
      <trkpt lat="43.59475" lon="2.99072">
        <ele>999.90844726562</ele>
        <time>2010-09-26T11:15:12Z</time>
      </trkpt>
      <trkpt lat="43.59477" lon="2.99068">
        <ele>1000.8696289062</ele>
        <time>2010-09-26T11:15:16Z</time>
      </trkpt>
      <trkpt lat="43.59483" lon="2.99056">
        <ele>1002.7922363281</ele>
        <time>2010-09-26T11:15:26Z</time>
      </trkpt>
      <trkpt lat="43.59488" lon="2.99049">
        <ele>1003.2729492188</ele>
        <time>2010-09-26T11:15:33Z</time>
      </trkpt>
      <trkpt lat="43.59491" lon="2.99037">
        <ele>1004.7150878906</ele>
        <time>2010-09-26T11:15:42Z</time>
      </trkpt>
      <trkpt lat="43.59496" lon="2.99026">
        <ele>1005.6765136719</ele>
        <time>2010-09-26T11:15:51Z</time>
      </trkpt>
      <trkpt lat="43.59501" lon="2.99019">
        <ele>1006.6376953125</ele>
        <time>2010-09-26T11:15:58Z</time>
      </trkpt>
      <trkpt lat="43.59506" lon="2.99011">
        <ele>1006.1569824219</ele>
        <time>2010-09-26T11:16:07Z</time>
      </trkpt>
      <trkpt lat="43.59509" lon="2.99007">
        <ele>1007.1184082031</ele>
        <time>2010-09-26T11:16:13Z</time>
      </trkpt>
      <trkpt lat="43.59513" lon="2.99002">
        <ele>1007.5991210938</ele>
        <time>2010-09-26T11:16:20Z</time>
      </trkpt>
      <trkpt lat="43.59517" lon="2.98999">
        <ele>1008.0798339844</ele>
        <time>2010-09-26T11:16:26Z</time>
      </trkpt>
      <trkpt lat="43.59523" lon="2.98995">
        <ele>1009.041015625</ele>
        <time>2010-09-26T11:16:33Z</time>
      </trkpt>
      <trkpt lat="43.59528" lon="2.98992">
        <ele>1010.0021972656</ele>
        <time>2010-09-26T11:16:39Z</time>
      </trkpt>
      <trkpt lat="43.59536" lon="2.98992">
        <ele>1010.4829101562</ele>
        <time>2010-09-26T11:16:47Z</time>
      </trkpt>
      <trkpt lat="43.59543" lon="2.98994">
        <ele>1010.0021972656</ele>
        <time>2010-09-26T11:16:54Z</time>
      </trkpt>
      <trkpt lat="43.59547" lon="2.98993">
        <ele>1010.0021972656</ele>
        <time>2010-09-26T11:16:58Z</time>
      </trkpt>
      <trkpt lat="43.59558" lon="2.98988">
        <ele>1009.041015625</ele>
        <time>2010-09-26T11:17:09Z</time>
      </trkpt>
      <trkpt lat="43.5957" lon="2.98987">
        <ele>1009.041015625</ele>
        <time>2010-09-26T11:17:19Z</time>
      </trkpt>
      <trkpt lat="43.5958" lon="2.98988">
        <ele>1010.4829101562</ele>
        <time>2010-09-26T11:17:29Z</time>
      </trkpt>
      <trkpt lat="43.59587" lon="2.9899">
        <ele>1010.9636230469</ele>
        <time>2010-09-26T11:17:36Z</time>
      </trkpt>
      <trkpt lat="43.59595" lon="2.98991">
        <ele>1011.4443359375</ele>
        <time>2010-09-26T11:17:45Z</time>
      </trkpt>
      <trkpt lat="43.59605" lon="2.98989">
        <ele>1011.4443359375</ele>
        <time>2010-09-26T11:17:55Z</time>
      </trkpt>
      <trkpt lat="43.59606" lon="2.98988">
        <ele>1011.4443359375</ele>
        <time>2010-09-26T11:17:56Z</time>
      </trkpt>
      <trkpt lat="43.5961" lon="2.98988">
        <ele>1011.9250488281</ele>
        <time>2010-09-26T11:18:00Z</time>
      </trkpt>
      <trkpt lat="43.59618" lon="2.98989">
        <ele>1012.4055175781</ele>
        <time>2010-09-26T11:18:08Z</time>
      </trkpt>
      <trkpt lat="43.59623" lon="2.98987">
        <ele>1012.8862304688</ele>
        <time>2010-09-26T11:18:13Z</time>
      </trkpt>
      <trkpt lat="43.59631" lon="2.98979">
        <ele>1011.4443359375</ele>
        <time>2010-09-26T11:18:22Z</time>
      </trkpt>
      <trkpt lat="43.59635" lon="2.98978">
        <ele>1011.9250488281</ele>
        <time>2010-09-26T11:18:26Z</time>
      </trkpt>
      <trkpt lat="43.59639" lon="2.98981">
        <ele>1013.3669433594</ele>
        <time>2010-09-26T11:18:32Z</time>
      </trkpt>
      <trkpt lat="43.59647" lon="2.98983">
        <ele>1013.3669433594</ele>
        <time>2010-09-26T11:18:39Z</time>
      </trkpt>
      <trkpt lat="43.59649" lon="2.98983">
        <ele>1013.3669433594</ele>
        <time>2010-09-26T11:18:41Z</time>
      </trkpt>
      <trkpt lat="43.59651" lon="2.98985">
        <ele>1013.3669433594</ele>
        <time>2010-09-26T11:18:44Z</time>
      </trkpt>
      <trkpt lat="43.59657" lon="2.98987">
        <ele>1014.328125</ele>
        <time>2010-09-26T11:18:49Z</time>
      </trkpt>
      <trkpt lat="43.59665" lon="2.98993">
        <ele>1015.2895507812</ele>
        <time>2010-09-26T11:18:58Z</time>
      </trkpt>
      <trkpt lat="43.5967" lon="2.98993">
        <ele>1017.2121582031</ele>
        <time>2010-09-26T11:19:04Z</time>
      </trkpt>
      <trkpt lat="43.59676" lon="2.98994">
        <ele>1018.6540527344</ele>
        <time>2010-09-26T11:19:12Z</time>
      </trkpt>
      <trkpt lat="43.59681" lon="2.98992">
        <ele>1019.6154785156</ele>
        <time>2010-09-26T11:19:19Z</time>
      </trkpt>
      <trkpt lat="43.59687" lon="2.98988">
        <ele>1018.6540527344</ele>
        <time>2010-09-26T11:19:27Z</time>
      </trkpt>
      <trkpt lat="43.59694" lon="2.98983">
        <ele>1016.7314453125</ele>
        <time>2010-09-26T11:19:35Z</time>
      </trkpt>
      <trkpt lat="43.59696" lon="2.98981">
        <ele>1016.2507324219</ele>
        <time>2010-09-26T11:19:37Z</time>
      </trkpt>
      <trkpt lat="43.59702" lon="2.98971">
        <ele>1014.8088378906</ele>
        <time>2010-09-26T11:19:46Z</time>
      </trkpt>
      <trkpt lat="43.59702" lon="2.9897">
        <ele>1014.8088378906</ele>
        <time>2010-09-26T11:19:47Z</time>
      </trkpt>
      <trkpt lat="43.59703" lon="2.98965">
        <ele>1012.8862304688</ele>
        <time>2010-09-26T11:19:52Z</time>
      </trkpt>
      <trkpt lat="43.59702" lon="2.98958">
        <ele>1010.0021972656</ele>
        <time>2010-09-26T11:19:59Z</time>
      </trkpt>
      <trkpt lat="43.59703" lon="2.98951">
        <ele>1009.5217285156</ele>
        <time>2010-09-26T11:20:04Z</time>
      </trkpt>
      <trkpt lat="43.59707" lon="2.98947">
        <ele>1009.041015625</ele>
        <time>2010-09-26T11:20:09Z</time>
      </trkpt>
      <trkpt lat="43.59709" lon="2.98943">
        <ele>1010.0021972656</ele>
        <time>2010-09-26T11:20:13Z</time>
      </trkpt>
      <trkpt lat="43.59713" lon="2.98938">
        <ele>1008.5603027344</ele>
        <time>2010-09-26T11:20:18Z</time>
      </trkpt>
      <trkpt lat="43.59714" lon="2.98937">
        <ele>1008.5603027344</ele>
        <time>2010-09-26T11:20:19Z</time>
      </trkpt>
      <trkpt lat="43.59718" lon="2.98931">
        <ele>1008.0798339844</ele>
        <time>2010-09-26T11:20:25Z</time>
      </trkpt>
      <trkpt lat="43.59721" lon="2.98926">
        <ele>1007.1184082031</ele>
        <time>2010-09-26T11:20:30Z</time>
      </trkpt>
      <trkpt lat="43.59725" lon="2.98921">
        <ele>1006.6376953125</ele>
        <time>2010-09-26T11:20:35Z</time>
      </trkpt>
      <trkpt lat="43.59728" lon="2.98917">
        <ele>1007.1184082031</ele>
        <time>2010-09-26T11:20:38Z</time>
      </trkpt>
      <trkpt lat="43.59732" lon="2.98917">
        <ele>1003.7536621094</ele>
        <time>2010-09-26T11:20:42Z</time>
      </trkpt>
      <trkpt lat="43.59737" lon="2.98913">
        <ele>1004.2346191406</ele>
        <time>2010-09-26T11:20:48Z</time>
      </trkpt>
      <trkpt lat="43.59742" lon="2.9891">
        <ele>1006.1569824219</ele>
        <time>2010-09-26T11:20:56Z</time>
      </trkpt>
      <trkpt lat="43.59745" lon="2.98907">
        <ele>1005.6765136719</ele>
        <time>2010-09-26T11:21:02Z</time>
      </trkpt>
      <trkpt lat="43.59743" lon="2.98905">
        <ele>1005.1958007812</ele>
        <time>2010-09-26T11:21:05Z</time>
      </trkpt>
      <trkpt lat="43.59741" lon="2.98898">
        <ele>1004.2346191406</ele>
        <time>2010-09-26T11:21:09Z</time>
      </trkpt>
      <trkpt lat="43.5974" lon="2.98894">
        <ele>1007.1184082031</ele>
        <time>2010-09-26T11:21:11Z</time>
      </trkpt>
      <trkpt lat="43.59739" lon="2.98889">
        <ele>1010.0021972656</ele>
        <time>2010-09-26T11:21:16Z</time>
      </trkpt>
      <trkpt lat="43.59736" lon="2.98884">
        <ele>1010.0021972656</ele>
        <time>2010-09-26T11:21:20Z</time>
      </trkpt>
      <trkpt lat="43.59733" lon="2.98879">
        <ele>1009.041015625</ele>
        <time>2010-09-26T11:21:24Z</time>
      </trkpt>
      <trkpt lat="43.59729" lon="2.98874">
        <ele>1009.041015625</ele>
        <time>2010-09-26T11:21:29Z</time>
      </trkpt>
      <trkpt lat="43.59725" lon="2.98869">
        <ele>1008.5603027344</ele>
        <time>2010-09-26T11:21:35Z</time>
      </trkpt>
      <trkpt lat="43.59726" lon="2.98863">
        <ele>1009.5217285156</ele>
        <time>2010-09-26T11:21:40Z</time>
      </trkpt>
      <trkpt lat="43.59723" lon="2.98853">
        <ele>1009.041015625</ele>
        <time>2010-09-26T11:21:48Z</time>
      </trkpt>
      <trkpt lat="43.59718" lon="2.98845">
        <ele>1008.5603027344</ele>
        <time>2010-09-26T11:21:56Z</time>
      </trkpt>
      <trkpt lat="43.59715" lon="2.98838">
        <ele>1007.5991210938</ele>
        <time>2010-09-26T11:22:04Z</time>
      </trkpt>
      <trkpt lat="43.59714" lon="2.98831">
        <ele>1008.5603027344</ele>
        <time>2010-09-26T11:22:11Z</time>
      </trkpt>
      <trkpt lat="43.59709" lon="2.98824">
        <ele>1010.4829101562</ele>
        <time>2010-09-26T11:22:19Z</time>
      </trkpt>
      <trkpt lat="43.59705" lon="2.98818">
        <ele>1013.3669433594</ele>
        <time>2010-09-26T11:22:25Z</time>
      </trkpt>
      <trkpt lat="43.59701" lon="2.98813">
        <ele>1015.2895507812</ele>
        <time>2010-09-26T11:22:31Z</time>
      </trkpt>
      <trkpt lat="43.59692" lon="2.98802">
        <ele>1018.1733398438</ele>
        <time>2010-09-26T11:22:41Z</time>
      </trkpt>
      <trkpt lat="43.59685" lon="2.98794">
        <ele>1019.6154785156</ele>
        <time>2010-09-26T11:22:49Z</time>
      </trkpt>
      <trkpt lat="43.59679" lon="2.98788">
        <ele>1021.0576171875</ele>
        <time>2010-09-26T11:22:56Z</time>
      </trkpt>
      <trkpt lat="43.59674" lon="2.98781">
        <ele>1023.94140625</ele>
        <time>2010-09-26T11:23:03Z</time>
      </trkpt>
      <trkpt lat="43.59669" lon="2.98773">
        <ele>1025.8640136719</ele>
        <time>2010-09-26T11:23:12Z</time>
      </trkpt>
      <trkpt lat="43.59667" lon="2.98769">
        <ele>1025.8640136719</ele>
        <time>2010-09-26T11:23:17Z</time>
      </trkpt>
      <trkpt lat="43.59665" lon="2.98761">
        <ele>1027.3061523438</ele>
        <time>2010-09-26T11:23:23Z</time>
      </trkpt>
      <trkpt lat="43.59664" lon="2.98754">
        <ele>1028.748046875</ele>
        <time>2010-09-26T11:23:29Z</time>
      </trkpt>
      <trkpt lat="43.59663" lon="2.98749">
        <ele>1029.7092285156</ele>
        <time>2010-09-26T11:23:33Z</time>
      </trkpt>
      <trkpt lat="43.59664" lon="2.98743">
        <ele>1031.6318359375</ele>
        <time>2010-09-26T11:23:39Z</time>
      </trkpt>
      <trkpt lat="43.59663" lon="2.98738">
        <ele>1032.1125488281</ele>
        <time>2010-09-26T11:23:43Z</time>
      </trkpt>
      <trkpt lat="43.59664" lon="2.98733">
        <ele>1033.0737304688</ele>
        <time>2010-09-26T11:23:48Z</time>
      </trkpt>
      <trkpt lat="43.59664" lon="2.98726">
        <ele>1033.5544433594</ele>
        <time>2010-09-26T11:23:54Z</time>
      </trkpt>
      <trkpt lat="43.59664" lon="2.98717">
        <ele>1034.03515625</ele>
        <time>2010-09-26T11:24:02Z</time>
      </trkpt>
      <trkpt lat="43.59664" lon="2.98706">
        <ele>1034.5158691406</ele>
        <time>2010-09-26T11:24:11Z</time>
      </trkpt>
      <trkpt lat="43.59666" lon="2.987">
        <ele>1035.4770507812</ele>
        <time>2010-09-26T11:24:18Z</time>
      </trkpt>
      <trkpt lat="43.59666" lon="2.98693">
        <ele>1035.4770507812</ele>
        <time>2010-09-26T11:24:24Z</time>
      </trkpt>
      <trkpt lat="43.59669" lon="2.98689">
        <ele>1035.9577636719</ele>
        <time>2010-09-26T11:24:29Z</time>
      </trkpt>
      <trkpt lat="43.59671" lon="2.98686">
        <ele>1036.4387207031</ele>
        <time>2010-09-26T11:24:32Z</time>
      </trkpt>
      <trkpt lat="43.59673" lon="2.98679">
        <ele>1037.8806152344</ele>
        <time>2010-09-26T11:24:39Z</time>
      </trkpt>
      <trkpt lat="43.59674" lon="2.98675">
        <ele>1038.361328125</ele>
        <time>2010-09-26T11:24:44Z</time>
      </trkpt>
      <trkpt lat="43.59676" lon="2.98671">
        <ele>1039.3225097656</ele>
        <time>2010-09-26T11:24:50Z</time>
      </trkpt>
      <trkpt lat="43.59677" lon="2.98668">
        <ele>1040.2839355469</ele>
        <time>2010-09-26T11:24:57Z</time>
      </trkpt>
      <trkpt lat="43.59678" lon="2.98662">
        <ele>1040.7644042969</ele>
        <time>2010-09-26T11:25:04Z</time>
      </trkpt>
      <trkpt lat="43.5968" lon="2.98658">
        <ele>1040.2839355469</ele>
        <time>2010-09-26T11:25:10Z</time>
      </trkpt>
      <trkpt lat="43.59682" lon="2.98653">
        <ele>1039.3225097656</ele>
        <time>2010-09-26T11:25:15Z</time>
      </trkpt>
      <trkpt lat="43.59682" lon="2.98652">
        <ele>1038.8420410156</ele>
        <time>2010-09-26T11:25:19Z</time>
      </trkpt>
      <trkpt lat="43.59681" lon="2.9865">
        <ele>1037.3999023438</ele>
        <time>2010-09-26T11:25:26Z</time>
      </trkpt>
      <trkpt lat="43.5968" lon="2.98646">
        <ele>1036.9191894531</ele>
        <time>2010-09-26T11:25:33Z</time>
      </trkpt>
      <trkpt lat="43.59678" lon="2.9864">
        <ele>1034.5158691406</ele>
        <time>2010-09-26T11:25:39Z</time>
      </trkpt>
      <trkpt lat="43.59675" lon="2.98638">
        <ele>1034.5158691406</ele>
        <time>2010-09-26T11:25:43Z</time>
      </trkpt>
      <trkpt lat="43.59671" lon="2.98634">
        <ele>1033.5544433594</ele>
        <time>2010-09-26T11:25:49Z</time>
      </trkpt>
      <trkpt lat="43.59674" lon="2.98632">
        <ele>1032.5932617188</ele>
        <time>2010-09-26T11:25:54Z</time>
      </trkpt>
      <trkpt lat="43.59672" lon="2.98627">
        <ele>1031.1513671875</ele>
        <time>2010-09-26T11:25:59Z</time>
      </trkpt>
      <trkpt lat="43.59669" lon="2.98625">
        <ele>1030.1899414062</ele>
        <time>2010-09-26T11:26:04Z</time>
      </trkpt>
      <trkpt lat="43.59665" lon="2.98622">
        <ele>1028.748046875</ele>
        <time>2010-09-26T11:26:10Z</time>
      </trkpt>
      <trkpt lat="43.59663" lon="2.98618">
        <ele>1027.3061523438</ele>
        <time>2010-09-26T11:26:15Z</time>
      </trkpt>
      <trkpt lat="43.5966" lon="2.98613">
        <ele>1026.3447265625</ele>
        <time>2010-09-26T11:26:20Z</time>
      </trkpt>
      <trkpt lat="43.59656" lon="2.98611">
        <ele>1023.94140625</ele>
        <time>2010-09-26T11:26:26Z</time>
      </trkpt>
      <trkpt lat="43.59656" lon="2.98607">
        <ele>1021.5380859375</ele>
        <time>2010-09-26T11:26:31Z</time>
      </trkpt>
      <trkpt lat="43.59651" lon="2.98609">
        <ele>1020.0961914062</ele>
        <time>2010-09-26T11:26:36Z</time>
      </trkpt>
      <trkpt lat="43.59649" lon="2.98609">
        <ele>1018.1733398438</ele>
        <time>2010-09-26T11:26:41Z</time>
      </trkpt>
      <trkpt lat="43.59644" lon="2.98605">
        <ele>1016.7314453125</ele>
        <time>2010-09-26T11:26:46Z</time>
      </trkpt>
      <trkpt lat="43.59641" lon="2.98606">
        <ele>1016.2507324219</ele>
        <time>2010-09-26T11:26:49Z</time>
      </trkpt>
      <trkpt lat="43.59635" lon="2.98607">
        <ele>1015.2895507812</ele>
        <time>2010-09-26T11:26:53Z</time>
      </trkpt>
      <trkpt lat="43.59626" lon="2.98603">
        <ele>1013.8474121094</ele>
        <time>2010-09-26T11:27:01Z</time>
      </trkpt>
      <trkpt lat="43.59622" lon="2.98601">
        <ele>1011.9250488281</ele>
        <time>2010-09-26T11:27:05Z</time>
      </trkpt>
      <trkpt lat="43.59619" lon="2.986">
        <ele>1011.9250488281</ele>
        <time>2010-09-26T11:27:07Z</time>
      </trkpt>
      <trkpt lat="43.59614" lon="2.98595">
        <ele>1010.4829101562</ele>
        <time>2010-09-26T11:27:11Z</time>
      </trkpt>
      <trkpt lat="43.5961" lon="2.98591">
        <ele>1008.5603027344</ele>
        <time>2010-09-26T11:27:16Z</time>
      </trkpt>
      <trkpt lat="43.59608" lon="2.98588">
        <ele>1004.2346191406</ele>
        <time>2010-09-26T11:27:22Z</time>
      </trkpt>
      <trkpt lat="43.59608" lon="2.98578">
        <ele>1000.3891601562</ele>
        <time>2010-09-26T11:27:27Z</time>
      </trkpt>
      <trkpt lat="43.5961" lon="2.98574">
        <ele>997.98583984375</ele>
        <time>2010-09-26T11:27:30Z</time>
      </trkpt>
      <trkpt lat="43.59612" lon="2.98567">
        <ele>997.98583984375</ele>
        <time>2010-09-26T11:27:37Z</time>
      </trkpt>
      <trkpt lat="43.59614" lon="2.98564">
        <ele>997.0244140625</ele>
        <time>2010-09-26T11:27:42Z</time>
      </trkpt>
      <trkpt lat="43.59613" lon="2.98554">
        <ele>997.98583984375</ele>
        <time>2010-09-26T11:27:47Z</time>
      </trkpt>
      <trkpt lat="43.59615" lon="2.98548">
        <ele>997.0244140625</ele>
        <time>2010-09-26T11:27:50Z</time>
      </trkpt>
      <trkpt lat="43.59613" lon="2.98545">
        <ele>999.427734375</ele>
        <time>2010-09-26T11:27:56Z</time>
      </trkpt>
      <trkpt lat="43.59608" lon="2.98544">
        <ele>1001.8310546875</ele>
        <time>2010-09-26T11:28:03Z</time>
      </trkpt>
      <trkpt lat="43.59603" lon="2.98547">
        <ele>1003.7536621094</ele>
        <time>2010-09-26T11:28:09Z</time>
      </trkpt>
      <trkpt lat="43.59598" lon="2.98545">
        <ele>1004.2346191406</ele>
        <time>2010-09-26T11:28:14Z</time>
      </trkpt>
      <trkpt lat="43.59595" lon="2.98541">
        <ele>1006.1569824219</ele>
        <time>2010-09-26T11:28:21Z</time>
      </trkpt>
      <trkpt lat="43.59592" lon="2.98541">
        <ele>1007.5991210938</ele>
        <time>2010-09-26T11:28:26Z</time>
      </trkpt>
      <trkpt lat="43.59587" lon="2.98539">
        <ele>1008.0798339844</ele>
        <time>2010-09-26T11:28:32Z</time>
      </trkpt>
      <trkpt lat="43.59582" lon="2.98535">
        <ele>1008.5603027344</ele>
        <time>2010-09-26T11:28:39Z</time>
      </trkpt>
      <trkpt lat="43.59575" lon="2.98532">
        <ele>1009.041015625</ele>
        <time>2010-09-26T11:28:47Z</time>
      </trkpt>
      <trkpt lat="43.59573" lon="2.98532">
        <ele>1009.041015625</ele>
        <time>2010-09-26T11:28:49Z</time>
      </trkpt>
      <trkpt lat="43.59565" lon="2.98538">
        <ele>1009.041015625</ele>
        <time>2010-09-26T11:28:55Z</time>
      </trkpt>
      <trkpt lat="43.59563" lon="2.98539">
        <ele>1009.041015625</ele>
        <time>2010-09-26T11:28:56Z</time>
      </trkpt>
      <trkpt lat="43.59559" lon="2.98544">
        <ele>1009.5217285156</ele>
        <time>2010-09-26T11:29:01Z</time>
      </trkpt>
      <trkpt lat="43.59556" lon="2.98551">
        <ele>1009.5217285156</ele>
        <time>2010-09-26T11:29:06Z</time>
      </trkpt>
      <trkpt lat="43.5955" lon="2.9856">
        <ele>1010.0021972656</ele>
        <time>2010-09-26T11:29:10Z</time>
      </trkpt>
      <trkpt lat="43.59536" lon="2.98574">
        <ele>1008.5603027344</ele>
        <time>2010-09-26T11:29:17Z</time>
      </trkpt>
      <trkpt lat="43.59534" lon="2.98576">
        <ele>1008.5603027344</ele>
        <time>2010-09-26T11:29:18Z</time>
      </trkpt>
      <trkpt lat="43.59528" lon="2.98577">
        <ele>1007.1184082031</ele>
        <time>2010-09-26T11:29:22Z</time>
      </trkpt>
      <trkpt lat="43.59517" lon="2.98585">
        <ele>1004.7150878906</ele>
        <time>2010-09-26T11:29:28Z</time>
      </trkpt>
      <trkpt lat="43.59513" lon="2.98588">
        <ele>1004.7150878906</ele>
        <time>2010-09-26T11:29:30Z</time>
      </trkpt>
      <trkpt lat="43.59512" lon="2.98591">
        <ele>1003.7536621094</ele>
        <time>2010-09-26T11:29:32Z</time>
      </trkpt>
      <trkpt lat="43.59504" lon="2.98601">
        <ele>1002.7922363281</ele>
        <time>2010-09-26T11:29:37Z</time>
      </trkpt>
      <trkpt lat="43.59492" lon="2.98606">
        <ele>1000.8696289062</ele>
        <time>2010-09-26T11:29:42Z</time>
      </trkpt>
      <trkpt lat="43.59484" lon="2.98613">
        <ele>999.427734375</ele>
        <time>2010-09-26T11:29:47Z</time>
      </trkpt>
      <trkpt lat="43.59481" lon="2.98616">
        <ele>999.427734375</ele>
        <time>2010-09-26T11:29:49Z</time>
      </trkpt>
      <trkpt lat="43.59475" lon="2.9862">
        <ele>999.427734375</ele>
        <time>2010-09-26T11:29:52Z</time>
      </trkpt>
      <trkpt lat="43.5947" lon="2.98627">
        <ele>999.427734375</ele>
        <time>2010-09-26T11:29:56Z</time>
      </trkpt>
      <trkpt lat="43.59464" lon="2.9863">
        <ele>998.94702148438</ele>
        <time>2010-09-26T11:30:01Z</time>
      </trkpt>
      <trkpt lat="43.5946" lon="2.98623">
        <ele>997.98583984375</ele>
        <time>2010-09-26T11:30:06Z</time>
      </trkpt>
      <trkpt lat="43.59459" lon="2.9861">
        <ele>998.94702148438</ele>
        <time>2010-09-26T11:30:15Z</time>
      </trkpt>
      <trkpt lat="43.59459" lon="2.98606">
        <ele>998.94702148438</ele>
        <time>2010-09-26T11:30:20Z</time>
      </trkpt>
      <trkpt lat="43.59458" lon="2.98597">
        <ele>999.427734375</ele>
        <time>2010-09-26T11:30:28Z</time>
      </trkpt>
      <trkpt lat="43.59456" lon="2.98584">
        <ele>1000.8696289062</ele>
        <time>2010-09-26T11:30:37Z</time>
      </trkpt>
      <trkpt lat="43.59455" lon="2.98573">
        <ele>1002.3115234375</ele>
        <time>2010-09-26T11:30:45Z</time>
      </trkpt>
      <trkpt lat="43.59455" lon="2.98561">
        <ele>1003.2729492188</ele>
        <time>2010-09-26T11:30:53Z</time>
      </trkpt>
      <trkpt lat="43.59454" lon="2.98553">
        <ele>1003.2729492188</ele>
        <time>2010-09-26T11:30:59Z</time>
      </trkpt>
      <trkpt lat="43.59452" lon="2.98551">
        <ele>1005.6765136719</ele>
        <time>2010-09-26T11:31:01Z</time>
      </trkpt>
      <trkpt lat="43.59452" lon="2.98544">
        <ele>1007.5991210938</ele>
        <time>2010-09-26T11:31:05Z</time>
      </trkpt>
      <trkpt lat="43.59452" lon="2.98528">
        <ele>1007.1184082031</ele>
        <time>2010-09-26T11:31:15Z</time>
      </trkpt>
      <trkpt lat="43.59452" lon="2.98527">
        <ele>1007.1184082031</ele>
        <time>2010-09-26T11:31:16Z</time>
      </trkpt>
      <trkpt lat="43.5945" lon="2.98517">
        <ele>1009.041015625</ele>
        <time>2010-09-26T11:31:23Z</time>
      </trkpt>
      <trkpt lat="43.59449" lon="2.98513">
        <ele>1010.0021972656</ele>
        <time>2010-09-26T11:31:26Z</time>
      </trkpt>
      <trkpt lat="43.59447" lon="2.98501">
        <ele>1009.041015625</ele>
        <time>2010-09-26T11:31:34Z</time>
      </trkpt>
      <trkpt lat="43.59447" lon="2.98489">
        <ele>1011.4443359375</ele>
        <time>2010-09-26T11:31:41Z</time>
      </trkpt>
      <trkpt lat="43.5945" lon="2.98479">
        <ele>1013.8474121094</ele>
        <time>2010-09-26T11:31:49Z</time>
      </trkpt>
      <trkpt lat="43.59449" lon="2.9847">
        <ele>1015.7702636719</ele>
        <time>2010-09-26T11:31:56Z</time>
      </trkpt>
      <trkpt lat="43.59449" lon="2.98462">
        <ele>1017.2121582031</ele>
        <time>2010-09-26T11:32:02Z</time>
      </trkpt>
      <trkpt lat="43.59448" lon="2.98452">
        <ele>1019.134765625</ele>
        <time>2010-09-26T11:32:09Z</time>
      </trkpt>
      <trkpt lat="43.59449" lon="2.9845">
        <ele>1018.1733398438</ele>
        <time>2010-09-26T11:32:10Z</time>
      </trkpt>
      <trkpt lat="43.59448" lon="2.98438">
        <ele>1020.0961914062</ele>
        <time>2010-09-26T11:32:17Z</time>
      </trkpt>
      <trkpt lat="43.59444" lon="2.9843">
        <ele>1022.0187988281</ele>
        <time>2010-09-26T11:32:23Z</time>
      </trkpt>
      <trkpt lat="43.59444" lon="2.98425">
        <ele>1023.4609375</ele>
        <time>2010-09-26T11:32:26Z</time>
      </trkpt>
      <trkpt lat="43.59444" lon="2.98416">
        <ele>1024.9028320312</ele>
        <time>2010-09-26T11:32:32Z</time>
      </trkpt>
      <trkpt lat="43.59447" lon="2.98408">
        <ele>1024.4221191406</ele>
        <time>2010-09-26T11:32:37Z</time>
      </trkpt>
      <trkpt lat="43.59448" lon="2.98402">
        <ele>1025.3833007812</ele>
        <time>2010-09-26T11:32:41Z</time>
      </trkpt>
      <trkpt lat="43.59448" lon="2.98391">
        <ele>1026.8254394531</ele>
        <time>2010-09-26T11:32:49Z</time>
      </trkpt>
      <trkpt lat="43.59446" lon="2.98384">
        <ele>1028.748046875</ele>
        <time>2010-09-26T11:32:55Z</time>
      </trkpt>
      <trkpt lat="43.59444" lon="2.98378">
        <ele>1030.6706542969</ele>
        <time>2010-09-26T11:33:01Z</time>
      </trkpt>
      <trkpt lat="43.59442" lon="2.9837">
        <ele>1031.6318359375</ele>
        <time>2010-09-26T11:33:09Z</time>
      </trkpt>
      <trkpt lat="43.59441" lon="2.98366">
        <ele>1033.5544433594</ele>
        <time>2010-09-26T11:33:13Z</time>
      </trkpt>
      <trkpt lat="43.5944" lon="2.98359">
        <ele>1035.4770507812</ele>
        <time>2010-09-26T11:33:19Z</time>
      </trkpt>
      <trkpt lat="43.59442" lon="2.9835">
        <ele>1037.3999023438</ele>
        <time>2010-09-26T11:33:26Z</time>
      </trkpt>
      <trkpt lat="43.59443" lon="2.98343">
        <ele>1038.8420410156</ele>
        <time>2010-09-26T11:33:33Z</time>
      </trkpt>
      <trkpt lat="43.59447" lon="2.98335">
        <ele>1040.2839355469</ele>
        <time>2010-09-26T11:33:40Z</time>
      </trkpt>
      <trkpt lat="43.59448" lon="2.9833">
        <ele>1041.2451171875</ele>
        <time>2010-09-26T11:33:45Z</time>
      </trkpt>
      <trkpt lat="43.5945" lon="2.9832">
        <ele>1041.7258300781</ele>
        <time>2010-09-26T11:33:51Z</time>
      </trkpt>
      <trkpt lat="43.59451" lon="2.98319">
        <ele>1042.2065429688</ele>
        <time>2010-09-26T11:33:52Z</time>
      </trkpt>
      <trkpt lat="43.59451" lon="2.98308">
        <ele>1041.7258300781</ele>
        <time>2010-09-26T11:34:00Z</time>
      </trkpt>
      <trkpt lat="43.59451" lon="2.98296">
        <ele>1043.1677246094</ele>
        <time>2010-09-26T11:34:08Z</time>
      </trkpt>
      <trkpt lat="43.59451" lon="2.98287">
        <ele>1044.6096191406</ele>
        <time>2010-09-26T11:34:14Z</time>
      </trkpt>
      <trkpt lat="43.5945" lon="2.98275">
        <ele>1043.6484375</ele>
        <time>2010-09-26T11:34:21Z</time>
      </trkpt>
      <trkpt lat="43.59449" lon="2.98266">
        <ele>1044.1291503906</ele>
        <time>2010-09-26T11:34:26Z</time>
      </trkpt>
      <trkpt lat="43.5945" lon="2.9826">
        <ele>1045.0903320312</ele>
        <time>2010-09-26T11:34:29Z</time>
      </trkpt>
      <trkpt lat="43.5945" lon="2.98255">
        <ele>1046.5324707031</ele>
        <time>2010-09-26T11:34:32Z</time>
      </trkpt>
      <trkpt lat="43.59451" lon="2.98244">
        <ele>1047.0129394531</ele>
        <time>2010-09-26T11:34:37Z</time>
      </trkpt>
      <trkpt lat="43.59448" lon="2.98237">
        <ele>1047.9743652344</ele>
        <time>2010-09-26T11:34:42Z</time>
      </trkpt>
      <trkpt lat="43.59448" lon="2.98235">
        <ele>1047.9743652344</ele>
        <time>2010-09-26T11:34:43Z</time>
      </trkpt>
      <trkpt lat="43.59448" lon="2.98231">
        <ele>1047.0129394531</ele>
        <time>2010-09-26T11:34:45Z</time>
      </trkpt>
      <trkpt lat="43.59446" lon="2.98225">
        <ele>1048.935546875</ele>
        <time>2010-09-26T11:34:49Z</time>
      </trkpt>
      <trkpt lat="43.59445" lon="2.98215">
        <ele>1047.4936523438</ele>
        <time>2010-09-26T11:34:55Z</time>
      </trkpt>
      <trkpt lat="43.5944" lon="2.98205">
        <ele>1051.8195800781</ele>
        <time>2010-09-26T11:35:02Z</time>
      </trkpt>
      <trkpt lat="43.59441" lon="2.98194">
        <ele>1049.8969726562</ele>
        <time>2010-09-26T11:35:08Z</time>
      </trkpt>
      <trkpt lat="43.59441" lon="2.98192">
        <ele>1050.3776855469</ele>
        <time>2010-09-26T11:35:09Z</time>
      </trkpt>
      <trkpt lat="43.59442" lon="2.98186">
        <ele>1049.4162597656</ele>
        <time>2010-09-26T11:35:12Z</time>
      </trkpt>
      <trkpt lat="43.59443" lon="2.98179">
        <ele>1048.935546875</ele>
        <time>2010-09-26T11:35:16Z</time>
      </trkpt>
      <trkpt lat="43.59444" lon="2.98176">
        <ele>1047.4936523438</ele>
        <time>2010-09-26T11:35:18Z</time>
      </trkpt>
      <trkpt lat="43.59444" lon="2.98169">
        <ele>1049.4162597656</ele>
        <time>2010-09-26T11:35:21Z</time>
      </trkpt>
      <trkpt lat="43.59443" lon="2.9816">
        <ele>1048.4548339844</ele>
        <time>2010-09-26T11:35:26Z</time>
      </trkpt>
      <trkpt lat="43.59442" lon="2.98156">
        <ele>1047.9743652344</ele>
        <time>2010-09-26T11:35:29Z</time>
      </trkpt>
      <trkpt lat="43.59443" lon="2.98148">
        <ele>1046.5324707031</ele>
        <time>2010-09-26T11:35:34Z</time>
      </trkpt>
      <trkpt lat="43.59441" lon="2.98132">
        <ele>1048.4548339844</ele>
        <time>2010-09-26T11:35:43Z</time>
      </trkpt>
      <trkpt lat="43.59439" lon="2.98124">
        <ele>1049.4162597656</ele>
        <time>2010-09-26T11:35:47Z</time>
      </trkpt>
      <trkpt lat="43.5944" lon="2.98113">
        <ele>1049.8969726562</ele>
        <time>2010-09-26T11:35:53Z</time>
      </trkpt>
      <trkpt lat="43.59442" lon="2.98107">
        <ele>1047.4936523438</ele>
        <time>2010-09-26T11:35:57Z</time>
      </trkpt>
      <trkpt lat="43.59442" lon="2.98101">
        <ele>1049.4162597656</ele>
        <time>2010-09-26T11:36:01Z</time>
      </trkpt>
      <trkpt lat="43.59441" lon="2.98088">
        <ele>1053.26171875</ele>
        <time>2010-09-26T11:36:08Z</time>
      </trkpt>
      <trkpt lat="43.59441" lon="2.9808">
        <ele>1055.6650390625</ele>
        <time>2010-09-26T11:36:13Z</time>
      </trkpt>
      <trkpt lat="43.59438" lon="2.98068">
        <ele>1061.4328613281</ele>
        <time>2010-09-26T11:36:21Z</time>
      </trkpt>
      <trkpt lat="43.59439" lon="2.98065">
        <ele>1062.3940429688</ele>
        <time>2010-09-26T11:36:23Z</time>
      </trkpt>
      <trkpt lat="43.59438" lon="2.98056">
        <ele>1061.4328613281</ele>
        <time>2010-09-26T11:36:28Z</time>
      </trkpt>
      <trkpt lat="43.59433" lon="2.98046">
        <ele>1061.4328613281</ele>
        <time>2010-09-26T11:36:35Z</time>
      </trkpt>
      <trkpt lat="43.59432" lon="2.98043">
        <ele>1061.4328613281</ele>
        <time>2010-09-26T11:36:37Z</time>
      </trkpt>
      <trkpt lat="43.59433" lon="2.9804">
        <ele>1061.9135742188</ele>
        <time>2010-09-26T11:36:39Z</time>
      </trkpt>
      <trkpt lat="43.59432" lon="2.98032">
        <ele>1059.9907226562</ele>
        <time>2010-09-26T11:36:44Z</time>
      </trkpt>
      <trkpt lat="43.5943" lon="2.98026">
        <ele>1059.5102539062</ele>
        <time>2010-09-26T11:36:48Z</time>
      </trkpt>
      <trkpt lat="43.5943" lon="2.98022">
        <ele>1059.5102539062</ele>
        <time>2010-09-26T11:36:50Z</time>
      </trkpt>
      <trkpt lat="43.59428" lon="2.9801">
        <ele>1061.4328613281</ele>
        <time>2010-09-26T11:36:56Z</time>
      </trkpt>
      <trkpt lat="43.59428" lon="2.98008">
        <ele>1061.4328613281</ele>
        <time>2010-09-26T11:36:57Z</time>
      </trkpt>
      <trkpt lat="43.5943" lon="2.97996">
        <ele>1061.9135742188</ele>
        <time>2010-09-26T11:37:04Z</time>
      </trkpt>
      <trkpt lat="43.59431" lon="2.97989">
        <ele>1062.3940429688</ele>
        <time>2010-09-26T11:37:08Z</time>
      </trkpt>
      <trkpt lat="43.59431" lon="2.97981">
        <ele>1064.3166503906</ele>
        <time>2010-09-26T11:37:13Z</time>
      </trkpt>
      <trkpt lat="43.59432" lon="2.97972">
        <ele>1064.3166503906</ele>
        <time>2010-09-26T11:37:18Z</time>
      </trkpt>
      <trkpt lat="43.5943" lon="2.97962">
        <ele>1063.35546875</ele>
        <time>2010-09-26T11:37:25Z</time>
      </trkpt>
      <trkpt lat="43.5943" lon="2.9796">
        <ele>1062.8747558594</ele>
        <time>2010-09-26T11:37:26Z</time>
      </trkpt>
      <trkpt lat="43.59431" lon="2.97956">
        <ele>1061.9135742188</ele>
        <time>2010-09-26T11:37:28Z</time>
      </trkpt>
      <trkpt lat="43.59433" lon="2.97947">
        <ele>1060.9521484375</ele>
        <time>2010-09-26T11:37:33Z</time>
      </trkpt>
      <trkpt lat="43.59432" lon="2.97937">
        <ele>1061.4328613281</ele>
        <time>2010-09-26T11:37:40Z</time>
      </trkpt>
      <trkpt lat="43.59431" lon="2.97933">
        <ele>1062.3940429688</ele>
        <time>2010-09-26T11:37:42Z</time>
      </trkpt>
      <trkpt lat="43.59431" lon="2.97924">
        <ele>1063.8359375</ele>
        <time>2010-09-26T11:37:46Z</time>
      </trkpt>
      <trkpt lat="43.59431" lon="2.97921">
        <ele>1063.8359375</ele>
        <time>2010-09-26T11:37:48Z</time>
      </trkpt>
      <trkpt lat="43.5943" lon="2.97911">
        <ele>1067.2006835938</ele>
        <time>2010-09-26T11:37:55Z</time>
      </trkpt>
      <trkpt lat="43.59431" lon="2.97899">
        <ele>1065.2780761719</ele>
        <time>2010-09-26T11:38:02Z</time>
      </trkpt>
      <trkpt lat="43.59432" lon="2.97888">
        <ele>1067.6811523438</ele>
        <time>2010-09-26T11:38:08Z</time>
      </trkpt>
      <trkpt lat="43.59432" lon="2.97876">
        <ele>1066.7199707031</ele>
        <time>2010-09-26T11:38:15Z</time>
      </trkpt>
      <trkpt lat="43.59432" lon="2.97873">
        <ele>1065.2780761719</ele>
        <time>2010-09-26T11:38:17Z</time>
      </trkpt>
      <trkpt lat="43.59431" lon="2.97859">
        <ele>1066.2392578125</ele>
        <time>2010-09-26T11:38:24Z</time>
      </trkpt>
      <trkpt lat="43.59431" lon="2.97858">
        <ele>1066.2392578125</ele>
        <time>2010-09-26T11:38:25Z</time>
      </trkpt>
      <trkpt lat="43.59431" lon="2.97854">
        <ele>1066.2392578125</ele>
        <time>2010-09-26T11:38:27Z</time>
      </trkpt>
      <trkpt lat="43.59432" lon="2.97844">
        <ele>1065.2780761719</ele>
        <time>2010-09-26T11:38:33Z</time>
      </trkpt>
      <trkpt lat="43.59431" lon="2.97834">
        <ele>1064.3166503906</ele>
        <time>2010-09-26T11:38:40Z</time>
      </trkpt>
      <trkpt lat="43.5943" lon="2.97827">
        <ele>1063.8359375</ele>
        <time>2010-09-26T11:38:47Z</time>
      </trkpt>
      <trkpt lat="43.59427" lon="2.97826">
        <ele>1064.3166503906</ele>
        <time>2010-09-26T11:38:52Z</time>
      </trkpt>
      <trkpt lat="43.5942" lon="2.97825">
        <ele>1064.7973632812</ele>
        <time>2010-09-26T11:39:01Z</time>
      </trkpt>
      <trkpt lat="43.59414" lon="2.97824">
        <ele>1064.3166503906</ele>
        <time>2010-09-26T11:39:09Z</time>
      </trkpt>
      <trkpt lat="43.59407" lon="2.97827">
        <ele>1063.35546875</ele>
        <time>2010-09-26T11:39:18Z</time>
      </trkpt>
      <trkpt lat="43.59401" lon="2.97829">
        <ele>1061.9135742188</ele>
        <time>2010-09-26T11:39:25Z</time>
      </trkpt>
      <trkpt lat="43.5939" lon="2.97832">
        <ele>1062.3940429688</ele>
        <time>2010-09-26T11:39:34Z</time>
      </trkpt>
      <trkpt lat="43.59382" lon="2.97832">
        <ele>1062.8747558594</ele>
        <time>2010-09-26T11:39:41Z</time>
      </trkpt>
      <trkpt lat="43.59371" lon="2.97836">
        <ele>1061.9135742188</ele>
        <time>2010-09-26T11:39:52Z</time>
      </trkpt>
      <trkpt lat="43.59362" lon="2.97837">
        <ele>1060.4714355469</ele>
        <time>2010-09-26T11:40:00Z</time>
      </trkpt>
      <trkpt lat="43.59356" lon="2.97839">
        <ele>1061.4328613281</ele>
        <time>2010-09-26T11:40:05Z</time>
      </trkpt>
      <trkpt lat="43.59346" lon="2.97842">
        <ele>1060.9521484375</ele>
        <time>2010-09-26T11:40:14Z</time>
      </trkpt>
      <trkpt lat="43.59341" lon="2.97842">
        <ele>1059.9907226562</ele>
        <time>2010-09-26T11:40:18Z</time>
      </trkpt>
      <trkpt lat="43.59329" lon="2.97847">
        <ele>1061.4328613281</ele>
        <time>2010-09-26T11:40:27Z</time>
      </trkpt>
      <trkpt lat="43.59327" lon="2.97847">
        <ele>1061.4328613281</ele>
        <time>2010-09-26T11:40:29Z</time>
      </trkpt>
      <trkpt lat="43.59319" lon="2.97848">
        <ele>1059.0295410156</ele>
        <time>2010-09-26T11:40:37Z</time>
      </trkpt>
      <trkpt lat="43.5931" lon="2.9785">
        <ele>1056.1455078125</ele>
        <time>2010-09-26T11:40:46Z</time>
      </trkpt>
      <trkpt lat="43.59301" lon="2.97853">
        <ele>1054.7036132812</ele>
        <time>2010-09-26T11:40:53Z</time>
      </trkpt>
      <trkpt lat="43.59293" lon="2.97854">
        <ele>1054.2231445312</ele>
        <time>2010-09-26T11:41:00Z</time>
      </trkpt>
      <trkpt lat="43.59288" lon="2.97854">
        <ele>1054.7036132812</ele>
        <time>2010-09-26T11:41:04Z</time>
      </trkpt>
      <trkpt lat="43.59282" lon="2.97855">
        <ele>1055.1843261719</ele>
        <time>2010-09-26T11:41:10Z</time>
      </trkpt>
      <trkpt lat="43.59275" lon="2.97857">
        <ele>1056.6262207031</ele>
        <time>2010-09-26T11:41:15Z</time>
      </trkpt>
      <trkpt lat="43.59273" lon="2.97856">
        <ele>1056.6262207031</ele>
        <time>2010-09-26T11:41:17Z</time>
      </trkpt>
      <trkpt lat="43.59262" lon="2.97858">
        <ele>1057.1069335938</ele>
        <time>2010-09-26T11:41:24Z</time>
      </trkpt>
      <trkpt lat="43.59262" lon="2.97857">
        <ele>1056.6262207031</ele>
        <time>2010-09-26T11:41:25Z</time>
      </trkpt>
      <trkpt lat="43.59253" lon="2.97859">
        <ele>1056.6262207031</ele>
        <time>2010-09-26T11:41:32Z</time>
      </trkpt>
      <trkpt lat="43.59244" lon="2.97865">
        <ele>1056.1455078125</ele>
        <time>2010-09-26T11:41:40Z</time>
      </trkpt>
      <trkpt lat="43.59238" lon="2.97866">
        <ele>1055.1843261719</ele>
        <time>2010-09-26T11:41:44Z</time>
      </trkpt>
      <trkpt lat="43.59232" lon="2.97866">
        <ele>1051.3388671875</ele>
        <time>2010-09-26T11:41:51Z</time>
      </trkpt>
      <trkpt lat="43.59231" lon="2.97867">
        <ele>1050.8581542969</ele>
        <time>2010-09-26T11:41:52Z</time>
      </trkpt>
      <trkpt lat="43.59227" lon="2.97868">
        <ele>1050.8581542969</ele>
        <time>2010-09-26T11:41:56Z</time>
      </trkpt>
      <trkpt lat="43.59222" lon="2.9787">
        <ele>1048.935546875</ele>
        <time>2010-09-26T11:42:02Z</time>
      </trkpt>
      <trkpt lat="43.59218" lon="2.97872">
        <ele>1046.5324707031</ele>
        <time>2010-09-26T11:42:06Z</time>
      </trkpt>
      <trkpt lat="43.59214" lon="2.97873">
        <ele>1046.0517578125</ele>
        <time>2010-09-26T11:42:09Z</time>
      </trkpt>
      <trkpt lat="43.59207" lon="2.97874">
        <ele>1046.0517578125</ele>
        <time>2010-09-26T11:42:15Z</time>
      </trkpt>
      <trkpt lat="43.59204" lon="2.97874">
        <ele>1044.6096191406</ele>
        <time>2010-09-26T11:42:18Z</time>
      </trkpt>
      <trkpt lat="43.59195" lon="2.97878">
        <ele>1044.1291503906</ele>
        <time>2010-09-26T11:42:25Z</time>
      </trkpt>
      <trkpt lat="43.59188" lon="2.97879">
        <ele>1044.6096191406</ele>
        <time>2010-09-26T11:42:31Z</time>
      </trkpt>
      <trkpt lat="43.59178" lon="2.97882">
        <ele>1045.5710449219</ele>
        <time>2010-09-26T11:42:38Z</time>
      </trkpt>
      <trkpt lat="43.59168" lon="2.97882">
        <ele>1045.0903320312</ele>
        <time>2010-09-26T11:42:46Z</time>
      </trkpt>
      <trkpt lat="43.59161" lon="2.97884">
        <ele>1045.0903320312</ele>
        <time>2010-09-26T11:42:52Z</time>
      </trkpt>
      <trkpt lat="43.59157" lon="2.97885">
        <ele>1044.1291503906</ele>
        <time>2010-09-26T11:42:56Z</time>
      </trkpt>
      <trkpt lat="43.59149" lon="2.97887">
        <ele>1044.1291503906</ele>
        <time>2010-09-26T11:43:03Z</time>
      </trkpt>
      <trkpt lat="43.5914" lon="2.97889">
        <ele>1043.6484375</ele>
        <time>2010-09-26T11:43:10Z</time>
      </trkpt>
      <trkpt lat="43.59129" lon="2.9789">
        <ele>1041.7258300781</ele>
        <time>2010-09-26T11:43:19Z</time>
      </trkpt>
      <trkpt lat="43.59121" lon="2.97891">
        <ele>1038.8420410156</ele>
        <time>2010-09-26T11:43:28Z</time>
      </trkpt>
      <trkpt lat="43.59113" lon="2.9789">
        <ele>1037.3999023438</ele>
        <time>2010-09-26T11:43:37Z</time>
      </trkpt>
      <trkpt lat="43.59104" lon="2.9789">
        <ele>1036.9191894531</ele>
        <time>2010-09-26T11:43:46Z</time>
      </trkpt>
      <trkpt lat="43.59095" lon="2.979">
        <ele>1037.3999023438</ele>
        <time>2010-09-26T11:43:56Z</time>
      </trkpt>
      <trkpt lat="43.59087" lon="2.97906">
        <ele>1037.3999023438</ele>
        <time>2010-09-26T11:44:04Z</time>
      </trkpt>
      <trkpt lat="43.59086" lon="2.97906">
        <ele>1037.8806152344</ele>
        <time>2010-09-26T11:44:05Z</time>
      </trkpt>
      <trkpt lat="43.59082" lon="2.97908">
        <ele>1036.9191894531</ele>
        <time>2010-09-26T11:44:13Z</time>
      </trkpt>
      <trkpt lat="43.59079" lon="2.97908">
        <ele>1034.5158691406</ele>
        <time>2010-09-26T11:44:18Z</time>
      </trkpt>
      <trkpt lat="43.59077" lon="2.97902">
        <ele>1033.0737304688</ele>
        <time>2010-09-26T11:44:21Z</time>
      </trkpt>
      <trkpt lat="43.59074" lon="2.97904">
        <ele>1033.0737304688</ele>
        <time>2010-09-26T11:44:23Z</time>
      </trkpt>
      <trkpt lat="43.59069" lon="2.9791">
        <ele>1034.5158691406</ele>
        <time>2010-09-26T11:44:28Z</time>
      </trkpt>
      <trkpt lat="43.5906" lon="2.97912">
        <ele>1034.5158691406</ele>
        <time>2010-09-26T11:44:37Z</time>
      </trkpt>
      <trkpt lat="43.59055" lon="2.97913">
        <ele>1033.0737304688</ele>
        <time>2010-09-26T11:44:43Z</time>
      </trkpt>
      <trkpt lat="43.5905" lon="2.97914">
        <ele>1033.0737304688</ele>
        <time>2010-09-26T11:44:49Z</time>
      </trkpt>
      <trkpt lat="43.59045" lon="2.97913">
        <ele>1034.03515625</ele>
        <time>2010-09-26T11:44:55Z</time>
      </trkpt>
      <trkpt lat="43.59044" lon="2.97911">
        <ele>1034.9965820312</ele>
        <time>2010-09-26T11:45:00Z</time>
      </trkpt>
      <trkpt lat="43.59043" lon="2.97911">
        <ele>1035.9577636719</ele>
        <time>2010-09-26T11:45:07Z</time>
      </trkpt>
      <trkpt lat="43.59041" lon="2.9791">
        <ele>1034.5158691406</ele>
        <time>2010-09-26T11:45:16Z</time>
      </trkpt>
      <trkpt lat="43.59038" lon="2.97911">
        <ele>1034.9965820312</ele>
        <time>2010-09-26T11:45:22Z</time>
      </trkpt>
      <trkpt lat="43.59039" lon="2.97911">
        <ele>1034.9965820312</ele>
        <time>2010-09-26T11:45:31Z</time>
      </trkpt>
      <trkpt lat="43.59038" lon="2.9791">
        <ele>1034.9965820312</ele>
        <time>2010-09-26T11:45:37Z</time>
      </trkpt>
      <trkpt lat="43.59038" lon="2.97911">
        <ele>1034.9965820312</ele>
        <time>2010-09-26T11:45:44Z</time>
      </trkpt>
      <trkpt lat="43.59037" lon="2.97911">
        <ele>1035.9577636719</ele>
        <time>2010-09-26T11:45:54Z</time>
      </trkpt>
      <trkpt lat="43.59036" lon="2.97911">
        <ele>1036.4387207031</ele>
        <time>2010-09-26T11:46:19Z</time>
      </trkpt>
      <trkpt lat="43.59036" lon="2.97912">
        <ele>1035.4770507812</ele>
        <time>2010-09-26T11:46:28Z</time>
      </trkpt>
      <trkpt lat="43.59038" lon="2.97912">
        <ele>1035.4770507812</ele>
        <time>2010-09-26T11:46:34Z</time>
      </trkpt>
      <trkpt lat="43.5904" lon="2.97911">
        <ele>1035.4770507812</ele>
        <time>2010-09-26T11:46:39Z</time>
      </trkpt>
      <trkpt lat="43.59039" lon="2.9791">
        <ele>1034.9965820312</ele>
        <time>2010-09-26T11:46:46Z</time>
      </trkpt>
      <trkpt lat="43.59038" lon="2.97911">
        <ele>1034.9965820312</ele>
        <time>2010-09-26T11:46:53Z</time>
      </trkpt>
      <trkpt lat="43.59038" lon="2.97911">
        <ele>1034.03515625</ele>
        <time>2010-09-26T11:47:04Z</time>
      </trkpt>
      <trkpt lat="43.59041" lon="2.9791">
        <ele>1033.0737304688</ele>
        <time>2010-09-26T11:47:15Z</time>
      </trkpt>
      <trkpt lat="43.59045" lon="2.97913">
        <ele>1032.5932617188</ele>
        <time>2010-09-26T11:47:22Z</time>
      </trkpt>
      <trkpt lat="43.59051" lon="2.97915">
        <ele>1032.1125488281</ele>
        <time>2010-09-26T11:47:29Z</time>
      </trkpt>
      <trkpt lat="43.59056" lon="2.97913">
        <ele>1032.5932617188</ele>
        <time>2010-09-26T11:47:37Z</time>
      </trkpt>
      <trkpt lat="43.59061" lon="2.97914">
        <ele>1033.0737304688</ele>
        <time>2010-09-26T11:47:43Z</time>
      </trkpt>
      <trkpt lat="43.59066" lon="2.97912">
        <ele>1033.0737304688</ele>
        <time>2010-09-26T11:47:48Z</time>
      </trkpt>
      <trkpt lat="43.59072" lon="2.97902">
        <ele>1033.0737304688</ele>
        <time>2010-09-26T11:47:56Z</time>
      </trkpt>
      <trkpt lat="43.59079" lon="2.97891">
        <ele>1033.0737304688</ele>
        <time>2010-09-26T11:48:06Z</time>
      </trkpt>
      <trkpt lat="43.59082" lon="2.97884">
        <ele>1034.5158691406</ele>
        <time>2010-09-26T11:48:13Z</time>
      </trkpt>
      <trkpt lat="43.59085" lon="2.97875">
        <ele>1033.5544433594</ele>
        <time>2010-09-26T11:48:20Z</time>
      </trkpt>
      <trkpt lat="43.59085" lon="2.97872">
        <ele>1034.03515625</ele>
        <time>2010-09-26T11:48:22Z</time>
      </trkpt>
      <trkpt lat="43.59087" lon="2.97866">
        <ele>1034.03515625</ele>
        <time>2010-09-26T11:48:26Z</time>
      </trkpt>
      <trkpt lat="43.59089" lon="2.97851">
        <ele>1033.5544433594</ele>
        <time>2010-09-26T11:48:36Z</time>
      </trkpt>
      <trkpt lat="43.5909" lon="2.97839">
        <ele>1033.0737304688</ele>
        <time>2010-09-26T11:48:43Z</time>
      </trkpt>
      <trkpt lat="43.59093" lon="2.97832">
        <ele>1037.3999023438</ele>
        <time>2010-09-26T11:48:51Z</time>
      </trkpt>
      <trkpt lat="43.59092" lon="2.97823">
        <ele>1037.8806152344</ele>
        <time>2010-09-26T11:48:57Z</time>
      </trkpt>
      <trkpt lat="43.59092" lon="2.97819">
        <ele>1038.361328125</ele>
        <time>2010-09-26T11:49:00Z</time>
      </trkpt>
      <trkpt lat="43.59098" lon="2.97806">
        <ele>1038.361328125</ele>
        <time>2010-09-26T11:49:09Z</time>
      </trkpt>
      <trkpt lat="43.59103" lon="2.97795">
        <ele>1035.9577636719</ele>
        <time>2010-09-26T11:49:18Z</time>
      </trkpt>
      <trkpt lat="43.59108" lon="2.97786">
        <ele>1035.9577636719</ele>
        <time>2010-09-26T11:49:25Z</time>
      </trkpt>
      <trkpt lat="43.59109" lon="2.97784">
        <ele>1036.4387207031</ele>
        <time>2010-09-26T11:49:27Z</time>
      </trkpt>
      <trkpt lat="43.59112" lon="2.9778">
        <ele>1036.4387207031</ele>
        <time>2010-09-26T11:49:31Z</time>
      </trkpt>
      <trkpt lat="43.59116" lon="2.97769">
        <ele>1036.4387207031</ele>
        <time>2010-09-26T11:49:39Z</time>
      </trkpt>
      <trkpt lat="43.59117" lon="2.97756">
        <ele>1036.9191894531</ele>
        <time>2010-09-26T11:49:47Z</time>
      </trkpt>
      <trkpt lat="43.59117" lon="2.97739">
        <ele>1037.3999023438</ele>
        <time>2010-09-26T11:49:57Z</time>
      </trkpt>
      <trkpt lat="43.59119" lon="2.97728">
        <ele>1036.9191894531</ele>
        <time>2010-09-26T11:50:05Z</time>
      </trkpt>
      <trkpt lat="43.59122" lon="2.97716">
        <ele>1037.3999023438</ele>
        <time>2010-09-26T11:50:13Z</time>
      </trkpt>
      <trkpt lat="43.59122" lon="2.97714">
        <ele>1037.3999023438</ele>
        <time>2010-09-26T11:50:14Z</time>
      </trkpt>
      <trkpt lat="43.59119" lon="2.97706">
        <ele>1037.3999023438</ele>
        <time>2010-09-26T11:50:19Z</time>
      </trkpt>
      <trkpt lat="43.59119" lon="2.97703">
        <ele>1036.9191894531</ele>
        <time>2010-09-26T11:50:21Z</time>
      </trkpt>
      <trkpt lat="43.59116" lon="2.97692">
        <ele>1037.8806152344</ele>
        <time>2010-09-26T11:50:29Z</time>
      </trkpt>
      <trkpt lat="43.59114" lon="2.97682">
        <ele>1040.2839355469</ele>
        <time>2010-09-26T11:50:36Z</time>
      </trkpt>
      <trkpt lat="43.5911" lon="2.97672">
        <ele>1038.8420410156</ele>
        <time>2010-09-26T11:50:44Z</time>
      </trkpt>
      <trkpt lat="43.59114" lon="2.97666">
        <ele>1037.3999023438</ele>
        <time>2010-09-26T11:50:49Z</time>
      </trkpt>
      <trkpt lat="43.59116" lon="2.97664">
        <ele>1037.3999023438</ele>
        <time>2010-09-26T11:50:52Z</time>
      </trkpt>
      <trkpt lat="43.59124" lon="2.97656">
        <ele>1036.9191894531</ele>
        <time>2010-09-26T11:51:00Z</time>
      </trkpt>
      <trkpt lat="43.59126" lon="2.97647">
        <ele>1037.3999023438</ele>
        <time>2010-09-26T11:51:06Z</time>
      </trkpt>
      <trkpt lat="43.59128" lon="2.97638">
        <ele>1037.3999023438</ele>
        <time>2010-09-26T11:51:12Z</time>
      </trkpt>
      <trkpt lat="43.5913" lon="2.9763">
        <ele>1038.361328125</ele>
        <time>2010-09-26T11:51:18Z</time>
      </trkpt>
      <trkpt lat="43.59135" lon="2.97626">
        <ele>1039.3225097656</ele>
        <time>2010-09-26T11:51:26Z</time>
      </trkpt>
      <trkpt lat="43.59137" lon="2.9762">
        <ele>1038.8420410156</ele>
        <time>2010-09-26T11:51:31Z</time>
      </trkpt>
      <trkpt lat="43.59141" lon="2.97614">
        <ele>1038.361328125</ele>
        <time>2010-09-26T11:51:37Z</time>
      </trkpt>
      <trkpt lat="43.59145" lon="2.97612">
        <ele>1037.3999023438</ele>
        <time>2010-09-26T11:51:43Z</time>
      </trkpt>
      <trkpt lat="43.59148" lon="2.97609">
        <ele>1035.4770507812</ele>
        <time>2010-09-26T11:51:48Z</time>
      </trkpt>
      <trkpt lat="43.59148" lon="2.97604">
        <ele>1032.1125488281</ele>
        <time>2010-09-26T11:51:53Z</time>
      </trkpt>
      <trkpt lat="43.59151" lon="2.97601">
        <ele>1029.7092285156</ele>
        <time>2010-09-26T11:51:57Z</time>
      </trkpt>
      <trkpt lat="43.59152" lon="2.97596">
        <ele>1029.7092285156</ele>
        <time>2010-09-26T11:52:02Z</time>
      </trkpt>
      <trkpt lat="43.59151" lon="2.97591">
        <ele>1026.8254394531</ele>
        <time>2010-09-26T11:52:08Z</time>
      </trkpt>
      <trkpt lat="43.59151" lon="2.97587">
        <ele>1025.3833007812</ele>
        <time>2010-09-26T11:52:15Z</time>
      </trkpt>
      <trkpt lat="43.59151" lon="2.97582">
        <ele>1024.9028320312</ele>
        <time>2010-09-26T11:52:20Z</time>
      </trkpt>
      <trkpt lat="43.59151" lon="2.97576">
        <ele>1025.3833007812</ele>
        <time>2010-09-26T11:52:26Z</time>
      </trkpt>
      <trkpt lat="43.59151" lon="2.97571">
        <ele>1023.4609375</ele>
        <time>2010-09-26T11:52:32Z</time>
      </trkpt>
      <trkpt lat="43.59149" lon="2.97563">
        <ele>1021.5380859375</ele>
        <time>2010-09-26T11:52:39Z</time>
      </trkpt>
      <trkpt lat="43.59147" lon="2.97557">
        <ele>1019.6154785156</ele>
        <time>2010-09-26T11:52:44Z</time>
      </trkpt>
      <trkpt lat="43.59148" lon="2.97553">
        <ele>1018.6540527344</ele>
        <time>2010-09-26T11:52:47Z</time>
      </trkpt>
      <trkpt lat="43.59149" lon="2.97543">
        <ele>1017.2121582031</ele>
        <time>2010-09-26T11:52:53Z</time>
      </trkpt>
      <trkpt lat="43.59148" lon="2.97538">
        <ele>1016.7314453125</ele>
        <time>2010-09-26T11:52:57Z</time>
      </trkpt>
      <trkpt lat="43.59145" lon="2.97534">
        <ele>1015.2895507812</ele>
        <time>2010-09-26T11:53:04Z</time>
      </trkpt>
      <trkpt lat="43.59143" lon="2.97533">
        <ele>1014.328125</ele>
        <time>2010-09-26T11:53:08Z</time>
      </trkpt>
      <trkpt lat="43.59142" lon="2.97529">
        <ele>1012.4055175781</ele>
        <time>2010-09-26T11:53:15Z</time>
      </trkpt>
      <trkpt lat="43.59143" lon="2.97524">
        <ele>1011.4443359375</ele>
        <time>2010-09-26T11:53:20Z</time>
      </trkpt>
      <trkpt lat="43.59143" lon="2.97518">
        <ele>1010.0021972656</ele>
        <time>2010-09-26T11:53:26Z</time>
      </trkpt>
      <trkpt lat="43.5914" lon="2.97511">
        <ele>1009.041015625</ele>
        <time>2010-09-26T11:53:30Z</time>
      </trkpt>
      <trkpt lat="43.59138" lon="2.97503">
        <ele>1007.1184082031</ele>
        <time>2010-09-26T11:53:34Z</time>
      </trkpt>
      <trkpt lat="43.59138" lon="2.975">
        <ele>1006.6376953125</ele>
        <time>2010-09-26T11:53:36Z</time>
      </trkpt>
      <trkpt lat="43.59138" lon="2.97492">
        <ele>1005.1958007812</ele>
        <time>2010-09-26T11:53:40Z</time>
      </trkpt>
      <trkpt lat="43.59132" lon="2.97479">
        <ele>1002.7922363281</ele>
        <time>2010-09-26T11:53:47Z</time>
      </trkpt>
      <trkpt lat="43.5913" lon="2.97469">
        <ele>1002.3115234375</ele>
        <time>2010-09-26T11:53:51Z</time>
      </trkpt>
      <trkpt lat="43.5913" lon="2.97465">
        <ele>1001.8310546875</ele>
        <time>2010-09-26T11:53:54Z</time>
      </trkpt>
      <trkpt lat="43.59131" lon="2.97459">
        <ele>1001.8310546875</ele>
        <time>2010-09-26T11:53:59Z</time>
      </trkpt>
      <trkpt lat="43.59127" lon="2.9746">
        <ele>1002.7922363281</ele>
        <time>2010-09-26T11:54:02Z</time>
      </trkpt>
      <trkpt lat="43.59116" lon="2.9746">
        <ele>1005.1958007812</ele>
        <time>2010-09-26T11:54:08Z</time>
      </trkpt>
      <trkpt lat="43.59103" lon="2.97452">
        <ele>1010.0021972656</ele>
        <time>2010-09-26T11:54:16Z</time>
      </trkpt>
      <trkpt lat="43.59093" lon="2.97456">
        <ele>1011.9250488281</ele>
        <time>2010-09-26T11:54:22Z</time>
      </trkpt>
      <trkpt lat="43.59086" lon="2.97457">
        <ele>1012.4055175781</ele>
        <time>2010-09-26T11:54:26Z</time>
      </trkpt>
      <trkpt lat="43.5908" lon="2.97453">
        <ele>1010.9636230469</ele>
        <time>2010-09-26T11:54:30Z</time>
      </trkpt>
      <trkpt lat="43.59076" lon="2.97454">
        <ele>1009.5217285156</ele>
        <time>2010-09-26T11:54:33Z</time>
      </trkpt>
      <trkpt lat="43.59071" lon="2.97454">
        <ele>1007.5991210938</ele>
        <time>2010-09-26T11:54:37Z</time>
      </trkpt>
      <trkpt lat="43.59068" lon="2.97456">
        <ele>1005.6765136719</ele>
        <time>2010-09-26T11:54:40Z</time>
      </trkpt>
      <trkpt lat="43.59065" lon="2.9747">
        <ele>1004.2346191406</ele>
        <time>2010-09-26T11:54:46Z</time>
      </trkpt>
      <trkpt lat="43.59059" lon="2.97473">
        <ele>1003.2729492188</ele>
        <time>2010-09-26T11:54:51Z</time>
      </trkpt>
      <trkpt lat="43.59058" lon="2.97466">
        <ele>1001.8310546875</ele>
        <time>2010-09-26T11:54:55Z</time>
      </trkpt>
      <trkpt lat="43.59055" lon="2.9746">
        <ele>999.90844726562</ele>
        <time>2010-09-26T11:55:00Z</time>
      </trkpt>
      <trkpt lat="43.59055" lon="2.97455">
        <ele>998.94702148438</ele>
        <time>2010-09-26T11:55:03Z</time>
      </trkpt>
      <trkpt lat="43.59053" lon="2.97451">
        <ele>997.0244140625</ele>
        <time>2010-09-26T11:55:06Z</time>
      </trkpt>
      <trkpt lat="43.59053" lon="2.97442">
        <ele>994.62109375</ele>
        <time>2010-09-26T11:55:11Z</time>
      </trkpt>
      <trkpt lat="43.59053" lon="2.97436">
        <ele>992.21801757812</ele>
        <time>2010-09-26T11:55:15Z</time>
      </trkpt>
      <trkpt lat="43.59049" lon="2.97434">
        <ele>990.77587890625</ele>
        <time>2010-09-26T11:55:20Z</time>
      </trkpt>
      <trkpt lat="43.59048" lon="2.9743">
        <ele>989.81469726562</ele>
        <time>2010-09-26T11:55:23Z</time>
      </trkpt>
      <trkpt lat="43.59044" lon="2.97424">
        <ele>986.93041992188</ele>
        <time>2010-09-26T11:55:30Z</time>
      </trkpt>
      <trkpt lat="43.59041" lon="2.97421">
        <ele>985.96923828125</ele>
        <time>2010-09-26T11:55:34Z</time>
      </trkpt>
      <trkpt lat="43.59037" lon="2.97418">
        <ele>985.00805664062</ele>
        <time>2010-09-26T11:55:39Z</time>
      </trkpt>
      <trkpt lat="43.5903" lon="2.97415">
        <ele>983.56591796875</ele>
        <time>2010-09-26T11:55:44Z</time>
      </trkpt>
      <trkpt lat="43.59024" lon="2.97417">
        <ele>982.1240234375</ele>
        <time>2010-09-26T11:55:49Z</time>
      </trkpt>
      <trkpt lat="43.59022" lon="2.97418">
        <ele>981.16284179688</ele>
        <time>2010-09-26T11:55:51Z</time>
      </trkpt>
      <trkpt lat="43.59021" lon="2.97423">
        <ele>980.68212890625</ele>
        <time>2010-09-26T11:55:55Z</time>
      </trkpt>
      <trkpt lat="43.59021" lon="2.97429">
        <ele>978.75952148438</ele>
        <time>2010-09-26T11:55:59Z</time>
      </trkpt>
      <trkpt lat="43.59022" lon="2.97431">
        <ele>978.27880859375</ele>
        <time>2010-09-26T11:56:01Z</time>
      </trkpt>
      <trkpt lat="43.59021" lon="2.97435">
        <ele>976.8369140625</ele>
        <time>2010-09-26T11:56:07Z</time>
      </trkpt>
      <trkpt lat="43.59018" lon="2.97436">
        <ele>977.79809570312</ele>
        <time>2010-09-26T11:56:20Z</time>
      </trkpt>
      <trkpt lat="43.59015" lon="2.97435">
        <ele>975.87548828125</ele>
        <time>2010-09-26T11:56:26Z</time>
      </trkpt>
      <trkpt lat="43.59011" lon="2.97436">
        <ele>975.39477539062</ele>
        <time>2010-09-26T11:56:31Z</time>
      </trkpt>
      <trkpt lat="43.5901" lon="2.97442">
        <ele>972.99169921875</ele>
        <time>2010-09-26T11:56:35Z</time>
      </trkpt>
      <trkpt lat="43.59009" lon="2.97443">
        <ele>971.06884765625</ele>
        <time>2010-09-26T11:56:37Z</time>
      </trkpt>
      <trkpt lat="43.59003" lon="2.97436">
        <ele>966.74291992188</ele>
        <time>2010-09-26T11:56:44Z</time>
      </trkpt>
      <trkpt lat="43.59002" lon="2.97437">
        <ele>964.8203125</ele>
        <time>2010-09-26T11:56:50Z</time>
      </trkpt>
      <trkpt lat="43.59" lon="2.9744">
        <ele>967.2236328125</ele>
        <time>2010-09-26T11:56:55Z</time>
      </trkpt>
      <trkpt lat="43.59" lon="2.97441">
        <ele>969.14624023438</ele>
        <time>2010-09-26T11:57:03Z</time>
      </trkpt>
      <trkpt lat="43.59" lon="2.97442">
        <ele>971.06884765625</ele>
        <time>2010-09-26T11:57:21Z</time>
      </trkpt>
      <trkpt lat="43.59002" lon="2.97446">
        <ele>968.18481445312</ele>
        <time>2010-09-26T11:57:34Z</time>
      </trkpt>
      <trkpt lat="43.59001" lon="2.9745">
        <ele>966.74291992188</ele>
        <time>2010-09-26T11:57:39Z</time>
      </trkpt>
      <trkpt lat="43.58999" lon="2.9745">
        <ele>965.78173828125</ele>
        <time>2010-09-26T11:57:43Z</time>
      </trkpt>
      <trkpt lat="43.58997" lon="2.97451">
        <ele>964.33959960938</ele>
        <time>2010-09-26T11:57:53Z</time>
      </trkpt>
      <trkpt lat="43.59" lon="2.97458">
        <ele>961.45581054688</ele>
        <time>2010-09-26T11:57:59Z</time>
      </trkpt>
      <trkpt lat="43.58998" lon="2.97459">
        <ele>959.05249023438</ele>
        <time>2010-09-26T11:58:03Z</time>
      </trkpt>
      <trkpt lat="43.58994" lon="2.97458">
        <ele>955.68774414062</ele>
        <time>2010-09-26T11:58:08Z</time>
      </trkpt>
      <trkpt lat="43.5899" lon="2.97459">
        <ele>953.28442382812</ele>
        <time>2010-09-26T11:58:13Z</time>
      </trkpt>
      <trkpt lat="43.58989" lon="2.97462">
        <ele>954.72631835938</ele>
        <time>2010-09-26T11:58:16Z</time>
      </trkpt>
      <trkpt lat="43.58987" lon="2.97466">
        <ele>955.20703125</ele>
        <time>2010-09-26T11:58:20Z</time>
      </trkpt>
      <trkpt lat="43.58981" lon="2.97466">
        <ele>954.24584960938</ele>
        <time>2010-09-26T11:58:27Z</time>
      </trkpt>
      <trkpt lat="43.58982" lon="2.97474">
        <ele>948.47778320312</ele>
        <time>2010-09-26T11:58:38Z</time>
      </trkpt>
      <trkpt lat="43.58983" lon="2.97477">
        <ele>946.55541992188</ele>
        <time>2010-09-26T11:58:44Z</time>
      </trkpt>
      <trkpt lat="43.58983" lon="2.97479">
        <ele>946.07470703125</ele>
        <time>2010-09-26T11:58:56Z</time>
      </trkpt>
      <trkpt lat="43.58982" lon="2.9748">
        <ele>947.03588867188</ele>
        <time>2010-09-26T11:59:14Z</time>
      </trkpt>
      <trkpt lat="43.58986" lon="2.97481">
        <ele>943.67138671875</ele>
        <time>2010-09-26T11:59:24Z</time>
      </trkpt>
      <trkpt lat="43.58985" lon="2.97483">
        <ele>943.19067382812</ele>
        <time>2010-09-26T11:59:28Z</time>
      </trkpt>
      <trkpt lat="43.58982" lon="2.97481">
        <ele>942.2294921875</ele>
        <time>2010-09-26T11:59:34Z</time>
      </trkpt>
      <trkpt lat="43.5898" lon="2.97482">
        <ele>940.78735351562</ele>
        <time>2010-09-26T11:59:40Z</time>
      </trkpt>
      <trkpt lat="43.58978" lon="2.97481">
        <ele>939.82592773438</ele>
        <time>2010-09-26T11:59:44Z</time>
      </trkpt>
      <trkpt lat="43.58976" lon="2.97479">
        <ele>939.82592773438</ele>
        <time>2010-09-26T11:59:49Z</time>
      </trkpt>
      <trkpt lat="43.58975" lon="2.97475">
        <ele>938.86474609375</ele>
        <time>2010-09-26T11:59:54Z</time>
      </trkpt>
      <trkpt lat="43.58972" lon="2.97476">
        <ele>941.74877929688</ele>
        <time>2010-09-26T11:59:57Z</time>
      </trkpt>
      <trkpt lat="43.58969" lon="2.97481">
        <ele>943.19067382812</ele>
        <time>2010-09-26T12:00:03Z</time>
      </trkpt>
      <trkpt lat="43.58968" lon="2.97482">
        <ele>941.26806640625</ele>
        <time>2010-09-26T12:00:09Z</time>
      </trkpt>
      <trkpt lat="43.58962" lon="2.97483">
        <ele>940.30688476562</ele>
        <time>2010-09-26T12:00:16Z</time>
      </trkpt>
      <trkpt lat="43.58961" lon="2.97483">
        <ele>938.38403320312</ele>
        <time>2010-09-26T12:00:20Z</time>
      </trkpt>
      <trkpt lat="43.5896" lon="2.97485">
        <ele>932.13549804688</ele>
        <time>2010-09-26T12:00:30Z</time>
      </trkpt>
      <trkpt lat="43.58958" lon="2.97487">
        <ele>930.69360351562</ele>
        <time>2010-09-26T12:00:35Z</time>
      </trkpt>
      <trkpt lat="43.58959" lon="2.97491">
        <ele>929.73217773438</ele>
        <time>2010-09-26T12:00:41Z</time>
      </trkpt>
      <trkpt lat="43.5896" lon="2.97497">
        <ele>927.8095703125</ele>
        <time>2010-09-26T12:00:46Z</time>
      </trkpt>
      <trkpt lat="43.58957" lon="2.975">
        <ele>925.40625</ele>
        <time>2010-09-26T12:00:51Z</time>
      </trkpt>
      <trkpt lat="43.58952" lon="2.97495">
        <ele>923.48364257812</ele>
        <time>2010-09-26T12:00:57Z</time>
      </trkpt>
      <trkpt lat="43.5895" lon="2.97494">
        <ele>922.52221679688</ele>
        <time>2010-09-26T12:00:59Z</time>
      </trkpt>
      <trkpt lat="43.58943" lon="2.97488">
        <ele>920.599609375</ele>
        <time>2010-09-26T12:01:05Z</time>
      </trkpt>
      <trkpt lat="43.58938" lon="2.97486">
        <ele>921.08032226562</ele>
        <time>2010-09-26T12:01:08Z</time>
      </trkpt>
      <trkpt lat="43.58934" lon="2.97485">
        <ele>920.599609375</ele>
        <time>2010-09-26T12:01:13Z</time>
      </trkpt>
      <trkpt lat="43.58924" lon="2.97482">
        <ele>918.67700195312</ele>
        <time>2010-09-26T12:01:19Z</time>
      </trkpt>
      <trkpt lat="43.58918" lon="2.9748">
        <ele>916.75439453125</ele>
        <time>2010-09-26T12:01:24Z</time>
      </trkpt>
      <trkpt lat="43.58914" lon="2.97479">
        <ele>915.79321289062</ele>
        <time>2010-09-26T12:01:27Z</time>
      </trkpt>
      <trkpt lat="43.58909" lon="2.9748">
        <ele>912.9091796875</ele>
        <time>2010-09-26T12:01:31Z</time>
      </trkpt>
      <trkpt lat="43.58901" lon="2.97479">
        <ele>909.54467773438</ele>
        <time>2010-09-26T12:01:36Z</time>
      </trkpt>
      <trkpt lat="43.58892" lon="2.97478">
        <ele>906.66040039062</ele>
        <time>2010-09-26T12:01:41Z</time>
      </trkpt>
      <trkpt lat="43.58884" lon="2.97481">
        <ele>905.69921875</ele>
        <time>2010-09-26T12:01:47Z</time>
      </trkpt>
      <trkpt lat="43.58883" lon="2.97482">
        <ele>905.69921875</ele>
        <time>2010-09-26T12:01:49Z</time>
      </trkpt>
      <trkpt lat="43.58875" lon="2.97482">
        <ele>902.33447265625</ele>
        <time>2010-09-26T12:01:54Z</time>
      </trkpt>
      <trkpt lat="43.5887" lon="2.97481">
        <ele>902.33447265625</ele>
        <time>2010-09-26T12:01:57Z</time>
      </trkpt>
      <trkpt lat="43.58867" lon="2.97478">
        <ele>902.33447265625</ele>
        <time>2010-09-26T12:02:00Z</time>
      </trkpt>
      <trkpt lat="43.58865" lon="2.97478">
        <ele>902.33447265625</ele>
        <time>2010-09-26T12:02:02Z</time>
      </trkpt>
      <trkpt lat="43.58861" lon="2.97476">
        <ele>901.85400390625</ele>
        <time>2010-09-26T12:02:07Z</time>
      </trkpt>
      <trkpt lat="43.58858" lon="2.97474">
        <ele>901.85400390625</ele>
        <time>2010-09-26T12:02:10Z</time>
      </trkpt>
      <trkpt lat="43.58851" lon="2.9747">
        <ele>902.33447265625</ele>
        <time>2010-09-26T12:02:14Z</time>
      </trkpt>
      <trkpt lat="43.58846" lon="2.97467">
        <ele>902.33447265625</ele>
        <time>2010-09-26T12:02:19Z</time>
      </trkpt>
      <trkpt lat="43.58843" lon="2.97467">
        <ele>902.81518554688</ele>
        <time>2010-09-26T12:02:24Z</time>
      </trkpt>
      <trkpt lat="43.58841" lon="2.97467">
        <ele>902.33447265625</ele>
        <time>2010-09-26T12:02:29Z</time>
      </trkpt>
      <trkpt lat="43.58837" lon="2.97463">
        <ele>901.37329101562</ele>
        <time>2010-09-26T12:02:31Z</time>
      </trkpt>
      <trkpt lat="43.5883" lon="2.97457">
        <ele>899.93139648438</ele>
        <time>2010-09-26T12:02:35Z</time>
      </trkpt>
      <trkpt lat="43.58822" lon="2.97449">
        <ele>898.4892578125</ele>
        <time>2010-09-26T12:02:40Z</time>
      </trkpt>
      <trkpt lat="43.58814" lon="2.97448">
        <ele>897.04736328125</ele>
        <time>2010-09-26T12:02:45Z</time>
      </trkpt>
      <trkpt lat="43.58812" lon="2.97446">
        <ele>894.64404296875</ele>
        <time>2010-09-26T12:02:49Z</time>
      </trkpt>
      <trkpt lat="43.58809" lon="2.97448">
        <ele>893.2021484375</ele>
        <time>2010-09-26T12:02:54Z</time>
      </trkpt>
      <trkpt lat="43.58804" lon="2.97446">
        <ele>890.79858398438</ele>
        <time>2010-09-26T12:02:59Z</time>
      </trkpt>
      <trkpt lat="43.58801" lon="2.97444">
        <ele>889.83740234375</ele>
        <time>2010-09-26T12:03:02Z</time>
      </trkpt>
      <trkpt lat="43.58794" lon="2.97439">
        <ele>889.35668945312</ele>
        <time>2010-09-26T12:03:07Z</time>
      </trkpt>
      <trkpt lat="43.58792" lon="2.97438">
        <ele>888.87622070312</ele>
        <time>2010-09-26T12:03:09Z</time>
      </trkpt>
      <trkpt lat="43.58789" lon="2.97438">
        <ele>887.91479492188</ele>
        <time>2010-09-26T12:03:12Z</time>
      </trkpt>
      <trkpt lat="43.58786" lon="2.97437">
        <ele>886.95336914062</ele>
        <time>2010-09-26T12:03:16Z</time>
      </trkpt>
      <trkpt lat="43.58786" lon="2.97439">
        <ele>886.95336914062</ele>
        <time>2010-09-26T12:03:17Z</time>
      </trkpt>
      <trkpt lat="43.58781" lon="2.97439">
        <ele>885.9921875</ele>
        <time>2010-09-26T12:03:21Z</time>
      </trkpt>
      <trkpt lat="43.58776" lon="2.97435">
        <ele>884.55029296875</ele>
        <time>2010-09-26T12:03:25Z</time>
      </trkpt>
      <trkpt lat="43.58775" lon="2.97435">
        <ele>884.06958007812</ele>
        <time>2010-09-26T12:03:29Z</time>
      </trkpt>
      <trkpt lat="43.5877" lon="2.97437">
        <ele>883.10815429688</ele>
        <time>2010-09-26T12:03:34Z</time>
      </trkpt>
      <trkpt lat="43.58769" lon="2.97436">
        <ele>883.10815429688</ele>
        <time>2010-09-26T12:03:35Z</time>
      </trkpt>
      <trkpt lat="43.58766" lon="2.9743">
        <ele>880.705078125</ele>
        <time>2010-09-26T12:03:41Z</time>
      </trkpt>
      <trkpt lat="43.58765" lon="2.97427">
        <ele>879.26293945312</ele>
        <time>2010-09-26T12:03:47Z</time>
      </trkpt>
      <trkpt lat="43.58761" lon="2.9742">
        <ele>878.3017578125</ele>
        <time>2010-09-26T12:03:51Z</time>
      </trkpt>
      <trkpt lat="43.58757" lon="2.97413">
        <ele>876.37915039062</ele>
        <time>2010-09-26T12:03:56Z</time>
      </trkpt>
      <trkpt lat="43.58753" lon="2.97403">
        <ele>873.9755859375</ele>
        <time>2010-09-26T12:04:02Z</time>
      </trkpt>
      <trkpt lat="43.58751" lon="2.97397">
        <ele>872.05297851562</ele>
        <time>2010-09-26T12:04:06Z</time>
      </trkpt>
      <trkpt lat="43.58749" lon="2.97394">
        <ele>871.091796875</ele>
        <time>2010-09-26T12:04:09Z</time>
      </trkpt>
      <trkpt lat="43.58743" lon="2.97402">
        <ele>870.13037109375</ele>
        <time>2010-09-26T12:04:14Z</time>
      </trkpt>
      <trkpt lat="43.58741" lon="2.97411">
        <ele>867.72705078125</ele>
        <time>2010-09-26T12:04:18Z</time>
      </trkpt>
      <trkpt lat="43.58738" lon="2.97417">
        <ele>866.28515625</ele>
        <time>2010-09-26T12:04:21Z</time>
      </trkpt>
      <trkpt lat="43.58735" lon="2.97427">
        <ele>864.36254882812</ele>
        <time>2010-09-26T12:04:25Z</time>
      </trkpt>
      <trkpt lat="43.58731" lon="2.97434">
        <ele>863.8818359375</ele>
        <time>2010-09-26T12:04:30Z</time>
      </trkpt>
      <trkpt lat="43.5873" lon="2.97435">
        <ele>863.4013671875</ele>
        <time>2010-09-26T12:04:31Z</time>
      </trkpt>
      <trkpt lat="43.58727" lon="2.97432">
        <ele>861.95947265625</ele>
        <time>2010-09-26T12:04:35Z</time>
      </trkpt>
      <trkpt lat="43.58722" lon="2.97427">
        <ele>860.998046875</ele>
        <time>2010-09-26T12:04:39Z</time>
      </trkpt>
      <trkpt lat="43.58719" lon="2.97425">
        <ele>860.51733398438</ele>
        <time>2010-09-26T12:04:41Z</time>
      </trkpt>
      <trkpt lat="43.58717" lon="2.97419">
        <ele>859.55590820312</ele>
        <time>2010-09-26T12:04:45Z</time>
      </trkpt>
      <trkpt lat="43.58718" lon="2.97413">
        <ele>858.11401367188</ele>
        <time>2010-09-26T12:04:48Z</time>
      </trkpt>
      <trkpt lat="43.58717" lon="2.97409">
        <ele>857.63330078125</ele>
        <time>2010-09-26T12:04:50Z</time>
      </trkpt>
      <trkpt lat="43.58713" lon="2.97404">
        <ele>857.15258789062</ele>
        <time>2010-09-26T12:04:56Z</time>
      </trkpt>
      <trkpt lat="43.5871" lon="2.97403">
        <ele>857.63330078125</ele>
        <time>2010-09-26T12:04:58Z</time>
      </trkpt>
      <trkpt lat="43.58707" lon="2.97398">
        <ele>857.15258789062</ele>
        <time>2010-09-26T12:05:01Z</time>
      </trkpt>
      <trkpt lat="43.58702" lon="2.97391">
        <ele>854.26879882812</ele>
        <time>2010-09-26T12:05:06Z</time>
      </trkpt>
      <trkpt lat="43.58702" lon="2.97392">
        <ele>853.7880859375</ele>
        <time>2010-09-26T12:05:07Z</time>
      </trkpt>
      <trkpt lat="43.58701" lon="2.97399">
        <ele>850.90405273438</ele>
        <time>2010-09-26T12:05:13Z</time>
      </trkpt>
      <trkpt lat="43.587" lon="2.97403">
        <ele>849.94287109375</ele>
        <time>2010-09-26T12:05:15Z</time>
      </trkpt>
      <trkpt lat="43.58698" lon="2.97413">
        <ele>847.05883789062</ele>
        <time>2010-09-26T12:05:21Z</time>
      </trkpt>
      <trkpt lat="43.58697" lon="2.97418">
        <ele>846.09765625</ele>
        <time>2010-09-26T12:05:23Z</time>
      </trkpt>
      <trkpt lat="43.58691" lon="2.97418">
        <ele>845.13623046875</ele>
        <time>2010-09-26T12:05:28Z</time>
      </trkpt>
      <trkpt lat="43.58686" lon="2.97412">
        <ele>842.73291015625</ele>
        <time>2010-09-26T12:05:33Z</time>
      </trkpt>
      <trkpt lat="43.58685" lon="2.97413">
        <ele>842.73291015625</ele>
        <time>2010-09-26T12:05:35Z</time>
      </trkpt>
      <trkpt lat="43.58681" lon="2.97421">
        <ele>840.81005859375</ele>
        <time>2010-09-26T12:05:40Z</time>
      </trkpt>
      <trkpt lat="43.58681" lon="2.97423">
        <ele>840.32958984375</ele>
        <time>2010-09-26T12:05:41Z</time>
      </trkpt>
      <trkpt lat="43.58678" lon="2.97439">
        <ele>838.40698242188</ele>
        <time>2010-09-26T12:05:48Z</time>
      </trkpt>
      <trkpt lat="43.58676" lon="2.97443">
        <ele>837.44555664062</ele>
        <time>2010-09-26T12:05:50Z</time>
      </trkpt>
      <trkpt lat="43.58673" lon="2.97448">
        <ele>837.92626953125</ele>
        <time>2010-09-26T12:05:53Z</time>
      </trkpt>
      <trkpt lat="43.58672" lon="2.97461">
        <ele>834.0810546875</ele>
        <time>2010-09-26T12:05:58Z</time>
      </trkpt>
      <trkpt lat="43.58668" lon="2.97471">
        <ele>833.11962890625</ele>
        <time>2010-09-26T12:06:04Z</time>
      </trkpt>
      <trkpt lat="43.58663" lon="2.97466">
        <ele>831.677734375</ele>
        <time>2010-09-26T12:06:08Z</time>
      </trkpt>
      <trkpt lat="43.58662" lon="2.97462">
        <ele>830.23583984375</ele>
        <time>2010-09-26T12:06:10Z</time>
      </trkpt>
      <trkpt lat="43.58656" lon="2.97453">
        <ele>828.31323242188</ele>
        <time>2010-09-26T12:06:15Z</time>
      </trkpt>
      <trkpt lat="43.58654" lon="2.97449">
        <ele>826.87109375</ele>
        <time>2010-09-26T12:06:17Z</time>
      </trkpt>
      <trkpt lat="43.58648" lon="2.97441">
        <ele>826.87109375</ele>
        <time>2010-09-26T12:06:22Z</time>
      </trkpt>
      <trkpt lat="43.58644" lon="2.97439">
        <ele>826.87109375</ele>
        <time>2010-09-26T12:06:24Z</time>
      </trkpt>
      <trkpt lat="43.58641" lon="2.97436">
        <ele>825.42895507812</ele>
        <time>2010-09-26T12:06:26Z</time>
      </trkpt>
      <trkpt lat="43.58633" lon="2.97428">
        <ele>823.98706054688</ele>
        <time>2010-09-26T12:06:32Z</time>
      </trkpt>
      <trkpt lat="43.58634" lon="2.97439">
        <ele>820.62255859375</ele>
        <time>2010-09-26T12:06:37Z</time>
      </trkpt>
      <trkpt lat="43.58633" lon="2.97449">
        <ele>816.77734375</ele>
        <time>2010-09-26T12:06:42Z</time>
      </trkpt>
      <trkpt lat="43.58632" lon="2.97453">
        <ele>815.33544921875</ele>
        <time>2010-09-26T12:06:45Z</time>
      </trkpt>
      <trkpt lat="43.58624" lon="2.97465">
        <ele>812.93212890625</ele>
        <time>2010-09-26T12:06:52Z</time>
      </trkpt>
      <trkpt lat="43.58622" lon="2.97477">
        <ele>809.08666992188</ele>
        <time>2010-09-26T12:06:57Z</time>
      </trkpt>
      <trkpt lat="43.58619" lon="2.97488">
        <ele>806.20263671875</ele>
        <time>2010-09-26T12:07:02Z</time>
      </trkpt>
      <trkpt lat="43.58614" lon="2.97487">
        <ele>806.20263671875</ele>
        <time>2010-09-26T12:07:06Z</time>
      </trkpt>
      <trkpt lat="43.58609" lon="2.97476">
        <ele>804.2802734375</ele>
        <time>2010-09-26T12:07:12Z</time>
      </trkpt>
      <trkpt lat="43.58606" lon="2.97467">
        <ele>801.876953125</ele>
        <time>2010-09-26T12:07:16Z</time>
      </trkpt>
      <trkpt lat="43.58602" lon="2.97457">
        <ele>800.43505859375</ele>
        <time>2010-09-26T12:07:21Z</time>
      </trkpt>
      <trkpt lat="43.58592" lon="2.97449">
        <ele>799.4736328125</ele>
        <time>2010-09-26T12:07:27Z</time>
      </trkpt>
      <trkpt lat="43.58585" lon="2.97438">
        <ele>799.4736328125</ele>
        <time>2010-09-26T12:07:32Z</time>
      </trkpt>
      <trkpt lat="43.58583" lon="2.97435">
        <ele>799.4736328125</ele>
        <time>2010-09-26T12:07:34Z</time>
      </trkpt>
      <trkpt lat="43.58581" lon="2.97422">
        <ele>798.99291992188</ele>
        <time>2010-09-26T12:07:41Z</time>
      </trkpt>
      <trkpt lat="43.5858" lon="2.97422">
        <ele>799.4736328125</ele>
        <time>2010-09-26T12:07:42Z</time>
      </trkpt>
      <trkpt lat="43.58574" lon="2.97434">
        <ele>798.99291992188</ele>
        <time>2010-09-26T12:07:48Z</time>
      </trkpt>
      <trkpt lat="43.58569" lon="2.97446">
        <ele>797.0703125</ele>
        <time>2010-09-26T12:07:53Z</time>
      </trkpt>
      <trkpt lat="43.58566" lon="2.97457">
        <ele>796.10913085938</ele>
        <time>2010-09-26T12:07:57Z</time>
      </trkpt>
      <trkpt lat="43.58566" lon="2.97462">
        <ele>795.62817382812</ele>
        <time>2010-09-26T12:07:59Z</time>
      </trkpt>
      <trkpt lat="43.58564" lon="2.97471">
        <ele>791.78295898438</ele>
        <time>2010-09-26T12:08:04Z</time>
      </trkpt>
      <trkpt lat="43.58561" lon="2.97485">
        <ele>789.8603515625</ele>
        <time>2010-09-26T12:08:08Z</time>
      </trkpt>
      <trkpt lat="43.58559" lon="2.97499">
        <ele>786.49584960938</ele>
        <time>2010-09-26T12:08:14Z</time>
      </trkpt>
      <trkpt lat="43.58558" lon="2.975">
        <ele>786.01513671875</ele>
        <time>2010-09-26T12:08:15Z</time>
      </trkpt>
      <trkpt lat="43.58551" lon="2.97509">
        <ele>783.61181640625</ele>
        <time>2010-09-26T12:08:20Z</time>
      </trkpt>
      <trkpt lat="43.5854" lon="2.97511">
        <ele>783.13110351562</ele>
        <time>2010-09-26T12:08:26Z</time>
      </trkpt>
      <trkpt lat="43.58539" lon="2.97505">
        <ele>780.72802734375</ele>
        <time>2010-09-26T12:08:29Z</time>
      </trkpt>
      <trkpt lat="43.58538" lon="2.97502">
        <ele>779.76635742188</ele>
        <time>2010-09-26T12:08:31Z</time>
      </trkpt>
      <trkpt lat="43.58536" lon="2.97492">
        <ele>776.88256835938</ele>
        <time>2010-09-26T12:08:37Z</time>
      </trkpt>
      <trkpt lat="43.58533" lon="2.97488">
        <ele>775.92114257812</ele>
        <time>2010-09-26T12:08:40Z</time>
      </trkpt>
      <trkpt lat="43.58529" lon="2.97478">
        <ele>773.99853515625</ele>
        <time>2010-09-26T12:08:46Z</time>
      </trkpt>
      <trkpt lat="43.58525" lon="2.97469">
        <ele>772.556640625</ele>
        <time>2010-09-26T12:08:52Z</time>
      </trkpt>
      <trkpt lat="43.5852" lon="2.97477">
        <ele>771.11474609375</ele>
        <time>2010-09-26T12:08:58Z</time>
      </trkpt>
      <trkpt lat="43.58518" lon="2.97483">
        <ele>770.1533203125</ele>
        <time>2010-09-26T12:09:01Z</time>
      </trkpt>
      <trkpt lat="43.5851" lon="2.97495">
        <ele>768.23071289062</ele>
        <time>2010-09-26T12:09:07Z</time>
      </trkpt>
      <trkpt lat="43.58504" lon="2.97504">
        <ele>767.26953125</ele>
        <time>2010-09-26T12:09:12Z</time>
      </trkpt>
      <trkpt lat="43.58501" lon="2.97509">
        <ele>768.23071289062</ele>
        <time>2010-09-26T12:09:14Z</time>
      </trkpt>
      <trkpt lat="43.58494" lon="2.97517">
        <ele>768.71142578125</ele>
        <time>2010-09-26T12:09:20Z</time>
      </trkpt>
      <trkpt lat="43.58493" lon="2.97515">
        <ele>768.23071289062</ele>
        <time>2010-09-26T12:09:22Z</time>
      </trkpt>
      <trkpt lat="43.58492" lon="2.97513">
        <ele>767.75</ele>
        <time>2010-09-26T12:09:24Z</time>
      </trkpt>
      <trkpt lat="43.58493" lon="2.97506">
        <ele>766.78881835938</ele>
        <time>2010-09-26T12:09:28Z</time>
      </trkpt>
      <trkpt lat="43.58494" lon="2.975">
        <ele>765.82763671875</ele>
        <time>2010-09-26T12:09:32Z</time>
      </trkpt>
      <trkpt lat="43.58493" lon="2.97488">
        <ele>762.46264648438</ele>
        <time>2010-09-26T12:09:37Z</time>
      </trkpt>
      <trkpt lat="43.5849" lon="2.97475">
        <ele>759.09814453125</ele>
        <time>2010-09-26T12:09:42Z</time>
      </trkpt>
      <trkpt lat="43.58489" lon="2.9747">
        <ele>758.61743164062</ele>
        <time>2010-09-26T12:09:44Z</time>
      </trkpt>
      <trkpt lat="43.58489" lon="2.97464">
        <ele>757.17553710938</ele>
        <time>2010-09-26T12:09:46Z</time>
      </trkpt>
      <trkpt lat="43.58487" lon="2.97446">
        <ele>756.69482421875</ele>
        <time>2010-09-26T12:09:52Z</time>
      </trkpt>
      <trkpt lat="43.58485" lon="2.97437">
        <ele>754.77221679688</ele>
        <time>2010-09-26T12:09:57Z</time>
      </trkpt>
      <trkpt lat="43.58485" lon="2.97437">
        <ele>754.29174804688</ele>
        <time>2010-09-26T12:09:58Z</time>
      </trkpt>
      <trkpt lat="43.58484" lon="2.97435">
        <ele>752.849609375</ele>
        <time>2010-09-26T12:10:00Z</time>
      </trkpt>
      <trkpt lat="43.58481" lon="2.97434">
        <ele>752.849609375</ele>
        <time>2010-09-26T12:10:02Z</time>
      </trkpt>
      <trkpt lat="43.58479" lon="2.97441">
        <ele>750.44653320312</ele>
        <time>2010-09-26T12:10:07Z</time>
      </trkpt>
      <trkpt lat="43.58476" lon="2.97451">
        <ele>748.52368164062</ele>
        <time>2010-09-26T12:10:11Z</time>
      </trkpt>
      <trkpt lat="43.58473" lon="2.97459">
        <ele>747.56225585938</ele>
        <time>2010-09-26T12:10:14Z</time>
      </trkpt>
      <trkpt lat="43.58469" lon="2.97473">
        <ele>746.60107421875</ele>
        <time>2010-09-26T12:10:19Z</time>
      </trkpt>
      <trkpt lat="43.58468" lon="2.97477">
        <ele>745.6396484375</ele>
        <time>2010-09-26T12:10:21Z</time>
      </trkpt>
      <trkpt lat="43.58459" lon="2.97493">
        <ele>745.15893554688</ele>
        <time>2010-09-26T12:10:27Z</time>
      </trkpt>
      <trkpt lat="43.58458" lon="2.97495">
        <ele>745.15893554688</ele>
        <time>2010-09-26T12:10:28Z</time>
      </trkpt>
      <trkpt lat="43.58456" lon="2.97506">
        <ele>743.71704101562</ele>
        <time>2010-09-26T12:10:33Z</time>
      </trkpt>
      <trkpt lat="43.58451" lon="2.97505">
        <ele>741.31372070312</ele>
        <time>2010-09-26T12:10:39Z</time>
      </trkpt>
      <trkpt lat="43.5845" lon="2.97503">
        <ele>740.3525390625</ele>
        <time>2010-09-26T12:10:40Z</time>
      </trkpt>
      <trkpt lat="43.58449" lon="2.97499">
        <ele>739.87182617188</ele>
        <time>2010-09-26T12:10:42Z</time>
      </trkpt>
      <trkpt lat="43.58449" lon="2.97489">
        <ele>738.42993164062</ele>
        <time>2010-09-26T12:10:46Z</time>
      </trkpt>
      <trkpt lat="43.58445" lon="2.97479">
        <ele>736.98779296875</ele>
        <time>2010-09-26T12:10:52Z</time>
      </trkpt>
      <trkpt lat="43.58444" lon="2.97474">
        <ele>735.5458984375</ele>
        <time>2010-09-26T12:10:54Z</time>
      </trkpt>
      <trkpt lat="43.58442" lon="2.97465">
        <ele>734.58471679688</ele>
        <time>2010-09-26T12:10:58Z</time>
      </trkpt>
      <trkpt lat="43.58439" lon="2.97455">
        <ele>732.18139648438</ele>
        <time>2010-09-26T12:11:04Z</time>
      </trkpt>
      <trkpt lat="43.58437" lon="2.97452">
        <ele>731.21997070312</ele>
        <time>2010-09-26T12:11:06Z</time>
      </trkpt>
      <trkpt lat="43.58437" lon="2.97441">
        <ele>731.21997070312</ele>
        <time>2010-09-26T12:11:12Z</time>
      </trkpt>
      <trkpt lat="43.58433" lon="2.97427">
        <ele>729.77783203125</ele>
        <time>2010-09-26T12:11:19Z</time>
      </trkpt>
      <trkpt lat="43.5843" lon="2.97426">
        <ele>729.77783203125</ele>
        <time>2010-09-26T12:11:22Z</time>
      </trkpt>
      <trkpt lat="43.58421" lon="2.97426">
        <ele>730.7392578125</ele>
        <time>2010-09-26T12:11:28Z</time>
      </trkpt>
      <trkpt lat="43.58416" lon="2.97427">
        <ele>731.21997070312</ele>
        <time>2010-09-26T12:11:32Z</time>
      </trkpt>
      <trkpt lat="43.58413" lon="2.97442">
        <ele>726.89404296875</ele>
        <time>2010-09-26T12:11:39Z</time>
      </trkpt>
      <trkpt lat="43.58412" lon="2.97445">
        <ele>726.41333007812</ele>
        <time>2010-09-26T12:11:40Z</time>
      </trkpt>
      <trkpt lat="43.58412" lon="2.97451">
        <ele>724.49072265625</ele>
        <time>2010-09-26T12:11:45Z</time>
      </trkpt>
      <trkpt lat="43.58412" lon="2.97459">
        <ele>722.56811523438</ele>
        <time>2010-09-26T12:11:48Z</time>
      </trkpt>
      <trkpt lat="43.58412" lon="2.97465">
        <ele>721.12622070312</ele>
        <time>2010-09-26T12:11:50Z</time>
      </trkpt>
      <trkpt lat="43.58409" lon="2.97479">
        <ele>718.2421875</ele>
        <time>2010-09-26T12:11:55Z</time>
      </trkpt>
      <trkpt lat="43.58408" lon="2.97484">
        <ele>717.76147460938</ele>
        <time>2010-09-26T12:11:57Z</time>
      </trkpt>
      <trkpt lat="43.58406" lon="2.97486">
        <ele>716.80029296875</ele>
        <time>2010-09-26T12:12:00Z</time>
      </trkpt>
      <trkpt lat="43.58404" lon="2.97485">
        <ele>715.8388671875</ele>
        <time>2010-09-26T12:12:04Z</time>
      </trkpt>
      <trkpt lat="43.58402" lon="2.97471">
        <ele>713.435546875</ele>
        <time>2010-09-26T12:12:10Z</time>
      </trkpt>
      <trkpt lat="43.584" lon="2.97467">
        <ele>710.55151367188</ele>
        <time>2010-09-26T12:12:13Z</time>
      </trkpt>
      <trkpt lat="43.58396" lon="2.97455">
        <ele>708.1484375</ele>
        <time>2010-09-26T12:12:19Z</time>
      </trkpt>
      <trkpt lat="43.58396" lon="2.97454">
        <ele>708.1484375</ele>
        <time>2010-09-26T12:12:20Z</time>
      </trkpt>
      <trkpt lat="43.58393" lon="2.97455">
        <ele>708.1484375</ele>
        <time>2010-09-26T12:12:25Z</time>
      </trkpt>
      <trkpt lat="43.58389" lon="2.97466">
        <ele>706.70629882812</ele>
        <time>2010-09-26T12:12:30Z</time>
      </trkpt>
      <trkpt lat="43.58387" lon="2.97474">
        <ele>705.7451171875</ele>
        <time>2010-09-26T12:12:34Z</time>
      </trkpt>
      <trkpt lat="43.58381" lon="2.97483">
        <ele>704.30322265625</ele>
        <time>2010-09-26T12:12:41Z</time>
      </trkpt>
      <trkpt lat="43.58377" lon="2.97488">
        <ele>703.341796875</ele>
        <time>2010-09-26T12:12:46Z</time>
      </trkpt>
      <trkpt lat="43.58376" lon="2.97486">
        <ele>702.38037109375</ele>
        <time>2010-09-26T12:12:48Z</time>
      </trkpt>
      <trkpt lat="43.58375" lon="2.97483">
        <ele>701.89990234375</ele>
        <time>2010-09-26T12:12:50Z</time>
      </trkpt>
      <trkpt lat="43.58374" lon="2.97473">
        <ele>699.97705078125</ele>
        <time>2010-09-26T12:12:55Z</time>
      </trkpt>
      <trkpt lat="43.58372" lon="2.97454">
        <ele>697.57373046875</ele>
        <time>2010-09-26T12:13:02Z</time>
      </trkpt>
      <trkpt lat="43.58372" lon="2.97452">
        <ele>697.09301757812</ele>
        <time>2010-09-26T12:13:03Z</time>
      </trkpt>
      <trkpt lat="43.58372" lon="2.9744">
        <ele>695.17041015625</ele>
        <time>2010-09-26T12:13:08Z</time>
      </trkpt>
      <trkpt lat="43.58371" lon="2.97431">
        <ele>693.728515625</ele>
        <time>2010-09-26T12:13:13Z</time>
      </trkpt>
      <trkpt lat="43.58369" lon="2.97431">
        <ele>693.24780273438</ele>
        <time>2010-09-26T12:13:14Z</time>
      </trkpt>
      <trkpt lat="43.58364" lon="2.97437">
        <ele>692.76733398438</ele>
        <time>2010-09-26T12:13:18Z</time>
      </trkpt>
      <trkpt lat="43.58356" lon="2.97449">
        <ele>691.80590820312</ele>
        <time>2010-09-26T12:13:24Z</time>
      </trkpt>
      <trkpt lat="43.58348" lon="2.97459">
        <ele>691.80590820312</ele>
        <time>2010-09-26T12:13:28Z</time>
      </trkpt>
      <trkpt lat="43.58344" lon="2.97464">
        <ele>691.80590820312</ele>
        <time>2010-09-26T12:13:30Z</time>
      </trkpt>
      <trkpt lat="43.58339" lon="2.97464">
        <ele>689.88330078125</ele>
        <time>2010-09-26T12:13:34Z</time>
      </trkpt>
      <trkpt lat="43.58331" lon="2.97462">
        <ele>686.99926757812</ele>
        <time>2010-09-26T12:13:39Z</time>
      </trkpt>
      <trkpt lat="43.58332" lon="2.9745">
        <ele>683.63452148438</ele>
        <time>2010-09-26T12:13:43Z</time>
      </trkpt>
      <trkpt lat="43.58337" lon="2.97436">
        <ele>682.19262695312</ele>
        <time>2010-09-26T12:13:48Z</time>
      </trkpt>
      <trkpt lat="43.58342" lon="2.9742">
        <ele>679.78930664062</ele>
        <time>2010-09-26T12:13:52Z</time>
      </trkpt>
      <trkpt lat="43.58345" lon="2.97411">
        <ele>679.78930664062</ele>
        <time>2010-09-26T12:13:54Z</time>
      </trkpt>
      <trkpt lat="43.58357" lon="2.97387">
        <ele>677.86669921875</ele>
        <time>2010-09-26T12:14:01Z</time>
      </trkpt>
      <trkpt lat="43.58359" lon="2.97381">
        <ele>677.38623046875</ele>
        <time>2010-09-26T12:14:03Z</time>
      </trkpt>
      <trkpt lat="43.58366" lon="2.97362">
        <ele>677.86669921875</ele>
        <time>2010-09-26T12:14:09Z</time>
      </trkpt>
      <trkpt lat="43.58369" lon="2.97352">
        <ele>678.34741210938</ele>
        <time>2010-09-26T12:14:12Z</time>
      </trkpt>
      <trkpt lat="43.58374" lon="2.97329">
        <ele>678.828125</ele>
        <time>2010-09-26T12:14:18Z</time>
      </trkpt>
      <trkpt lat="43.58376" lon="2.97318">
        <ele>679.78930664062</ele>
        <time>2010-09-26T12:14:21Z</time>
      </trkpt>
      <trkpt lat="43.5838" lon="2.97302">
        <ele>681.2314453125</ele>
        <time>2010-09-26T12:14:27Z</time>
      </trkpt>
      <trkpt lat="43.5838" lon="2.97289">
        <ele>682.19262695312</ele>
        <time>2010-09-26T12:14:31Z</time>
      </trkpt>
      <trkpt lat="43.5838" lon="2.97275">
        <ele>684.59619140625</ele>
        <time>2010-09-26T12:14:35Z</time>
      </trkpt>
      <trkpt lat="43.58381" lon="2.97256">
        <ele>685.55737304688</ele>
        <time>2010-09-26T12:14:40Z</time>
      </trkpt>
      <trkpt lat="43.58384" lon="2.97238">
        <ele>690.84448242188</ele>
        <time>2010-09-26T12:14:45Z</time>
      </trkpt>
      <trkpt lat="43.58384" lon="2.97223">
        <ele>695.65112304688</ele>
        <time>2010-09-26T12:14:49Z</time>
      </trkpt>
      <trkpt lat="43.58381" lon="2.97197">
        <ele>698.53491210938</ele>
        <time>2010-09-26T12:14:55Z</time>
      </trkpt>
      <trkpt lat="43.58381" lon="2.97179">
        <ele>698.05444335938</ele>
        <time>2010-09-26T12:14:59Z</time>
      </trkpt>
      <trkpt lat="43.58379" lon="2.97162">
        <ele>695.65112304688</ele>
        <time>2010-09-26T12:15:04Z</time>
      </trkpt>
      <trkpt lat="43.58379" lon="2.97147">
        <ele>693.24780273438</ele>
        <time>2010-09-26T12:15:09Z</time>
      </trkpt>
      <trkpt lat="43.58378" lon="2.97143">
        <ele>693.24780273438</ele>
        <time>2010-09-26T12:15:10Z</time>
      </trkpt>
      <trkpt lat="43.58372" lon="2.97119">
        <ele>692.76733398438</ele>
        <time>2010-09-26T12:15:16Z</time>
      </trkpt>
      <trkpt lat="43.58372" lon="2.97112">
        <ele>690.84448242188</ele>
        <time>2010-09-26T12:15:18Z</time>
      </trkpt>
      <trkpt lat="43.58372" lon="2.971">
        <ele>688.44140625</ele>
        <time>2010-09-26T12:15:23Z</time>
      </trkpt>
      <trkpt lat="43.58379" lon="2.97091">
        <ele>685.55737304688</ele>
        <time>2010-09-26T12:15:28Z</time>
      </trkpt>
      <trkpt lat="43.58389" lon="2.97082">
        <ele>682.67333984375</ele>
        <time>2010-09-26T12:15:33Z</time>
      </trkpt>
      <trkpt lat="43.58391" lon="2.97079">
        <ele>681.2314453125</ele>
        <time>2010-09-26T12:15:35Z</time>
      </trkpt>
      <trkpt lat="43.58391" lon="2.97078">
        <ele>680.75073242188</ele>
        <time>2010-09-26T12:15:37Z</time>
      </trkpt>
      <trkpt lat="43.58385" lon="2.97074">
        <ele>677.86669921875</ele>
        <time>2010-09-26T12:15:42Z</time>
      </trkpt>
      <trkpt lat="43.58387" lon="2.97071">
        <ele>674.021484375</ele>
        <time>2010-09-26T12:15:46Z</time>
      </trkpt>
      <trkpt lat="43.58391" lon="2.97067">
        <ele>671.1376953125</ele>
        <time>2010-09-26T12:15:51Z</time>
      </trkpt>
      <trkpt lat="43.58387" lon="2.9706">
        <ele>668.734375</ele>
        <time>2010-09-26T12:15:56Z</time>
      </trkpt>
      <trkpt lat="43.58385" lon="2.97057">
        <ele>668.25366210938</ele>
        <time>2010-09-26T12:15:58Z</time>
      </trkpt>
      <trkpt lat="43.58389" lon="2.97052">
        <ele>666.33081054688</ele>
        <time>2010-09-26T12:16:03Z</time>
      </trkpt>
      <trkpt lat="43.58398" lon="2.97049">
        <ele>663.92749023438</ele>
        <time>2010-09-26T12:16:09Z</time>
      </trkpt>
      <trkpt lat="43.58396" lon="2.97049">
        <ele>662.48559570312</ele>
        <time>2010-09-26T12:16:12Z</time>
      </trkpt>
      <trkpt lat="43.58396" lon="2.97044">
        <ele>662.00512695312</ele>
        <time>2010-09-26T12:16:16Z</time>
      </trkpt>
      <trkpt lat="43.58399" lon="2.9704">
        <ele>661.5244140625</ele>
        <time>2010-09-26T12:16:20Z</time>
      </trkpt>
      <trkpt lat="43.58391" lon="2.97037">
        <ele>659.60180664062</ele>
        <time>2010-09-26T12:16:26Z</time>
      </trkpt>
      <trkpt lat="43.58392" lon="2.97034">
        <ele>658.64038085938</ele>
        <time>2010-09-26T12:16:31Z</time>
      </trkpt>
      <trkpt lat="43.58393" lon="2.97034">
        <ele>657.67919921875</ele>
        <time>2010-09-26T12:16:32Z</time>
      </trkpt>
      <trkpt lat="43.58395" lon="2.97031">
        <ele>655.75659179688</ele>
        <time>2010-09-26T12:16:35Z</time>
      </trkpt>
      <trkpt lat="43.58393" lon="2.97029">
        <ele>653.833984375</ele>
        <time>2010-09-26T12:16:38Z</time>
      </trkpt>
      <trkpt lat="43.58393" lon="2.97026">
        <ele>652.39184570312</ele>
        <time>2010-09-26T12:16:42Z</time>
      </trkpt>
      <trkpt lat="43.58395" lon="2.97025">
        <ele>651.9111328125</ele>
        <time>2010-09-26T12:16:44Z</time>
      </trkpt>
      <trkpt lat="43.58397" lon="2.97021">
        <ele>651.43041992188</ele>
        <time>2010-09-26T12:16:47Z</time>
      </trkpt>
      <trkpt lat="43.58393" lon="2.97013">
        <ele>650.46923828125</ele>
        <time>2010-09-26T12:16:52Z</time>
      </trkpt>
      <trkpt lat="43.58392" lon="2.97012">
        <ele>650.46923828125</ele>
        <time>2010-09-26T12:16:53Z</time>
      </trkpt>
      <trkpt lat="43.58393" lon="2.9701">
        <ele>649.02709960938</ele>
        <time>2010-09-26T12:16:55Z</time>
      </trkpt>
      <trkpt lat="43.58396" lon="2.97006">
        <ele>643.73999023438</ele>
        <time>2010-09-26T12:17:02Z</time>
      </trkpt>
      <trkpt lat="43.58392" lon="2.97003">
        <ele>640.37548828125</ele>
        <time>2010-09-26T12:17:07Z</time>
      </trkpt>
      <trkpt lat="43.58395" lon="2.97">
        <ele>637.97216796875</ele>
        <time>2010-09-26T12:17:11Z</time>
      </trkpt>
      <trkpt lat="43.58401" lon="2.96994">
        <ele>635.56860351562</ele>
        <time>2010-09-26T12:17:16Z</time>
      </trkpt>
      <trkpt lat="43.58403" lon="2.96985">
        <ele>634.12670898438</ele>
        <time>2010-09-26T12:17:21Z</time>
      </trkpt>
      <trkpt lat="43.58408" lon="2.96975">
        <ele>633.16528320312</ele>
        <time>2010-09-26T12:17:26Z</time>
      </trkpt>
      <trkpt lat="43.58408" lon="2.96972">
        <ele>633.16528320312</ele>
        <time>2010-09-26T12:17:27Z</time>
      </trkpt>
      <trkpt lat="43.58409" lon="2.96962">
        <ele>632.68481445312</ele>
        <time>2010-09-26T12:17:31Z</time>
      </trkpt>
      <trkpt lat="43.58411" lon="2.96952">
        <ele>632.68481445312</ele>
        <time>2010-09-26T12:17:35Z</time>
      </trkpt>
      <trkpt lat="43.58411" lon="2.96948">
        <ele>632.2041015625</ele>
        <time>2010-09-26T12:17:37Z</time>
      </trkpt>
      <trkpt lat="43.5841" lon="2.96937">
        <ele>632.2041015625</ele>
        <time>2010-09-26T12:17:41Z</time>
      </trkpt>
      <trkpt lat="43.58409" lon="2.96935">
        <ele>629.80078125</ele>
        <time>2010-09-26T12:17:47Z</time>
      </trkpt>
      <trkpt lat="43.58409" lon="2.96937">
        <ele>629.80078125</ele>
        <time>2010-09-26T12:17:48Z</time>
      </trkpt>
      <trkpt lat="43.58405" lon="2.96945">
        <ele>627.87817382812</ele>
        <time>2010-09-26T12:17:52Z</time>
      </trkpt>
      <trkpt lat="43.584" lon="2.96951">
        <ele>625.95556640625</ele>
        <time>2010-09-26T12:17:57Z</time>
      </trkpt>
      <trkpt lat="43.58397" lon="2.9695">
        <ele>624.03295898438</ele>
        <time>2010-09-26T12:18:00Z</time>
      </trkpt>
      <trkpt lat="43.58394" lon="2.96956">
        <ele>619.70703125</ele>
        <time>2010-09-26T12:18:04Z</time>
      </trkpt>
      <trkpt lat="43.58388" lon="2.96961">
        <ele>611.05517578125</ele>
        <time>2010-09-26T12:18:11Z</time>
      </trkpt>
      <trkpt lat="43.58386" lon="2.96962">
        <ele>608.17138671875</ele>
        <time>2010-09-26T12:18:13Z</time>
      </trkpt>
      <trkpt lat="43.58378" lon="2.96958">
        <ele>605.28735351562</ele>
        <time>2010-09-26T12:18:18Z</time>
      </trkpt>
      <trkpt lat="43.58379" lon="2.96956">
        <ele>605.28735351562</ele>
        <time>2010-09-26T12:18:20Z</time>
      </trkpt>
      <trkpt lat="43.58381" lon="2.96951">
        <ele>603.36450195312</ele>
        <time>2010-09-26T12:18:27Z</time>
      </trkpt>
      <trkpt lat="43.58374" lon="2.9695">
        <ele>604.326171875</ele>
        <time>2010-09-26T12:18:32Z</time>
      </trkpt>
      <trkpt lat="43.58372" lon="2.96948">
        <ele>604.806640625</ele>
        <time>2010-09-26T12:18:34Z</time>
      </trkpt>
      <trkpt lat="43.58373" lon="2.96937">
        <ele>609.13256835938</ele>
        <time>2010-09-26T12:18:39Z</time>
      </trkpt>
      <trkpt lat="43.58375" lon="2.96933">
        <ele>608.65185546875</ele>
        <time>2010-09-26T12:18:42Z</time>
      </trkpt>
      <trkpt lat="43.58373" lon="2.96935">
        <ele>603.36450195312</ele>
        <time>2010-09-26T12:18:47Z</time>
      </trkpt>
      <trkpt lat="43.58367" lon="2.96937">
        <ele>602.40307617188</ele>
        <time>2010-09-26T12:18:51Z</time>
      </trkpt>
      <trkpt lat="43.58363" lon="2.96938">
        <ele>600.96118164062</ele>
        <time>2010-09-26T12:18:54Z</time>
      </trkpt>
      <trkpt lat="43.58361" lon="2.96936">
        <ele>597.11596679688</ele>
        <time>2010-09-26T12:18:58Z</time>
      </trkpt>
      <trkpt lat="43.58364" lon="2.96929">
        <ele>594.71264648438</ele>
        <time>2010-09-26T12:19:03Z</time>
      </trkpt>
      <trkpt lat="43.58363" lon="2.96918">
        <ele>591.34814453125</ele>
        <time>2010-09-26T12:19:13Z</time>
      </trkpt>
      <trkpt lat="43.58361" lon="2.96922">
        <ele>587.9833984375</ele>
        <time>2010-09-26T12:19:18Z</time>
      </trkpt>
      <trkpt lat="43.58358" lon="2.96922">
        <ele>585.099609375</ele>
        <time>2010-09-26T12:19:22Z</time>
      </trkpt>
      <trkpt lat="43.58357" lon="2.96917">
        <ele>582.6962890625</ele>
        <time>2010-09-26T12:19:26Z</time>
      </trkpt>
      <trkpt lat="43.58359" lon="2.9691">
        <ele>580.77368164062</ele>
        <time>2010-09-26T12:19:31Z</time>
      </trkpt>
      <trkpt lat="43.58357" lon="2.96911">
        <ele>579.81225585938</ele>
        <time>2010-09-26T12:19:35Z</time>
      </trkpt>
      <trkpt lat="43.58355" lon="2.96914">
        <ele>577.4091796875</ele>
        <time>2010-09-26T12:19:38Z</time>
      </trkpt>
      <trkpt lat="43.5835" lon="2.96917">
        <ele>577.4091796875</ele>
        <time>2010-09-26T12:19:42Z</time>
      </trkpt>
      <trkpt lat="43.58348" lon="2.96911">
        <ele>576.92846679688</ele>
        <time>2010-09-26T12:19:46Z</time>
      </trkpt>
      <trkpt lat="43.5835" lon="2.96906">
        <ele>575.96704101562</ele>
        <time>2010-09-26T12:19:49Z</time>
      </trkpt>
      <trkpt lat="43.58347" lon="2.96899">
        <ele>574.52514648438</ele>
        <time>2010-09-26T12:19:54Z</time>
      </trkpt>
      <trkpt lat="43.58345" lon="2.96902">
        <ele>573.56396484375</ele>
        <time>2010-09-26T12:19:58Z</time>
      </trkpt>
      <trkpt lat="43.58341" lon="2.96906">
        <ele>573.56396484375</ele>
        <time>2010-09-26T12:20:04Z</time>
      </trkpt>
      <trkpt lat="43.58339" lon="2.96901">
        <ele>572.12182617188</ele>
        <time>2010-09-26T12:20:09Z</time>
      </trkpt>
      <trkpt lat="43.58338" lon="2.96896">
        <ele>570.6796875</ele>
        <time>2010-09-26T12:20:13Z</time>
      </trkpt>
      <trkpt lat="43.58337" lon="2.9689">
        <ele>569.23779296875</ele>
        <time>2010-09-26T12:20:18Z</time>
      </trkpt>
      <trkpt lat="43.58337" lon="2.96887">
        <ele>568.2763671875</ele>
        <time>2010-09-26T12:20:20Z</time>
      </trkpt>
      <trkpt lat="43.58336" lon="2.9688">
        <ele>565.392578125</ele>
        <time>2010-09-26T12:20:23Z</time>
      </trkpt>
      <trkpt lat="43.58331" lon="2.96872">
        <ele>564.43115234375</ele>
        <time>2010-09-26T12:20:28Z</time>
      </trkpt>
      <trkpt lat="43.58327" lon="2.9686">
        <ele>556.74072265625</ele>
        <time>2010-09-26T12:20:34Z</time>
      </trkpt>
      <trkpt lat="43.58326" lon="2.96858">
        <ele>555.779296875</ele>
        <time>2010-09-26T12:20:35Z</time>
      </trkpt>
      <trkpt lat="43.58326" lon="2.96855">
        <ele>554.33740234375</ele>
        <time>2010-09-26T12:20:37Z</time>
      </trkpt>
      <trkpt lat="43.58325" lon="2.9685">
        <ele>551.45336914062</ele>
        <time>2010-09-26T12:20:40Z</time>
      </trkpt>
      <trkpt lat="43.58321" lon="2.96855">
        <ele>547.60815429688</ele>
        <time>2010-09-26T12:20:45Z</time>
      </trkpt>
      <trkpt lat="43.58321" lon="2.96857">
        <ele>547.60815429688</ele>
        <time>2010-09-26T12:20:46Z</time>
      </trkpt>
      <trkpt lat="43.5832" lon="2.96862">
        <ele>545.685546875</ele>
        <time>2010-09-26T12:20:48Z</time>
      </trkpt>
      <trkpt lat="43.58321" lon="2.9687">
        <ele>542.80151367188</ele>
        <time>2010-09-26T12:20:52Z</time>
      </trkpt>
      <trkpt lat="43.5832" lon="2.96875">
        <ele>541.35949707031</ele>
        <time>2010-09-26T12:20:55Z</time>
      </trkpt>
      <trkpt lat="43.58312" lon="2.96881">
        <ele>545.20483398438</ele>
        <time>2010-09-26T12:21:01Z</time>
      </trkpt>
      <trkpt lat="43.58307" lon="2.96883">
        <ele>547.60815429688</ele>
        <time>2010-09-26T12:21:04Z</time>
      </trkpt>
      <trkpt lat="43.58298" lon="2.96885">
        <ele>550.97265625</ele>
        <time>2010-09-26T12:21:09Z</time>
      </trkpt>
      <trkpt lat="43.58293" lon="2.96888">
        <ele>549.53076171875</ele>
        <time>2010-09-26T12:21:15Z</time>
      </trkpt>
      <trkpt lat="43.58293" lon="2.96879">
        <ele>550.4921875</ele>
        <time>2010-09-26T12:21:20Z</time>
      </trkpt>
      <trkpt lat="43.58295" lon="2.96873">
        <ele>545.20483398438</ele>
        <time>2010-09-26T12:21:25Z</time>
      </trkpt>
      <trkpt lat="43.5829" lon="2.96875">
        <ele>547.60815429688</ele>
        <time>2010-09-26T12:21:30Z</time>
      </trkpt>
      <trkpt lat="43.58288" lon="2.96875">
        <ele>548.0888671875</ele>
        <time>2010-09-26T12:21:31Z</time>
      </trkpt>
      <trkpt lat="43.58282" lon="2.96872">
        <ele>549.05004882812</ele>
        <time>2010-09-26T12:21:36Z</time>
      </trkpt>
      <trkpt lat="43.58278" lon="2.96875">
        <ele>549.05004882812</ele>
        <time>2010-09-26T12:21:39Z</time>
      </trkpt>
      <trkpt lat="43.58271" lon="2.96878">
        <ele>543.28210449219</ele>
        <time>2010-09-26T12:21:43Z</time>
      </trkpt>
      <trkpt lat="43.58268" lon="2.96881">
        <ele>538.47570800781</ele>
        <time>2010-09-26T12:21:47Z</time>
      </trkpt>
      <trkpt lat="43.58263" lon="2.96895">
        <ele>529.82373046875</ele>
        <time>2010-09-26T12:21:58Z</time>
      </trkpt>
      <trkpt lat="43.5826" lon="2.96904">
        <ele>526.93981933594</ele>
        <time>2010-09-26T12:22:04Z</time>
      </trkpt>
      <trkpt lat="43.58256" lon="2.96904">
        <ele>526.45910644531</ele>
        <time>2010-09-26T12:22:07Z</time>
      </trkpt>
      <trkpt lat="43.58247" lon="2.96908">
        <ele>523.5751953125</ele>
        <time>2010-09-26T12:22:13Z</time>
      </trkpt>
      <trkpt lat="43.58243" lon="2.96908">
        <ele>524.53649902344</ele>
        <time>2010-09-26T12:22:16Z</time>
      </trkpt>
      <trkpt lat="43.58237" lon="2.96907">
        <ele>523.09460449219</ele>
        <time>2010-09-26T12:22:21Z</time>
      </trkpt>
      <trkpt lat="43.58235" lon="2.96907">
        <ele>523.5751953125</ele>
        <time>2010-09-26T12:22:22Z</time>
      </trkpt>
      <trkpt lat="43.58231" lon="2.96911">
        <ele>523.5751953125</ele>
        <time>2010-09-26T12:22:26Z</time>
      </trkpt>
      <trkpt lat="43.58226" lon="2.96914">
        <ele>523.5751953125</ele>
        <time>2010-09-26T12:22:32Z</time>
      </trkpt>
      <trkpt lat="43.58223" lon="2.96916">
        <ele>523.09460449219</ele>
        <time>2010-09-26T12:22:35Z</time>
      </trkpt>
      <trkpt lat="43.58224" lon="2.96912">
        <ele>520.21057128906</ele>
        <time>2010-09-26T12:22:40Z</time>
      </trkpt>
      <trkpt lat="43.58224" lon="2.96908">
        <ele>517.80725097656</ele>
        <time>2010-09-26T12:22:44Z</time>
      </trkpt>
      <trkpt lat="43.5822" lon="2.9691">
        <ele>518.28784179688</ele>
        <time>2010-09-26T12:22:48Z</time>
      </trkpt>
      <trkpt lat="43.58216" lon="2.96909">
        <ele>516.365234375</ele>
        <time>2010-09-26T12:22:52Z</time>
      </trkpt>
      <trkpt lat="43.58215" lon="2.96909">
        <ele>512.03942871094</ele>
        <time>2010-09-26T12:22:56Z</time>
      </trkpt>
      <trkpt lat="43.58217" lon="2.96904">
        <ele>511.07800292969</ele>
        <time>2010-09-26T12:23:02Z</time>
      </trkpt>
      <trkpt lat="43.58215" lon="2.96904">
        <ele>511.07800292969</ele>
        <time>2010-09-26T12:23:03Z</time>
      </trkpt>
      <trkpt lat="43.58212" lon="2.96903">
        <ele>510.59729003906</ele>
        <time>2010-09-26T12:23:05Z</time>
      </trkpt>
      <trkpt lat="43.5821" lon="2.96904">
        <ele>510.11669921875</ele>
        <time>2010-09-26T12:23:07Z</time>
      </trkpt>
      <trkpt lat="43.58204" lon="2.96902">
        <ele>508.19409179688</ele>
        <time>2010-09-26T12:23:11Z</time>
      </trkpt>
      <trkpt lat="43.58191" lon="2.96899">
        <ele>508.67468261719</ele>
        <time>2010-09-26T12:23:17Z</time>
      </trkpt>
      <trkpt lat="43.58187" lon="2.96901">
        <ele>506.75207519531</ele>
        <time>2010-09-26T12:23:19Z</time>
      </trkpt>
      <trkpt lat="43.58178" lon="2.96903">
        <ele>503.38745117188</ele>
        <time>2010-09-26T12:23:24Z</time>
      </trkpt>
      <trkpt lat="43.58173" lon="2.96903">
        <ele>502.90673828125</ele>
        <time>2010-09-26T12:23:27Z</time>
      </trkpt>
      <trkpt lat="43.58164" lon="2.96903">
        <ele>502.42614746094</ele>
        <time>2010-09-26T12:23:32Z</time>
      </trkpt>
      <trkpt lat="43.58162" lon="2.96904">
        <ele>501.94555664062</ele>
        <time>2010-09-26T12:23:33Z</time>
      </trkpt>
      <trkpt lat="43.58152" lon="2.9691">
        <ele>502.90673828125</ele>
        <time>2010-09-26T12:23:39Z</time>
      </trkpt>
      <trkpt lat="43.58148" lon="2.96909">
        <ele>502.42614746094</ele>
        <time>2010-09-26T12:23:41Z</time>
      </trkpt>
      <trkpt lat="43.58142" lon="2.96911">
        <ele>500.02294921875</ele>
        <time>2010-09-26T12:23:46Z</time>
      </trkpt>
      <trkpt lat="43.58141" lon="2.96907">
        <ele>496.65832519531</ele>
        <time>2010-09-26T12:23:52Z</time>
      </trkpt>
      <trkpt lat="43.58142" lon="2.96901">
        <ele>493.77429199219</ele>
        <time>2010-09-26T12:23:57Z</time>
      </trkpt>
      <trkpt lat="43.58144" lon="2.96898">
        <ele>492.33239746094</ele>
        <time>2010-09-26T12:24:01Z</time>
      </trkpt>
      <trkpt lat="43.58146" lon="2.96894">
        <ele>491.85168457031</ele>
        <time>2010-09-26T12:24:05Z</time>
      </trkpt>
      <trkpt lat="43.58142" lon="2.96895">
        <ele>490.40979003906</ele>
        <time>2010-09-26T12:24:09Z</time>
      </trkpt>
      <trkpt lat="43.58141" lon="2.96895">
        <ele>489.92907714844</ele>
        <time>2010-09-26T12:24:10Z</time>
      </trkpt>
      <trkpt lat="43.58135" lon="2.96898">
        <ele>488.9677734375</ele>
        <time>2010-09-26T12:24:14Z</time>
      </trkpt>
      <trkpt lat="43.5813" lon="2.96895">
        <ele>488.48718261719</ele>
        <time>2010-09-26T12:24:19Z</time>
      </trkpt>
      <trkpt lat="43.58131" lon="2.96893">
        <ele>488.48718261719</ele>
        <time>2010-09-26T12:24:21Z</time>
      </trkpt>
      <trkpt lat="43.58135" lon="2.96888">
        <ele>485.60302734375</ele>
        <time>2010-09-26T12:24:26Z</time>
      </trkpt>
      <trkpt lat="43.58136" lon="2.96884">
        <ele>485.12243652344</ele>
        <time>2010-09-26T12:24:28Z</time>
      </trkpt>
      <trkpt lat="43.58139" lon="2.9688">
        <ele>483.68041992188</ele>
        <time>2010-09-26T12:24:32Z</time>
      </trkpt>
      <trkpt lat="43.58133" lon="2.96883">
        <ele>480.31591796875</ele>
        <time>2010-09-26T12:24:38Z</time>
      </trkpt>
      <trkpt lat="43.58131" lon="2.96884">
        <ele>478.87390136719</ele>
        <time>2010-09-26T12:24:39Z</time>
      </trkpt>
      <trkpt lat="43.58128" lon="2.96881">
        <ele>475.02868652344</ele>
        <time>2010-09-26T12:24:45Z</time>
      </trkpt>
      <trkpt lat="43.58131" lon="2.96877">
        <ele>474.54797363281</ele>
        <time>2010-09-26T12:24:49Z</time>
      </trkpt>
      <trkpt lat="43.58127" lon="2.96876">
        <ele>474.06726074219</ele>
        <time>2010-09-26T12:24:58Z</time>
      </trkpt>
      <trkpt lat="43.58125" lon="2.96877">
        <ele>474.06726074219</ele>
        <time>2010-09-26T12:24:59Z</time>
      </trkpt>
      <trkpt lat="43.58115" lon="2.96879">
        <ele>473.58666992188</ele>
        <time>2010-09-26T12:25:04Z</time>
      </trkpt>
      <trkpt lat="43.58104" lon="2.96877">
        <ele>473.58666992188</ele>
        <time>2010-09-26T12:25:09Z</time>
      </trkpt>
      <trkpt lat="43.58102" lon="2.96877">
        <ele>473.58666992188</ele>
        <time>2010-09-26T12:25:10Z</time>
      </trkpt>
      <trkpt lat="43.58096" lon="2.96876">
        <ele>472.14465332031</ele>
        <time>2010-09-26T12:25:15Z</time>
      </trkpt>
      <trkpt lat="43.58094" lon="2.96875">
        <ele>470.22192382812</ele>
        <time>2010-09-26T12:25:19Z</time>
      </trkpt>
      <trkpt lat="43.58098" lon="2.96875">
        <ele>468.29931640625</ele>
        <time>2010-09-26T12:25:23Z</time>
      </trkpt>
      <trkpt lat="43.58105" lon="2.96872">
        <ele>465.89611816406</ele>
        <time>2010-09-26T12:25:31Z</time>
      </trkpt>
      <trkpt lat="43.58114" lon="2.96869">
        <ele>463.49279785156</ele>
        <time>2010-09-26T12:25:37Z</time>
      </trkpt>
      <trkpt lat="43.58119" lon="2.96867">
        <ele>460.12817382812</ele>
        <time>2010-09-26T12:25:41Z</time>
      </trkpt>
      <trkpt lat="43.58122" lon="2.96865">
        <ele>460.60876464844</ele>
        <time>2010-09-26T12:25:44Z</time>
      </trkpt>
      <trkpt lat="43.58123" lon="2.96861">
        <ele>460.60876464844</ele>
        <time>2010-09-26T12:25:48Z</time>
      </trkpt>
      <trkpt lat="43.58113" lon="2.96859">
        <ele>463.01208496094</ele>
        <time>2010-09-26T12:25:55Z</time>
      </trkpt>
      <trkpt lat="43.58112" lon="2.96859">
        <ele>463.49279785156</ele>
        <time>2010-09-26T12:25:56Z</time>
      </trkpt>
      <trkpt lat="43.58104" lon="2.96856">
        <ele>464.93481445312</ele>
        <time>2010-09-26T12:26:00Z</time>
      </trkpt>
      <trkpt lat="43.58096" lon="2.96855">
        <ele>464.4541015625</ele>
        <time>2010-09-26T12:26:05Z</time>
      </trkpt>
      <trkpt lat="43.58091" lon="2.96852">
        <ele>462.53137207031</ele>
        <time>2010-09-26T12:26:09Z</time>
      </trkpt>
      <trkpt lat="43.58087" lon="2.96849">
        <ele>459.64758300781</ele>
        <time>2010-09-26T12:26:12Z</time>
      </trkpt>
      <trkpt lat="43.58085" lon="2.96846">
        <ele>459.16687011719</ele>
        <time>2010-09-26T12:26:14Z</time>
      </trkpt>
      <trkpt lat="43.5808" lon="2.96839">
        <ele>459.64758300781</ele>
        <time>2010-09-26T12:26:19Z</time>
      </trkpt>
      <trkpt lat="43.58078" lon="2.96836">
        <ele>457.24426269531</ele>
        <time>2010-09-26T12:26:22Z</time>
      </trkpt>
      <trkpt lat="43.58083" lon="2.96835">
        <ele>456.28295898438</ele>
        <time>2010-09-26T12:26:26Z</time>
      </trkpt>
      <trkpt lat="43.58089" lon="2.96836">
        <ele>454.36022949219</ele>
        <time>2010-09-26T12:26:30Z</time>
      </trkpt>
      <trkpt lat="43.58094" lon="2.96835">
        <ele>452.91821289062</ele>
        <time>2010-09-26T12:26:34Z</time>
      </trkpt>
      <trkpt lat="43.58091" lon="2.96829">
        <ele>450.03442382812</ele>
        <time>2010-09-26T12:26:40Z</time>
      </trkpt>
      <trkpt lat="43.5809" lon="2.96828">
        <ele>449.5537109375</ele>
        <time>2010-09-26T12:26:41Z</time>
      </trkpt>
      <trkpt lat="43.58087" lon="2.96823">
        <ele>446.66967773438</ele>
        <time>2010-09-26T12:26:46Z</time>
      </trkpt>
      <trkpt lat="43.58084" lon="2.96818">
        <ele>443.78576660156</ele>
        <time>2010-09-26T12:26:50Z</time>
      </trkpt>
      <trkpt lat="43.58083" lon="2.96814">
        <ele>443.30505371094</ele>
        <time>2010-09-26T12:26:54Z</time>
      </trkpt>
      <trkpt lat="43.58078" lon="2.96807">
        <ele>441.86315917969</ele>
        <time>2010-09-26T12:26:59Z</time>
      </trkpt>
      <trkpt lat="43.58078" lon="2.96805">
        <ele>441.86315917969</ele>
        <time>2010-09-26T12:27:00Z</time>
      </trkpt>
      <trkpt lat="43.58068" lon="2.96796">
        <ele>438.97912597656</ele>
        <time>2010-09-26T12:27:07Z</time>
      </trkpt>
      <trkpt lat="43.58064" lon="2.9679">
        <ele>437.537109375</ele>
        <time>2010-09-26T12:27:11Z</time>
      </trkpt>
      <trkpt lat="43.58055" lon="2.96786">
        <ele>438.01782226562</ele>
        <time>2010-09-26T12:27:16Z</time>
      </trkpt>
      <trkpt lat="43.58053" lon="2.96786">
        <ele>438.49853515625</ele>
        <time>2010-09-26T12:27:17Z</time>
      </trkpt>
      <trkpt lat="43.58047" lon="2.96789">
        <ele>437.05651855469</ele>
        <time>2010-09-26T12:27:22Z</time>
      </trkpt>
      <trkpt lat="43.58043" lon="2.96787">
        <ele>433.69189453125</ele>
        <time>2010-09-26T12:27:27Z</time>
      </trkpt>
      <trkpt lat="43.58044" lon="2.96786">
        <ele>432.73071289062</ele>
        <time>2010-09-26T12:27:28Z</time>
      </trkpt>
      <trkpt lat="43.58046" lon="2.96783">
        <ele>430.80798339844</ele>
        <time>2010-09-26T12:27:31Z</time>
      </trkpt>
      <trkpt lat="43.58049" lon="2.96777">
        <ele>426.96276855469</ele>
        <time>2010-09-26T12:27:36Z</time>
      </trkpt>
      <trkpt lat="43.58058" lon="2.96771">
        <ele>425.52075195312</ele>
        <time>2010-09-26T12:27:42Z</time>
      </trkpt>
      <trkpt lat="43.5806" lon="2.96771">
        <ele>425.52075195312</ele>
        <time>2010-09-26T12:27:44Z</time>
      </trkpt>
      <trkpt lat="43.58068" lon="2.96772">
        <ele>426.48205566406</ele>
        <time>2010-09-26T12:27:49Z</time>
      </trkpt>
      <trkpt lat="43.58071" lon="2.96772">
        <ele>426.48205566406</ele>
        <time>2010-09-26T12:27:51Z</time>
      </trkpt>
      <trkpt lat="43.58084" lon="2.96774">
        <ele>428.88537597656</ele>
        <time>2010-09-26T12:27:57Z</time>
      </trkpt>
      <trkpt lat="43.58093" lon="2.96777">
        <ele>431.28857421875</ele>
        <time>2010-09-26T12:28:01Z</time>
      </trkpt>
      <trkpt lat="43.58101" lon="2.96781">
        <ele>431.76916503906</ele>
        <time>2010-09-26T12:28:06Z</time>
      </trkpt>
      <trkpt lat="43.58103" lon="2.96781">
        <ele>430.80798339844</ele>
        <time>2010-09-26T12:28:09Z</time>
      </trkpt>
      <trkpt lat="43.58097" lon="2.9678">
        <ele>430.32727050781</ele>
        <time>2010-09-26T12:28:15Z</time>
      </trkpt>
      <trkpt lat="43.58093" lon="2.96778">
        <ele>429.36596679688</ele>
        <time>2010-09-26T12:28:19Z</time>
      </trkpt>
      <trkpt lat="43.58085" lon="2.96774">
        <ele>427.92395019531</ele>
        <time>2010-09-26T12:28:24Z</time>
      </trkpt>
      <trkpt lat="43.58081" lon="2.9677">
        <ele>427.92395019531</ele>
        <time>2010-09-26T12:28:27Z</time>
      </trkpt>
      <trkpt lat="43.58074" lon="2.96768">
        <ele>428.88537597656</ele>
        <time>2010-09-26T12:28:33Z</time>
      </trkpt>
      <trkpt lat="43.58069" lon="2.96768">
        <ele>428.88537597656</ele>
        <time>2010-09-26T12:28:37Z</time>
      </trkpt>
      <trkpt lat="43.58061" lon="2.96768">
        <ele>428.40466308594</ele>
        <time>2010-09-26T12:28:43Z</time>
      </trkpt>
      <trkpt lat="43.58054" lon="2.9677">
        <ele>430.32727050781</ele>
        <time>2010-09-26T12:28:49Z</time>
      </trkpt>
      <trkpt lat="43.58048" lon="2.96773">
        <ele>432.25</ele>
        <time>2010-09-26T12:28:56Z</time>
      </trkpt>
      <trkpt lat="43.58045" lon="2.9677">
        <ele>433.69189453125</ele>
        <time>2010-09-26T12:29:00Z</time>
      </trkpt>
      <trkpt lat="43.58041" lon="2.96769">
        <ele>432.73071289062</ele>
        <time>2010-09-26T12:29:04Z</time>
      </trkpt>
      <trkpt lat="43.58039" lon="2.96772">
        <ele>429.84655761719</ele>
        <time>2010-09-26T12:29:10Z</time>
      </trkpt>
      <trkpt lat="43.58032" lon="2.96774">
        <ele>429.84655761719</ele>
        <time>2010-09-26T12:29:15Z</time>
      </trkpt>
      <trkpt lat="43.58028" lon="2.96776">
        <ele>427.92395019531</ele>
        <time>2010-09-26T12:29:18Z</time>
      </trkpt>
      <trkpt lat="43.58022" lon="2.96779">
        <ele>425.04016113281</ele>
        <time>2010-09-26T12:29:23Z</time>
      </trkpt>
      <trkpt lat="43.5802" lon="2.9678">
        <ele>425.04016113281</ele>
        <time>2010-09-26T12:29:24Z</time>
      </trkpt>
      <trkpt lat="43.58011" lon="2.96783">
        <ele>423.11743164062</ele>
        <time>2010-09-26T12:29:30Z</time>
      </trkpt>
      <trkpt lat="43.58009" lon="2.96783">
        <ele>423.11743164062</ele>
        <time>2010-09-26T12:29:31Z</time>
      </trkpt>
      <trkpt lat="43.58003" lon="2.96785">
        <ele>426.48205566406</ele>
        <time>2010-09-26T12:29:37Z</time>
      </trkpt>
      <trkpt lat="43.57999" lon="2.96789">
        <ele>422.15600585938</ele>
        <time>2010-09-26T12:29:42Z</time>
      </trkpt>
      <trkpt lat="43.57999" lon="2.96793">
        <ele>422.15600585938</ele>
        <time>2010-09-26T12:29:44Z</time>
      </trkpt>
      <trkpt lat="43.57997" lon="2.96796">
        <ele>422.63671875</ele>
        <time>2010-09-26T12:29:46Z</time>
      </trkpt>
      <trkpt lat="43.57994" lon="2.968">
        <ele>419.27221679688</ele>
        <time>2010-09-26T12:29:51Z</time>
      </trkpt>
      <trkpt lat="43.57992" lon="2.96797">
        <ele>418.31079101562</ele>
        <time>2010-09-26T12:29:56Z</time>
      </trkpt>
      <trkpt lat="43.5799" lon="2.96791">
        <ele>415.42687988281</ele>
        <time>2010-09-26T12:30:01Z</time>
      </trkpt>
      <trkpt lat="43.57986" lon="2.96788">
        <ele>419.27221679688</ele>
        <time>2010-09-26T12:30:04Z</time>
      </trkpt>
      <trkpt lat="43.57982" lon="2.96786">
        <ele>420.2333984375</ele>
        <time>2010-09-26T12:30:08Z</time>
      </trkpt>
      <trkpt lat="43.57978" lon="2.96782">
        <ele>421.19482421875</ele>
        <time>2010-09-26T12:30:14Z</time>
      </trkpt>
      <trkpt lat="43.57978" lon="2.96777">
        <ele>417.83020019531</ele>
        <time>2010-09-26T12:31:17Z</time>
      </trkpt>
      <trkpt lat="43.57977" lon="2.96781">
        <ele>421.67541503906</ele>
        <time>2010-09-26T12:31:32Z</time>
      </trkpt>
      <trkpt lat="43.57977" lon="2.96786">
        <ele>420.71411132812</ele>
        <time>2010-09-26T12:31:36Z</time>
      </trkpt>
      <trkpt lat="43.57976" lon="2.9679">
        <ele>420.71411132812</ele>
        <time>2010-09-26T12:31:40Z</time>
      </trkpt>
      <trkpt lat="43.57976" lon="2.96794">
        <ele>420.2333984375</ele>
        <time>2010-09-26T12:31:44Z</time>
      </trkpt>
      <trkpt lat="43.57974" lon="2.96798">
        <ele>419.27221679688</ele>
        <time>2010-09-26T12:31:48Z</time>
      </trkpt>
      <trkpt lat="43.57972" lon="2.96802">
        <ele>419.27221679688</ele>
        <time>2010-09-26T12:31:51Z</time>
      </trkpt>
      <trkpt lat="43.57969" lon="2.96807">
        <ele>418.31079101562</ele>
        <time>2010-09-26T12:31:55Z</time>
      </trkpt>
      <trkpt lat="43.57963" lon="2.96812">
        <ele>416.86889648438</ele>
        <time>2010-09-26T12:32:01Z</time>
      </trkpt>
      <trkpt lat="43.57962" lon="2.96808">
        <ele>418.31079101562</ele>
        <time>2010-09-26T12:32:04Z</time>
      </trkpt>
      <trkpt lat="43.57962" lon="2.96804">
        <ele>418.31079101562</ele>
        <time>2010-09-26T12:32:08Z</time>
      </trkpt>
      <trkpt lat="43.57964" lon="2.968">
        <ele>414.94616699219</ele>
        <time>2010-09-26T12:32:12Z</time>
      </trkpt>
      <trkpt lat="43.57964" lon="2.96795">
        <ele>412.54284667969</ele>
        <time>2010-09-26T12:32:16Z</time>
      </trkpt>
      <trkpt lat="43.57962" lon="2.96796">
        <ele>412.06225585938</ele>
        <time>2010-09-26T12:32:20Z</time>
      </trkpt>
      <trkpt lat="43.57961" lon="2.968">
        <ele>411.58166503906</ele>
        <time>2010-09-26T12:32:22Z</time>
      </trkpt>
      <trkpt lat="43.57957" lon="2.96802">
        <ele>412.54284667969</ele>
        <time>2010-09-26T12:32:28Z</time>
      </trkpt>
      <trkpt lat="43.57954" lon="2.96799">
        <ele>416.38818359375</ele>
        <time>2010-09-26T12:32:32Z</time>
      </trkpt>
      <trkpt lat="43.57955" lon="2.96792">
        <ele>417.83020019531</ele>
        <time>2010-09-26T12:32:38Z</time>
      </trkpt>
      <trkpt lat="43.57955" lon="2.96792">
        <ele>417.349609375</ele>
        <time>2010-09-26T12:32:39Z</time>
      </trkpt>
      <trkpt lat="43.57952" lon="2.96796">
        <ele>417.349609375</ele>
        <time>2010-09-26T12:32:43Z</time>
      </trkpt>
      <trkpt lat="43.57948" lon="2.968">
        <ele>417.83020019531</ele>
        <time>2010-09-26T12:32:47Z</time>
      </trkpt>
      <trkpt lat="43.57944" lon="2.96803">
        <ele>419.27221679688</ele>
        <time>2010-09-26T12:32:50Z</time>
      </trkpt>
      <trkpt lat="43.57942" lon="2.96805">
        <ele>416.86889648438</ele>
        <time>2010-09-26T12:32:52Z</time>
      </trkpt>
      <trkpt lat="43.57936" lon="2.96809">
        <ele>419.75280761719</ele>
        <time>2010-09-26T12:32:57Z</time>
      </trkpt>
      <trkpt lat="43.5793" lon="2.96813">
        <ele>420.71411132812</ele>
        <time>2010-09-26T12:33:03Z</time>
      </trkpt>
      <trkpt lat="43.5793" lon="2.96814">
        <ele>402.44909667969</ele>
        <time>2010-09-26T12:33:08Z</time>
      </trkpt>
      <trkpt lat="43.57928" lon="2.9681">
        <ele>395.71984863281</ele>
        <time>2010-09-26T12:33:13Z</time>
      </trkpt>
      <trkpt lat="43.57926" lon="2.96815">
        <ele>388.99060058594</ele>
        <time>2010-09-26T12:33:20Z</time>
      </trkpt>
      <trkpt lat="43.57922" lon="2.96815">
        <ele>382.26135253906</ele>
        <time>2010-09-26T12:33:28Z</time>
      </trkpt>
      <trkpt lat="43.57919" lon="2.96817">
        <ele>376.97424316406</ele>
        <time>2010-09-26T12:33:33Z</time>
      </trkpt>
      <trkpt lat="43.57914" lon="2.9682">
        <ele>372.64819335938</ele>
        <time>2010-09-26T12:33:39Z</time>
      </trkpt>
      <trkpt lat="43.57911" lon="2.96822">
        <ele>370.7255859375</ele>
        <time>2010-09-26T12:33:43Z</time>
      </trkpt>
      <trkpt lat="43.57906" lon="2.96821">
        <ele>366.39953613281</ele>
        <time>2010-09-26T12:33:49Z</time>
      </trkpt>
      <trkpt lat="43.57903" lon="2.96812">
        <ele>363.03503417969</ele>
        <time>2010-09-26T12:34:02Z</time>
      </trkpt>
      <trkpt lat="43.57896" lon="2.96812">
        <ele>358.22839355469</ele>
        <time>2010-09-26T12:34:21Z</time>
      </trkpt>
      <trkpt lat="43.57897" lon="2.96808">
        <ele>355.8251953125</ele>
        <time>2010-09-26T12:34:26Z</time>
      </trkpt>
      <trkpt lat="43.57898" lon="2.96801">
        <ele>353.421875</ele>
        <time>2010-09-26T12:34:45Z</time>
      </trkpt>
      <trkpt lat="43.57893" lon="2.96799">
        <ele>351.01843261719</ele>
        <time>2010-09-26T12:34:52Z</time>
      </trkpt>
      <trkpt lat="43.57889" lon="2.96797">
        <ele>349.09582519531</ele>
        <time>2010-09-26T12:34:56Z</time>
      </trkpt>
      <trkpt lat="43.5789" lon="2.96796">
        <ele>349.09582519531</ele>
        <time>2010-09-26T12:34:59Z</time>
      </trkpt>
      <trkpt lat="43.57896" lon="2.96795">
        <ele>349.09582519531</ele>
        <time>2010-09-26T12:35:06Z</time>
      </trkpt>
      <trkpt lat="43.57892" lon="2.96793">
        <ele>351.97985839844</ele>
        <time>2010-09-26T12:35:13Z</time>
      </trkpt>
      <trkpt lat="43.57887" lon="2.96792">
        <ele>351.01843261719</ele>
        <time>2010-09-26T12:35:19Z</time>
      </trkpt>
      <trkpt lat="43.57882" lon="2.96794">
        <ele>347.65393066406</ele>
        <time>2010-09-26T12:35:23Z</time>
      </trkpt>
      <trkpt lat="43.57878" lon="2.96793">
        <ele>348.13464355469</ele>
        <time>2010-09-26T12:35:28Z</time>
      </trkpt>
      <trkpt lat="43.57875" lon="2.96794">
        <ele>348.13464355469</ele>
        <time>2010-09-26T12:35:32Z</time>
      </trkpt>
      <trkpt lat="43.57872" lon="2.96793">
        <ele>346.69262695312</ele>
        <time>2010-09-26T12:35:35Z</time>
      </trkpt>
      <trkpt lat="43.57867" lon="2.96787">
        <ele>350.53784179688</ele>
        <time>2010-09-26T12:35:42Z</time>
      </trkpt>
      <trkpt lat="43.57863" lon="2.96785">
        <ele>349.57653808594</ele>
        <time>2010-09-26T12:35:45Z</time>
      </trkpt>
      <trkpt lat="43.57853" lon="2.96784">
        <ele>346.21203613281</ele>
        <time>2010-09-26T12:35:53Z</time>
      </trkpt>
      <trkpt lat="43.57846" lon="2.96786">
        <ele>344.28942871094</ele>
        <time>2010-09-26T12:36:03Z</time>
      </trkpt>
      <trkpt lat="43.57843" lon="2.96785">
        <ele>343.80859375</ele>
        <time>2010-09-26T12:36:07Z</time>
      </trkpt>
      <trkpt lat="43.57838" lon="2.9678">
        <ele>346.69262695312</ele>
        <time>2010-09-26T12:36:12Z</time>
      </trkpt>
      <trkpt lat="43.57835" lon="2.9678">
        <ele>345.73132324219</ele>
        <time>2010-09-26T12:36:16Z</time>
      </trkpt>
      <trkpt lat="43.57831" lon="2.96784">
        <ele>347.65393066406</ele>
        <time>2010-09-26T12:36:20Z</time>
      </trkpt>
      <trkpt lat="43.57825" lon="2.96788">
        <ele>353.421875</ele>
        <time>2010-09-26T12:36:26Z</time>
      </trkpt>
      <trkpt lat="43.57824" lon="2.96789">
        <ele>351.01843261719</ele>
        <time>2010-09-26T12:36:28Z</time>
      </trkpt>
      <trkpt lat="43.57821" lon="2.96785">
        <ele>347.65393066406</ele>
        <time>2010-09-26T12:36:34Z</time>
      </trkpt>
      <trkpt lat="43.57819" lon="2.96779">
        <ele>345.25061035156</ele>
        <time>2010-09-26T12:36:39Z</time>
      </trkpt>
      <trkpt lat="43.57817" lon="2.96775">
        <ele>343.32788085938</ele>
        <time>2010-09-26T12:36:44Z</time>
      </trkpt>
      <trkpt lat="43.57813" lon="2.96776">
        <ele>342.36669921875</ele>
        <time>2010-09-26T12:36:49Z</time>
      </trkpt>
      <trkpt lat="43.57809" lon="2.96779">
        <ele>342.84729003906</ele>
        <time>2010-09-26T12:36:53Z</time>
      </trkpt>
      <trkpt lat="43.57805" lon="2.96788">
        <ele>342.36669921875</ele>
        <time>2010-09-26T12:37:02Z</time>
      </trkpt>
      <trkpt lat="43.57803" lon="2.9679">
        <ele>338.521484375</ele>
        <time>2010-09-26T12:37:06Z</time>
      </trkpt>
      <trkpt lat="43.57801" lon="2.96784">
        <ele>333.71472167969</ele>
        <time>2010-09-26T12:37:13Z</time>
      </trkpt>
      <trkpt lat="43.578" lon="2.96776">
        <ele>331.3115234375</ele>
        <time>2010-09-26T12:37:19Z</time>
      </trkpt>
      <trkpt lat="43.57802" lon="2.96774">
        <ele>328.90832519531</ele>
        <time>2010-09-26T12:37:22Z</time>
      </trkpt>
      <trkpt lat="43.57801" lon="2.96769">
        <ele>326.5048828125</ele>
        <time>2010-09-26T12:37:26Z</time>
      </trkpt>
      <trkpt lat="43.57798" lon="2.9677">
        <ele>324.1015625</ele>
        <time>2010-09-26T12:37:32Z</time>
      </trkpt>
      <trkpt lat="43.57795" lon="2.96773">
        <ele>321.2177734375</ele>
        <time>2010-09-26T12:37:36Z</time>
      </trkpt>
      <trkpt lat="43.57795" lon="2.96767">
        <ele>323.62097167969</ele>
        <time>2010-09-26T12:37:41Z</time>
      </trkpt>
      <trkpt lat="43.57792" lon="2.96769">
        <ele>321.69836425781</ele>
        <time>2010-09-26T12:37:47Z</time>
      </trkpt>
      <trkpt lat="43.57791" lon="2.9677">
        <ele>321.69836425781</ele>
        <time>2010-09-26T12:37:48Z</time>
      </trkpt>
      <trkpt lat="43.57788" lon="2.96776">
        <ele>320.25634765625</ele>
        <time>2010-09-26T12:37:53Z</time>
      </trkpt>
      <trkpt lat="43.57783" lon="2.9678">
        <ele>319.77563476562</ele>
        <time>2010-09-26T12:37:58Z</time>
      </trkpt>
      <trkpt lat="43.57778" lon="2.96781">
        <ele>320.25634765625</ele>
        <time>2010-09-26T12:38:02Z</time>
      </trkpt>
      <trkpt lat="43.57774" lon="2.96787">
        <ele>318.81433105469</ele>
        <time>2010-09-26T12:38:07Z</time>
      </trkpt>
      <trkpt lat="43.57774" lon="2.96788">
        <ele>317.85302734375</ele>
        <time>2010-09-26T12:38:08Z</time>
      </trkpt>
      <trkpt lat="43.57769" lon="2.96793">
        <ele>316.41101074219</ele>
        <time>2010-09-26T12:38:12Z</time>
      </trkpt>
      <trkpt lat="43.57766" lon="2.96795">
        <ele>315.93041992188</ele>
        <time>2010-09-26T12:38:14Z</time>
      </trkpt>
      <trkpt lat="43.57758" lon="2.96799">
        <ele>317.37243652344</ele>
        <time>2010-09-26T12:38:19Z</time>
      </trkpt>
      <trkpt lat="43.57751" lon="2.96799">
        <ele>316.41101074219</ele>
        <time>2010-09-26T12:38:27Z</time>
      </trkpt>
      <trkpt lat="43.57744" lon="2.96801">
        <ele>314.48840332031</ele>
        <time>2010-09-26T12:38:32Z</time>
      </trkpt>
      <trkpt lat="43.57743" lon="2.96801">
        <ele>314.0078125</ele>
        <time>2010-09-26T12:38:33Z</time>
      </trkpt>
      <trkpt lat="43.57738" lon="2.96801">
        <ele>311.6044921875</ele>
        <time>2010-09-26T12:38:39Z</time>
      </trkpt>
      <trkpt lat="43.57737" lon="2.968">
        <ele>311.6044921875</ele>
        <time>2010-09-26T12:38:40Z</time>
      </trkpt>
      <trkpt lat="43.57732" lon="2.96797">
        <ele>309.201171875</ele>
        <time>2010-09-26T12:38:46Z</time>
      </trkpt>
      <trkpt lat="43.5773" lon="2.96797">
        <ele>307.75927734375</ele>
        <time>2010-09-26T12:38:48Z</time>
      </trkpt>
      <trkpt lat="43.57724" lon="2.96791">
        <ele>308.23986816406</ele>
        <time>2010-09-26T12:38:53Z</time>
      </trkpt>
      <trkpt lat="43.57722" lon="2.9679">
        <ele>310.16247558594</ele>
        <time>2010-09-26T12:38:55Z</time>
      </trkpt>
      <trkpt lat="43.57716" lon="2.96793">
        <ele>307.75927734375</ele>
        <time>2010-09-26T12:39:01Z</time>
      </trkpt>
      <trkpt lat="43.57714" lon="2.96794">
        <ele>311.12377929688</ele>
        <time>2010-09-26T12:39:04Z</time>
      </trkpt>
      <trkpt lat="43.57712" lon="2.96791">
        <ele>310.64306640625</ele>
        <time>2010-09-26T12:39:07Z</time>
      </trkpt>
      <trkpt lat="43.57712" lon="2.96786">
        <ele>306.31726074219</ele>
        <time>2010-09-26T12:39:13Z</time>
      </trkpt>
      <trkpt lat="43.57713" lon="2.96782">
        <ele>301.99133300781</ele>
        <time>2010-09-26T12:39:18Z</time>
      </trkpt>
      <trkpt lat="43.57716" lon="2.9678">
        <ele>298.14611816406</ele>
        <time>2010-09-26T12:39:22Z</time>
      </trkpt>
      <trkpt lat="43.5772" lon="2.96778">
        <ele>298.14611816406</ele>
        <time>2010-09-26T12:39:29Z</time>
      </trkpt>
      <trkpt lat="43.5772" lon="2.96776">
        <ele>297.66540527344</ele>
        <time>2010-09-26T12:39:32Z</time>
      </trkpt>
      <trkpt lat="43.57721" lon="2.96775">
        <ele>302.95251464844</ele>
        <time>2010-09-26T12:40:24Z</time>
      </trkpt>
      <trkpt lat="43.57716" lon="2.96774">
        <ele>299.58801269531</ele>
        <time>2010-09-26T12:40:32Z</time>
      </trkpt>
      <trkpt lat="43.57712" lon="2.96774">
        <ele>298.62670898438</ele>
        <time>2010-09-26T12:40:37Z</time>
      </trkpt>
      <trkpt lat="43.57706" lon="2.96771">
        <ele>296.22351074219</ele>
        <time>2010-09-26T12:40:43Z</time>
      </trkpt>
      <trkpt lat="43.57704" lon="2.96771">
        <ele>296.22351074219</ele>
        <time>2010-09-26T12:40:45Z</time>
      </trkpt>
      <trkpt lat="43.57698" lon="2.96769">
        <ele>295.26196289062</ele>
        <time>2010-09-26T12:40:50Z</time>
      </trkpt>
      <trkpt lat="43.57692" lon="2.96766">
        <ele>292.37817382812</ele>
        <time>2010-09-26T12:40:56Z</time>
      </trkpt>
      <trkpt lat="43.5769" lon="2.96765">
        <ele>291.8974609375</ele>
        <time>2010-09-26T12:40:58Z</time>
      </trkpt>
      <trkpt lat="43.57685" lon="2.96759">
        <ele>288.53295898438</ele>
        <time>2010-09-26T12:41:02Z</time>
      </trkpt>
      <trkpt lat="43.57687" lon="2.96758">
        <ele>288.05224609375</ele>
        <time>2010-09-26T12:41:04Z</time>
      </trkpt>
      <trkpt lat="43.57691" lon="2.96754">
        <ele>285.16821289062</ele>
        <time>2010-09-26T12:41:09Z</time>
      </trkpt>
      <trkpt lat="43.57696" lon="2.9675">
        <ele>285.64880371094</ele>
        <time>2010-09-26T12:41:15Z</time>
      </trkpt>
      <trkpt lat="43.57694" lon="2.96749">
        <ele>287.0908203125</ele>
        <time>2010-09-26T12:41:19Z</time>
      </trkpt>
      <trkpt lat="43.5769" lon="2.96746">
        <ele>285.64880371094</ele>
        <time>2010-09-26T12:41:24Z</time>
      </trkpt>
      <trkpt lat="43.57686" lon="2.96743">
        <ele>282.28430175781</ele>
        <time>2010-09-26T12:41:30Z</time>
      </trkpt>
      <trkpt lat="43.57682" lon="2.96741">
        <ele>280.84240722656</ele>
        <time>2010-09-26T12:41:35Z</time>
      </trkpt>
      <trkpt lat="43.57679" lon="2.96738">
        <ele>280.36169433594</ele>
        <time>2010-09-26T12:41:40Z</time>
      </trkpt>
      <trkpt lat="43.57675" lon="2.96737">
        <ele>279.40026855469</ele>
        <time>2010-09-26T12:41:45Z</time>
      </trkpt>
      <trkpt lat="43.57672" lon="2.96734">
        <ele>276.51635742188</ele>
        <time>2010-09-26T12:41:50Z</time>
      </trkpt>
      <trkpt lat="43.57668" lon="2.96733">
        <ele>273.15185546875</ele>
        <time>2010-09-26T12:41:56Z</time>
      </trkpt>
      <trkpt lat="43.57666" lon="2.96727">
        <ele>276.03564453125</ele>
        <time>2010-09-26T12:42:08Z</time>
      </trkpt>
      <trkpt lat="43.57665" lon="2.96726">
        <ele>276.03564453125</ele>
        <time>2010-09-26T12:42:11Z</time>
      </trkpt>
      <trkpt lat="43.57669" lon="2.96724">
        <ele>276.51635742188</ele>
        <time>2010-09-26T12:42:17Z</time>
      </trkpt>
      <trkpt lat="43.57674" lon="2.96716">
        <ele>271.22912597656</ele>
        <time>2010-09-26T12:42:29Z</time>
      </trkpt>
      <trkpt lat="43.57678" lon="2.96712">
        <ele>268.34509277344</ele>
        <time>2010-09-26T12:42:34Z</time>
      </trkpt>
      <trkpt lat="43.57679" lon="2.96709">
        <ele>265.94189453125</ele>
        <time>2010-09-26T12:42:38Z</time>
      </trkpt>
      <trkpt lat="43.57682" lon="2.96706">
        <ele>264.01928710938</ele>
        <time>2010-09-26T12:42:44Z</time>
      </trkpt>
      <trkpt lat="43.57685" lon="2.96701">
        <ele>264.98059082031</ele>
        <time>2010-09-26T12:42:49Z</time>
      </trkpt>
      <trkpt lat="43.57689" lon="2.96696">
        <ele>266.90319824219</ele>
        <time>2010-09-26T12:42:55Z</time>
      </trkpt>
      <trkpt lat="43.57684" lon="2.96692">
        <ele>268.34509277344</ele>
        <time>2010-09-26T12:43:01Z</time>
      </trkpt>
      <trkpt lat="43.57682" lon="2.96692">
        <ele>267.86450195312</ele>
        <time>2010-09-26T12:43:05Z</time>
      </trkpt>
      <trkpt lat="43.57678" lon="2.96691">
        <ele>270.26770019531</ele>
        <time>2010-09-26T12:43:09Z</time>
      </trkpt>
      <trkpt lat="43.57679" lon="2.96685">
        <ele>265.46130371094</ele>
        <time>2010-09-26T12:43:16Z</time>
      </trkpt>
      <trkpt lat="43.57681" lon="2.96679">
        <ele>260.17395019531</ele>
        <time>2010-09-26T12:43:22Z</time>
      </trkpt>
      <trkpt lat="43.57682" lon="2.96673">
        <ele>252.00280761719</ele>
        <time>2010-09-26T12:43:28Z</time>
      </trkpt>
      <trkpt lat="43.5768" lon="2.96672">
        <ele>253.92541503906</ele>
        <time>2010-09-26T12:43:33Z</time>
      </trkpt>
      <trkpt lat="43.57676" lon="2.96674">
        <ele>254.88659667969</ele>
        <time>2010-09-26T12:43:39Z</time>
      </trkpt>
      <trkpt lat="43.57673" lon="2.96676">
        <ele>252.96398925781</ele>
        <time>2010-09-26T12:43:43Z</time>
      </trkpt>
      <trkpt lat="43.57668" lon="2.96677">
        <ele>249.59948730469</ele>
        <time>2010-09-26T12:43:50Z</time>
      </trkpt>
      <trkpt lat="43.57665" lon="2.96677">
        <ele>248.15759277344</ele>
        <time>2010-09-26T12:43:54Z</time>
      </trkpt>
      <trkpt lat="43.57661" lon="2.96674">
        <ele>247.6767578125</ele>
        <time>2010-09-26T12:43:59Z</time>
      </trkpt>
      <trkpt lat="43.57663" lon="2.96664">
        <ele>250.56079101562</ele>
        <time>2010-09-26T12:44:14Z</time>
      </trkpt>
      <trkpt lat="43.5766" lon="2.96663">
        <ele>252.00280761719</ele>
        <time>2010-09-26T12:44:21Z</time>
      </trkpt>
      <trkpt lat="43.57658" lon="2.96664">
        <ele>252.96398925781</ele>
        <time>2010-09-26T12:44:22Z</time>
      </trkpt>
      <trkpt lat="43.57654" lon="2.9666">
        <ele>256.32873535156</ele>
        <time>2010-09-26T12:44:27Z</time>
      </trkpt>
      <trkpt lat="43.57656" lon="2.9665">
        <ele>265.94189453125</ele>
        <time>2010-09-26T12:44:38Z</time>
      </trkpt>
      <trkpt lat="43.5766" lon="2.96647">
        <ele>267.38391113281</ele>
        <time>2010-09-26T12:44:43Z</time>
      </trkpt>
      <trkpt lat="43.57664" lon="2.96645">
        <ele>265.94189453125</ele>
        <time>2010-09-26T12:44:48Z</time>
      </trkpt>
      <trkpt lat="43.57669" lon="2.96643">
        <ele>266.90319824219</ele>
        <time>2010-09-26T12:44:54Z</time>
      </trkpt>
      <trkpt lat="43.57676" lon="2.96638">
        <ele>265.94189453125</ele>
        <time>2010-09-26T12:45:01Z</time>
      </trkpt>
      <trkpt lat="43.57676" lon="2.96634">
        <ele>262.5771484375</ele>
        <time>2010-09-26T12:45:09Z</time>
      </trkpt>
      <trkpt lat="43.57672" lon="2.96631">
        <ele>256.80932617188</ele>
        <time>2010-09-26T12:45:15Z</time>
      </trkpt>
      <trkpt lat="43.57665" lon="2.9663">
        <ele>251.04138183594</ele>
        <time>2010-09-26T12:45:26Z</time>
      </trkpt>
      <trkpt lat="43.57662" lon="2.9663">
        <ele>248.63818359375</ele>
        <time>2010-09-26T12:45:31Z</time>
      </trkpt>
      <trkpt lat="43.57659" lon="2.96632">
        <ele>248.63818359375</ele>
        <time>2010-09-26T12:45:35Z</time>
      </trkpt>
      <trkpt lat="43.57655" lon="2.96636">
        <ele>244.79284667969</ele>
        <time>2010-09-26T12:45:41Z</time>
      </trkpt>
      <trkpt lat="43.57652" lon="2.96637">
        <ele>244.31225585938</ele>
        <time>2010-09-26T12:45:45Z</time>
      </trkpt>
      <trkpt lat="43.57647" lon="2.96637">
        <ele>250.08020019531</ele>
        <time>2010-09-26T12:45:50Z</time>
      </trkpt>
      <trkpt lat="43.57645" lon="2.96637">
        <ele>256.80932617188</ele>
        <time>2010-09-26T12:45:56Z</time>
      </trkpt>
      <trkpt lat="43.5764" lon="2.96634">
        <ele>261.61596679688</ele>
        <time>2010-09-26T12:46:00Z</time>
      </trkpt>
      <trkpt lat="43.57635" lon="2.96636">
        <ele>265.46130371094</ele>
        <time>2010-09-26T12:46:05Z</time>
      </trkpt>
      <trkpt lat="43.57627" lon="2.96636">
        <ele>266.90319824219</ele>
        <time>2010-09-26T12:46:10Z</time>
      </trkpt>
      <trkpt lat="43.57621" lon="2.9664">
        <ele>268.34509277344</ele>
        <time>2010-09-26T12:46:17Z</time>
      </trkpt>
      <trkpt lat="43.57617" lon="2.96641">
        <ele>268.82580566406</ele>
        <time>2010-09-26T12:46:21Z</time>
      </trkpt>
      <trkpt lat="43.57613" lon="2.96641">
        <ele>268.82580566406</ele>
        <time>2010-09-26T12:46:25Z</time>
      </trkpt>
      <trkpt lat="43.57609" lon="2.96642">
        <ele>271.22912597656</ele>
        <time>2010-09-26T12:46:29Z</time>
      </trkpt>
      <trkpt lat="43.57605" lon="2.96642">
        <ele>272.1904296875</ele>
        <time>2010-09-26T12:46:33Z</time>
      </trkpt>
      <trkpt lat="43.57598" lon="2.96643">
        <ele>277.95825195312</ele>
        <time>2010-09-26T12:46:39Z</time>
      </trkpt>
      <trkpt lat="43.57593" lon="2.96643">
        <ele>287.0908203125</ele>
        <time>2010-09-26T12:46:44Z</time>
      </trkpt>
      <trkpt lat="43.5759" lon="2.96644">
        <ele>280.84240722656</ele>
        <time>2010-09-26T12:46:48Z</time>
      </trkpt>
      <trkpt lat="43.57586" lon="2.96643">
        <ele>274.11303710938</ele>
        <time>2010-09-26T12:46:53Z</time>
      </trkpt>
      <trkpt lat="43.57584" lon="2.96639">
        <ele>262.09655761719</ele>
        <time>2010-09-26T12:46:58Z</time>
      </trkpt>
      <trkpt lat="43.57581" lon="2.96637">
        <ele>256.80932617188</ele>
        <time>2010-09-26T12:47:03Z</time>
      </trkpt>
      <trkpt lat="43.57567" lon="2.96633">
        <ele>249.11877441406</ele>
        <time>2010-09-26T12:47:23Z</time>
      </trkpt>
      <trkpt lat="43.57562" lon="2.96639">
        <ele>242.3896484375</ele>
        <time>2010-09-26T12:47:30Z</time>
      </trkpt>
      <trkpt lat="43.57557" lon="2.96644">
        <ele>239.98620605469</ele>
        <time>2010-09-26T12:47:36Z</time>
      </trkpt>
      <trkpt lat="43.57555" lon="2.96644">
        <ele>237.58288574219</ele>
        <time>2010-09-26T12:47:39Z</time>
      </trkpt>
      <trkpt lat="43.57552" lon="2.96639">
        <ele>235.1796875</ele>
        <time>2010-09-26T12:47:43Z</time>
      </trkpt>
      <trkpt lat="43.57552" lon="2.96633">
        <ele>228.93115234375</ele>
        <time>2010-09-26T12:47:48Z</time>
      </trkpt>
      <trkpt lat="43.57552" lon="2.96631">
        <ele>223.64379882812</ele>
        <time>2010-09-26T12:47:54Z</time>
      </trkpt>
      <trkpt lat="43.5755" lon="2.96629">
        <ele>222.68249511719</ele>
        <time>2010-09-26T12:47:58Z</time>
      </trkpt>
      <trkpt lat="43.57545" lon="2.96624">
        <ele>219.31799316406</ele>
        <time>2010-09-26T12:48:06Z</time>
      </trkpt>
      <trkpt lat="43.5754" lon="2.96623">
        <ele>216.91467285156</ele>
        <time>2010-09-26T12:48:10Z</time>
      </trkpt>
      <trkpt lat="43.57524" lon="2.96629">
        <ele>220.27917480469</ele>
        <time>2010-09-26T12:48:22Z</time>
      </trkpt>
      <trkpt lat="43.57516" lon="2.9663">
        <ele>219.31799316406</ele>
        <time>2010-09-26T12:48:29Z</time>
      </trkpt>
      <trkpt lat="43.57508" lon="2.96631">
        <ele>219.79858398438</ele>
        <time>2010-09-26T12:48:36Z</time>
      </trkpt>
      <trkpt lat="43.57502" lon="2.96631">
        <ele>216.91467285156</ele>
        <time>2010-09-26T12:48:42Z</time>
      </trkpt>
      <trkpt lat="43.57492" lon="2.9664">
        <ele>220.27917480469</ele>
        <time>2010-09-26T12:48:50Z</time>
      </trkpt>
      <trkpt lat="43.57484" lon="2.96643">
        <ele>216.91467285156</ele>
        <time>2010-09-26T12:48:58Z</time>
      </trkpt>
      <trkpt lat="43.57479" lon="2.96647">
        <ele>212.58862304688</ele>
        <time>2010-09-26T12:49:04Z</time>
      </trkpt>
      <trkpt lat="43.57469" lon="2.96653">
        <ele>208.74340820312</ele>
        <time>2010-09-26T12:49:13Z</time>
      </trkpt>
      <trkpt lat="43.57458" lon="2.96657">
        <ele>209.22412109375</ele>
        <time>2010-09-26T12:49:22Z</time>
      </trkpt>
      <trkpt lat="43.5745" lon="2.96662">
        <ele>210.18542480469</ele>
        <time>2010-09-26T12:49:29Z</time>
      </trkpt>
      <trkpt lat="43.57443" lon="2.96666">
        <ele>209.22412109375</ele>
        <time>2010-09-26T12:49:36Z</time>
      </trkpt>
      <trkpt lat="43.57438" lon="2.96675">
        <ele>208.26281738281</ele>
        <time>2010-09-26T12:49:42Z</time>
      </trkpt>
      <trkpt lat="43.57435" lon="2.96682">
        <ele>208.74340820312</ele>
        <time>2010-09-26T12:49:46Z</time>
      </trkpt>
      <trkpt lat="43.57433" lon="2.96692">
        <ele>209.70483398438</ele>
        <time>2010-09-26T12:49:51Z</time>
      </trkpt>
      <trkpt lat="43.57429" lon="2.96696">
        <ele>209.70483398438</ele>
        <time>2010-09-26T12:49:55Z</time>
      </trkpt>
      <trkpt lat="43.57421" lon="2.96701">
        <ele>209.70483398438</ele>
        <time>2010-09-26T12:50:02Z</time>
      </trkpt>
      <trkpt lat="43.57408" lon="2.96707">
        <ele>211.14672851562</ele>
        <time>2010-09-26T12:50:11Z</time>
      </trkpt>
      <trkpt lat="43.57407" lon="2.96708">
        <ele>211.14672851562</ele>
        <time>2010-09-26T12:50:12Z</time>
      </trkpt>
      <trkpt lat="43.574" lon="2.96712">
        <ele>213.0693359375</ele>
        <time>2010-09-26T12:50:17Z</time>
      </trkpt>
      <trkpt lat="43.57389" lon="2.96713">
        <ele>211.62744140625</ele>
        <time>2010-09-26T12:50:25Z</time>
      </trkpt>
      <trkpt lat="43.57378" lon="2.96713">
        <ele>211.14672851562</ele>
        <time>2010-09-26T12:50:34Z</time>
      </trkpt>
      <trkpt lat="43.57371" lon="2.96716">
        <ele>209.70483398438</ele>
        <time>2010-09-26T12:50:40Z</time>
      </trkpt>
      <trkpt lat="43.57359" lon="2.96724">
        <ele>221.24060058594</ele>
        <time>2010-09-26T12:50:47Z</time>
      </trkpt>
      <trkpt lat="43.57357" lon="2.96725">
        <ele>222.68249511719</ele>
        <time>2010-09-26T12:50:48Z</time>
      </trkpt>
      <trkpt lat="43.57347" lon="2.9673">
        <ele>231.33435058594</ele>
        <time>2010-09-26T12:50:55Z</time>
      </trkpt>
      <trkpt lat="43.57339" lon="2.96729">
        <ele>230.373046875</ele>
        <time>2010-09-26T12:51:01Z</time>
      </trkpt>
      <trkpt lat="43.57336" lon="2.96727">
        <ele>225.0859375</ele>
        <time>2010-09-26T12:51:04Z</time>
      </trkpt>
    </trkseg>
  </trk>
</gpx>